<?xml version='1.0' encoding='UTF-8'?><gpx version="1.1" creator="JPX - https://github.com/jenetics/jpx" xmlns="http://www.topografix.com/GPX/1/1"><trk><trkseg><trkpt lat="45.7505953" lon="7.4305125"><ele>938.8333333333334</ele><time>2026-04-05T12:43:01.985Z</time></trkpt><trkpt lat="45.7505205" lon="7.4304706"><ele>938.6666666666667</ele><time>2026-04-05T12:43:37.906Z</time></trkpt><trkpt lat="45.7504984" lon="7.4303489"><ele>938.5</ele><time>2026-04-05T12:43:40.981Z</time></trkpt><trkpt lat="45.750434" lon="7.4302585"><ele>938.3333333333334</ele><time>2026-04-05T12:43:43.985Z</time></trkpt><trkpt lat="45.7503782" lon="7.4301654"><ele>938.1666666666667</ele><time>2026-04-05T12:43:46.983Z</time></trkpt><trkpt lat="45.7503453" lon="7.4300556"><ele>938.0</ele><time>2026-04-05T12:43:48.983Z</time></trkpt><trkpt lat="45.7503506" lon="7.4299242"><ele>938.0000000000001</ele><time>2026-04-05T12:43:50.99Z</time></trkpt><trkpt lat="45.7502796" lon="7.429905"><ele>938.0</ele><time>2026-04-05T12:43:52.982Z</time></trkpt><trkpt lat="45.750209" lon="7.4298643"><ele>938.0</ele><time>2026-04-05T12:43:54.976Z</time></trkpt><trkpt lat="45.750196" lon="7.4297543"><ele>938.0</ele><time>2026-04-05T12:43:56.982Z</time></trkpt><trkpt lat="45.7501953" lon="7.4296461"><ele>938.0000000000001</ele><time>2026-04-05T12:43:59.989Z</time></trkpt><trkpt lat="45.7502017" lon="7.4295203"><ele>938.0</ele><time>2026-04-05T12:44:02.987Z</time></trkpt><trkpt lat="45.7502276" lon="7.429402"><ele>939.0000000000001</ele><time>2026-04-05T12:44:05.982Z</time></trkpt><trkpt lat="45.7502493" lon="7.429297"><ele>940.0</ele><time>2026-04-05T12:44:08.988Z</time></trkpt><trkpt lat="45.7502235" lon="7.429181"><ele>941.0</ele><time>2026-04-05T12:44:11.987Z</time></trkpt><trkpt lat="45.7501659" lon="7.4291027"><ele>942.0</ele><time>2026-04-05T12:44:14.991Z</time></trkpt><trkpt lat="45.7501089" lon="7.4290058"><ele>943.0000000000001</ele><time>2026-04-05T12:44:17.99Z</time></trkpt><trkpt lat="45.7500711" lon="7.428895"><ele>944.0</ele><time>2026-04-05T12:44:20.98Z</time></trkpt><trkpt lat="45.7500715" lon="7.4287773"><ele>939.5000000000001</ele><time>2026-04-05T12:44:23.987Z</time></trkpt><trkpt lat="45.7500927" lon="7.4286538"><ele>935.0</ele><time>2026-04-05T12:44:26.988Z</time></trkpt><trkpt lat="45.7501156" lon="7.4285358"><ele>930.5</ele><time>2026-04-05T12:44:29.986Z</time></trkpt><trkpt lat="45.7501186" lon="7.428414"><ele>926.0</ele><time>2026-04-05T12:44:32.986Z</time></trkpt><trkpt lat="45.7501409" lon="7.4282919"><ele>921.5000000000001</ele><time>2026-04-05T12:44:35.987Z</time></trkpt><trkpt lat="45.7501474" lon="7.4281745"><ele>917.0</ele><time>2026-04-05T12:44:38.988Z</time></trkpt><trkpt lat="45.7501518" lon="7.4280579"><ele>917.0000000000001</ele><time>2026-04-05T12:44:41.982Z</time></trkpt><trkpt lat="45.7501641" lon="7.4279455"><ele>917.0</ele><time>2026-04-05T12:44:44.986Z</time></trkpt><trkpt lat="45.750221" lon="7.4278765"><ele>917.0</ele><time>2026-04-05T12:44:47.985Z</time></trkpt><trkpt lat="45.7502938" lon="7.4279305"><ele>917.0</ele><time>2026-04-05T12:44:50.989Z</time></trkpt><trkpt lat="45.7503132" lon="7.4280507"><ele>917.0000000000001</ele><time>2026-04-05T12:44:53.988Z</time></trkpt><trkpt lat="45.7503258" lon="7.4281658"><ele>917.0</ele><time>2026-04-05T12:44:56.996Z</time></trkpt><trkpt lat="45.7503615" lon="7.4282742"><ele>921.5000000000001</ele><time>2026-04-05T12:44:59.986Z</time></trkpt><trkpt lat="45.7503855" lon="7.4283842"><ele>926.0</ele><time>2026-04-05T12:45:02.99Z</time></trkpt><trkpt lat="45.750416" lon="7.4284966"><ele>930.5</ele><time>2026-04-05T12:45:05.993Z</time></trkpt><trkpt lat="45.7504386" lon="7.4286083"><ele>935.0</ele><time>2026-04-05T12:45:08.987Z</time></trkpt><trkpt lat="45.7504665" lon="7.4287175"><ele>939.5000000000001</ele><time>2026-04-05T12:45:11.987Z</time></trkpt><trkpt lat="45.7505047" lon="7.428827"><ele>944.0</ele><time>2026-04-05T12:45:14.988Z</time></trkpt><trkpt lat="45.7505247" lon="7.4289363"><ele>944.0000000000001</ele><time>2026-04-05T12:45:17.986Z</time></trkpt><trkpt lat="45.7505614" lon="7.4290426"><ele>944.0</ele><time>2026-04-05T12:45:20.982Z</time></trkpt><trkpt lat="45.7506027" lon="7.4291356"><ele>944.0</ele><time>2026-04-05T12:45:23.987Z</time></trkpt><trkpt lat="45.7506553" lon="7.4292145"><ele>944.0</ele><time>2026-04-05T12:45:26.993Z</time></trkpt><trkpt lat="45.7507018" lon="7.429319"><ele>944.0000000000001</ele><time>2026-04-05T12:45:29.989Z</time></trkpt><trkpt lat="45.7507526" lon="7.4294098"><ele>944.0</ele><time>2026-04-05T12:45:32.984Z</time></trkpt><trkpt lat="45.7507991" lon="7.4295073"><ele>944.0000000000001</ele><time>2026-04-05T12:45:35.99Z</time></trkpt><trkpt lat="45.7508253" lon="7.4296213"><ele>944.0</ele><time>2026-04-05T12:45:38.985Z</time></trkpt><trkpt lat="45.7508507" lon="7.4297103"><ele>944.0</ele><time>2026-04-05T12:45:40.987Z</time></trkpt><trkpt lat="45.7508691" lon="7.4298268"><ele>944.0</ele><time>2026-04-05T12:45:43.981Z</time></trkpt><trkpt lat="45.7509101" lon="7.4299309"><ele>944.0000000000001</ele><time>2026-04-05T12:45:46.981Z</time></trkpt><trkpt lat="45.7509248" lon="7.4300189"><ele>944.0</ele><time>2026-04-05T12:45:48.992Z</time></trkpt><trkpt lat="45.7509532" lon="7.4301286"><ele>943.0000000000001</ele><time>2026-04-05T12:45:51.982Z</time></trkpt><trkpt lat="45.7509859" lon="7.43023"><ele>942.0</ele><time>2026-04-05T12:45:54.99Z</time></trkpt><trkpt lat="45.7510196" lon="7.4303403"><ele>941.0</ele><time>2026-04-05T12:45:57.983Z</time></trkpt><trkpt lat="45.7510541" lon="7.4304536"><ele>940.0</ele><time>2026-04-05T12:46:00.982Z</time></trkpt><trkpt lat="45.7510597" lon="7.4305723"><ele>939.0000000000001</ele><time>2026-04-05T12:46:03.992Z</time></trkpt><trkpt lat="45.7510552" lon="7.4306839"><ele>938.0</ele><time>2026-04-05T12:46:06.992Z</time></trkpt><trkpt lat="45.7510513" lon="7.4308116"><ele>938.1666666666667</ele><time>2026-04-05T12:46:09.991Z</time></trkpt><trkpt lat="45.7510423" lon="7.4309236"><ele>938.3333333333334</ele><time>2026-04-05T12:46:12.984Z</time></trkpt><trkpt lat="45.7510229" lon="7.4310431"><ele>938.5</ele><time>2026-04-05T12:46:15.995Z</time></trkpt><trkpt lat="45.7510023" lon="7.4311591"><ele>938.6666666666667</ele><time>2026-04-05T12:46:18.99Z</time></trkpt><trkpt lat="45.7509824" lon="7.4312788"><ele>938.8333333333334</ele><time>2026-04-05T12:46:21.984Z</time></trkpt><trkpt lat="45.7509577" lon="7.4313805"><ele>939.0</ele><time>2026-04-05T12:46:24.99Z</time></trkpt><trkpt lat="45.7509313" lon="7.4314955"><ele>940.6666666666666</ele><time>2026-04-05T12:46:27.984Z</time></trkpt><trkpt lat="45.7508996" lon="7.4316154"><ele>942.3333333333333</ele><time>2026-04-05T12:46:30.981Z</time></trkpt><trkpt lat="45.7508803" lon="7.4317358"><ele>944.0</ele><time>2026-04-05T12:46:33.988Z</time></trkpt><trkpt lat="45.7508513" lon="7.4318426"><ele>945.6666666666666</ele><time>2026-04-05T12:46:36.98Z</time></trkpt><trkpt lat="45.7508268" lon="7.4319579"><ele>947.3333333333333</ele><time>2026-04-05T12:46:39.991Z</time></trkpt><trkpt lat="45.7508011" lon="7.4320786"><ele>949.0</ele><time>2026-04-05T12:46:42.984Z</time></trkpt><trkpt lat="45.7507788" lon="7.4321659"><ele>950.8333333333333</ele><time>2026-04-05T12:46:44.988Z</time></trkpt><trkpt lat="45.7507428" lon="7.4322887"><ele>952.6666666666666</ele><time>2026-04-05T12:46:47.991Z</time></trkpt><trkpt lat="45.7507252" lon="7.4323765"><ele>954.5</ele><time>2026-04-05T12:46:49.992Z</time></trkpt><trkpt lat="45.7507084" lon="7.4324919"><ele>956.3333333333333</ele><time>2026-04-05T12:46:52.992Z</time></trkpt><trkpt lat="45.7507001" lon="7.4325869"><ele>958.1666666666666</ele><time>2026-04-05T12:46:54.988Z</time></trkpt><trkpt lat="45.7506885" lon="7.4327234"><ele>960.0</ele><time>2026-04-05T12:46:57.984Z</time></trkpt><trkpt lat="45.7506867" lon="7.4328187"><ele>960.0</ele><time>2026-04-05T12:46:59.983Z</time></trkpt><trkpt lat="45.750687" lon="7.4329168"><ele>960.0</ele><time>2026-04-05T12:47:01.981Z</time></trkpt><trkpt lat="45.7506818" lon="7.4330524"><ele>960.0</ele><time>2026-04-05T12:47:04.979Z</time></trkpt><trkpt lat="45.7506727" lon="7.4331857"><ele>960.0</ele><time>2026-04-05T12:47:07.989Z</time></trkpt><trkpt lat="45.7506505" lon="7.4332737"><ele>960.0</ele><time>2026-04-05T12:47:09.987Z</time></trkpt><trkpt lat="45.7506234" lon="7.4333594"><ele>960.0</ele><time>2026-04-05T12:47:11.992Z</time></trkpt><trkpt lat="45.7505932" lon="7.4334398"><ele>961.8333333333334</ele><time>2026-04-05T12:47:13.989Z</time></trkpt><trkpt lat="45.7505393" lon="7.4335443"><ele>963.6666666666667</ele><time>2026-04-05T12:47:16.986Z</time></trkpt><trkpt lat="45.7504955" lon="7.4336466"><ele>965.5</ele><time>2026-04-05T12:47:19.989Z</time></trkpt><trkpt lat="45.7504582" lon="7.4337478"><ele>967.3333333333334</ele><time>2026-04-05T12:47:22.989Z</time></trkpt><trkpt lat="45.7504319" lon="7.4338568"><ele>969.1666666666667</ele><time>2026-04-05T12:47:25.987Z</time></trkpt><trkpt lat="45.7504116" lon="7.4339677"><ele>971.0</ele><time>2026-04-05T12:47:28.996Z</time></trkpt><trkpt lat="45.7503932" lon="7.4340841"><ele>973.0000000000001</ele><time>2026-04-05T12:47:31.988Z</time></trkpt><trkpt lat="45.7503874" lon="7.4342128"><ele>975.0</ele><time>2026-04-05T12:47:34.993Z</time></trkpt><trkpt lat="45.7503933" lon="7.4343365"><ele>977.0</ele><time>2026-04-05T12:47:37.983Z</time></trkpt><trkpt lat="45.750404" lon="7.434439"><ele>979.0</ele><time>2026-04-05T12:47:40.99Z</time></trkpt><trkpt lat="45.7504212" lon="7.4345514"><ele>981.0000000000001</ele><time>2026-04-05T12:47:43.992Z</time></trkpt><trkpt lat="45.7504284" lon="7.4346638"><ele>983.0</ele><time>2026-04-05T12:47:46.993Z</time></trkpt><trkpt lat="45.7504393" lon="7.4347895"><ele>984.5000000000001</ele><time>2026-04-05T12:47:49.991Z</time></trkpt><trkpt lat="45.7504295" lon="7.4349176"><ele>986.0</ele><time>2026-04-05T12:47:52.987Z</time></trkpt><trkpt lat="45.7504067" lon="7.4350366"><ele>987.5</ele><time>2026-04-05T12:47:55.994Z</time></trkpt><trkpt lat="45.7503754" lon="7.4351334"><ele>989.0</ele><time>2026-04-05T12:47:58.993Z</time></trkpt><trkpt lat="45.7503474" lon="7.4352197"><ele>990.5000000000001</ele><time>2026-04-05T12:48:01.985Z</time></trkpt><trkpt lat="45.7503236" lon="7.4353159"><ele>992.0</ele><time>2026-04-05T12:48:04.995Z</time></trkpt><trkpt lat="45.7502986" lon="7.4354208"><ele>993.1428571428572</ele><time>2026-04-05T12:48:07.993Z</time></trkpt><trkpt lat="45.7502764" lon="7.4355192"><ele>994.2857142857144</ele><time>2026-04-05T12:48:10.993Z</time></trkpt><trkpt lat="45.7502522" lon="7.4356188"><ele>995.4285714285714</ele><time>2026-04-05T12:48:13.984Z</time></trkpt><trkpt lat="45.7502209" lon="7.4357167"><ele>996.5714285714287</ele><time>2026-04-05T12:48:16.985Z</time></trkpt><trkpt lat="45.7501894" lon="7.4358145"><ele>997.7142857142858</ele><time>2026-04-05T12:48:20Z</time></trkpt><trkpt lat="45.750157" lon="7.4359085"><ele>998.8571428571429</ele><time>2026-04-05T12:48:22.986Z</time></trkpt><trkpt lat="45.7501279" lon="7.4360023"><ele>1000.0</ele><time>2026-04-05T12:48:25.991Z</time></trkpt><trkpt lat="45.7501021" lon="7.4361"><ele>996.6666666666666</ele><time>2026-04-05T12:48:28.993Z</time></trkpt><trkpt lat="45.7500912" lon="7.4362012"><ele>993.3333333333333</ele><time>2026-04-05T12:48:31.991Z</time></trkpt><trkpt lat="45.7500773" lon="7.4363139"><ele>990.0</ele><time>2026-04-05T12:48:34.987Z</time></trkpt><trkpt lat="45.7500657" lon="7.4364211"><ele>986.6666666666667</ele><time>2026-04-05T12:48:37.991Z</time></trkpt><trkpt lat="45.7500343" lon="7.4365255"><ele>983.3333333333334</ele><time>2026-04-05T12:48:40.988Z</time></trkpt><trkpt lat="45.7499902" lon="7.4366059"><ele>980.0</ele><time>2026-04-05T12:48:43.995Z</time></trkpt><trkpt lat="45.7499393" lon="7.4366935"><ele>980.0</ele><time>2026-04-05T12:48:46.988Z</time></trkpt><trkpt lat="45.7499012" lon="7.4367874"><ele>980.0</ele><time>2026-04-05T12:48:49.999Z</time></trkpt><trkpt lat="45.7498878" lon="7.4368982"><ele>980.0</ele><time>2026-04-05T12:48:53Z</time></trkpt><trkpt lat="45.7498756" lon="7.4370078"><ele>980.0</ele><time>2026-04-05T12:48:55.998Z</time></trkpt><trkpt lat="45.74987" lon="7.4371144"><ele>980.0</ele><time>2026-04-05T12:48:58.991Z</time></trkpt><trkpt lat="45.7498707" lon="7.4372154"><ele>980.0</ele><time>2026-04-05T12:49:01.987Z</time></trkpt><trkpt lat="45.7498525" lon="7.4373154"><ele>980.0</ele><time>2026-04-05T12:49:04.987Z</time></trkpt><trkpt lat="45.7498315" lon="7.4374183"><ele>982.0000000000001</ele><time>2026-04-05T12:49:07.995Z</time></trkpt><trkpt lat="45.7497903" lon="7.4375135"><ele>984.0</ele><time>2026-04-05T12:49:10.995Z</time></trkpt><trkpt lat="45.7497518" lon="7.4376111"><ele>986.0</ele><time>2026-04-05T12:49:13.989Z</time></trkpt><trkpt lat="45.7497145" lon="7.4377034"><ele>988.0</ele><time>2026-04-05T12:49:16.996Z</time></trkpt><trkpt lat="45.7496758" lon="7.4377985"><ele>990.0000000000001</ele><time>2026-04-05T12:49:19.99Z</time></trkpt><trkpt lat="45.7496436" lon="7.4378985"><ele>992.0</ele><time>2026-04-05T12:49:22.99Z</time></trkpt><trkpt lat="45.7496215" lon="7.4380035"><ele>994.3333333333334</ele><time>2026-04-05T12:49:25.991Z</time></trkpt><trkpt lat="45.7496023" lon="7.4381045"><ele>996.6666666666667</ele><time>2026-04-05T12:49:28.995Z</time></trkpt><trkpt lat="45.749576" lon="7.4382087"><ele>999.0</ele><time>2026-04-05T12:49:31.985Z</time></trkpt><trkpt lat="45.7495521" lon="7.4383099"><ele>1001.3333333333333</ele><time>2026-04-05T12:49:34.984Z</time></trkpt><trkpt lat="45.7495255" lon="7.4384175"><ele>1003.6666666666666</ele><time>2026-04-05T12:49:37.985Z</time></trkpt><trkpt lat="45.7494969" lon="7.4385117"><ele>1006.0</ele><time>2026-04-05T12:49:40.993Z</time></trkpt><trkpt lat="45.7494642" lon="7.4386066"><ele>1005.9999999999999</ele><time>2026-04-05T12:49:43.988Z</time></trkpt><trkpt lat="45.7494349" lon="7.4387099"><ele>1006.0</ele><time>2026-04-05T12:49:46.993Z</time></trkpt><trkpt lat="45.7494034" lon="7.4388117"><ele>1006.0</ele><time>2026-04-05T12:49:49.994Z</time></trkpt><trkpt lat="45.7493723" lon="7.4389168"><ele>1006.0</ele><time>2026-04-05T12:49:52.993Z</time></trkpt><trkpt lat="45.7493478" lon="7.4390225"><ele>1005.9999999999999</ele><time>2026-04-05T12:49:55.989Z</time></trkpt><trkpt lat="45.749324" lon="7.4391225"><ele>1006.0</ele><time>2026-04-05T12:49:58.983Z</time></trkpt><trkpt lat="45.7493025" lon="7.4392265"><ele>1004.6666666666666</ele><time>2026-04-05T12:50:01.995Z</time></trkpt><trkpt lat="45.7492757" lon="7.4393394"><ele>1003.3333333333333</ele><time>2026-04-05T12:50:04.993Z</time></trkpt><trkpt lat="45.7492653" lon="7.4394509"><ele>1002.0</ele><time>2026-04-05T12:50:07.991Z</time></trkpt><trkpt lat="45.7492468" lon="7.4395519"><ele>1000.6666666666667</ele><time>2026-04-05T12:50:10.988Z</time></trkpt><trkpt lat="45.7492363" lon="7.4396632"><ele>999.3333333333334</ele><time>2026-04-05T12:50:13.99Z</time></trkpt><trkpt lat="45.7492264" lon="7.4397685"><ele>998.0</ele><time>2026-04-05T12:50:16.992Z</time></trkpt><trkpt lat="45.7492148" lon="7.4398784"><ele>998.0000000000001</ele><time>2026-04-05T12:50:19.989Z</time></trkpt><trkpt lat="45.7492047" lon="7.4399954"><ele>998.0</ele><time>2026-04-05T12:50:22.992Z</time></trkpt><trkpt lat="45.7491907" lon="7.4401003"><ele>998.0</ele><time>2026-04-05T12:50:25.994Z</time></trkpt><trkpt lat="45.7491827" lon="7.4402153"><ele>998.0</ele><time>2026-04-05T12:50:28.997Z</time></trkpt><trkpt lat="45.7491684" lon="7.4403221"><ele>998.0000000000001</ele><time>2026-04-05T12:50:31.989Z</time></trkpt><trkpt lat="45.7491613" lon="7.4404317"><ele>998.0</ele><time>2026-04-05T12:50:34.988Z</time></trkpt><trkpt lat="45.7491522" lon="7.4405437"><ele>998.8333333333334</ele><time>2026-04-05T12:50:38.001Z</time></trkpt><trkpt lat="45.7491448" lon="7.4406569"><ele>999.6666666666667</ele><time>2026-04-05T12:50:40.991Z</time></trkpt><trkpt lat="45.749139" lon="7.4407587"><ele>1000.5</ele><time>2026-04-05T12:50:43.994Z</time></trkpt><trkpt lat="45.7491384" lon="7.4408656"><ele>1001.3333333333333</ele><time>2026-04-05T12:50:46.994Z</time></trkpt><trkpt lat="45.7491613" lon="7.4409775"><ele>1002.1666666666666</ele><time>2026-04-05T12:50:49.986Z</time></trkpt><trkpt lat="45.7491847" lon="7.4410744"><ele>1003.0</ele><time>2026-04-05T12:50:52.991Z</time></trkpt><trkpt lat="45.7492214" lon="7.4411692"><ele>1003.0</ele><time>2026-04-05T12:50:55.997Z</time></trkpt><trkpt lat="45.7492564" lon="7.4412645"><ele>1002.9999999999999</ele><time>2026-04-05T12:50:58.989Z</time></trkpt><trkpt lat="45.7492912" lon="7.4413629"><ele>1003.0</ele><time>2026-04-05T12:51:01.987Z</time></trkpt><trkpt lat="45.7493276" lon="7.4414497"><ele>1003.0</ele><time>2026-04-05T12:51:04.994Z</time></trkpt><trkpt lat="45.7493632" lon="7.441553"><ele>1002.9999999999999</ele><time>2026-04-05T12:51:07.993Z</time></trkpt><trkpt lat="45.7493864" lon="7.4416556"><ele>1003.0</ele><time>2026-04-05T12:51:10.994Z</time></trkpt><trkpt lat="45.7494069" lon="7.4417514"><ele>1003.0</ele><time>2026-04-05T12:51:13.987Z</time></trkpt><trkpt lat="45.749422" lon="7.4418598"><ele>1009.4999999999999</ele><time>2026-04-05T12:51:16.988Z</time></trkpt><trkpt lat="45.7494237" lon="7.4419798"><ele>1016.0</ele><time>2026-04-05T12:51:19.995Z</time></trkpt><trkpt lat="45.7494272" lon="7.4420915"><ele>1022.5</ele><time>2026-04-05T12:51:22.988Z</time></trkpt><trkpt lat="45.7494266" lon="7.4422061"><ele>1029.0</ele><time>2026-04-05T12:51:25.994Z</time></trkpt><trkpt lat="45.749419" lon="7.4423115"><ele>1035.5</ele><time>2026-04-05T12:51:28.988Z</time></trkpt><trkpt lat="45.7494079" lon="7.4424233"><ele>1042.0</ele><time>2026-04-05T12:51:31.994Z</time></trkpt><trkpt lat="45.749387" lon="7.442524"><ele>1039.0</ele><time>2026-04-05T12:51:34.988Z</time></trkpt><trkpt lat="45.749361" lon="7.4426256"><ele>1036.0</ele><time>2026-04-05T12:51:37.998Z</time></trkpt><trkpt lat="45.7493328" lon="7.4427253"><ele>1033.0</ele><time>2026-04-05T12:51:40.99Z</time></trkpt><trkpt lat="45.7493146" lon="7.4428225"><ele>1030.0</ele><time>2026-04-05T12:51:44.001Z</time></trkpt><trkpt lat="45.7492979" lon="7.4429291"><ele>1027.0</ele><time>2026-04-05T12:51:46.991Z</time></trkpt><trkpt lat="45.749283" lon="7.4430272"><ele>1024.0</ele><time>2026-04-05T12:51:49.991Z</time></trkpt><trkpt lat="45.7492734" lon="7.4431335"><ele>1021.0</ele><time>2026-04-05T12:51:52.995Z</time></trkpt><trkpt lat="45.7492622" lon="7.4432428"><ele>1020.9999999999999</ele><time>2026-04-05T12:51:55.998Z</time></trkpt><trkpt lat="45.7492527" lon="7.4433541"><ele>1021.0</ele><time>2026-04-05T12:51:58.984Z</time></trkpt><trkpt lat="45.7492469" lon="7.4434659"><ele>1021.0</ele><time>2026-04-05T12:52:01.99Z</time></trkpt><trkpt lat="45.7492361" lon="7.4435723"><ele>1021.0</ele><time>2026-04-05T12:52:04.994Z</time></trkpt><trkpt lat="45.7492297" lon="7.4436767"><ele>1020.9999999999999</ele><time>2026-04-05T12:52:07.989Z</time></trkpt><trkpt lat="45.7492228" lon="7.4437769"><ele>1021.0</ele><time>2026-04-05T12:52:10.985Z</time></trkpt><trkpt lat="45.7492064" lon="7.443887"><ele>1021.6666666666666</ele><time>2026-04-05T12:52:13.997Z</time></trkpt><trkpt lat="45.7492007" lon="7.4440058"><ele>1022.3333333333333</ele><time>2026-04-05T12:52:16.997Z</time></trkpt><trkpt lat="45.7492109" lon="7.444124"><ele>1023.0</ele><time>2026-04-05T12:52:19.991Z</time></trkpt><trkpt lat="45.7492271" lon="7.444234"><ele>1023.6666666666667</ele><time>2026-04-05T12:52:22.989Z</time></trkpt><trkpt lat="45.7492494" lon="7.4443441"><ele>1024.3333333333335</ele><time>2026-04-05T12:52:25.997Z</time></trkpt><trkpt lat="45.7492773" lon="7.4444554"><ele>1025.0</ele><time>2026-04-05T12:52:28.99Z</time></trkpt><trkpt lat="45.7492981" lon="7.4445589"><ele>1024.3333333333335</ele><time>2026-04-05T12:52:32.001Z</time></trkpt><trkpt lat="45.7493222" lon="7.444669"><ele>1023.6666666666667</ele><time>2026-04-05T12:52:34.993Z</time></trkpt><trkpt lat="45.7493431" lon="7.4447733"><ele>1023.0</ele><time>2026-04-05T12:52:37.995Z</time></trkpt><trkpt lat="45.7493678" lon="7.4448777"><ele>1022.3333333333333</ele><time>2026-04-05T12:52:40.996Z</time></trkpt><trkpt lat="45.7493966" lon="7.4449881"><ele>1021.6666666666666</ele><time>2026-04-05T12:52:43.995Z</time></trkpt><trkpt lat="45.7494241" lon="7.4450936"><ele>1021.0</ele><time>2026-04-05T12:52:46.987Z</time></trkpt><trkpt lat="45.74945" lon="7.4452019"><ele>1025.5</ele><time>2026-04-05T12:52:50.003Z</time></trkpt><trkpt lat="45.7494733" lon="7.4453082"><ele>1030.0</ele><time>2026-04-05T12:52:52.992Z</time></trkpt><trkpt lat="45.7495065" lon="7.4454101"><ele>1034.5</ele><time>2026-04-05T12:52:55.997Z</time></trkpt><trkpt lat="45.749535" lon="7.4455182"><ele>1039.0</ele><time>2026-04-05T12:52:58.992Z</time></trkpt><trkpt lat="45.7495824" lon="7.445609"><ele>1043.5</ele><time>2026-04-05T12:53:01.992Z</time></trkpt><trkpt lat="45.7496312" lon="7.4456811"><ele>1048.0</ele><time>2026-04-05T12:53:04.991Z</time></trkpt><trkpt lat="45.7496925" lon="7.4457523"><ele>1048.0</ele><time>2026-04-05T12:53:07.992Z</time></trkpt><trkpt lat="45.7497604" lon="7.4458166"><ele>1048.0</ele><time>2026-04-05T12:53:10.992Z</time></trkpt><trkpt lat="45.7498209" lon="7.4458874"><ele>1048.0</ele><time>2026-04-05T12:53:13.99Z</time></trkpt><trkpt lat="45.7498728" lon="7.4459664"><ele>1048.0</ele><time>2026-04-05T12:53:16.991Z</time></trkpt><trkpt lat="45.7499144" lon="7.4460556"><ele>1048.0</ele><time>2026-04-05T12:53:19.989Z</time></trkpt><trkpt lat="45.7499414" lon="7.4461636"><ele>1048.0</ele><time>2026-04-05T12:53:22.99Z</time></trkpt><trkpt lat="45.7499498" lon="7.4462731"><ele>1047.5714285714287</ele><time>2026-04-05T12:53:25.998Z</time></trkpt><trkpt lat="45.7499516" lon="7.4463768"><ele>1047.1428571428573</ele><time>2026-04-05T12:53:28.986Z</time></trkpt><trkpt lat="45.7499461" lon="7.4464829"><ele>1046.7142857142858</ele><time>2026-04-05T12:53:31.989Z</time></trkpt><trkpt lat="45.7499387" lon="7.4465952"><ele>1046.2857142857142</ele><time>2026-04-05T12:53:34.99Z</time></trkpt><trkpt lat="45.7499386" lon="7.4466974"><ele>1045.8571428571427</ele><time>2026-04-05T12:53:37.996Z</time></trkpt><trkpt lat="45.7499337" lon="7.446797"><ele>1045.4285714285713</ele><time>2026-04-05T12:53:40.983Z</time></trkpt><trkpt lat="45.7499356" lon="7.4468991"><ele>1045.0</ele><time>2026-04-05T12:53:43.985Z</time></trkpt><trkpt lat="45.7499568" lon="7.4470084"><ele>1045.0</ele><time>2026-04-05T12:53:46.994Z</time></trkpt><trkpt lat="45.7500221" lon="7.4470843"><ele>1045.0</ele><time>2026-04-05T12:53:49.995Z</time></trkpt><trkpt lat="45.7500984" lon="7.4471115"><ele>1045.0</ele><time>2026-04-05T12:53:52.991Z</time></trkpt><trkpt lat="45.7501743" lon="7.4470969"><ele>1045.0</ele><time>2026-04-05T12:53:55.994Z</time></trkpt><trkpt lat="45.7502434" lon="7.4470367"><ele>1045.0</ele><time>2026-04-05T12:53:58.994Z</time></trkpt><trkpt lat="45.7502946" lon="7.4469481"><ele>1045.0</ele><time>2026-04-05T12:54:01.994Z</time></trkpt><trkpt lat="45.7503221" lon="7.4468376"><ele>1045.6666666666665</ele><time>2026-04-05T12:54:04.994Z</time></trkpt><trkpt lat="45.7503467" lon="7.446731"><ele>1046.3333333333333</ele><time>2026-04-05T12:54:07.992Z</time></trkpt><trkpt lat="45.7503652" lon="7.4466228"><ele>1047.0</ele><time>2026-04-05T12:54:10.983Z</time></trkpt><trkpt lat="45.7503853" lon="7.4465244"><ele>1047.6666666666667</ele><time>2026-04-05T12:54:13.99Z</time></trkpt><trkpt lat="45.7504083" lon="7.4464211"><ele>1048.3333333333335</ele><time>2026-04-05T12:54:16.993Z</time></trkpt><trkpt lat="45.7504328" lon="7.4463192"><ele>1049.0</ele><time>2026-04-05T12:54:19.995Z</time></trkpt><trkpt lat="45.750446" lon="7.4462169"><ele>1050.6666666666667</ele><time>2026-04-05T12:54:22.995Z</time></trkpt><trkpt lat="45.7504673" lon="7.4461057"><ele>1052.3333333333335</ele><time>2026-04-05T12:54:25.991Z</time></trkpt><trkpt lat="45.7504929" lon="7.4459987"><ele>1054.0</ele><time>2026-04-05T12:54:28.993Z</time></trkpt><trkpt lat="45.7505278" lon="7.445897"><ele>1055.6666666666667</ele><time>2026-04-05T12:54:31.99Z</time></trkpt><trkpt lat="45.7505681" lon="7.4458064"><ele>1057.3333333333333</ele><time>2026-04-05T12:54:34.992Z</time></trkpt><trkpt lat="45.7506282" lon="7.4457234"><ele>1059.0</ele><time>2026-04-05T12:54:37.992Z</time></trkpt><trkpt lat="45.7507008" lon="7.4456807"><ele>1059.0</ele><time>2026-04-05T12:54:40.988Z</time></trkpt><trkpt lat="45.7507734" lon="7.4456815"><ele>1059.0</ele><time>2026-04-05T12:54:43.993Z</time></trkpt><trkpt lat="45.7508506" lon="7.4456854"><ele>1059.0</ele><time>2026-04-05T12:54:46.998Z</time></trkpt><trkpt lat="45.7509294" lon="7.4456873"><ele>1059.0</ele><time>2026-04-05T12:54:49.987Z</time></trkpt><trkpt lat="45.7510103" lon="7.4456931"><ele>1059.0</ele><time>2026-04-05T12:54:52.986Z</time></trkpt><trkpt lat="45.7510925" lon="7.4456935"><ele>1059.0</ele><time>2026-04-05T12:54:55.987Z</time></trkpt><trkpt lat="45.7511758" lon="7.4457035"><ele>1061.0</ele><time>2026-04-05T12:54:58.988Z</time></trkpt><trkpt lat="45.7512561" lon="7.4457117"><ele>1063.0</ele><time>2026-04-05T12:55:01.984Z</time></trkpt><trkpt lat="45.7513365" lon="7.445717"><ele>1065.0</ele><time>2026-04-05T12:55:04.987Z</time></trkpt><trkpt lat="45.7514206" lon="7.4457269"><ele>1067.0</ele><time>2026-04-05T12:55:07.99Z</time></trkpt><trkpt lat="45.7515022" lon="7.4457584"><ele>1069.0</ele><time>2026-04-05T12:55:10.996Z</time></trkpt><trkpt lat="45.7515824" lon="7.4457927"><ele>1071.0</ele><time>2026-04-05T12:55:13.988Z</time></trkpt><trkpt lat="45.7516574" lon="7.4458339"><ele>1071.0</ele><time>2026-04-05T12:55:16.987Z</time></trkpt><trkpt lat="45.7517361" lon="7.4458748"><ele>1071.0</ele><time>2026-04-05T12:55:19.998Z</time></trkpt><trkpt lat="45.7518084" lon="7.4459243"><ele>1071.0</ele><time>2026-04-05T12:55:22.989Z</time></trkpt><trkpt lat="45.7518796" lon="7.4459798"><ele>1071.0</ele><time>2026-04-05T12:55:25.996Z</time></trkpt><trkpt lat="45.7519488" lon="7.446032"><ele>1071.0</ele><time>2026-04-05T12:55:28.992Z</time></trkpt><trkpt lat="45.7520124" lon="7.4460858"><ele>1071.0</ele><time>2026-04-05T12:55:31.99Z</time></trkpt><trkpt lat="45.752081" lon="7.4461421"><ele>1072.5</ele><time>2026-04-05T12:55:34.993Z</time></trkpt><trkpt lat="45.75215" lon="7.4461698"><ele>1074.0</ele><time>2026-04-05T12:55:37.995Z</time></trkpt><trkpt lat="45.7522292" lon="7.4461689"><ele>1075.5</ele><time>2026-04-05T12:55:40.994Z</time></trkpt><trkpt lat="45.7522973" lon="7.4461421"><ele>1077.0</ele><time>2026-04-05T12:55:43.995Z</time></trkpt><trkpt lat="45.7523556" lon="7.4461067"><ele>1078.5</ele><time>2026-04-05T12:55:45.998Z</time></trkpt><trkpt lat="45.7524338" lon="7.4460523"><ele>1080.0</ele><time>2026-04-05T12:55:48.984Z</time></trkpt><trkpt lat="45.7525145" lon="7.4459959"><ele>1080.0</ele><time>2026-04-05T12:55:51.991Z</time></trkpt><trkpt lat="45.7525895" lon="7.4459424"><ele>1080.0</ele><time>2026-04-05T12:55:54.983Z</time></trkpt><trkpt lat="45.7526723" lon="7.4458898"><ele>1080.0</ele><time>2026-04-05T12:55:57.991Z</time></trkpt><trkpt lat="45.7527514" lon="7.4458403"><ele>1080.0</ele><time>2026-04-05T12:56:00.992Z</time></trkpt><trkpt lat="45.7528432" lon="7.4458038"><ele>1080.0</ele><time>2026-04-05T12:56:03.988Z</time></trkpt><trkpt lat="45.7529255" lon="7.445777"><ele>1080.0</ele><time>2026-04-05T12:56:06.987Z</time></trkpt><trkpt lat="45.7530182" lon="7.4457697"><ele>1080.1666666666667</ele><time>2026-04-05T12:56:09.989Z</time></trkpt><trkpt lat="45.7531075" lon="7.4457831"><ele>1080.3333333333333</ele><time>2026-04-05T12:56:12.992Z</time></trkpt><trkpt lat="45.7531938" lon="7.4458178"><ele>1080.5</ele><time>2026-04-05T12:56:15.986Z</time></trkpt><trkpt lat="45.7532806" lon="7.4458364"><ele>1080.6666666666665</ele><time>2026-04-05T12:56:18.985Z</time></trkpt><trkpt lat="45.7533663" lon="7.4458432"><ele>1080.8333333333333</ele><time>2026-04-05T12:56:21.991Z</time></trkpt><trkpt lat="45.7534552" lon="7.4458175"><ele>1081.0</ele><time>2026-04-05T12:56:24.991Z</time></trkpt><trkpt lat="45.7535344" lon="7.445782"><ele>1083.0</ele><time>2026-04-05T12:56:27.983Z</time></trkpt><trkpt lat="45.7536068" lon="7.4457357"><ele>1085.0</ele><time>2026-04-05T12:56:30.984Z</time></trkpt><trkpt lat="45.7536808" lon="7.4456899"><ele>1087.0</ele><time>2026-04-05T12:56:33.994Z</time></trkpt><trkpt lat="45.7537537" lon="7.4456401"><ele>1089.0</ele><time>2026-04-05T12:56:37.996Z</time></trkpt><trkpt lat="45.7538219" lon="7.445597"><ele>1091.0</ele><time>2026-04-05T12:56:41.998Z</time></trkpt><trkpt lat="45.7538973" lon="7.4455661"><ele>1093.0</ele><time>2026-04-05T12:56:45.989Z</time></trkpt><trkpt lat="45.7539692" lon="7.4455503"><ele>1093.0</ele><time>2026-04-05T12:56:49.984Z</time></trkpt><trkpt lat="45.7540387" lon="7.4455462"><ele>1093.0</ele><time>2026-04-05T12:56:53.986Z</time></trkpt><trkpt lat="45.7541103" lon="7.4455592"><ele>1093.0</ele><time>2026-04-05T12:56:57.992Z</time></trkpt><trkpt lat="45.7541805" lon="7.4455762"><ele>1093.0</ele><time>2026-04-05T12:57:01.994Z</time></trkpt><trkpt lat="45.7542464" lon="7.4456048"><ele>1093.0</ele><time>2026-04-05T12:57:05.991Z</time></trkpt><trkpt lat="45.754316" lon="7.4456322"><ele>1093.0</ele><time>2026-04-05T12:57:09.991Z</time></trkpt><trkpt lat="45.7543755" lon="7.4456765"><ele>1093.0</ele><time>2026-04-05T12:57:13.986Z</time></trkpt><trkpt lat="45.7544493" lon="7.4457098"><ele>1095.5714285714287</ele><time>2026-04-05T12:57:18.995Z</time></trkpt><trkpt lat="45.7545129" lon="7.4457392"><ele>1098.142857142857</ele><time>2026-04-05T12:57:22.993Z</time></trkpt><trkpt lat="45.7545721" lon="7.4457801"><ele>1100.7142857142858</ele><time>2026-04-05T12:57:26.989Z</time></trkpt><trkpt lat="45.7546338" lon="7.4458194"><ele>1103.2857142857142</ele><time>2026-04-05T12:57:30.995Z</time></trkpt><trkpt lat="45.7547026" lon="7.4458379"><ele>1105.857142857143</ele><time>2026-04-05T12:57:34.984Z</time></trkpt><trkpt lat="45.7547775" lon="7.44586"><ele>1108.4285714285716</ele><time>2026-04-05T12:57:39.99Z</time></trkpt><trkpt lat="45.7548459" lon="7.4458763"><ele>1111.0</ele><time>2026-04-05T12:57:43.991Z</time></trkpt><trkpt lat="45.7549083" lon="7.4458952"><ele>1111.0</ele><time>2026-04-05T12:57:47.998Z</time></trkpt><trkpt lat="45.7549709" lon="7.4459186"><ele>1111.0</ele><time>2026-04-05T12:57:51.99Z</time></trkpt><trkpt lat="45.7550282" lon="7.4459659"><ele>1111.0</ele><time>2026-04-05T12:57:55.992Z</time></trkpt><trkpt lat="45.7550948" lon="7.4459996"><ele>1111.0</ele><time>2026-04-05T12:57:59.988Z</time></trkpt><trkpt lat="45.7551643" lon="7.4459916"><ele>1111.0</ele><time>2026-04-05T12:58:03.993Z</time></trkpt><trkpt lat="45.7552357" lon="7.4459727"><ele>1111.0</ele><time>2026-04-05T12:58:08.982Z</time></trkpt><trkpt lat="45.7553065" lon="7.4459627"><ele>1111.0</ele><time>2026-04-05T12:58:13.993Z</time></trkpt><trkpt lat="45.7553728" lon="7.4459474"><ele>1113.4285714285716</ele><time>2026-04-05T12:58:18.986Z</time></trkpt><trkpt lat="45.7554483" lon="7.4459384"><ele>1115.857142857143</ele><time>2026-04-05T12:58:23.989Z</time></trkpt><trkpt lat="45.7555258" lon="7.4459089"><ele>1118.2857142857142</ele><time>2026-04-05T12:58:28.991Z</time></trkpt><trkpt lat="45.7555896" lon="7.4458604"><ele>1120.7142857142858</ele><time>2026-04-05T12:58:33.99Z</time></trkpt><trkpt lat="45.7556539" lon="7.4458132"><ele>1123.142857142857</ele><time>2026-04-05T12:58:38.987Z</time></trkpt><trkpt lat="45.7557107" lon="7.4457394"><ele>1125.5714285714287</ele><time>2026-04-05T12:58:43.986Z</time></trkpt><trkpt lat="45.7557531" lon="7.4456689"><ele>1128.0</ele><time>2026-04-05T12:58:47.988Z</time></trkpt><trkpt lat="45.7558196" lon="7.4456076"><ele>1128.0</ele><time>2026-04-05T12:58:52.988Z</time></trkpt><trkpt lat="45.7558841" lon="7.4455602"><ele>1128.0</ele><time>2026-04-05T12:58:57.992Z</time></trkpt><trkpt lat="45.7559465" lon="7.4455247"><ele>1128.0</ele><time>2026-04-05T12:59:01.989Z</time></trkpt><trkpt lat="45.756007" lon="7.4454746"><ele>1128.0</ele><time>2026-04-05T12:59:05.986Z</time></trkpt><trkpt lat="45.7560765" lon="7.4454377"><ele>1128.0</ele><time>2026-04-05T12:59:10.992Z</time></trkpt><trkpt lat="45.7561394" lon="7.4453977"><ele>1128.0</ele><time>2026-04-05T12:59:14.994Z</time></trkpt><trkpt lat="45.7561954" lon="7.4453413"><ele>1128.0</ele><time>2026-04-05T12:59:18.991Z</time></trkpt><trkpt lat="45.756269" lon="7.4452993"><ele>1131.1666666666667</ele><time>2026-04-05T12:59:22.993Z</time></trkpt><trkpt lat="45.7563428" lon="7.4452568"><ele>1134.3333333333333</ele><time>2026-04-05T12:59:26.989Z</time></trkpt><trkpt lat="45.7564103" lon="7.4452252"><ele>1137.5</ele><time>2026-04-05T12:59:30.988Z</time></trkpt><trkpt lat="45.7564789" lon="7.4451915"><ele>1140.6666666666665</ele><time>2026-04-05T12:59:34.984Z</time></trkpt><trkpt lat="45.7565511" lon="7.4451693"><ele>1143.8333333333333</ele><time>2026-04-05T12:59:38.986Z</time></trkpt><trkpt lat="45.756631" lon="7.4451701"><ele>1147.0</ele><time>2026-04-05T12:59:42.988Z</time></trkpt><trkpt lat="45.7567095" lon="7.4451888"><ele>1147.0</ele><time>2026-04-05T12:59:46.987Z</time></trkpt><trkpt lat="45.7567825" lon="7.4452206"><ele>1147.0</ele><time>2026-04-05T12:59:50.992Z</time></trkpt><trkpt lat="45.7568512" lon="7.4452553"><ele>1147.0</ele><time>2026-04-05T12:59:54.997Z</time></trkpt><trkpt lat="45.7569196" lon="7.4452863"><ele>1147.0</ele><time>2026-04-05T12:59:58.993Z</time></trkpt><trkpt lat="45.7569909" lon="7.4453125"><ele>1147.0</ele><time>2026-04-05T13:00:02.99Z</time></trkpt><trkpt lat="45.7570641" lon="7.4453483"><ele>1147.0</ele><time>2026-04-05T13:00:06.996Z</time></trkpt><trkpt lat="45.7571378" lon="7.4453903"><ele>1146.1666666666665</ele><time>2026-04-05T13:00:10.989Z</time></trkpt><trkpt lat="45.7572108" lon="7.445425"><ele>1145.3333333333333</ele><time>2026-04-05T13:00:14.996Z</time></trkpt><trkpt lat="45.7572868" lon="7.4454413"><ele>1144.5</ele><time>2026-04-05T13:00:18.989Z</time></trkpt><trkpt lat="45.7573661" lon="7.4454491"><ele>1143.6666666666667</ele><time>2026-04-05T13:00:22.998Z</time></trkpt><trkpt lat="45.7574448" lon="7.4454636"><ele>1142.8333333333335</ele><time>2026-04-05T13:00:26.986Z</time></trkpt><trkpt lat="45.757521" lon="7.4454783"><ele>1142.0</ele><time>2026-04-05T13:00:30.993Z</time></trkpt><trkpt lat="45.7575908" lon="7.4455106"><ele>1142.0</ele><time>2026-04-05T13:00:34.992Z</time></trkpt><trkpt lat="45.757659" lon="7.4455614"><ele>1142.0</ele><time>2026-04-05T13:00:38.987Z</time></trkpt><trkpt lat="45.7577293" lon="7.4456252"><ele>1142.0</ele><time>2026-04-05T13:00:42.992Z</time></trkpt><trkpt lat="45.7577958" lon="7.4456982"><ele>1142.0</ele><time>2026-04-05T13:00:46.993Z</time></trkpt><trkpt lat="45.7578652" lon="7.4457677"><ele>1142.0</ele><time>2026-04-05T13:00:50.988Z</time></trkpt><trkpt lat="45.7579233" lon="7.4458485"><ele>1142.0</ele><time>2026-04-05T13:00:54.995Z</time></trkpt><trkpt lat="45.7579804" lon="7.4459341"><ele>1142.4285714285716</ele><time>2026-04-05T13:00:58.99Z</time></trkpt><trkpt lat="45.7580276" lon="7.4460013"><ele>1142.857142857143</ele><time>2026-04-05T13:01:01.991Z</time></trkpt><trkpt lat="45.7580851" lon="7.4460675"><ele>1143.2857142857142</ele><time>2026-04-05T13:01:04.993Z</time></trkpt><trkpt lat="45.7581405" lon="7.4461279"><ele>1143.7142857142858</ele><time>2026-04-05T13:01:07.991Z</time></trkpt><trkpt lat="45.758202" lon="7.4461913"><ele>1144.142857142857</ele><time>2026-04-05T13:01:10.986Z</time></trkpt><trkpt lat="45.7582659" lon="7.4462518"><ele>1144.5714285714287</ele><time>2026-04-05T13:01:13.991Z</time></trkpt><trkpt lat="45.7583271" lon="7.4463028"><ele>1145.0</ele><time>2026-04-05T13:01:16.989Z</time></trkpt><trkpt lat="45.7583909" lon="7.4463406"><ele>1145.0000000000002</ele><time>2026-04-05T13:01:19.993Z</time></trkpt><trkpt lat="45.7584658" lon="7.4463524"><ele>1145.0</ele><time>2026-04-05T13:01:22.99Z</time></trkpt><trkpt lat="45.7585397" lon="7.4463414"><ele>1145.0</ele><time>2026-04-05T13:01:25.993Z</time></trkpt><trkpt lat="45.758613" lon="7.4463446"><ele>1145.0</ele><time>2026-04-05T13:01:28.987Z</time></trkpt><trkpt lat="45.758686" lon="7.4463523"><ele>1145.0</ele><time>2026-04-05T13:01:31.983Z</time></trkpt><trkpt lat="45.7587492" lon="7.4463805"><ele>1145.0000000000002</ele><time>2026-04-05T13:01:34.987Z</time></trkpt><trkpt lat="45.7588072" lon="7.4464322"><ele>1145.0</ele><time>2026-04-05T13:01:37.989Z</time></trkpt><trkpt lat="45.7588543" lon="7.4464964"><ele>1147.5714285714287</ele><time>2026-04-05T13:01:40.988Z</time></trkpt><trkpt lat="45.7589093" lon="7.4465614"><ele>1150.142857142857</ele><time>2026-04-05T13:01:43.995Z</time></trkpt><trkpt lat="45.7589649" lon="7.4466295"><ele>1152.7142857142858</ele><time>2026-04-05T13:01:46.994Z</time></trkpt><trkpt lat="45.7590057" lon="7.4467026"><ele>1155.2857142857142</ele><time>2026-04-05T13:01:49.995Z</time></trkpt><trkpt lat="45.7590574" lon="7.4467768"><ele>1157.857142857143</ele><time>2026-04-05T13:01:52.987Z</time></trkpt><trkpt lat="45.7590967" lon="7.446868"><ele>1160.4285714285716</ele><time>2026-04-05T13:01:55.992Z</time></trkpt><trkpt lat="45.7591372" lon="7.4469521"><ele>1163.0</ele><time>2026-04-05T13:01:58.989Z</time></trkpt><trkpt lat="45.7591815" lon="7.4470328"><ele>1163.0</ele><time>2026-04-05T13:02:01.999Z</time></trkpt><trkpt lat="45.759229" lon="7.4471191"><ele>1163.0</ele><time>2026-04-05T13:02:05.997Z</time></trkpt><trkpt lat="45.7592967" lon="7.4470986"><ele>1163.0</ele><time>2026-04-05T13:02:10.995Z</time></trkpt><trkpt lat="45.7592713" lon="7.4469874"><ele>1163.0</ele><time>2026-04-05T13:02:14.991Z</time></trkpt><trkpt lat="45.7592601" lon="7.446876"><ele>1163.0</ele><time>2026-04-05T13:02:18.991Z</time></trkpt><trkpt lat="45.7592454" lon="7.4467875"><ele>1163.0</ele><time>2026-04-05T13:02:21.991Z</time></trkpt><trkpt lat="45.7592254" lon="7.4466802"><ele>1163.0</ele><time>2026-04-05T13:02:25.99Z</time></trkpt><trkpt lat="45.7592126" lon="7.446576"><ele>1163.0</ele><time>2026-04-05T13:02:29.994Z</time></trkpt><trkpt lat="45.7591946" lon="7.4464769"><ele>1163.0</ele><time>2026-04-05T13:02:33.997Z</time></trkpt><trkpt lat="45.7591634" lon="7.4463763"><ele>1163.0</ele><time>2026-04-05T13:02:38Z</time></trkpt><trkpt lat="45.7591281" lon="7.4462799"><ele>1163.0</ele><time>2026-04-05T13:02:41.997Z</time></trkpt><trkpt lat="45.7590879" lon="7.446196"><ele>1163.0</ele><time>2026-04-05T13:02:45.993Z</time></trkpt><trkpt lat="45.7590346" lon="7.4461023"><ele>1163.0</ele><time>2026-04-05T13:02:49.99Z</time></trkpt><trkpt lat="45.7589892" lon="7.4460307"><ele>1163.0</ele><time>2026-04-05T13:02:52.99Z</time></trkpt><trkpt lat="45.7589538" lon="7.445956"><ele>1165.5714285714287</ele><time>2026-04-05T13:02:55.987Z</time></trkpt><trkpt lat="45.7588997" lon="7.4458603"><ele>1168.142857142857</ele><time>2026-04-05T13:02:59.993Z</time></trkpt><trkpt lat="45.7588597" lon="7.4457873"><ele>1170.7142857142858</ele><time>2026-04-05T13:03:02.991Z</time></trkpt><trkpt lat="45.758816" lon="7.4457163"><ele>1173.2857142857142</ele><time>2026-04-05T13:03:05.992Z</time></trkpt><trkpt lat="45.7587608" lon="7.4456249"><ele>1175.857142857143</ele><time>2026-04-05T13:03:09.989Z</time></trkpt><trkpt lat="45.7587274" lon="7.4455464"><ele>1178.4285714285716</ele><time>2026-04-05T13:03:12.99Z</time></trkpt><trkpt lat="45.7586852" lon="7.4454648"><ele>1181.0</ele><time>2026-04-05T13:03:15.992Z</time></trkpt><trkpt lat="45.7586507" lon="7.4453538"><ele>1180.7142857142858</ele><time>2026-04-05T13:03:19.995Z</time></trkpt><trkpt lat="45.7586284" lon="7.445264"><ele>1180.4285714285716</ele><time>2026-04-05T13:03:22.992Z</time></trkpt><trkpt lat="45.7586149" lon="7.4451661"><ele>1180.142857142857</ele><time>2026-04-05T13:03:25.989Z</time></trkpt><trkpt lat="45.7585963" lon="7.4450702"><ele>1179.857142857143</ele><time>2026-04-05T13:03:28.983Z</time></trkpt><trkpt lat="45.7585738" lon="7.4449817"><ele>1179.5714285714284</ele><time>2026-04-05T13:03:31.987Z</time></trkpt><trkpt lat="45.7585185" lon="7.4449177"><ele>1179.2857142857142</ele><time>2026-04-05T13:03:34.987Z</time></trkpt><trkpt lat="45.7584562" lon="7.4448769"><ele>1179.0</ele><time>2026-04-05T13:03:37.983Z</time></trkpt><trkpt lat="45.7583975" lon="7.4448424"><ele>1178.9999999999998</ele><time>2026-04-05T13:03:40.99Z</time></trkpt><trkpt lat="45.758329" lon="7.4448066"><ele>1179.0</ele><time>2026-04-05T13:03:43.992Z</time></trkpt><trkpt lat="45.7582646" lon="7.4447726"><ele>1179.0</ele><time>2026-04-05T13:03:46.997Z</time></trkpt><trkpt lat="45.7581965" lon="7.4447444"><ele>1179.0</ele><time>2026-04-05T13:03:49.988Z</time></trkpt><trkpt lat="45.7581303" lon="7.4447178"><ele>1179.0</ele><time>2026-04-05T13:03:52.995Z</time></trkpt><trkpt lat="45.7580706" lon="7.4446788"><ele>1178.9999999999998</ele><time>2026-04-05T13:03:55.998Z</time></trkpt><trkpt lat="45.7580062" lon="7.4446504"><ele>1179.0</ele><time>2026-04-05T13:03:58.991Z</time></trkpt><trkpt lat="45.7579372" lon="7.4446305"><ele>1181.2857142857142</ele><time>2026-04-05T13:04:01.985Z</time></trkpt><trkpt lat="45.7578712" lon="7.4446051"><ele>1183.5714285714284</ele><time>2026-04-05T13:04:04.988Z</time></trkpt><trkpt lat="45.7578061" lon="7.4445663"><ele>1185.8571428571427</ele><time>2026-04-05T13:04:08.004Z</time></trkpt><trkpt lat="45.7577374" lon="7.4445303"><ele>1188.142857142857</ele><time>2026-04-05T13:04:10.998Z</time></trkpt><trkpt lat="45.7576783" lon="7.4444855"><ele>1190.4285714285716</ele><time>2026-04-05T13:04:13.991Z</time></trkpt><trkpt lat="45.7576159" lon="7.4444463"><ele>1192.7142857142856</ele><time>2026-04-05T13:04:16.991Z</time></trkpt><trkpt lat="45.7575418" lon="7.4443895"><ele>1195.0</ele><time>2026-04-05T13:04:20.992Z</time></trkpt><trkpt lat="45.7574881" lon="7.4443239"><ele>1195.0</ele><time>2026-04-05T13:04:23.999Z</time></trkpt><trkpt lat="45.7574328" lon="7.4442683"><ele>1195.0</ele><time>2026-04-05T13:04:26.987Z</time></trkpt><trkpt lat="45.757365" lon="7.4441959"><ele>1195.0</ele><time>2026-04-05T13:04:30.99Z</time></trkpt><trkpt lat="45.7573154" lon="7.4441355"><ele>1195.0</ele><time>2026-04-05T13:04:33.994Z</time></trkpt><trkpt lat="45.7572667" lon="7.4440731"><ele>1195.0</ele><time>2026-04-05T13:04:36.989Z</time></trkpt><trkpt lat="45.7572158" lon="7.443998"><ele>1195.0</ele><time>2026-04-05T13:04:39.992Z</time></trkpt><trkpt lat="45.7571744" lon="7.4439225"><ele>1195.0</ele><time>2026-04-05T13:04:42.992Z</time></trkpt><trkpt lat="45.7571944" lon="7.4438157"><ele>1195.0</ele><time>2026-04-05T13:04:46.994Z</time></trkpt><trkpt lat="45.7572665" lon="7.443876"><ele>1195.0</ele><time>2026-04-05T13:04:50.99Z</time></trkpt><trkpt lat="45.7573057" lon="7.4439662"><ele>1195.0</ele><time>2026-04-05T13:04:53.995Z</time></trkpt><trkpt lat="45.7573552" lon="7.4440244"><ele>1195.0</ele><time>2026-04-05T13:04:56.995Z</time></trkpt><trkpt lat="45.7574174" lon="7.4440682"><ele>1195.0</ele><time>2026-04-05T13:04:59.987Z</time></trkpt><trkpt lat="45.7574876" lon="7.4440952"><ele>1195.0</ele><time>2026-04-05T13:05:02.979Z</time></trkpt><trkpt lat="45.757562" lon="7.444117"><ele>1195.0</ele><time>2026-04-05T13:05:05.989Z</time></trkpt><trkpt lat="45.7576388" lon="7.4441477"><ele>1197.8333333333333</ele><time>2026-04-05T13:05:08.987Z</time></trkpt><trkpt lat="45.757714" lon="7.4441835"><ele>1200.6666666666665</ele><time>2026-04-05T13:05:11.988Z</time></trkpt><trkpt lat="45.7577898" lon="7.4442223"><ele>1203.5</ele><time>2026-04-05T13:05:14.991Z</time></trkpt><trkpt lat="45.7578659" lon="7.4442707"><ele>1206.3333333333333</ele><time>2026-04-05T13:05:17.995Z</time></trkpt><trkpt lat="45.7579473" lon="7.4442998"><ele>1209.1666666666667</ele><time>2026-04-05T13:05:20.989Z</time></trkpt><trkpt lat="45.7580296" lon="7.4443206"><ele>1212.0</ele><time>2026-04-05T13:05:23.996Z</time></trkpt><trkpt lat="45.758111" lon="7.4443324"><ele>1212.0</ele><time>2026-04-05T13:05:26.992Z</time></trkpt><trkpt lat="45.7581953" lon="7.444332"><ele>1212.0</ele><time>2026-04-05T13:05:29.992Z</time></trkpt><trkpt lat="45.7582789" lon="7.4443373"><ele>1212.0</ele><time>2026-04-05T13:05:32.99Z</time></trkpt><trkpt lat="45.7583615" lon="7.4443418"><ele>1212.0</ele><time>2026-04-05T13:05:35.99Z</time></trkpt><trkpt lat="45.758436" lon="7.4443189"><ele>1212.0</ele><time>2026-04-05T13:05:38.991Z</time></trkpt><trkpt lat="45.7585085" lon="7.4442676"><ele>1212.0</ele><time>2026-04-05T13:05:41.985Z</time></trkpt><trkpt lat="45.7585633" lon="7.4442225"><ele>1215.5</ele><time>2026-04-05T13:05:43.993Z</time></trkpt><trkpt lat="45.7586419" lon="7.4441551"><ele>1219.0</ele><time>2026-04-05T13:05:46.998Z</time></trkpt><trkpt lat="45.7587287" lon="7.4441324"><ele>1222.5</ele><time>2026-04-05T13:05:49.996Z</time></trkpt><trkpt lat="45.7588084" lon="7.4441673"><ele>1226.0</ele><time>2026-04-05T13:05:52.988Z</time></trkpt><trkpt lat="45.7588659" lon="7.4442622"><ele>1229.5</ele><time>2026-04-05T13:05:55.988Z</time></trkpt><trkpt lat="45.7589027" lon="7.4443668"><ele>1233.0</ele><time>2026-04-05T13:05:58.992Z</time></trkpt><trkpt lat="45.7589395" lon="7.4444751"><ele>1233.0</ele><time>2026-04-05T13:06:01.986Z</time></trkpt><trkpt lat="45.7589772" lon="7.444586"><ele>1233.0</ele><time>2026-04-05T13:06:04.989Z</time></trkpt><trkpt lat="45.7590382" lon="7.4446803"><ele>1233.0</ele><time>2026-04-05T13:06:07.987Z</time></trkpt><trkpt lat="45.7591001" lon="7.4447649"><ele>1233.0</ele><time>2026-04-05T13:06:10.99Z</time></trkpt><trkpt lat="45.759173" lon="7.4448232"><ele>1233.0</ele><time>2026-04-05T13:06:13.988Z</time></trkpt><trkpt lat="45.7592587" lon="7.444866"><ele>1233.0</ele><time>2026-04-05T13:06:16.986Z</time></trkpt><trkpt lat="45.7593394" lon="7.4448842"><ele>1234.5</ele><time>2026-04-05T13:06:19.99Z</time></trkpt><trkpt lat="45.7594192" lon="7.4449035"><ele>1236.0</ele><time>2026-04-05T13:06:22.988Z</time></trkpt><trkpt lat="45.7594963" lon="7.4449234"><ele>1237.5</ele><time>2026-04-05T13:06:25.991Z</time></trkpt><trkpt lat="45.7595733" lon="7.4449742"><ele>1239.0</ele><time>2026-04-05T13:06:28.989Z</time></trkpt><trkpt lat="45.7596276" lon="7.4450659"><ele>1240.5</ele><time>2026-04-05T13:06:31.993Z</time></trkpt><trkpt lat="45.7596679" lon="7.4451719"><ele>1242.0</ele><time>2026-04-05T13:06:34.987Z</time></trkpt><trkpt lat="45.7597011" lon="7.4452736"><ele>1242.0</ele><time>2026-04-05T13:06:37.995Z</time></trkpt><trkpt lat="45.7597399" lon="7.4453732"><ele>1242.0</ele><time>2026-04-05T13:06:40.985Z</time></trkpt><trkpt lat="45.7597809" lon="7.4454712"><ele>1242.0</ele><time>2026-04-05T13:06:44.008Z</time></trkpt><trkpt lat="45.759815" lon="7.4455665"><ele>1242.0</ele><time>2026-04-05T13:06:46.985Z</time></trkpt><trkpt lat="45.7598775" lon="7.4456441"><ele>1242.0</ele><time>2026-04-05T13:06:50Z</time></trkpt><trkpt lat="45.7599543" lon="7.4456961"><ele>1242.0</ele><time>2026-04-05T13:06:52.993Z</time></trkpt><trkpt lat="45.7600254" lon="7.4457351"><ele>1244.3333333333333</ele><time>2026-04-05T13:06:56.052Z</time></trkpt><trkpt lat="45.760083" lon="7.4458218"><ele>1246.6666666666667</ele><time>2026-04-05T13:06:58.988Z</time></trkpt><trkpt lat="45.7601496" lon="7.4459056"><ele>1249.0</ele><time>2026-04-05T13:07:01.993Z</time></trkpt><trkpt lat="45.7602149" lon="7.4459948"><ele>1251.3333333333335</ele><time>2026-04-05T13:07:05.952Z</time></trkpt><trkpt lat="45.7602762" lon="7.4460901"><ele>1253.6666666666667</ele><time>2026-04-05T13:07:08.957Z</time></trkpt><trkpt lat="45.7603307" lon="7.4461809"><ele>1256.0</ele><time>2026-04-05T13:07:11.953Z</time></trkpt><trkpt lat="45.7603838" lon="7.4462675"><ele>1253.0</ele><time>2026-04-05T13:07:14.963Z</time></trkpt><trkpt lat="45.7604483" lon="7.4463591"><ele>1250.0</ele><time>2026-04-05T13:07:17.962Z</time></trkpt><trkpt lat="45.7605112" lon="7.4464487"><ele>1247.0</ele><time>2026-04-05T13:07:20.965Z</time></trkpt><trkpt lat="45.7605666" lon="7.4465508"><ele>1244.0</ele><time>2026-04-05T13:07:23.967Z</time></trkpt><trkpt lat="45.7605968" lon="7.4466738"><ele>1241.0</ele><time>2026-04-05T13:07:26.959Z</time></trkpt><trkpt lat="45.7606354" lon="7.4467817"><ele>1238.0</ele><time>2026-04-05T13:07:29.975Z</time></trkpt><trkpt lat="45.7606983" lon="7.4468768"><ele>1238.0</ele><time>2026-04-05T13:07:32.959Z</time></trkpt><trkpt lat="45.7607566" lon="7.4469697"><ele>1238.0</ele><time>2026-04-05T13:07:35.963Z</time></trkpt><trkpt lat="45.7608232" lon="7.4470464"><ele>1238.0</ele><time>2026-04-05T13:07:38.963Z</time></trkpt><trkpt lat="45.7608922" lon="7.4471094"><ele>1238.0</ele><time>2026-04-05T13:07:41.963Z</time></trkpt><trkpt lat="45.7609699" lon="7.4471449"><ele>1238.0</ele><time>2026-04-05T13:07:44.945Z</time></trkpt><trkpt lat="45.7610524" lon="7.4471713"><ele>1238.0</ele><time>2026-04-05T13:07:47.958Z</time></trkpt><trkpt lat="45.7611276" lon="7.4471968"><ele>1238.3333333333335</ele><time>2026-04-05T13:07:50.964Z</time></trkpt><trkpt lat="45.7612025" lon="7.4472252"><ele>1238.6666666666667</ele><time>2026-04-05T13:07:53.962Z</time></trkpt><trkpt lat="45.7612797" lon="7.447261"><ele>1239.0</ele><time>2026-04-05T13:07:56.959Z</time></trkpt><trkpt lat="45.7613539" lon="7.4472946"><ele>1239.3333333333333</ele><time>2026-04-05T13:07:59.962Z</time></trkpt><trkpt lat="45.7614308" lon="7.447337"><ele>1239.6666666666665</ele><time>2026-04-05T13:08:02.994Z</time></trkpt><trkpt lat="45.7615045" lon="7.4473937"><ele>1240.0</ele><time>2026-04-05T13:08:05.956Z</time></trkpt><trkpt lat="45.7615672" lon="7.4474585"><ele>1240.0</ele><time>2026-04-05T13:08:08.963Z</time></trkpt><trkpt lat="45.761631" lon="7.4475283"><ele>1240.0</ele><time>2026-04-05T13:08:11.957Z</time></trkpt><trkpt lat="45.7616935" lon="7.4475995"><ele>1240.0</ele><time>2026-04-05T13:08:14.957Z</time></trkpt><trkpt lat="45.7617622" lon="7.4476524"><ele>1240.0</ele><time>2026-04-05T13:08:17.959Z</time></trkpt><trkpt lat="45.7618294" lon="7.4476337"><ele>1240.0</ele><time>2026-04-05T13:08:20.956Z</time></trkpt><trkpt lat="45.761843" lon="7.447531"><ele>1240.0</ele><time>2026-04-05T13:08:23.963Z</time></trkpt><trkpt lat="45.7617907" lon="7.4474482"><ele>1240.0</ele><time>2026-04-05T13:08:26.959Z</time></trkpt><trkpt lat="45.7617332" lon="7.4473676"><ele>1240.0</ele><time>2026-04-05T13:08:29.958Z</time></trkpt><trkpt lat="45.7616834" lon="7.4472729"><ele>1240.0</ele><time>2026-04-05T13:08:32.957Z</time></trkpt><trkpt lat="45.7616421" lon="7.4471718"><ele>1240.0</ele><time>2026-04-05T13:08:35.957Z</time></trkpt><trkpt lat="45.761588" lon="7.4470667"><ele>1240.0</ele><time>2026-04-05T13:08:38.958Z</time></trkpt><trkpt lat="45.761516" lon="7.447003"><ele>1240.0</ele><time>2026-04-05T13:08:41.957Z</time></trkpt><trkpt lat="45.7614405" lon="7.4469589"><ele>1239.6666666666665</ele><time>2026-04-05T13:08:44.955Z</time></trkpt><trkpt lat="45.7613646" lon="7.4469158"><ele>1239.3333333333333</ele><time>2026-04-05T13:08:47.955Z</time></trkpt><trkpt lat="45.7612882" lon="7.4468619"><ele>1239.0</ele><time>2026-04-05T13:08:50.955Z</time></trkpt><trkpt lat="45.7612128" lon="7.4468015"><ele>1238.6666666666667</ele><time>2026-04-05T13:08:53.958Z</time></trkpt><trkpt lat="45.7611346" lon="7.4467448"><ele>1238.3333333333335</ele><time>2026-04-05T13:08:56.957Z</time></trkpt><trkpt lat="45.7610737" lon="7.4466858"><ele>1238.0</ele><time>2026-04-05T13:08:59.96Z</time></trkpt><trkpt lat="45.7610299" lon="7.4466133"><ele>1238.0</ele><time>2026-04-05T13:09:02.969Z</time></trkpt><trkpt lat="45.7609929" lon="7.4465283"><ele>1238.0</ele><time>2026-04-05T13:09:05.95Z</time></trkpt><trkpt lat="45.7609683" lon="7.4464355"><ele>1238.0</ele><time>2026-04-05T13:09:08.962Z</time></trkpt><trkpt lat="45.7609476" lon="7.4463177"><ele>1238.0</ele><time>2026-04-05T13:09:12.965Z</time></trkpt><trkpt lat="45.7609266" lon="7.4462251"><ele>1238.0</ele><time>2026-04-05T13:09:15.952Z</time></trkpt><trkpt lat="45.7609046" lon="7.4461258"><ele>1238.0</ele><time>2026-04-05T13:09:18.96Z</time></trkpt><trkpt lat="45.7608625" lon="7.4460419"><ele>1238.0</ele><time>2026-04-05T13:09:21.959Z</time></trkpt><trkpt lat="45.760815" lon="7.4459647"><ele>1240.5714285714284</ele><time>2026-04-05T13:09:24.954Z</time></trkpt><trkpt lat="45.7607675" lon="7.4458919"><ele>1243.142857142857</ele><time>2026-04-05T13:09:27.959Z</time></trkpt><trkpt lat="45.7607139" lon="7.4458261"><ele>1245.7142857142858</ele><time>2026-04-05T13:09:30.956Z</time></trkpt><trkpt lat="45.7606573" lon="7.4457536"><ele>1248.2857142857142</ele><time>2026-04-05T13:09:33.958Z</time></trkpt><trkpt lat="45.7606291" lon="7.4456553"><ele>1250.857142857143</ele><time>2026-04-05T13:09:36.959Z</time></trkpt><trkpt lat="45.7606831" lon="7.4456061"><ele>1253.4285714285713</ele><time>2026-04-05T13:09:39.954Z</time></trkpt><trkpt lat="45.7607325" lon="7.4456728"><ele>1256.0</ele><time>2026-04-05T13:09:42.96Z</time></trkpt><trkpt lat="45.7607675" lon="7.4457511"><ele>1256.0</ele><time>2026-04-05T13:09:45.957Z</time></trkpt><trkpt lat="45.7608196" lon="7.4458119"><ele>1256.0</ele><time>2026-04-05T13:09:48.953Z</time></trkpt><trkpt lat="45.7608858" lon="7.4458571"><ele>1256.0</ele><time>2026-04-05T13:09:51.955Z</time></trkpt><trkpt lat="45.7609538" lon="7.4459018"><ele>1256.0</ele><time>2026-04-05T13:09:54.95Z</time></trkpt><trkpt lat="45.7610214" lon="7.4459609"><ele>1256.0</ele><time>2026-04-05T13:09:57.959Z</time></trkpt><trkpt lat="45.7610808" lon="7.446034"><ele>1256.0</ele><time>2026-04-05T13:10:00.958Z</time></trkpt><trkpt lat="45.761142" lon="7.4461305"><ele>1256.6666666666667</ele><time>2026-04-05T13:10:03.955Z</time></trkpt><trkpt lat="45.7611929" lon="7.4462286"><ele>1257.3333333333335</ele><time>2026-04-05T13:10:06.963Z</time></trkpt><trkpt lat="45.7612431" lon="7.4463342"><ele>1258.0</ele><time>2026-04-05T13:10:09.963Z</time></trkpt><trkpt lat="45.7613053" lon="7.4464252"><ele>1258.6666666666667</ele><time>2026-04-05T13:10:12.958Z</time></trkpt><trkpt lat="45.7613831" lon="7.4464632"><ele>1259.3333333333333</ele><time>2026-04-05T13:10:15.957Z</time></trkpt><trkpt lat="45.7614574" lon="7.4465038"><ele>1260.0</ele><time>2026-04-05T13:10:18.963Z</time></trkpt><trkpt lat="45.7615466" lon="7.4465472"><ele>1260.0</ele><time>2026-04-05T13:10:21.956Z</time></trkpt><trkpt lat="45.7616275" lon="7.4465611"><ele>1260.0</ele><time>2026-04-05T13:10:24.952Z</time></trkpt><trkpt lat="45.7617009" lon="7.4465767"><ele>1260.0</ele><time>2026-04-05T13:10:27.959Z</time></trkpt><trkpt lat="45.7617811" lon="7.4465894"><ele>1260.0</ele><time>2026-04-05T13:10:30.955Z</time></trkpt><trkpt lat="45.7618598" lon="7.4466225"><ele>1260.0</ele><time>2026-04-05T13:10:33.958Z</time></trkpt><trkpt lat="45.7619224" lon="7.4466921"><ele>1260.0</ele><time>2026-04-05T13:10:36.961Z</time></trkpt><trkpt lat="45.7619967" lon="7.4467629"><ele>1262.1666666666667</ele><time>2026-04-05T13:10:39.957Z</time></trkpt><trkpt lat="45.7620805" lon="7.4467958"><ele>1264.3333333333333</ele><time>2026-04-05T13:10:42.963Z</time></trkpt><trkpt lat="45.7621654" lon="7.4468136"><ele>1266.5</ele><time>2026-04-05T13:10:45.962Z</time></trkpt><trkpt lat="45.7622612" lon="7.4468357"><ele>1268.6666666666665</ele><time>2026-04-05T13:10:48.957Z</time></trkpt><trkpt lat="45.7623325" lon="7.4468445"><ele>1270.8333333333333</ele><time>2026-04-05T13:10:50.96Z</time></trkpt><trkpt lat="45.7623986" lon="7.4468613"><ele>1273.0</ele><time>2026-04-05T13:10:52.95Z</time></trkpt><trkpt lat="45.7624685" lon="7.4468738"><ele>1273.0</ele><time>2026-04-05T13:10:54.96Z</time></trkpt><trkpt lat="45.7625359" lon="7.4468771"><ele>1273.0</ele><time>2026-04-05T13:10:56.954Z</time></trkpt><trkpt lat="45.7626053" lon="7.4468789"><ele>1273.0</ele><time>2026-04-05T13:10:58.962Z</time></trkpt><trkpt lat="45.7626715" lon="7.4468813"><ele>1273.0</ele><time>2026-04-05T13:11:00.956Z</time></trkpt><trkpt lat="45.7627376" lon="7.4468897"><ele>1273.0</ele><time>2026-04-05T13:11:02.957Z</time></trkpt><trkpt lat="45.7628305" lon="7.446903"><ele>1273.0</ele><time>2026-04-05T13:11:05.96Z</time></trkpt><trkpt lat="45.7629009" lon="7.446905"><ele>1273.0</ele><time>2026-04-05T13:11:07.957Z</time></trkpt><trkpt lat="45.7629678" lon="7.4469052"><ele>1273.5</ele><time>2026-04-05T13:11:09.957Z</time></trkpt><trkpt lat="45.7630391" lon="7.4469185"><ele>1274.0</ele><time>2026-04-05T13:11:11.956Z</time></trkpt><trkpt lat="45.7631024" lon="7.4469439"><ele>1274.5</ele><time>2026-04-05T13:11:13.957Z</time></trkpt><trkpt lat="45.7631663" lon="7.4469675"><ele>1275.0</ele><time>2026-04-05T13:11:15.958Z</time></trkpt><trkpt lat="45.7632476" lon="7.4470085"><ele>1275.5</ele><time>2026-04-05T13:11:18.962Z</time></trkpt><trkpt lat="45.7633341" lon="7.4470431"><ele>1276.0</ele><time>2026-04-05T13:11:21.952Z</time></trkpt><trkpt lat="45.7634472" lon="7.4471176"><ele>1277.0</ele><time>2026-04-05T13:11:25.959Z</time></trkpt><trkpt lat="45.7635232" lon="7.4471936"><ele>1278.0</ele><time>2026-04-05T13:11:28.962Z</time></trkpt><trkpt lat="45.7635811" lon="7.4472887"><ele>1279.0</ele><time>2026-04-05T13:11:31.96Z</time></trkpt><trkpt lat="45.763653" lon="7.4473618"><ele>1280.0</ele><time>2026-04-05T13:11:34.96Z</time></trkpt><trkpt lat="45.7637268" lon="7.4474262"><ele>1281.0</ele><time>2026-04-05T13:11:37.955Z</time></trkpt><trkpt lat="45.7637823" lon="7.4474695"><ele>1282.0</ele><time>2026-04-05T13:11:39.966Z</time></trkpt><trkpt lat="45.7638617" lon="7.4475315"><ele>1282.0</ele><time>2026-04-05T13:11:42.957Z</time></trkpt><trkpt lat="45.7639204" lon="7.4475755"><ele>1282.0</ele><time>2026-04-05T13:11:44.965Z</time></trkpt><trkpt lat="45.7639976" lon="7.4476422"><ele>1282.0</ele><time>2026-04-05T13:11:47.957Z</time></trkpt><trkpt lat="45.764067" lon="7.4477207"><ele>1282.0</ele><time>2026-04-05T13:11:50.959Z</time></trkpt><trkpt lat="45.7641284" lon="7.4478167"><ele>1282.0</ele><time>2026-04-05T13:11:53.956Z</time></trkpt><trkpt lat="45.7641661" lon="7.4479086"><ele>1282.0</ele><time>2026-04-05T13:11:56.959Z</time></trkpt><trkpt lat="45.7642103" lon="7.4480034"><ele>1280.7142857142858</ele><time>2026-04-05T13:11:59.959Z</time></trkpt><trkpt lat="45.7642592" lon="7.4480947"><ele>1279.4285714285713</ele><time>2026-04-05T13:12:02.958Z</time></trkpt><trkpt lat="45.7643064" lon="7.44816"><ele>1278.142857142857</ele><time>2026-04-05T13:12:05.958Z</time></trkpt><trkpt lat="45.7643217" lon="7.4482734"><ele>1276.857142857143</ele><time>2026-04-05T13:12:09.958Z</time></trkpt><trkpt lat="45.7642783" lon="7.448362"><ele>1275.5714285714287</ele><time>2026-04-05T13:12:12.953Z</time></trkpt><trkpt lat="45.7642301" lon="7.4484534"><ele>1274.2857142857142</ele><time>2026-04-05T13:12:16.955Z</time></trkpt><trkpt lat="45.7642916" lon="7.4484155"><ele>1273.0</ele><time>2026-04-05T13:14:51.955Z</time></trkpt><trkpt lat="45.7643343" lon="7.4483146"><ele>1275.0</ele><time>2026-04-05T13:14:55.952Z</time></trkpt><trkpt lat="45.7643779" lon="7.4482346"><ele>1277.0</ele><time>2026-04-05T13:14:58.96Z</time></trkpt><trkpt lat="45.76443" lon="7.4481504"><ele>1279.0</ele><time>2026-04-05T13:15:01.957Z</time></trkpt><trkpt lat="45.7644892" lon="7.4480649"><ele>1281.0</ele><time>2026-04-05T13:15:04.955Z</time></trkpt><trkpt lat="45.7645648" lon="7.4480108"><ele>1283.0</ele><time>2026-04-05T13:15:07.957Z</time></trkpt><trkpt lat="45.7646492" lon="7.4479777"><ele>1285.0</ele><time>2026-04-05T13:15:10.963Z</time></trkpt><trkpt lat="45.7647343" lon="7.4479539"><ele>1285.0</ele><time>2026-04-05T13:15:13.961Z</time></trkpt><trkpt lat="45.7648002" lon="7.4479475"><ele>1285.0</ele><time>2026-04-05T13:15:15.957Z</time></trkpt><trkpt lat="45.7648638" lon="7.4479351"><ele>1285.0</ele><time>2026-04-05T13:15:17.951Z</time></trkpt><trkpt lat="45.7649554" lon="7.4479287"><ele>1285.0</ele><time>2026-04-05T13:15:20.959Z</time></trkpt><trkpt lat="45.7650442" lon="7.4479002"><ele>1285.0</ele><time>2026-04-05T13:15:23.964Z</time></trkpt><trkpt lat="45.7651219" lon="7.4478254"><ele>1285.0</ele><time>2026-04-05T13:15:26.96Z</time></trkpt><trkpt lat="45.7651853" lon="7.4477305"><ele>1279.5</ele><time>2026-04-05T13:15:29.958Z</time></trkpt><trkpt lat="45.7652435" lon="7.4476317"><ele>1274.0</ele><time>2026-04-05T13:15:32.955Z</time></trkpt><trkpt lat="45.7652953" lon="7.4475364"><ele>1268.5</ele><time>2026-04-05T13:15:35.951Z</time></trkpt><trkpt lat="45.7653481" lon="7.4474385"><ele>1263.0</ele><time>2026-04-05T13:15:38.956Z</time></trkpt><trkpt lat="45.7653994" lon="7.4473515"><ele>1257.5</ele><time>2026-04-05T13:15:41.959Z</time></trkpt><trkpt lat="45.7654479" lon="7.4472524"><ele>1252.0</ele><time>2026-04-05T13:15:44.95Z</time></trkpt><trkpt lat="45.7654867" lon="7.4471482"><ele>1258.5</ele><time>2026-04-05T13:15:47.954Z</time></trkpt><trkpt lat="45.7655351" lon="7.4470411"><ele>1265.0</ele><time>2026-04-05T13:15:50.952Z</time></trkpt><trkpt lat="45.7655735" lon="7.4469452"><ele>1271.5</ele><time>2026-04-05T13:15:53.942Z</time></trkpt><trkpt lat="45.7656234" lon="7.4468501"><ele>1278.0</ele><time>2026-04-05T13:15:56.947Z</time></trkpt><trkpt lat="45.7656752" lon="7.4467525"><ele>1284.5</ele><time>2026-04-05T13:15:59.943Z</time></trkpt><trkpt lat="45.7657219" lon="7.4466584"><ele>1291.0</ele><time>2026-04-05T13:16:02.954Z</time></trkpt><trkpt lat="45.7657662" lon="7.4465541"><ele>1291.0</ele><time>2026-04-05T13:16:05.969Z</time></trkpt><trkpt lat="45.7658102" lon="7.4464593"><ele>1291.0</ele><time>2026-04-05T13:16:08.958Z</time></trkpt><trkpt lat="45.7658647" lon="7.446384"><ele>1291.0</ele><time>2026-04-05T13:16:12.016Z</time></trkpt><trkpt lat="45.7659278" lon="7.4463082"><ele>1291.0</ele><time>2026-04-05T13:16:14.957Z</time></trkpt><trkpt lat="45.7659891" lon="7.4462259"><ele>1291.0</ele><time>2026-04-05T13:16:17.954Z</time></trkpt><trkpt lat="45.7660553" lon="7.4461359"><ele>1291.0</ele><time>2026-04-05T13:16:20.958Z</time></trkpt><trkpt lat="45.7661106" lon="7.4460457"><ele>1292.3333333333333</ele><time>2026-04-05T13:16:23.953Z</time></trkpt><trkpt lat="45.7661499" lon="7.4459481"><ele>1293.6666666666665</ele><time>2026-04-05T13:16:27.03Z</time></trkpt><trkpt lat="45.7661904" lon="7.4458279"><ele>1295.0</ele><time>2026-04-05T13:16:29.951Z</time></trkpt><trkpt lat="45.7662298" lon="7.4457251"><ele>1296.3333333333333</ele><time>2026-04-05T13:16:31.95Z</time></trkpt><trkpt lat="45.7662693" lon="7.4456165"><ele>1297.6666666666667</ele><time>2026-04-05T13:16:34.008Z</time></trkpt><trkpt lat="45.7663026" lon="7.4454718"><ele>1299.0</ele><time>2026-04-05T13:16:35.95Z</time></trkpt><trkpt lat="45.7663521" lon="7.4453454"><ele>1299.0</ele><time>2026-04-05T13:16:37.946Z</time></trkpt><trkpt lat="45.7664252" lon="7.4452343"><ele>1299.0</ele><time>2026-04-05T13:16:39.945Z</time></trkpt><trkpt lat="45.7665188" lon="7.445124"><ele>1299.0</ele><time>2026-04-05T13:16:41.943Z</time></trkpt><trkpt lat="45.7666117" lon="7.4450247"><ele>1299.0</ele><time>2026-04-05T13:16:43.962Z</time></trkpt><trkpt lat="45.7666965" lon="7.4449582"><ele>1299.0</ele><time>2026-04-05T13:16:45.956Z</time></trkpt><trkpt lat="45.7667597" lon="7.4448825"><ele>1299.0</ele><time>2026-04-05T13:16:47.973Z</time></trkpt><trkpt lat="45.7668136" lon="7.4448153"><ele>1299.0</ele><time>2026-04-05T13:16:49.954Z</time></trkpt><trkpt lat="45.7668725" lon="7.4447564"><ele>1299.0</ele><time>2026-04-05T13:16:51.955Z</time></trkpt><trkpt lat="45.7669299" lon="7.4447006"><ele>1299.0</ele><time>2026-04-05T13:16:53.953Z</time></trkpt><trkpt lat="45.7669901" lon="7.4446357"><ele>1299.0</ele><time>2026-04-05T13:16:55.954Z</time></trkpt><trkpt lat="45.7670467" lon="7.4445261"><ele>1299.0</ele><time>2026-04-05T13:16:57.958Z</time></trkpt><trkpt lat="45.7671" lon="7.4444235"><ele>1298.2</ele><time>2026-04-05T13:16:59.964Z</time></trkpt><trkpt lat="45.7671238" lon="7.4443017"><ele>1297.4</ele><time>2026-04-05T13:17:01.959Z</time></trkpt><trkpt lat="45.7671409" lon="7.4441812"><ele>1296.6</ele><time>2026-04-05T13:17:03.95Z</time></trkpt><trkpt lat="45.7671606" lon="7.4440446"><ele>1295.8</ele><time>2026-04-05T13:17:05.955Z</time></trkpt><trkpt lat="45.7671865" lon="7.443914"><ele>1295.0</ele><time>2026-04-05T13:17:07.953Z</time></trkpt><trkpt lat="45.7671998" lon="7.4437685"><ele>1295.0</ele><time>2026-04-05T13:17:09.943Z</time></trkpt><trkpt lat="45.7672238" lon="7.4436479"><ele>1295.0</ele><time>2026-04-05T13:17:11.955Z</time></trkpt><trkpt lat="45.767272" lon="7.4435312"><ele>1295.0</ele><time>2026-04-05T13:17:14.028Z</time></trkpt><trkpt lat="45.767335" lon="7.4434271"><ele>1295.0</ele><time>2026-04-05T13:17:15.944Z</time></trkpt><trkpt lat="45.7674121" lon="7.4433613"><ele>1295.0</ele><time>2026-04-05T13:17:17.954Z</time></trkpt><trkpt lat="45.7674896" lon="7.4433118"><ele>1295.0</ele><time>2026-04-05T13:17:19.95Z</time></trkpt><trkpt lat="45.7675722" lon="7.4432771"><ele>1295.0</ele><time>2026-04-05T13:17:21.974Z</time></trkpt><trkpt lat="45.7676575" lon="7.4432613"><ele>1295.0</ele><time>2026-04-05T13:17:23.946Z</time></trkpt><trkpt lat="45.7677445" lon="7.4432386"><ele>1295.0</ele><time>2026-04-05T13:17:25.954Z</time></trkpt><trkpt lat="45.7678337" lon="7.4432153"><ele>1295.0</ele><time>2026-04-05T13:17:27.948Z</time></trkpt><trkpt lat="45.7679161" lon="7.4431937"><ele>1295.0</ele><time>2026-04-05T13:17:29.946Z</time></trkpt><trkpt lat="45.7680026" lon="7.4431722"><ele>1296.5</ele><time>2026-04-05T13:17:31.949Z</time></trkpt><trkpt lat="45.7680815" lon="7.4431532"><ele>1298.0</ele><time>2026-04-05T13:17:33.949Z</time></trkpt><trkpt lat="45.7681521" lon="7.4431193"><ele>1299.5</ele><time>2026-04-05T13:17:35.955Z</time></trkpt><trkpt lat="45.768233" lon="7.4430625"><ele>1301.0</ele><time>2026-04-05T13:17:37.954Z</time></trkpt><trkpt lat="45.768299" lon="7.4429832"><ele>1302.5</ele><time>2026-04-05T13:17:39.951Z</time></trkpt><trkpt lat="45.768363" lon="7.4428956"><ele>1304.0</ele><time>2026-04-05T13:17:41.948Z</time></trkpt><trkpt lat="45.7684163" lon="7.4428002"><ele>1304.0</ele><time>2026-04-05T13:17:43.949Z</time></trkpt><trkpt lat="45.7684787" lon="7.4426847"><ele>1304.0</ele><time>2026-04-05T13:17:45.95Z</time></trkpt><trkpt lat="45.7685447" lon="7.4425839"><ele>1304.0</ele><time>2026-04-05T13:17:47.949Z</time></trkpt><trkpt lat="45.7686156" lon="7.4424927"><ele>1304.0</ele><time>2026-04-05T13:17:49.95Z</time></trkpt><trkpt lat="45.7687117" lon="7.4424481"><ele>1304.0</ele><time>2026-04-05T13:17:51.952Z</time></trkpt><trkpt lat="45.7688076" lon="7.4424046"><ele>1300.6</ele><time>2026-04-05T13:17:53.95Z</time></trkpt><trkpt lat="45.7688991" lon="7.4423646"><ele>1297.2</ele><time>2026-04-05T13:17:55.95Z</time></trkpt><trkpt lat="45.7690036" lon="7.4423352"><ele>1293.8</ele><time>2026-04-05T13:17:57.952Z</time></trkpt><trkpt lat="45.7691116" lon="7.4423297"><ele>1290.3999999999999</ele><time>2026-04-05T13:17:59.95Z</time></trkpt><trkpt lat="45.7692109" lon="7.4423365"><ele>1287.0</ele><time>2026-04-05T13:18:01.95Z</time></trkpt><trkpt lat="45.7693064" lon="7.442357"><ele>1284.8</ele><time>2026-04-05T13:18:03.949Z</time></trkpt><trkpt lat="45.7693936" lon="7.4423502"><ele>1282.6</ele><time>2026-04-05T13:18:05.944Z</time></trkpt><trkpt lat="45.7694924" lon="7.4423535"><ele>1280.3999999999999</ele><time>2026-04-05T13:18:07.94Z</time></trkpt><trkpt lat="45.7695876" lon="7.4423521"><ele>1278.1999999999998</ele><time>2026-04-05T13:18:09.95Z</time></trkpt><trkpt lat="45.7696787" lon="7.4423734"><ele>1276.0</ele><time>2026-04-05T13:18:11.948Z</time></trkpt><trkpt lat="45.7697712" lon="7.4423709"><ele>1276.0</ele><time>2026-04-05T13:18:14.025Z</time></trkpt><trkpt lat="45.7698555" lon="7.4423771"><ele>1276.0</ele><time>2026-04-05T13:18:15.96Z</time></trkpt><trkpt lat="45.7699341" lon="7.4423711"><ele>1276.0</ele><time>2026-04-05T13:18:17.957Z</time></trkpt><trkpt lat="45.7700124" lon="7.4423508"><ele>1276.0</ele><time>2026-04-05T13:18:19.959Z</time></trkpt><trkpt lat="45.7700944" lon="7.4423255"><ele>1276.0</ele><time>2026-04-05T13:18:21.952Z</time></trkpt><trkpt lat="45.7701779" lon="7.442283"><ele>1276.0</ele><time>2026-04-05T13:18:23.96Z</time></trkpt><trkpt lat="45.7702531" lon="7.4422159"><ele>1273.5</ele><time>2026-04-05T13:18:25.952Z</time></trkpt><trkpt lat="45.7703241" lon="7.4421549"><ele>1271.0</ele><time>2026-04-05T13:18:27.96Z</time></trkpt><trkpt lat="45.7703935" lon="7.4420821"><ele>1268.5</ele><time>2026-04-05T13:18:29.959Z</time></trkpt><trkpt lat="45.7704568" lon="7.4420022"><ele>1266.0</ele><time>2026-04-05T13:18:31.951Z</time></trkpt><trkpt lat="45.7705117" lon="7.4419174"><ele>1263.5</ele><time>2026-04-05T13:18:33.957Z</time></trkpt><trkpt lat="45.7705565" lon="7.441805"><ele>1261.0</ele><time>2026-04-05T13:18:35.947Z</time></trkpt><trkpt lat="45.7706055" lon="7.4417035"><ele>1264.6</ele><time>2026-04-05T13:18:37.962Z</time></trkpt><trkpt lat="45.7706961" lon="7.4416527"><ele>1268.1999999999998</ele><time>2026-04-05T13:18:39.956Z</time></trkpt><trkpt lat="45.7707927" lon="7.4416652"><ele>1271.8000000000002</ele><time>2026-04-05T13:18:41.956Z</time></trkpt><trkpt lat="45.7708825" lon="7.4417205"><ele>1275.4</ele><time>2026-04-05T13:18:43.956Z</time></trkpt><trkpt lat="45.7709847" lon="7.4417402"><ele>1279.0</ele><time>2026-04-05T13:18:45.955Z</time></trkpt><trkpt lat="45.7710841" lon="7.4417149"><ele>1279.0</ele><time>2026-04-05T13:18:47.954Z</time></trkpt><trkpt lat="45.7711894" lon="7.4416869"><ele>1279.0</ele><time>2026-04-05T13:18:49.962Z</time></trkpt><trkpt lat="45.7712907" lon="7.4416758"><ele>1279.0</ele><time>2026-04-05T13:18:51.961Z</time></trkpt><trkpt lat="45.771377" lon="7.4416306"><ele>1279.0</ele><time>2026-04-05T13:18:53.967Z</time></trkpt><trkpt lat="45.7714693" lon="7.441537"><ele>1279.0</ele><time>2026-04-05T13:18:55.95Z</time></trkpt><trkpt lat="45.7715872" lon="7.4415144"><ele>1279.0</ele><time>2026-04-05T13:18:57.957Z</time></trkpt><trkpt lat="45.7716513" lon="7.4415095"><ele>1279.0</ele><time>2026-04-05T13:18:58.955Z</time></trkpt><trkpt lat="45.7717145" lon="7.4415218"><ele>1279.0</ele><time>2026-04-05T13:18:59.951Z</time></trkpt><trkpt lat="45.7718279" lon="7.4415354"><ele>1279.0</ele><time>2026-04-05T13:19:01.956Z</time></trkpt><trkpt lat="45.7719377" lon="7.4414603"><ele>1279.0</ele><time>2026-04-05T13:19:03.952Z</time></trkpt><trkpt lat="45.7720355" lon="7.4413521"><ele>1284.8000000000002</ele><time>2026-04-05T13:19:05.951Z</time></trkpt><trkpt lat="45.7721185" lon="7.4412351"><ele>1290.6000000000001</ele><time>2026-04-05T13:19:07.951Z</time></trkpt><trkpt lat="45.7722021" lon="7.4411249"><ele>1296.4</ele><time>2026-04-05T13:19:09.951Z</time></trkpt><trkpt lat="45.772277" lon="7.4410334"><ele>1302.2</ele><time>2026-04-05T13:19:11.95Z</time></trkpt><trkpt lat="45.7723434" lon="7.440958"><ele>1308.0</ele><time>2026-04-05T13:19:13.945Z</time></trkpt><trkpt lat="45.7724145" lon="7.4408946"><ele>1308.0</ele><time>2026-04-05T13:19:16.956Z</time></trkpt><trkpt lat="45.7725098" lon="7.4409192"><ele>1308.0</ele><time>2026-04-05T13:19:19.958Z</time></trkpt><trkpt lat="45.7725496" lon="7.441036"><ele>1308.0</ele><time>2026-04-05T13:19:22.954Z</time></trkpt><trkpt lat="45.7725342" lon="7.441127"><ele>1308.0</ele><time>2026-04-05T13:19:24.95Z</time></trkpt><trkpt lat="45.7725099" lon="7.4412122"><ele>1308.0</ele><time>2026-04-05T13:19:26.959Z</time></trkpt><trkpt lat="45.7724722" lon="7.4413276"><ele>1308.0</ele><time>2026-04-05T13:19:29.948Z</time></trkpt><trkpt lat="45.7724353" lon="7.4414419"><ele>1307.5</ele><time>2026-04-05T13:19:32.955Z</time></trkpt><trkpt lat="45.7724028" lon="7.441552"><ele>1307.0</ele><time>2026-04-05T13:19:35.957Z</time></trkpt><trkpt lat="45.7723709" lon="7.4416629"><ele>1306.5</ele><time>2026-04-05T13:19:38.955Z</time></trkpt><trkpt lat="45.772339" lon="7.4417834"><ele>1306.0</ele><time>2026-04-05T13:19:41.946Z</time></trkpt><trkpt lat="45.7723013" lon="7.4418604"><ele>1305.5</ele><time>2026-04-05T13:19:43.953Z</time></trkpt><trkpt lat="45.7722425" lon="7.4419353"><ele>1305.0</ele><time>2026-04-05T13:19:46.955Z</time></trkpt><trkpt lat="45.7721726" lon="7.4420052"><ele>1305.0</ele><time>2026-04-05T13:19:49.952Z</time></trkpt><trkpt lat="45.7721045" lon="7.4420902"><ele>1305.0</ele><time>2026-04-05T13:19:52.962Z</time></trkpt><trkpt lat="45.7720345" lon="7.4421751"><ele>1305.0</ele><time>2026-04-05T13:19:55.959Z</time></trkpt><trkpt lat="45.7719711" lon="7.4422636"><ele>1305.0</ele><time>2026-04-05T13:19:58.956Z</time></trkpt><trkpt lat="45.7719094" lon="7.4423451"><ele>1305.0</ele><time>2026-04-05T13:20:01.958Z</time></trkpt><trkpt lat="45.7718387" lon="7.4424243"><ele>1305.0</ele><time>2026-04-05T13:20:04.958Z</time></trkpt><trkpt lat="45.7717881" lon="7.4425274"><ele>1307.5</ele><time>2026-04-05T13:20:07.96Z</time></trkpt><trkpt lat="45.771743" lon="7.4426282"><ele>1310.0</ele><time>2026-04-05T13:20:10.953Z</time></trkpt><trkpt lat="45.7716993" lon="7.4427384"><ele>1312.5</ele><time>2026-04-05T13:20:13.955Z</time></trkpt><trkpt lat="45.7716647" lon="7.4428471"><ele>1315.0</ele><time>2026-04-05T13:20:16.954Z</time></trkpt><trkpt lat="45.7716287" lon="7.4429598"><ele>1317.5</ele><time>2026-04-05T13:20:19.953Z</time></trkpt><trkpt lat="45.7715922" lon="7.4430638"><ele>1320.0</ele><time>2026-04-05T13:20:22.957Z</time></trkpt><trkpt lat="45.7715627" lon="7.4431676"><ele>1320.0</ele><time>2026-04-05T13:20:25.955Z</time></trkpt><trkpt lat="45.7715244" lon="7.443277"><ele>1320.0</ele><time>2026-04-05T13:20:28.958Z</time></trkpt><trkpt lat="45.7714835" lon="7.4433813"><ele>1320.0</ele><time>2026-04-05T13:20:31.955Z</time></trkpt><trkpt lat="45.7714318" lon="7.443485"><ele>1320.0</ele><time>2026-04-05T13:20:34.958Z</time></trkpt><trkpt lat="45.7713674" lon="7.4435701"><ele>1320.0</ele><time>2026-04-05T13:20:37.951Z</time></trkpt><trkpt lat="45.7713011" lon="7.4436586"><ele>1320.0</ele><time>2026-04-05T13:20:40.959Z</time></trkpt><trkpt lat="45.7712367" lon="7.4437411"><ele>1317.0</ele><time>2026-04-05T13:20:43.954Z</time></trkpt><trkpt lat="45.7711908" lon="7.443807"><ele>1314.0</ele><time>2026-04-05T13:20:45.955Z</time></trkpt><trkpt lat="45.7711249" lon="7.4438924"><ele>1311.0</ele><time>2026-04-05T13:20:48.952Z</time></trkpt><trkpt lat="45.7710581" lon="7.4439798"><ele>1308.0</ele><time>2026-04-05T13:20:51.955Z</time></trkpt><trkpt lat="45.7710043" lon="7.4440583"><ele>1305.0</ele><time>2026-04-05T13:20:54.95Z</time></trkpt><trkpt lat="45.7709444" lon="7.4441493"><ele>1302.0</ele><time>2026-04-05T13:20:57.946Z</time></trkpt><trkpt lat="45.77089" lon="7.4442578"><ele>1302.0</ele><time>2026-04-05T13:21:00.962Z</time></trkpt><trkpt lat="45.770841" lon="7.4443574"><ele>1302.0</ele><time>2026-04-05T13:21:03.951Z</time></trkpt><trkpt lat="45.7708067" lon="7.4444357"><ele>1302.0</ele><time>2026-04-05T13:21:05.956Z</time></trkpt><trkpt lat="45.7707687" lon="7.4445143"><ele>1302.0</ele><time>2026-04-05T13:21:07.959Z</time></trkpt><trkpt lat="45.7707314" lon="7.444589"><ele>1302.0</ele><time>2026-04-05T13:21:09.966Z</time></trkpt><trkpt lat="45.7706991" lon="7.4446717"><ele>1302.0</ele><time>2026-04-05T13:21:11.958Z</time></trkpt><trkpt lat="45.7706606" lon="7.4447545"><ele>1302.0</ele><time>2026-04-05T13:21:13.952Z</time></trkpt><trkpt lat="45.7705933" lon="7.4448484"><ele>1305.5714285714287</ele><time>2026-04-05T13:21:16.955Z</time></trkpt><trkpt lat="45.7705365" lon="7.4449088"><ele>1309.142857142857</ele><time>2026-04-05T13:21:18.952Z</time></trkpt><trkpt lat="45.7704983" lon="7.4449822"><ele>1312.7142857142858</ele><time>2026-04-05T13:21:20.962Z</time></trkpt><trkpt lat="45.7704821" lon="7.4450706"><ele>1316.2857142857142</ele><time>2026-04-05T13:21:22.963Z</time></trkpt><trkpt lat="45.7704767" lon="7.4451992"><ele>1319.857142857143</ele><time>2026-04-05T13:21:25.963Z</time></trkpt><trkpt lat="45.7704843" lon="7.4452915"><ele>1323.4285714285716</ele><time>2026-04-05T13:21:27.961Z</time></trkpt><trkpt lat="45.770506" lon="7.4454211"><ele>1327.0</ele><time>2026-04-05T13:21:30.969Z</time></trkpt><trkpt lat="45.7705465" lon="7.445546"><ele>1327.0000000000002</ele><time>2026-04-05T13:21:33.962Z</time></trkpt><trkpt lat="45.7705818" lon="7.4456248"><ele>1327.0</ele><time>2026-04-05T13:21:35.96Z</time></trkpt><trkpt lat="45.7706194" lon="7.4457028"><ele>1327.0</ele><time>2026-04-05T13:21:37.963Z</time></trkpt><trkpt lat="45.7706714" lon="7.4458182"><ele>1327.0</ele><time>2026-04-05T13:21:40.953Z</time></trkpt><trkpt lat="45.7707003" lon="7.4459026"><ele>1327.0</ele><time>2026-04-05T13:21:42.96Z</time></trkpt><trkpt lat="45.7707228" lon="7.4459908"><ele>1327.0000000000002</ele><time>2026-04-05T13:21:44.955Z</time></trkpt><trkpt lat="45.7707405" lon="7.4460786"><ele>1327.0</ele><time>2026-04-05T13:21:46.96Z</time></trkpt><trkpt lat="45.7707558" lon="7.4461752"><ele>1327.0</ele><time>2026-04-05T13:21:48.959Z</time></trkpt><trkpt lat="45.7707629" lon="7.4462673"><ele>1327.0</ele><time>2026-04-05T13:21:50.953Z</time></trkpt><trkpt lat="45.770768" lon="7.4463601"><ele>1327.0</ele><time>2026-04-05T13:21:52.962Z</time></trkpt><trkpt lat="45.7707743" lon="7.4464849"><ele>1327.0</ele><time>2026-04-05T13:21:55.961Z</time></trkpt><trkpt lat="45.7707837" lon="7.4465921"><ele>1327.0</ele><time>2026-04-05T13:21:58.96Z</time></trkpt><trkpt lat="45.7707703" lon="7.4467096"><ele>1327.0</ele><time>2026-04-05T13:22:01.963Z</time></trkpt><trkpt lat="45.7707526" lon="7.4468334"><ele>1327.8333333333333</ele><time>2026-04-05T13:22:04.958Z</time></trkpt><trkpt lat="45.7707272" lon="7.4469493"><ele>1328.6666666666665</ele><time>2026-04-05T13:22:07.962Z</time></trkpt><trkpt lat="45.7706849" lon="7.44706"><ele>1329.5</ele><time>2026-04-05T13:22:10.957Z</time></trkpt><trkpt lat="45.7706492" lon="7.4471659"><ele>1330.3333333333333</ele><time>2026-04-05T13:22:13.956Z</time></trkpt><trkpt lat="45.7706063" lon="7.4472573"><ele>1331.1666666666667</ele><time>2026-04-05T13:22:16.96Z</time></trkpt><trkpt lat="45.7705652" lon="7.4473345"><ele>1332.0</ele><time>2026-04-05T13:22:19.954Z</time></trkpt><trkpt lat="45.7705298" lon="7.4474206"><ele>1334.857142857143</ele><time>2026-04-05T13:22:22.957Z</time></trkpt><trkpt lat="45.7704808" lon="7.4474917"><ele>1337.7142857142856</ele><time>2026-04-05T13:22:25.963Z</time></trkpt><trkpt lat="45.7704439" lon="7.4475806"><ele>1340.5714285714284</ele><time>2026-04-05T13:22:28.958Z</time></trkpt><trkpt lat="45.7704014" lon="7.4476719"><ele>1343.4285714285716</ele><time>2026-04-05T13:22:31.957Z</time></trkpt><trkpt lat="45.770357" lon="7.4477601"><ele>1346.2857142857142</ele><time>2026-04-05T13:22:34.949Z</time></trkpt><trkpt lat="45.770311" lon="7.4478337"><ele>1349.142857142857</ele><time>2026-04-05T13:22:37.957Z</time></trkpt><trkpt lat="45.7702532" lon="7.4479124"><ele>1352.0</ele><time>2026-04-05T13:22:40.958Z</time></trkpt><trkpt lat="45.770208" lon="7.4479859"><ele>1349.142857142857</ele><time>2026-04-05T13:22:43.961Z</time></trkpt><trkpt lat="45.7701557" lon="7.4480563"><ele>1346.2857142857142</ele><time>2026-04-05T13:22:46.963Z</time></trkpt><trkpt lat="45.7701066" lon="7.4481358"><ele>1343.4285714285716</ele><time>2026-04-05T13:22:49.959Z</time></trkpt><trkpt lat="45.770056" lon="7.4482172"><ele>1340.5714285714284</ele><time>2026-04-05T13:22:52.955Z</time></trkpt><trkpt lat="45.7700097" lon="7.4482923"><ele>1337.7142857142856</ele><time>2026-04-05T13:22:55.961Z</time></trkpt><trkpt lat="45.7699648" lon="7.4483647"><ele>1334.857142857143</ele><time>2026-04-05T13:22:58.957Z</time></trkpt><trkpt lat="45.7699109" lon="7.4484379"><ele>1332.0</ele><time>2026-04-05T13:23:01.956Z</time></trkpt><trkpt lat="45.7698618" lon="7.4485025"><ele>1332.0</ele><time>2026-04-05T13:23:04.961Z</time></trkpt><trkpt lat="45.769818" lon="7.4485869"><ele>1332.0</ele><time>2026-04-05T13:23:07.956Z</time></trkpt><trkpt lat="45.769786" lon="7.4486845"><ele>1332.0</ele><time>2026-04-05T13:23:10.966Z</time></trkpt><trkpt lat="45.7697772" lon="7.4487841"><ele>1332.0</ele><time>2026-04-05T13:23:13.952Z</time></trkpt><trkpt lat="45.7697591" lon="7.4488784"><ele>1332.0</ele><time>2026-04-05T13:23:16.961Z</time></trkpt><trkpt lat="45.7697565" lon="7.4489823"><ele>1332.0</ele><time>2026-04-05T13:23:19.958Z</time></trkpt><trkpt lat="45.7697639" lon="7.4490863"><ele>1332.0</ele><time>2026-04-05T13:23:22.956Z</time></trkpt><trkpt lat="45.7697689" lon="7.4491943"><ele>1335.0</ele><time>2026-04-05T13:23:25.956Z</time></trkpt><trkpt lat="45.7697695" lon="7.4492921"><ele>1338.0</ele><time>2026-04-05T13:23:28.962Z</time></trkpt><trkpt lat="45.7697605" lon="7.4493927"><ele>1341.0</ele><time>2026-04-05T13:23:31.964Z</time></trkpt><trkpt lat="45.7697342" lon="7.4494806"><ele>1344.0</ele><time>2026-04-05T13:23:34.964Z</time></trkpt><trkpt lat="45.7696932" lon="7.449579"><ele>1347.0</ele><time>2026-04-05T13:23:38.958Z</time></trkpt><trkpt lat="45.7696721" lon="7.449667"><ele>1350.0</ele><time>2026-04-05T13:23:41.961Z</time></trkpt><trkpt lat="45.7696437" lon="7.4497548"><ele>1353.0</ele><time>2026-04-05T13:23:44.96Z</time></trkpt><trkpt lat="45.7696231" lon="7.4498529"><ele>1355.2857142857144</ele><time>2026-04-05T13:23:47.96Z</time></trkpt><trkpt lat="45.7696105" lon="7.4499485"><ele>1357.5714285714284</ele><time>2026-04-05T13:23:50.962Z</time></trkpt><trkpt lat="45.7695965" lon="7.4500655"><ele>1359.857142857143</ele><time>2026-04-05T13:23:54.966Z</time></trkpt><trkpt lat="45.7695844" lon="7.4501841"><ele>1362.1428571428573</ele><time>2026-04-05T13:23:58.952Z</time></trkpt><trkpt lat="45.7695714" lon="7.4502756"><ele>1364.4285714285716</ele><time>2026-04-05T13:24:01.964Z</time></trkpt><trkpt lat="45.7695496" lon="7.4503618"><ele>1366.7142857142858</ele><time>2026-04-05T13:24:04.963Z</time></trkpt><trkpt lat="45.7695154" lon="7.4504464"><ele>1369.0</ele><time>2026-04-05T13:24:07.959Z</time></trkpt><trkpt lat="45.7694484" lon="7.4505123"><ele>1370.1428571428573</ele><time>2026-04-05T13:24:11.967Z</time></trkpt><trkpt lat="45.7693654" lon="7.4505439"><ele>1371.2857142857142</ele><time>2026-04-05T13:24:15.959Z</time></trkpt><trkpt lat="45.7693029" lon="7.4505809"><ele>1372.4285714285716</ele><time>2026-04-05T13:24:18.959Z</time></trkpt><trkpt lat="45.7692384" lon="7.4506099"><ele>1373.5714285714287</ele><time>2026-04-05T13:24:21.958Z</time></trkpt><trkpt lat="45.7691758" lon="7.4506506"><ele>1374.7142857142858</ele><time>2026-04-05T13:24:24.963Z</time></trkpt><trkpt lat="45.7691329" lon="7.4507228"><ele>1375.857142857143</ele><time>2026-04-05T13:24:27.963Z</time></trkpt><trkpt lat="45.7691131" lon="7.4508098"><ele>1377.0</ele><time>2026-04-05T13:24:30.964Z</time></trkpt><trkpt lat="45.7691123" lon="7.4509066"><ele>1374.142857142857</ele><time>2026-04-05T13:24:33.96Z</time></trkpt><trkpt lat="45.7691175" lon="7.4509995"><ele>1371.2857142857144</ele><time>2026-04-05T13:24:36.962Z</time></trkpt><trkpt lat="45.7691205" lon="7.4510937"><ele>1368.4285714285716</ele><time>2026-04-05T13:24:39.961Z</time></trkpt><trkpt lat="45.7691265" lon="7.4511843"><ele>1365.5714285714284</ele><time>2026-04-05T13:24:42.963Z</time></trkpt><trkpt lat="45.7691372" lon="7.4513003"><ele>1362.7142857142858</ele><time>2026-04-05T13:24:46.968Z</time></trkpt><trkpt lat="45.7691358" lon="7.4513907"><ele>1359.857142857143</ele><time>2026-04-05T13:24:49.961Z</time></trkpt><trkpt lat="45.7691208" lon="7.4514838"><ele>1357.0</ele><time>2026-04-05T13:24:52.958Z</time></trkpt><trkpt lat="45.7690917" lon="7.4515693"><ele>1357.0</ele><time>2026-04-05T13:24:55.966Z</time></trkpt><trkpt lat="45.7690702" lon="7.4516582"><ele>1357.0</ele><time>2026-04-05T13:24:58.974Z</time></trkpt><trkpt lat="45.7690444" lon="7.4517461"><ele>1357.0</ele><time>2026-04-05T13:25:01.96Z</time></trkpt><trkpt lat="45.7690276" lon="7.4518341"><ele>1357.0</ele><time>2026-04-05T13:25:04.965Z</time></trkpt><trkpt lat="45.7690177" lon="7.4519305"><ele>1357.0</ele><time>2026-04-05T13:25:07.956Z</time></trkpt><trkpt lat="45.7690088" lon="7.4520421"><ele>1357.0</ele><time>2026-04-05T13:25:11.954Z</time></trkpt><trkpt lat="45.7690243" lon="7.4521297"><ele>1357.0</ele><time>2026-04-05T13:25:14.945Z</time></trkpt><trkpt lat="45.7690607" lon="7.45221"><ele>1357.4285714285713</ele><time>2026-04-05T13:25:18.035Z</time></trkpt><trkpt lat="45.769106" lon="7.4522871"><ele>1357.857142857143</ele><time>2026-04-05T13:25:20.948Z</time></trkpt><trkpt lat="45.7691523" lon="7.4523621"><ele>1358.2857142857142</ele><time>2026-04-05T13:25:23.96Z</time></trkpt><trkpt lat="45.769186" lon="7.452439"><ele>1358.7142857142858</ele><time>2026-04-05T13:25:26.96Z</time></trkpt><trkpt lat="45.7692179" lon="7.4525248"><ele>1359.142857142857</ele><time>2026-04-05T13:25:29.96Z</time></trkpt><trkpt lat="45.769255" lon="7.4526088"><ele>1359.5714285714287</ele><time>2026-04-05T13:25:32.965Z</time></trkpt><trkpt lat="45.7693" lon="7.45271"><ele>1360.0</ele><time>2026-04-05T13:25:36.953Z</time></trkpt><trkpt lat="45.7693366" lon="7.4527912"><ele>1364.2857142857144</ele><time>2026-04-05T13:25:39.96Z</time></trkpt><trkpt lat="45.7693678" lon="7.4528731"><ele>1368.5714285714284</ele><time>2026-04-05T13:25:42.957Z</time></trkpt><trkpt lat="45.7693969" lon="7.4529575"><ele>1372.857142857143</ele><time>2026-04-05T13:25:45.961Z</time></trkpt><trkpt lat="45.7694233" lon="7.4530448"><ele>1377.1428571428573</ele><time>2026-04-05T13:25:48.959Z</time></trkpt><trkpt lat="45.7694354" lon="7.4531343"><ele>1381.4285714285716</ele><time>2026-04-05T13:25:51.952Z</time></trkpt><trkpt lat="45.7694467" lon="7.4532246"><ele>1385.7142857142858</ele><time>2026-04-05T13:25:54.956Z</time></trkpt><trkpt lat="45.7694513" lon="7.4533445"><ele>1390.0</ele><time>2026-04-05T13:25:58.951Z</time></trkpt><trkpt lat="45.7694302" lon="7.4534413"><ele>1390.4285714285716</ele><time>2026-04-05T13:26:01.956Z</time></trkpt><trkpt lat="45.769403" lon="7.4535298"><ele>1390.857142857143</ele><time>2026-04-05T13:26:04.959Z</time></trkpt><trkpt lat="45.7693655" lon="7.4536188"><ele>1391.2857142857142</ele><time>2026-04-05T13:26:07.953Z</time></trkpt><trkpt lat="45.7693289" lon="7.4537048"><ele>1391.7142857142858</ele><time>2026-04-05T13:26:10.95Z</time></trkpt><trkpt lat="45.7692949" lon="7.4538146"><ele>1392.142857142857</ele><time>2026-04-05T13:26:14.955Z</time></trkpt><trkpt lat="45.7692766" lon="7.4539062"><ele>1392.5714285714287</ele><time>2026-04-05T13:26:17.95Z</time></trkpt><trkpt lat="45.7692664" lon="7.4539999"><ele>1393.0</ele><time>2026-04-05T13:26:20.961Z</time></trkpt><trkpt lat="45.7692585" lon="7.454096"><ele>1392.5714285714287</ele><time>2026-04-05T13:26:23.961Z</time></trkpt><trkpt lat="45.7692648" lon="7.4541938"><ele>1392.142857142857</ele><time>2026-04-05T13:26:26.961Z</time></trkpt><trkpt lat="45.769281" lon="7.4542849"><ele>1391.7142857142858</ele><time>2026-04-05T13:26:29.962Z</time></trkpt><trkpt lat="45.7693158" lon="7.4543642"><ele>1391.2857142857142</ele><time>2026-04-05T13:26:32.955Z</time></trkpt><trkpt lat="45.7693741" lon="7.4544059"><ele>1390.857142857143</ele><time>2026-04-05T13:26:35.952Z</time></trkpt><trkpt lat="45.769432" lon="7.4543494"><ele>1390.4285714285716</ele><time>2026-04-05T13:26:38.952Z</time></trkpt><trkpt lat="45.7694427" lon="7.4542494"><ele>1390.0</ele><time>2026-04-05T13:26:41.947Z</time></trkpt><trkpt lat="45.7694165" lon="7.4541581"><ele>1390.0000000000002</ele><time>2026-04-05T13:26:44.953Z</time></trkpt><trkpt lat="45.769415" lon="7.4540597"><ele>1390.0</ele><time>2026-04-05T13:26:47.957Z</time></trkpt><trkpt lat="45.7694411" lon="7.4539706"><ele>1390.0</ele><time>2026-04-05T13:26:50.96Z</time></trkpt><trkpt lat="45.7694923" lon="7.4538823"><ele>1390.0</ele><time>2026-04-05T13:26:54.956Z</time></trkpt><trkpt lat="45.7695576" lon="7.4538097"><ele>1390.0</ele><time>2026-04-05T13:26:58.958Z</time></trkpt><trkpt lat="45.7696214" lon="7.4537352"><ele>1390.0000000000002</ele><time>2026-04-05T13:27:02.963Z</time></trkpt><trkpt lat="45.7696717" lon="7.4536725"><ele>1390.0</ele><time>2026-04-05T13:27:05.96Z</time></trkpt><trkpt lat="45.7697253" lon="7.453619"><ele>1390.4285714285716</ele><time>2026-04-05T13:27:08.957Z</time></trkpt><trkpt lat="45.7697743" lon="7.4535543"><ele>1390.857142857143</ele><time>2026-04-05T13:27:11.96Z</time></trkpt><trkpt lat="45.7698302" lon="7.4534729"><ele>1391.2857142857142</ele><time>2026-04-05T13:27:15.958Z</time></trkpt><trkpt lat="45.7698818" lon="7.4533812"><ele>1391.7142857142858</ele><time>2026-04-05T13:27:19.957Z</time></trkpt><trkpt lat="45.7699129" lon="7.4532963"><ele>1392.142857142857</ele><time>2026-04-05T13:27:22.961Z</time></trkpt><trkpt lat="45.7699432" lon="7.4532161"><ele>1392.5714285714287</ele><time>2026-04-05T13:27:25.957Z</time></trkpt><trkpt lat="45.7699726" lon="7.4531119"><ele>1393.0</ele><time>2026-04-05T13:27:29.956Z</time></trkpt><trkpt lat="45.7700097" lon="7.4530112"><ele>1392.5714285714287</ele><time>2026-04-05T13:27:33.955Z</time></trkpt><trkpt lat="45.770048" lon="7.4529393"><ele>1392.142857142857</ele><time>2026-04-05T13:27:36.953Z</time></trkpt><trkpt lat="45.770075" lon="7.4528566"><ele>1391.7142857142858</ele><time>2026-04-05T13:27:39.959Z</time></trkpt><trkpt lat="45.7701017" lon="7.4527656"><ele>1391.2857142857142</ele><time>2026-04-05T13:27:42.966Z</time></trkpt><trkpt lat="45.770127" lon="7.4526798"><ele>1390.857142857143</ele><time>2026-04-05T13:27:45.965Z</time></trkpt><trkpt lat="45.770156" lon="7.4525974"><ele>1390.4285714285716</ele><time>2026-04-05T13:27:48.964Z</time></trkpt><trkpt lat="45.7701822" lon="7.4525123"><ele>1390.0</ele><time>2026-04-05T13:27:51.96Z</time></trkpt><trkpt lat="45.7702095" lon="7.452424"><ele>1393.2857142857144</ele><time>2026-04-05T13:27:54.955Z</time></trkpt><trkpt lat="45.7702447" lon="7.452344"><ele>1396.5714285714287</ele><time>2026-04-05T13:27:57.953Z</time></trkpt><trkpt lat="45.7702793" lon="7.4522514"><ele>1399.857142857143</ele><time>2026-04-05T13:28:01.981Z</time></trkpt><trkpt lat="45.7703117" lon="7.4521618"><ele>1403.1428571428573</ele><time>2026-04-05T13:28:04.954Z</time></trkpt><trkpt lat="45.7703486" lon="7.4520688"><ele>1406.4285714285716</ele><time>2026-04-05T13:28:07.956Z</time></trkpt><trkpt lat="45.7703835" lon="7.451978"><ele>1409.7142857142858</ele><time>2026-04-05T13:28:10.959Z</time></trkpt><trkpt lat="45.7704162" lon="7.4518907"><ele>1413.0</ele><time>2026-04-05T13:28:13.955Z</time></trkpt><trkpt lat="45.7704508" lon="7.4517844"><ele>1413.0</ele><time>2026-04-05T13:28:17.959Z</time></trkpt><trkpt lat="45.7704795" lon="7.4517008"><ele>1413.0</ele><time>2026-04-05T13:28:20.962Z</time></trkpt><trkpt lat="45.7705169" lon="7.4515948"><ele>1413.0</ele><time>2026-04-05T13:28:24.962Z</time></trkpt><trkpt lat="45.7705525" lon="7.4515115"><ele>1413.0</ele><time>2026-04-05T13:28:27.954Z</time></trkpt><trkpt lat="45.770587" lon="7.4514346"><ele>1413.0</ele><time>2026-04-05T13:28:31.072Z</time></trkpt><trkpt lat="45.7706305" lon="7.4513579"><ele>1413.0</ele><time>2026-04-05T13:28:33.965Z</time></trkpt><trkpt lat="45.7706774" lon="7.451286"><ele>1413.0</ele><time>2026-04-05T13:28:36.964Z</time></trkpt><trkpt lat="45.7707276" lon="7.4512187"><ele>1413.142857142857</ele><time>2026-04-05T13:28:39.968Z</time></trkpt><trkpt lat="45.7707887" lon="7.4511201"><ele>1413.2857142857142</ele><time>2026-04-05T13:28:43.971Z</time></trkpt><trkpt lat="45.7708273" lon="7.451044"><ele>1413.4285714285716</ele><time>2026-04-05T13:28:46.971Z</time></trkpt><trkpt lat="45.7708615" lon="7.450955"><ele>1413.5714285714284</ele><time>2026-04-05T13:28:49.966Z</time></trkpt><trkpt lat="45.7708934" lon="7.4508371"><ele>1413.7142857142858</ele><time>2026-04-05T13:28:54.007Z</time></trkpt><trkpt lat="45.7708996" lon="7.4507419"><ele>1413.857142857143</ele><time>2026-04-05T13:28:56.956Z</time></trkpt><trkpt lat="45.7709056" lon="7.4506478"><ele>1414.0</ele><time>2026-04-05T13:28:59.962Z</time></trkpt><trkpt lat="45.7709027" lon="7.450526"><ele>1413.857142857143</ele><time>2026-04-05T13:29:03.965Z</time></trkpt><trkpt lat="45.7708896" lon="7.4504317"><ele>1413.7142857142858</ele><time>2026-04-05T13:29:06.975Z</time></trkpt><trkpt lat="45.7708807" lon="7.4503417"><ele>1413.5714285714284</ele><time>2026-04-05T13:29:09.968Z</time></trkpt><trkpt lat="45.7708765" lon="7.450248"><ele>1413.4285714285716</ele><time>2026-04-05T13:29:13.038Z</time></trkpt><trkpt lat="45.7708833" lon="7.4501551"><ele>1413.2857142857142</ele><time>2026-04-05T13:29:15.946Z</time></trkpt><trkpt lat="45.770899" lon="7.4500392"><ele>1413.142857142857</ele><time>2026-04-05T13:29:19.954Z</time></trkpt><trkpt lat="45.7709276" lon="7.4499557"><ele>1413.0</ele><time>2026-04-05T13:29:22.95Z</time></trkpt><trkpt lat="45.7709678" lon="7.4498847"><ele>1413.0</ele><time>2026-04-05T13:29:25.95Z</time></trkpt><trkpt lat="45.7710146" lon="7.4497955"><ele>1413.0</ele><time>2026-04-05T13:29:29.956Z</time></trkpt><trkpt lat="45.7710377" lon="7.4497112"><ele>1413.0</ele><time>2026-04-05T13:29:32.956Z</time></trkpt><trkpt lat="45.771055" lon="7.4496202"><ele>1413.0</ele><time>2026-04-05T13:29:35.964Z</time></trkpt><trkpt lat="45.7710668" lon="7.4495257"><ele>1413.0</ele><time>2026-04-05T13:29:38.968Z</time></trkpt><trkpt lat="45.7710765" lon="7.4494362"><ele>1413.0</ele><time>2026-04-05T13:29:42.01Z</time></trkpt><trkpt lat="45.7710937" lon="7.4493205"><ele>1413.0</ele><time>2026-04-05T13:29:45.954Z</time></trkpt><trkpt lat="45.771112" lon="7.4492298"><ele>1416.7142857142858</ele><time>2026-04-05T13:29:48.952Z</time></trkpt><trkpt lat="45.7711368" lon="7.4491459"><ele>1420.4285714285716</ele><time>2026-04-05T13:29:51.954Z</time></trkpt><trkpt lat="45.7711964" lon="7.4490634"><ele>1424.1428571428573</ele><time>2026-04-05T13:29:55.952Z</time></trkpt><trkpt lat="45.7712538" lon="7.4490194"><ele>1427.857142857143</ele><time>2026-04-05T13:29:58.963Z</time></trkpt><trkpt lat="45.7713264" lon="7.4489557"><ele>1431.5714285714287</ele><time>2026-04-05T13:30:03.042Z</time></trkpt><trkpt lat="45.7713755" lon="7.4488923"><ele>1435.2857142857144</ele><time>2026-04-05T13:30:05.96Z</time></trkpt><trkpt lat="45.7714208" lon="7.4488226"><ele>1439.0</ele><time>2026-04-05T13:30:08.964Z</time></trkpt><trkpt lat="45.7714774" lon="7.4487819"><ele>1440.0000000000002</ele><time>2026-04-05T13:30:11.964Z</time></trkpt><trkpt lat="45.7715213" lon="7.448857"><ele>1441.0</ele><time>2026-04-05T13:30:15.964Z</time></trkpt><trkpt lat="45.7714821" lon="7.4489362"><ele>1442.0</ele><time>2026-04-05T13:30:18.959Z</time></trkpt><trkpt lat="45.7714314" lon="7.449032"><ele>1443.0</ele><time>2026-04-05T13:30:22.953Z</time></trkpt><trkpt lat="45.7713833" lon="7.4491209"><ele>1444.0</ele><time>2026-04-05T13:30:26.955Z</time></trkpt><trkpt lat="45.7713345" lon="7.4491804"><ele>1445.0000000000002</ele><time>2026-04-05T13:30:29.962Z</time></trkpt><trkpt lat="45.7712892" lon="7.4492685"><ele>1446.0</ele><time>2026-04-05T13:30:33.955Z</time></trkpt><trkpt lat="45.7712756" lon="7.4493568"><ele>1446.0000000000002</ele><time>2026-04-05T13:30:36.965Z</time></trkpt><trkpt lat="45.7712661" lon="7.4494521"><ele>1446.0</ele><time>2026-04-05T13:30:39.959Z</time></trkpt><trkpt lat="45.7712731" lon="7.4495434"><ele>1446.0</ele><time>2026-04-05T13:30:42.956Z</time></trkpt><trkpt lat="45.7712841" lon="7.449636"><ele>1446.0</ele><time>2026-04-05T13:30:45.967Z</time></trkpt><trkpt lat="45.7712858" lon="7.4497282"><ele>1446.0</ele><time>2026-04-05T13:30:48.962Z</time></trkpt><trkpt lat="45.7712928" lon="7.449823"><ele>1446.0000000000002</ele><time>2026-04-05T13:30:51.959Z</time></trkpt><trkpt lat="45.7712938" lon="7.449917"><ele>1446.0</ele><time>2026-04-05T13:30:54.96Z</time></trkpt><trkpt lat="45.7712929" lon="7.4500102"><ele>1447.0</ele><time>2026-04-05T13:30:57.961Z</time></trkpt><trkpt lat="45.7712904" lon="7.4501085"><ele>1448.0</ele><time>2026-04-05T13:31:00.965Z</time></trkpt><trkpt lat="45.7712884" lon="7.4502079"><ele>1449.0</ele><time>2026-04-05T13:31:03.964Z</time></trkpt><trkpt lat="45.7713051" lon="7.4503262"><ele>1450.0</ele><time>2026-04-05T13:31:07.962Z</time></trkpt><trkpt lat="45.7713355" lon="7.4504193"><ele>1451.0</ele><time>2026-04-05T13:31:11.961Z</time></trkpt><trkpt lat="45.7713475" lon="7.4505322"><ele>1452.0</ele><time>2026-04-05T13:31:16.963Z</time></trkpt><trkpt lat="45.771341" lon="7.4506555"><ele>1452.4285714285713</ele><time>2026-04-05T13:31:20.954Z</time></trkpt><trkpt lat="45.7713393" lon="7.4507758"><ele>1452.857142857143</ele><time>2026-04-05T13:31:24.948Z</time></trkpt><trkpt lat="45.7713405" lon="7.450871"><ele>1453.2857142857142</ele><time>2026-04-05T13:31:28.032Z</time></trkpt><trkpt lat="45.7713428" lon="7.4509661"><ele>1453.7142857142858</ele><time>2026-04-05T13:31:30.958Z</time></trkpt><trkpt lat="45.7713547" lon="7.4510616"><ele>1454.142857142857</ele><time>2026-04-05T13:31:33.959Z</time></trkpt><trkpt lat="45.7713638" lon="7.4511533"><ele>1454.5714285714284</ele><time>2026-04-05T13:31:36.955Z</time></trkpt><trkpt lat="45.7713812" lon="7.4512665"><ele>1455.0</ele><time>2026-04-05T13:31:40.952Z</time></trkpt><trkpt lat="45.7713943" lon="7.4513617"><ele>1455.142857142857</ele><time>2026-04-05T13:31:43.953Z</time></trkpt><trkpt lat="45.771403" lon="7.4514525"><ele>1455.2857142857142</ele><time>2026-04-05T13:31:46.951Z</time></trkpt><trkpt lat="45.7714205" lon="7.4515406"><ele>1455.4285714285716</ele><time>2026-04-05T13:31:49.963Z</time></trkpt><trkpt lat="45.7714351" lon="7.4516306"><ele>1455.5714285714284</ele><time>2026-04-05T13:31:52.967Z</time></trkpt><trkpt lat="45.7714495" lon="7.4517455"><ele>1455.7142857142858</ele><time>2026-04-05T13:31:56.966Z</time></trkpt><trkpt lat="45.7714641" lon="7.451837"><ele>1455.857142857143</ele><time>2026-04-05T13:31:59.964Z</time></trkpt><trkpt lat="45.7714817" lon="7.4519477"><ele>1456.0</ele><time>2026-04-05T13:32:03.965Z</time></trkpt><trkpt lat="45.7714991" lon="7.4520621"><ele>1455.8333333333333</ele><time>2026-04-05T13:32:08.024Z</time></trkpt><trkpt lat="45.7715195" lon="7.4521817"><ele>1455.6666666666665</ele><time>2026-04-05T13:32:11.951Z</time></trkpt><trkpt lat="45.7715386" lon="7.4522962"><ele>1455.5</ele><time>2026-04-05T13:32:15.957Z</time></trkpt><trkpt lat="45.7715492" lon="7.4523884"><ele>1455.3333333333333</ele><time>2026-04-05T13:32:18.957Z</time></trkpt><trkpt lat="45.771558" lon="7.4524819"><ele>1455.1666666666667</ele><time>2026-04-05T13:32:21.959Z</time></trkpt><trkpt lat="45.7715736" lon="7.4525963"><ele>1455.0</ele><time>2026-04-05T13:32:26.044Z</time></trkpt><trkpt lat="45.7715945" lon="7.4527039"><ele>1455.0</ele><time>2026-04-05T13:32:29.955Z</time></trkpt><trkpt lat="45.7716189" lon="7.4527876"><ele>1455.0</ele><time>2026-04-05T13:32:32.956Z</time></trkpt><trkpt lat="45.7716544" lon="7.4528879"><ele>1455.0</ele><time>2026-04-05T13:32:36.95Z</time></trkpt><trkpt lat="45.7716752" lon="7.4529745"><ele>1455.0</ele><time>2026-04-05T13:32:39.949Z</time></trkpt><trkpt lat="45.7717064" lon="7.4530891"><ele>1455.0</ele><time>2026-04-05T13:32:43.954Z</time></trkpt><trkpt lat="45.7717339" lon="7.4531715"><ele>1455.0</ele><time>2026-04-05T13:32:46.951Z</time></trkpt><trkpt lat="45.7717637" lon="7.4532728"><ele>1455.0</ele><time>2026-04-05T13:32:50.955Z</time></trkpt><trkpt lat="45.7717905" lon="7.4533843"><ele>1454.4285714285713</ele><time>2026-04-05T13:32:54.961Z</time></trkpt><trkpt lat="45.7718259" lon="7.453488"><ele>1453.8571428571427</ele><time>2026-04-05T13:32:58.959Z</time></trkpt><trkpt lat="45.7718535" lon="7.4535708"><ele>1453.2857142857142</ele><time>2026-04-05T13:33:01.952Z</time></trkpt><trkpt lat="45.7718814" lon="7.453679"><ele>1452.7142857142858</ele><time>2026-04-05T13:33:05.945Z</time></trkpt><trkpt lat="45.7719169" lon="7.4537589"><ele>1452.142857142857</ele><time>2026-04-05T13:33:08.96Z</time></trkpt><trkpt lat="45.7719455" lon="7.4538433"><ele>1451.5714285714287</ele><time>2026-04-05T13:33:11.956Z</time></trkpt><trkpt lat="45.7719796" lon="7.4539282"><ele>1451.0</ele><time>2026-04-05T13:33:14.954Z</time></trkpt><trkpt lat="45.7720075" lon="7.4540137"><ele>1454.4285714285716</ele><time>2026-04-05T13:33:17.955Z</time></trkpt><trkpt lat="45.7720414" lon="7.454118"><ele>1457.8571428571427</ele><time>2026-04-05T13:33:21.956Z</time></trkpt><trkpt lat="45.7720835" lon="7.4542013"><ele>1461.2857142857142</ele><time>2026-04-05T13:33:24.957Z</time></trkpt><trkpt lat="45.7721385" lon="7.4542573"><ele>1464.7142857142858</ele><time>2026-04-05T13:33:28.025Z</time></trkpt><trkpt lat="45.7722045" lon="7.454275"><ele>1468.1428571428573</ele><time>2026-04-05T13:33:30.952Z</time></trkpt><trkpt lat="45.7722645" lon="7.4543034"><ele>1471.5714285714284</ele><time>2026-04-05T13:33:33.955Z</time></trkpt><trkpt lat="45.7723427" lon="7.454332"><ele>1475.0</ele><time>2026-04-05T13:33:37.955Z</time></trkpt><trkpt lat="45.772422" lon="7.4543589"><ele>1475.0</ele><time>2026-04-05T13:33:41.962Z</time></trkpt><trkpt lat="45.7724773" lon="7.4544099"><ele>1475.0</ele><time>2026-04-05T13:33:44.958Z</time></trkpt><trkpt lat="45.7724994" lon="7.4545227"><ele>1475.0</ele><time>2026-04-05T13:33:48.958Z</time></trkpt><trkpt lat="45.7724823" lon="7.4546185"><ele>1475.0</ele><time>2026-04-05T13:33:51.96Z</time></trkpt><trkpt lat="45.7724417" lon="7.4546961"><ele>1475.0</ele><time>2026-04-05T13:33:54.956Z</time></trkpt><trkpt lat="45.7723921" lon="7.4547649"><ele>1475.0</ele><time>2026-04-05T13:33:57.952Z</time></trkpt><trkpt lat="45.7723545" lon="7.4548374"><ele>1475.0</ele><time>2026-04-05T13:34:00.954Z</time></trkpt><trkpt lat="45.772323" lon="7.4549192"><ele>1474.857142857143</ele><time>2026-04-05T13:34:03.961Z</time></trkpt><trkpt lat="45.7723051" lon="7.4550143"><ele>1474.7142857142858</ele><time>2026-04-05T13:34:06.954Z</time></trkpt><trkpt lat="45.7722958" lon="7.4551135"><ele>1474.5714285714287</ele><time>2026-04-05T13:34:09.964Z</time></trkpt><trkpt lat="45.7723005" lon="7.4552089"><ele>1474.4285714285716</ele><time>2026-04-05T13:34:12.955Z</time></trkpt><trkpt lat="45.7723021" lon="7.4553138"><ele>1474.2857142857142</ele><time>2026-04-05T13:34:15.952Z</time></trkpt><trkpt lat="45.7722932" lon="7.4554248"><ele>1474.1428571428573</ele><time>2026-04-05T13:34:18.957Z</time></trkpt><trkpt lat="45.7722949" lon="7.4555306"><ele>1474.0</ele><time>2026-04-05T13:34:21.956Z</time></trkpt><trkpt lat="45.7722904" lon="7.455643"><ele>1474.3333333333333</ele><time>2026-04-05T13:34:24.962Z</time></trkpt><trkpt lat="45.772293" lon="7.4557511"><ele>1474.6666666666665</ele><time>2026-04-05T13:34:27.955Z</time></trkpt><trkpt lat="45.7722944" lon="7.4558617"><ele>1475.0</ele><time>2026-04-05T13:34:30.961Z</time></trkpt><trkpt lat="45.7723032" lon="7.4559765"><ele>1475.3333333333333</ele><time>2026-04-05T13:34:33.954Z</time></trkpt><trkpt lat="45.7723045" lon="7.4560851"><ele>1475.6666666666667</ele><time>2026-04-05T13:34:36.96Z</time></trkpt><trkpt lat="45.7723161" lon="7.4561935"><ele>1476.0</ele><time>2026-04-05T13:34:39.959Z</time></trkpt><trkpt lat="45.7723311" lon="7.4563036"><ele>1476.0</ele><time>2026-04-05T13:34:42.961Z</time></trkpt><trkpt lat="45.7723622" lon="7.4564086"><ele>1476.0</ele><time>2026-04-05T13:34:45.957Z</time></trkpt><trkpt lat="45.7724003" lon="7.4565129"><ele>1476.0</ele><time>2026-04-05T13:34:49.956Z</time></trkpt><trkpt lat="45.7724353" lon="7.4565908"><ele>1476.0</ele><time>2026-04-05T13:34:52.961Z</time></trkpt><trkpt lat="45.7724754" lon="7.4566663"><ele>1476.0</ele><time>2026-04-05T13:34:55.964Z</time></trkpt><trkpt lat="45.7725229" lon="7.4567308"><ele>1476.0</ele><time>2026-04-05T13:34:58.964Z</time></trkpt><trkpt lat="45.7725721" lon="7.4568236"><ele>1476.0</ele><time>2026-04-05T13:35:02.962Z</time></trkpt><trkpt lat="45.772625" lon="7.4569103"><ele>1476.0</ele><time>2026-04-05T13:35:06.964Z</time></trkpt><trkpt lat="45.7726587" lon="7.4569918"><ele>1476.0</ele><time>2026-04-05T13:35:09.961Z</time></trkpt><trkpt lat="45.7726991" lon="7.4570662"><ele>1476.0</ele><time>2026-04-05T13:35:12.959Z</time></trkpt><trkpt lat="45.7727243" lon="7.4571522"><ele>1476.0</ele><time>2026-04-05T13:35:15.958Z</time></trkpt><trkpt lat="45.7727659" lon="7.4572241"><ele>1476.0</ele><time>2026-04-05T13:35:18.963Z</time></trkpt><trkpt lat="45.7728248" lon="7.4572597"><ele>1476.0</ele><time>2026-04-05T13:35:21.968Z</time></trkpt><trkpt lat="45.7728795" lon="7.4573105"><ele>1476.0</ele><time>2026-04-05T13:35:24.961Z</time></trkpt><trkpt lat="45.7729264" lon="7.4573787"><ele>1479.0</ele><time>2026-04-05T13:35:27.958Z</time></trkpt><trkpt lat="45.7729714" lon="7.4574483"><ele>1482.0</ele><time>2026-04-05T13:35:30.967Z</time></trkpt><trkpt lat="45.7730237" lon="7.4575103"><ele>1485.0</ele><time>2026-04-05T13:35:33.963Z</time></trkpt><trkpt lat="45.7730816" lon="7.457564"><ele>1488.0</ele><time>2026-04-05T13:35:36.957Z</time></trkpt><trkpt lat="45.7731399" lon="7.4576019"><ele>1491.0</ele><time>2026-04-05T13:35:39.97Z</time></trkpt><trkpt lat="45.7732" lon="7.4576475"><ele>1494.0</ele><time>2026-04-05T13:35:42.967Z</time></trkpt><trkpt lat="45.773257" lon="7.4576904"><ele>1497.0</ele><time>2026-04-05T13:35:45.963Z</time></trkpt><trkpt lat="45.7733138" lon="7.4577367"><ele>1497.0</ele><time>2026-04-05T13:35:48.968Z</time></trkpt><trkpt lat="45.7733782" lon="7.4577843"><ele>1497.0</ele><time>2026-04-05T13:35:51.953Z</time></trkpt><trkpt lat="45.7734433" lon="7.4578214"><ele>1497.0</ele><time>2026-04-05T13:35:55.958Z</time></trkpt><trkpt lat="45.7735164" lon="7.4578671"><ele>1497.0</ele><time>2026-04-05T13:36:01.967Z</time></trkpt><trkpt lat="45.7735767" lon="7.4579028"><ele>1497.0</ele><time>2026-04-05T13:36:04.963Z</time></trkpt><trkpt lat="45.7736581" lon="7.4579446"><ele>1497.0</ele><time>2026-04-05T13:36:08.958Z</time></trkpt><trkpt lat="45.773729" lon="7.4579819"><ele>1497.0</ele><time>2026-04-05T13:36:11.961Z</time></trkpt><trkpt lat="45.7737959" lon="7.4580244"><ele>1495.7142857142858</ele><time>2026-04-05T13:36:14.964Z</time></trkpt><trkpt lat="45.7738667" lon="7.4580691"><ele>1494.4285714285713</ele><time>2026-04-05T13:36:17.958Z</time></trkpt><trkpt lat="45.7739332" lon="7.458112"><ele>1493.1428571428573</ele><time>2026-04-05T13:36:20.956Z</time></trkpt><trkpt lat="45.7740012" lon="7.4581537"><ele>1491.857142857143</ele><time>2026-04-05T13:36:23.957Z</time></trkpt><trkpt lat="45.7740671" lon="7.4581982"><ele>1490.5714285714287</ele><time>2026-04-05T13:36:26.955Z</time></trkpt><trkpt lat="45.774133" lon="7.45824"><ele>1489.2857142857144</ele><time>2026-04-05T13:36:29.96Z</time></trkpt><trkpt lat="45.7742078" lon="7.4582809"><ele>1488.0</ele><time>2026-04-05T13:36:32.958Z</time></trkpt><trkpt lat="45.774268" lon="7.45832"><ele>1488.0000000000002</ele><time>2026-04-05T13:36:35.954Z</time></trkpt><trkpt lat="45.7743337" lon="7.4583694"><ele>1488.0</ele><time>2026-04-05T13:36:38.959Z</time></trkpt><trkpt lat="45.7743958" lon="7.4584124"><ele>1488.0</ele><time>2026-04-05T13:36:41.963Z</time></trkpt><trkpt lat="45.774464" lon="7.458449"><ele>1488.0</ele><time>2026-04-05T13:36:44.961Z</time></trkpt><trkpt lat="45.7745311" lon="7.4584871"><ele>1488.0</ele><time>2026-04-05T13:36:48.04Z</time></trkpt><trkpt lat="45.7746021" lon="7.4585442"><ele>1488.0000000000002</ele><time>2026-04-05T13:36:50.962Z</time></trkpt><trkpt lat="45.774675" lon="7.4585904"><ele>1488.0</ele><time>2026-04-05T13:36:53.959Z</time></trkpt><trkpt lat="45.7747353" lon="7.4586499"><ele>1487.6666666666667</ele><time>2026-04-05T13:36:56.96Z</time></trkpt><trkpt lat="45.7748002" lon="7.4587028"><ele>1487.3333333333333</ele><time>2026-04-05T13:37:00.033Z</time></trkpt><trkpt lat="45.77487" lon="7.4587587"><ele>1487.0</ele><time>2026-04-05T13:37:02.953Z</time></trkpt><trkpt lat="45.7749344" lon="7.4588162"><ele>1486.6666666666665</ele><time>2026-04-05T13:37:05.961Z</time></trkpt><trkpt lat="45.7749989" lon="7.4588655"><ele>1486.3333333333333</ele><time>2026-04-05T13:37:08.96Z</time></trkpt><trkpt lat="45.7750716" lon="7.4589083"><ele>1486.0</ele><time>2026-04-05T13:37:11.964Z</time></trkpt><trkpt lat="45.775144" lon="7.4589428"><ele>1488.5</ele><time>2026-04-05T13:37:14.963Z</time></trkpt><trkpt lat="45.7752207" lon="7.4589663"><ele>1491.0</ele><time>2026-04-05T13:37:17.959Z</time></trkpt><trkpt lat="45.7753009" lon="7.4589733"><ele>1493.5</ele><time>2026-04-05T13:37:21.033Z</time></trkpt><trkpt lat="45.7753774" lon="7.4589561"><ele>1496.0</ele><time>2026-04-05T13:37:23.958Z</time></trkpt><trkpt lat="45.7754511" lon="7.458924"><ele>1498.5</ele><time>2026-04-05T13:37:26.961Z</time></trkpt><trkpt lat="45.7755128" lon="7.4588808"><ele>1501.0</ele><time>2026-04-05T13:37:29.964Z</time></trkpt><trkpt lat="45.7755736" lon="7.4588333"><ele>1500.9999999999998</ele><time>2026-04-05T13:37:32.958Z</time></trkpt><trkpt lat="45.775636" lon="7.458801"><ele>1501.0</ele><time>2026-04-05T13:37:35.961Z</time></trkpt><trkpt lat="45.7756995" lon="7.4587567"><ele>1501.0</ele><time>2026-04-05T13:37:38.963Z</time></trkpt><trkpt lat="45.7757614" lon="7.4587124"><ele>1501.0</ele><time>2026-04-05T13:37:42.036Z</time></trkpt><trkpt lat="45.7758282" lon="7.4586653"><ele>1501.0</ele><time>2026-04-05T13:37:44.96Z</time></trkpt><trkpt lat="45.7758937" lon="7.4586137"><ele>1500.9999999999998</ele><time>2026-04-05T13:37:47.977Z</time></trkpt><trkpt lat="45.7759613" lon="7.4585634"><ele>1501.0</ele><time>2026-04-05T13:37:51.956Z</time></trkpt><trkpt lat="45.7760273" lon="7.4585028"><ele>1506.5714285714284</ele><time>2026-04-05T13:37:55.959Z</time></trkpt><trkpt lat="45.7760895" lon="7.4584595"><ele>1512.142857142857</ele><time>2026-04-05T13:37:58.96Z</time></trkpt><trkpt lat="45.7761479" lon="7.4584244"><ele>1517.7142857142858</ele><time>2026-04-05T13:38:01.949Z</time></trkpt><trkpt lat="45.7762139" lon="7.4584141"><ele>1523.2857142857142</ele><time>2026-04-05T13:38:04.946Z</time></trkpt><trkpt lat="45.7762667" lon="7.4584916"><ele>1528.857142857143</ele><time>2026-04-05T13:38:08.953Z</time></trkpt><trkpt lat="45.7762874" lon="7.458577"><ele>1534.4285714285713</ele><time>2026-04-05T13:38:11.952Z</time></trkpt><trkpt lat="45.7762845" lon="7.4586716"><ele>1540.0</ele><time>2026-04-05T13:38:14.954Z</time></trkpt><trkpt lat="45.7762807" lon="7.4587618"><ele>1537.6666666666667</ele><time>2026-04-05T13:38:17.954Z</time></trkpt><trkpt lat="45.7762701" lon="7.458883"><ele>1535.3333333333335</ele><time>2026-04-05T13:38:21.947Z</time></trkpt><trkpt lat="45.7762558" lon="7.4589747"><ele>1533.0</ele><time>2026-04-05T13:38:24.954Z</time></trkpt><trkpt lat="45.7762397" lon="7.4590873"><ele>1530.6666666666667</ele><time>2026-04-05T13:38:28.949Z</time></trkpt><trkpt lat="45.7762385" lon="7.4591778"><ele>1528.3333333333335</ele><time>2026-04-05T13:38:31.953Z</time></trkpt><trkpt lat="45.7762649" lon="7.4592923"><ele>1526.0</ele><time>2026-04-05T13:38:35.952Z</time></trkpt><trkpt lat="45.7763294" lon="7.4593696"><ele>1526.0</ele><time>2026-04-05T13:38:39.955Z</time></trkpt><trkpt lat="45.7763882" lon="7.459413"><ele>1526.0</ele><time>2026-04-05T13:38:42.953Z</time></trkpt><trkpt lat="45.7764711" lon="7.4594319"><ele>1526.0</ele><time>2026-04-05T13:38:46.956Z</time></trkpt><trkpt lat="45.7765506" lon="7.4594292"><ele>1526.0</ele><time>2026-04-05T13:38:50.95Z</time></trkpt><trkpt lat="45.7766131" lon="7.459412"><ele>1526.0</ele><time>2026-04-05T13:38:53.952Z</time></trkpt><trkpt lat="45.776677" lon="7.4593897"><ele>1526.0</ele><time>2026-04-05T13:38:56.944Z</time></trkpt><trkpt lat="45.7767446" lon="7.4593871"><ele>1526.0</ele><time>2026-04-05T13:38:59.952Z</time></trkpt><trkpt lat="45.776809" lon="7.459386"><ele>1530.0</ele><time>2026-04-05T13:39:03.033Z</time></trkpt><trkpt lat="45.7768867" lon="7.4594137"><ele>1534.0</ele><time>2026-04-05T13:39:06.955Z</time></trkpt><trkpt lat="45.7769599" lon="7.4594751"><ele>1538.0</ele><time>2026-04-05T13:39:10.955Z</time></trkpt><trkpt lat="45.7770057" lon="7.4595466"><ele>1542.0</ele><time>2026-04-05T13:39:13.955Z</time></trkpt><trkpt lat="45.7770442" lon="7.4596509"><ele>1545.9999999999998</ele><time>2026-04-05T13:39:17.963Z</time></trkpt><trkpt lat="45.7770725" lon="7.4597573"><ele>1550.0</ele><time>2026-04-05T13:39:21.961Z</time></trkpt><trkpt lat="45.7771" lon="7.4598632"><ele>1549.9999999999998</ele><time>2026-04-05T13:39:25.96Z</time></trkpt><trkpt lat="45.7771321" lon="7.4599641"><ele>1550.0</ele><time>2026-04-05T13:39:29.958Z</time></trkpt><trkpt lat="45.7771629" lon="7.4600727"><ele>1550.0</ele><time>2026-04-05T13:39:33.958Z</time></trkpt><trkpt lat="45.7771952" lon="7.4601775"><ele>1550.0</ele><time>2026-04-05T13:39:37.964Z</time></trkpt><trkpt lat="45.7772315" lon="7.4602832"><ele>1549.9999999999998</ele><time>2026-04-05T13:39:42.077Z</time></trkpt><trkpt lat="45.7772629" lon="7.4603671"><ele>1550.0</ele><time>2026-04-05T13:39:44.959Z</time></trkpt><trkpt lat="45.7772988" lon="7.4604694"><ele>1548.142857142857</ele><time>2026-04-05T13:39:48.96Z</time></trkpt><trkpt lat="45.7773373" lon="7.460572"><ele>1546.2857142857142</ele><time>2026-04-05T13:39:52.955Z</time></trkpt><trkpt lat="45.7773729" lon="7.4606723"><ele>1544.4285714285716</ele><time>2026-04-05T13:39:56.957Z</time></trkpt><trkpt lat="45.7774059" lon="7.460752"><ele>1542.5714285714284</ele><time>2026-04-05T13:39:59.956Z</time></trkpt><trkpt lat="45.7774683" lon="7.4608269"><ele>1540.7142857142858</ele><time>2026-04-05T13:40:03.951Z</time></trkpt><trkpt lat="45.7775225" lon="7.4608738"><ele>1538.857142857143</ele><time>2026-04-05T13:40:06.96Z</time></trkpt><trkpt lat="45.7775812" lon="7.4609152"><ele>1537.0</ele><time>2026-04-05T13:40:09.958Z</time></trkpt><trkpt lat="45.7776441" lon="7.4609489"><ele>1543.0000000000002</ele><time>2026-04-05T13:40:12.954Z</time></trkpt><trkpt lat="45.7777063" lon="7.4609811"><ele>1549.0</ele><time>2026-04-05T13:40:15.952Z</time></trkpt><trkpt lat="45.7777658" lon="7.4610157"><ele>1555.0</ele><time>2026-04-05T13:40:18.951Z</time></trkpt><trkpt lat="45.7778246" lon="7.4610542"><ele>1561.0</ele><time>2026-04-05T13:40:21.954Z</time></trkpt><trkpt lat="45.7778835" lon="7.4610971"><ele>1567.0</ele><time>2026-04-05T13:40:24.959Z</time></trkpt><trkpt lat="45.7779462" lon="7.4611274"><ele>1573.0000000000002</ele><time>2026-04-05T13:40:27.957Z</time></trkpt><trkpt lat="45.7780005" lon="7.4611748"><ele>1579.0</ele><time>2026-04-05T13:40:30.956Z</time></trkpt><trkpt lat="45.7780561" lon="7.4612217"><ele>1574.1666666666667</ele><time>2026-04-05T13:40:33.957Z</time></trkpt><trkpt lat="45.7781271" lon="7.4612878"><ele>1569.3333333333335</ele><time>2026-04-05T13:40:37.956Z</time></trkpt><trkpt lat="45.7781781" lon="7.4613793"><ele>1564.5</ele><time>2026-04-05T13:40:41.952Z</time></trkpt><trkpt lat="45.778224" lon="7.4614741"><ele>1559.6666666666665</ele><time>2026-04-05T13:40:45.96Z</time></trkpt><trkpt lat="45.7782729" lon="7.4615729"><ele>1554.8333333333333</ele><time>2026-04-05T13:40:49.956Z</time></trkpt><trkpt lat="45.7783277" lon="7.4616623"><ele>1550.0</ele><time>2026-04-05T13:40:53.956Z</time></trkpt><trkpt lat="45.7783729" lon="7.4617305"><ele>1549.9999999999998</ele><time>2026-04-05T13:40:56.957Z</time></trkpt><trkpt lat="45.7784165" lon="7.4618013"><ele>1550.0</ele><time>2026-04-05T13:40:59.955Z</time></trkpt><trkpt lat="45.7784636" lon="7.4618648"><ele>1550.0</ele><time>2026-04-05T13:41:02.952Z</time></trkpt><trkpt lat="45.7785226" lon="7.461943"><ele>1550.0</ele><time>2026-04-05T13:41:06.948Z</time></trkpt><trkpt lat="45.7785815" lon="7.4620233"><ele>1550.0</ele><time>2026-04-05T13:41:10.955Z</time></trkpt><trkpt lat="45.7786384" lon="7.4621081"><ele>1549.9999999999998</ele><time>2026-04-05T13:41:14.955Z</time></trkpt><trkpt lat="45.7786874" lon="7.4621695"><ele>1550.0</ele><time>2026-04-05T13:41:17.956Z</time></trkpt><trkpt lat="45.7787451" lon="7.4622177"><ele>1550.3333333333333</ele><time>2026-04-05T13:41:20.955Z</time></trkpt><trkpt lat="45.7788202" lon="7.4622496"><ele>1550.6666666666665</ele><time>2026-04-05T13:41:24.96Z</time></trkpt><trkpt lat="45.7789003" lon="7.4622426"><ele>1551.0</ele><time>2026-04-05T13:41:28.959Z</time></trkpt><trkpt lat="45.7789619" lon="7.4622081"><ele>1551.3333333333335</ele><time>2026-04-05T13:41:31.956Z</time></trkpt><trkpt lat="45.7790407" lon="7.4621807"><ele>1551.6666666666667</ele><time>2026-04-05T13:41:35.952Z</time></trkpt><trkpt lat="45.7791212" lon="7.4621653"><ele>1552.0</ele><time>2026-04-05T13:41:39.96Z</time></trkpt><trkpt lat="45.7791819" lon="7.4621921"><ele>1552.0000000000002</ele><time>2026-04-05T13:41:42.953Z</time></trkpt><trkpt lat="45.7792602" lon="7.4622276"><ele>1552.0</ele><time>2026-04-05T13:41:46.957Z</time></trkpt><trkpt lat="45.7793265" lon="7.4622624"><ele>1552.0</ele><time>2026-04-05T13:41:49.958Z</time></trkpt><trkpt lat="45.7794081" lon="7.462299"><ele>1552.0</ele><time>2026-04-05T13:41:53.953Z</time></trkpt><trkpt lat="45.7794809" lon="7.4623334"><ele>1552.0000000000002</ele><time>2026-04-05T13:41:56.952Z</time></trkpt><trkpt lat="45.7795456" lon="7.4623594"><ele>1552.0</ele><time>2026-04-05T13:41:59.953Z</time></trkpt><trkpt lat="45.7796105" lon="7.4624097"><ele>1558.5000000000002</ele><time>2026-04-05T13:42:02.958Z</time></trkpt><trkpt lat="45.7796784" lon="7.4624243"><ele>1565.0</ele><time>2026-04-05T13:42:05.958Z</time></trkpt><trkpt lat="45.7797463" lon="7.4623919"><ele>1571.5</ele><time>2026-04-05T13:42:08.958Z</time></trkpt><trkpt lat="45.7798168" lon="7.4623638"><ele>1578.0</ele><time>2026-04-05T13:42:11.951Z</time></trkpt><trkpt lat="45.7799005" lon="7.4623807"><ele>1584.5000000000002</ele><time>2026-04-05T13:42:14.959Z</time></trkpt><trkpt lat="45.7799456" lon="7.4624617"><ele>1591.0</ele><time>2026-04-05T13:42:17.951Z</time></trkpt><trkpt lat="45.7799522" lon="7.4625794"><ele>1591.0000000000002</ele><time>2026-04-05T13:42:21.953Z</time></trkpt><trkpt lat="45.7799389" lon="7.4626839"><ele>1591.0</ele><time>2026-04-05T13:42:24.952Z</time></trkpt><trkpt lat="45.7799218" lon="7.4627837"><ele>1591.0</ele><time>2026-04-05T13:42:27.955Z</time></trkpt><trkpt lat="45.7799199" lon="7.4628915"><ele>1591.0</ele><time>2026-04-05T13:42:30.95Z</time></trkpt><trkpt lat="45.7799267" lon="7.4630009"><ele>1591.0000000000002</ele><time>2026-04-05T13:42:33.952Z</time></trkpt><trkpt lat="45.7799781" lon="7.4630994"><ele>1591.0</ele><time>2026-04-05T13:42:37.961Z</time></trkpt><trkpt lat="45.7800314" lon="7.4631873"><ele>1588.1666666666667</ele><time>2026-04-05T13:42:40.961Z</time></trkpt><trkpt lat="45.7800878" lon="7.4632802"><ele>1585.3333333333335</ele><time>2026-04-05T13:42:43.958Z</time></trkpt><trkpt lat="45.7801243" lon="7.4633789"><ele>1582.5</ele><time>2026-04-05T13:42:46.956Z</time></trkpt><trkpt lat="45.7801176" lon="7.4634949"><ele>1579.6666666666665</ele><time>2026-04-05T13:42:49.955Z</time></trkpt><trkpt lat="45.780081" lon="7.4636036"><ele>1576.8333333333333</ele><time>2026-04-05T13:42:52.949Z</time></trkpt><trkpt lat="45.7800325" lon="7.4637094"><ele>1574.0</ele><time>2026-04-05T13:42:55.956Z</time></trkpt><trkpt lat="45.7799898" lon="7.46381"><ele>1573.1666666666665</ele><time>2026-04-05T13:42:58.953Z</time></trkpt><trkpt lat="45.7799567" lon="7.4639274"><ele>1572.3333333333333</ele><time>2026-04-05T13:43:01.949Z</time></trkpt><trkpt lat="45.7799282" lon="7.4640453"><ele>1571.5</ele><time>2026-04-05T13:43:04.959Z</time></trkpt><trkpt lat="45.7799057" lon="7.4641581"><ele>1570.6666666666665</ele><time>2026-04-05T13:43:07.959Z</time></trkpt><trkpt lat="45.7798809" lon="7.4642713"><ele>1569.8333333333333</ele><time>2026-04-05T13:43:10.959Z</time></trkpt><trkpt lat="45.7798478" lon="7.4643883"><ele>1569.0</ele><time>2026-04-05T13:43:13.957Z</time></trkpt><trkpt lat="45.7798144" lon="7.4644704"><ele>1569.0</ele><time>2026-04-05T13:53:09.953Z</time></trkpt><trkpt lat="45.7798568" lon="7.4645646"><ele>1569.0</ele><time>2026-04-05T13:53:14.947Z</time></trkpt><trkpt lat="45.7798856" lon="7.4646604"><ele>1569.0</ele><time>2026-04-05T13:53:17.945Z</time></trkpt><trkpt lat="45.7799218" lon="7.4647572"><ele>1569.0</ele><time>2026-04-05T13:53:20.95Z</time></trkpt><trkpt lat="45.7799679" lon="7.4648547"><ele>1569.0</ele><time>2026-04-05T13:53:23.947Z</time></trkpt><trkpt lat="45.7800114" lon="7.4649624"><ele>1569.0</ele><time>2026-04-05T13:53:26.958Z</time></trkpt><trkpt lat="45.7800535" lon="7.4650768"><ele>1569.0</ele><time>2026-04-05T13:53:29.952Z</time></trkpt><trkpt lat="45.7800918" lon="7.4651929"><ele>1569.0</ele><time>2026-04-05T13:53:32.955Z</time></trkpt><trkpt lat="45.7801164" lon="7.4652762"><ele>1569.0</ele><time>2026-04-05T13:53:34.954Z</time></trkpt><trkpt lat="45.7801433" lon="7.4653612"><ele>1569.0</ele><time>2026-04-05T13:53:36.966Z</time></trkpt><trkpt lat="45.7801862" lon="7.4654729"><ele>1569.0</ele><time>2026-04-05T13:53:39.961Z</time></trkpt><trkpt lat="45.7802155" lon="7.4655535"><ele>1569.0</ele><time>2026-04-05T13:53:41.956Z</time></trkpt><trkpt lat="45.7802566" lon="7.4656246"><ele>1569.0</ele><time>2026-04-05T13:53:43.955Z</time></trkpt><trkpt lat="45.7803046" lon="7.4656845"><ele>1571.142857142857</ele><time>2026-04-05T13:53:45.948Z</time></trkpt><trkpt lat="45.7803634" lon="7.4657177"><ele>1573.2857142857142</ele><time>2026-04-05T13:53:47.946Z</time></trkpt><trkpt lat="45.7804553" lon="7.4657349"><ele>1575.4285714285716</ele><time>2026-04-05T13:53:50.954Z</time></trkpt><trkpt lat="45.7805323" lon="7.4657591"><ele>1577.5714285714284</ele><time>2026-04-05T13:53:52.951Z</time></trkpt><trkpt lat="45.7805975" lon="7.4657866"><ele>1579.7142857142856</ele><time>2026-04-05T13:53:54.953Z</time></trkpt><trkpt lat="45.7806587" lon="7.4658378"><ele>1581.857142857143</ele><time>2026-04-05T13:53:56.957Z</time></trkpt><trkpt lat="45.7807136" lon="7.4659"><ele>1584.0</ele><time>2026-04-05T13:53:58.953Z</time></trkpt><trkpt lat="45.7807715" lon="7.4659565"><ele>1584.0</ele><time>2026-04-05T13:54:00.956Z</time></trkpt><trkpt lat="45.7808263" lon="7.4660068"><ele>1584.0</ele><time>2026-04-05T13:54:02.956Z</time></trkpt><trkpt lat="45.7808814" lon="7.4660667"><ele>1584.0</ele><time>2026-04-05T13:54:04.951Z</time></trkpt><trkpt lat="45.7809369" lon="7.4661345"><ele>1584.0</ele><time>2026-04-05T13:54:06.949Z</time></trkpt><trkpt lat="45.7809833" lon="7.4662212"><ele>1584.0</ele><time>2026-04-05T13:54:08.951Z</time></trkpt><trkpt lat="45.7810191" lon="7.4663082"><ele>1584.0</ele><time>2026-04-05T13:54:10.952Z</time></trkpt><trkpt lat="45.7810355" lon="7.4664181"><ele>1584.0</ele><time>2026-04-05T13:54:12.951Z</time></trkpt><trkpt lat="45.781058" lon="7.4665193"><ele>1587.0</ele><time>2026-04-05T13:54:14.955Z</time></trkpt><trkpt lat="45.781083" lon="7.4666173"><ele>1590.0</ele><time>2026-04-05T13:54:16.948Z</time></trkpt><trkpt lat="45.7811131" lon="7.4667106"><ele>1593.0</ele><time>2026-04-05T13:54:18.946Z</time></trkpt><trkpt lat="45.7811531" lon="7.4667935"><ele>1596.0</ele><time>2026-04-05T13:54:20.953Z</time></trkpt><trkpt lat="45.7812016" lon="7.4668698"><ele>1599.0</ele><time>2026-04-05T13:54:22.947Z</time></trkpt><trkpt lat="45.781257" lon="7.4669405"><ele>1602.0</ele><time>2026-04-05T13:54:24.955Z</time></trkpt><trkpt lat="45.7813003" lon="7.4670179"><ele>1605.0</ele><time>2026-04-05T13:54:26.954Z</time></trkpt><trkpt lat="45.7813404" lon="7.4671097"><ele>1602.7142857142858</ele><time>2026-04-05T13:54:28.953Z</time></trkpt><trkpt lat="45.781361" lon="7.4672118"><ele>1600.4285714285713</ele><time>2026-04-05T13:54:30.955Z</time></trkpt><trkpt lat="45.78138" lon="7.467312"><ele>1598.142857142857</ele><time>2026-04-05T13:54:32.954Z</time></trkpt><trkpt lat="45.7813917" lon="7.4674162"><ele>1595.857142857143</ele><time>2026-04-05T13:54:34.959Z</time></trkpt><trkpt lat="45.7814033" lon="7.4675198"><ele>1593.5714285714284</ele><time>2026-04-05T13:54:36.946Z</time></trkpt><trkpt lat="45.7814025" lon="7.4676203"><ele>1591.2857142857142</ele><time>2026-04-05T13:54:38.957Z</time></trkpt><trkpt lat="45.7813943" lon="7.4677244"><ele>1589.0</ele><time>2026-04-05T13:54:40.959Z</time></trkpt><trkpt lat="45.7813774" lon="7.4678244"><ele>1588.9999999999998</ele><time>2026-04-05T13:54:42.956Z</time></trkpt><trkpt lat="45.7813577" lon="7.4679211"><ele>1589.0</ele><time>2026-04-05T13:54:44.963Z</time></trkpt><trkpt lat="45.7813379" lon="7.4680289"><ele>1589.0</ele><time>2026-04-05T13:54:46.948Z</time></trkpt><trkpt lat="45.7813231" lon="7.4681416"><ele>1589.0</ele><time>2026-04-05T13:54:48.951Z</time></trkpt><trkpt lat="45.7813179" lon="7.4682512"><ele>1588.9999999999998</ele><time>2026-04-05T13:54:50.955Z</time></trkpt><trkpt lat="45.7813241" lon="7.4683569"><ele>1589.0</ele><time>2026-04-05T13:54:52.949Z</time></trkpt><trkpt lat="45.7813493" lon="7.4684575"><ele>1587.5714285714287</ele><time>2026-04-05T13:54:54.954Z</time></trkpt><trkpt lat="45.7813851" lon="7.4685402"><ele>1586.142857142857</ele><time>2026-04-05T13:54:56.953Z</time></trkpt><trkpt lat="45.7814303" lon="7.468619"><ele>1584.7142857142858</ele><time>2026-04-05T13:54:58.954Z</time></trkpt><trkpt lat="45.781481" lon="7.4686944"><ele>1583.2857142857142</ele><time>2026-04-05T13:55:00.951Z</time></trkpt><trkpt lat="45.7815368" lon="7.4687572"><ele>1581.857142857143</ele><time>2026-04-05T13:55:02.957Z</time></trkpt><trkpt lat="45.7816004" lon="7.468807"><ele>1580.4285714285716</ele><time>2026-04-05T13:55:04.956Z</time></trkpt><trkpt lat="45.7816673" lon="7.4688499"><ele>1579.0</ele><time>2026-04-05T13:55:06.953Z</time></trkpt><trkpt lat="45.7817346" lon="7.4688745"><ele>1579.1428571428573</ele><time>2026-04-05T13:55:08.953Z</time></trkpt><trkpt lat="45.7818035" lon="7.4689048"><ele>1579.2857142857142</ele><time>2026-04-05T13:55:10.956Z</time></trkpt><trkpt lat="45.7818737" lon="7.4689367"><ele>1579.4285714285716</ele><time>2026-04-05T13:55:12.949Z</time></trkpt><trkpt lat="45.7819394" lon="7.4689814"><ele>1579.5714285714287</ele><time>2026-04-05T13:55:14.96Z</time></trkpt><trkpt lat="45.7820024" lon="7.4690278"><ele>1579.7142857142858</ele><time>2026-04-05T13:55:16.947Z</time></trkpt><trkpt lat="45.7820617" lon="7.4690723"><ele>1579.857142857143</ele><time>2026-04-05T13:55:18.953Z</time></trkpt><trkpt lat="45.7821182" lon="7.4691314"><ele>1580.0</ele><time>2026-04-05T13:55:20.959Z</time></trkpt><trkpt lat="45.7821771" lon="7.4691823"><ele>1579.9999999999998</ele><time>2026-04-05T13:55:22.96Z</time></trkpt><trkpt lat="45.7822648" lon="7.4692274"><ele>1580.0</ele><time>2026-04-05T13:55:25.95Z</time></trkpt><trkpt lat="45.7823292" lon="7.4692552"><ele>1580.0</ele><time>2026-04-05T13:55:27.954Z</time></trkpt><trkpt lat="45.7823941" lon="7.4692778"><ele>1580.0</ele><time>2026-04-05T13:55:29.95Z</time></trkpt><trkpt lat="45.7824877" lon="7.4693"><ele>1579.9999999999998</ele><time>2026-04-05T13:55:32.954Z</time></trkpt><trkpt lat="45.7825781" lon="7.4692948"><ele>1580.0</ele><time>2026-04-05T13:55:35.95Z</time></trkpt><trkpt lat="45.7826444" lon="7.469295"><ele>1580.9999999999998</ele><time>2026-04-05T13:55:37.953Z</time></trkpt><trkpt lat="45.7827329" lon="7.4692888"><ele>1582.0</ele><time>2026-04-05T13:55:40.954Z</time></trkpt><trkpt lat="45.782812" lon="7.4692884"><ele>1583.0</ele><time>2026-04-05T13:55:43.948Z</time></trkpt><trkpt lat="45.7828868" lon="7.4692838"><ele>1584.0</ele><time>2026-04-05T13:55:46.951Z</time></trkpt><trkpt lat="45.7829575" lon="7.4692577"><ele>1584.9999999999998</ele><time>2026-04-05T13:55:49.951Z</time></trkpt><trkpt lat="45.7830366" lon="7.4692546"><ele>1586.0</ele><time>2026-04-05T13:55:52.95Z</time></trkpt><trkpt lat="45.7831179" lon="7.4692453"><ele>1585.9999999999998</ele><time>2026-04-05T13:55:55.951Z</time></trkpt><trkpt lat="45.7831842" lon="7.46924"><ele>1586.0</ele><time>2026-04-05T13:55:58.947Z</time></trkpt><trkpt lat="45.7832749" lon="7.4692245"><ele>1586.0</ele><time>2026-04-05T13:56:01.952Z</time></trkpt><trkpt lat="45.7833436" lon="7.4692179"><ele>1586.0</ele><time>2026-04-05T13:56:04.954Z</time></trkpt><trkpt lat="45.7834171" lon="7.4692318"><ele>1585.9999999999998</ele><time>2026-04-05T13:56:07.947Z</time></trkpt><trkpt lat="45.7835131" lon="7.4692653"><ele>1586.0</ele><time>2026-04-05T13:56:10.952Z</time></trkpt><trkpt lat="45.7835895" lon="7.4692912"><ele>1583.2857142857144</ele><time>2026-04-05T13:56:13.95Z</time></trkpt><trkpt lat="45.7836696" lon="7.4692982"><ele>1580.5714285714287</ele><time>2026-04-05T13:56:16.949Z</time></trkpt><trkpt lat="45.7837264" lon="7.4692533"><ele>1577.857142857143</ele><time>2026-04-05T13:56:18.949Z</time></trkpt><trkpt lat="45.7837734" lon="7.4691916"><ele>1575.1428571428573</ele><time>2026-04-05T13:56:20.95Z</time></trkpt><trkpt lat="45.7838359" lon="7.4691149"><ele>1572.4285714285713</ele><time>2026-04-05T13:56:23.952Z</time></trkpt><trkpt lat="45.7838848" lon="7.4690573"><ele>1569.7142857142858</ele><time>2026-04-05T13:56:25.946Z</time></trkpt><trkpt lat="45.7839337" lon="7.4689727"><ele>1567.0</ele><time>2026-04-05T13:56:28.946Z</time></trkpt><trkpt lat="45.7839824" lon="7.4688769"><ele>1567.0000000000002</ele><time>2026-04-05T13:56:31.949Z</time></trkpt><trkpt lat="45.7840371" lon="7.4687928"><ele>1567.0</ele><time>2026-04-05T13:56:34.954Z</time></trkpt><trkpt lat="45.7840801" lon="7.468683"><ele>1567.0</ele><time>2026-04-05T13:56:37.957Z</time></trkpt><trkpt lat="45.7841164" lon="7.4686036"><ele>1567.0</ele><time>2026-04-05T13:56:39.95Z</time></trkpt><trkpt lat="45.784152" lon="7.468517"><ele>1567.0000000000002</ele><time>2026-04-05T13:56:41.95Z</time></trkpt><trkpt lat="45.7841893" lon="7.4684391"><ele>1567.0</ele><time>2026-04-05T13:56:43.946Z</time></trkpt><trkpt lat="45.7842406" lon="7.4683365"><ele>1567.0000000000002</ele><time>2026-04-05T13:56:46.952Z</time></trkpt><trkpt lat="45.7842928" lon="7.4682337"><ele>1567.0</ele><time>2026-04-05T13:56:49.95Z</time></trkpt><trkpt lat="45.7843401" lon="7.4681198"><ele>1567.0</ele><time>2026-04-05T13:56:52.951Z</time></trkpt><trkpt lat="45.7843857" lon="7.4680215"><ele>1567.0</ele><time>2026-04-05T13:56:55.945Z</time></trkpt><trkpt lat="45.7844329" lon="7.4679225"><ele>1567.0000000000002</ele><time>2026-04-05T13:56:58.953Z</time></trkpt><trkpt lat="45.7844851" lon="7.4678355"><ele>1567.0</ele><time>2026-04-05T13:57:01.951Z</time></trkpt><trkpt lat="45.7845404" lon="7.4677561"><ele>1572.6666666666667</ele><time>2026-04-05T13:57:04.948Z</time></trkpt><trkpt lat="45.7846172" lon="7.4677082"><ele>1578.3333333333335</ele><time>2026-04-05T13:57:07.956Z</time></trkpt><trkpt lat="45.7847069" lon="7.4676576"><ele>1584.0</ele><time>2026-04-05T13:57:10.952Z</time></trkpt><trkpt lat="45.7847766" lon="7.4676207"><ele>1589.6666666666665</ele><time>2026-04-05T13:57:13.946Z</time></trkpt><trkpt lat="45.784853" lon="7.4675753"><ele>1595.3333333333333</ele><time>2026-04-05T13:57:16.948Z</time></trkpt><trkpt lat="45.7849344" lon="7.4675462"><ele>1601.0</ele><time>2026-04-05T13:57:19.951Z</time></trkpt><trkpt lat="45.7850068" lon="7.4675269"><ele>1600.9999999999998</ele><time>2026-04-05T13:57:22.95Z</time></trkpt><trkpt lat="45.7850905" lon="7.4674936"><ele>1601.0</ele><time>2026-04-05T13:57:25.949Z</time></trkpt><trkpt lat="45.7851575" lon="7.4674463"><ele>1601.0</ele><time>2026-04-05T13:57:28.951Z</time></trkpt><trkpt lat="45.7852353" lon="7.4674288"><ele>1601.0</ele><time>2026-04-05T13:57:31.95Z</time></trkpt><trkpt lat="45.7853173" lon="7.4674227"><ele>1600.9999999999998</ele><time>2026-04-05T13:57:34.952Z</time></trkpt><trkpt lat="45.7853958" lon="7.4674157"><ele>1601.0</ele><time>2026-04-05T13:57:37.948Z</time></trkpt><trkpt lat="45.7854725" lon="7.4674004"><ele>1600.3333333333333</ele><time>2026-04-05T13:57:40.95Z</time></trkpt><trkpt lat="45.7855502" lon="7.4673808"><ele>1599.6666666666665</ele><time>2026-04-05T13:57:43.948Z</time></trkpt><trkpt lat="45.7856274" lon="7.4673763"><ele>1599.0</ele><time>2026-04-05T13:57:46.95Z</time></trkpt><trkpt lat="45.7857046" lon="7.4673929"><ele>1598.3333333333335</ele><time>2026-04-05T13:57:49.948Z</time></trkpt><trkpt lat="45.785779" lon="7.4674434"><ele>1597.6666666666667</ele><time>2026-04-05T13:57:52.951Z</time></trkpt><trkpt lat="45.7858502" lon="7.4674997"><ele>1597.0</ele><time>2026-04-05T13:57:55.94Z</time></trkpt><trkpt lat="45.7859261" lon="7.4675615"><ele>1597.0000000000002</ele><time>2026-04-05T13:57:58.948Z</time></trkpt><trkpt lat="45.7860035" lon="7.4675979"><ele>1597.0</ele><time>2026-04-05T13:58:01.944Z</time></trkpt><trkpt lat="45.7860842" lon="7.4676194"><ele>1597.0</ele><time>2026-04-05T13:58:04.944Z</time></trkpt><trkpt lat="45.7861623" lon="7.4676065"><ele>1597.0</ele><time>2026-04-05T13:58:07.949Z</time></trkpt><trkpt lat="45.786247" lon="7.4675747"><ele>1597.0000000000002</ele><time>2026-04-05T13:58:10.948Z</time></trkpt><trkpt lat="45.7863221" lon="7.4675315"><ele>1597.0</ele><time>2026-04-05T13:58:13.951Z</time></trkpt><trkpt lat="45.7863876" lon="7.4674744"><ele>1596.8333333333335</ele><time>2026-04-05T13:58:16.941Z</time></trkpt><trkpt lat="45.7864526" lon="7.4674087"><ele>1596.6666666666667</ele><time>2026-04-05T13:58:19.948Z</time></trkpt><trkpt lat="45.7865198" lon="7.4673461"><ele>1596.5</ele><time>2026-04-05T13:58:22.944Z</time></trkpt><trkpt lat="45.7865782" lon="7.4672686"><ele>1596.3333333333335</ele><time>2026-04-05T13:58:25.945Z</time></trkpt><trkpt lat="45.7866492" lon="7.467202"><ele>1596.1666666666667</ele><time>2026-04-05T13:58:28.95Z</time></trkpt><trkpt lat="45.786715" lon="7.467131"><ele>1596.0</ele><time>2026-04-05T13:58:31.949Z</time></trkpt><trkpt lat="45.7867835" lon="7.4670717"><ele>1595.8333333333333</ele><time>2026-04-05T13:58:34.951Z</time></trkpt><trkpt lat="45.7868535" lon="7.4670024"><ele>1595.6666666666665</ele><time>2026-04-05T13:58:37.941Z</time></trkpt><trkpt lat="45.786928" lon="7.4669308"><ele>1595.5</ele><time>2026-04-05T13:58:40.951Z</time></trkpt><trkpt lat="45.7869898" lon="7.4668494"><ele>1595.3333333333333</ele><time>2026-04-05T13:58:43.951Z</time></trkpt><trkpt lat="45.7870555" lon="7.4667871"><ele>1595.1666666666665</ele><time>2026-04-05T13:58:46.957Z</time></trkpt><trkpt lat="45.7871257" lon="7.4667368"><ele>1595.0</ele><time>2026-04-05T13:58:49.941Z</time></trkpt><trkpt lat="45.7871813" lon="7.4666864"><ele>1594.9999999999998</ele><time>2026-04-05T13:58:52.948Z</time></trkpt><trkpt lat="45.787242" lon="7.4666013"><ele>1595.0</ele><time>2026-04-05T13:58:56.952Z</time></trkpt><trkpt lat="45.7873108" lon="7.4665337"><ele>1595.0</ele><time>2026-04-05T13:58:59.947Z</time></trkpt><trkpt lat="45.7873722" lon="7.4664584"><ele>1595.0</ele><time>2026-04-05T13:59:02.972Z</time></trkpt><trkpt lat="45.7874342" lon="7.46637"><ele>1594.9999999999998</ele><time>2026-04-05T13:59:05.949Z</time></trkpt><trkpt lat="45.7874862" lon="7.4662771"><ele>1595.0</ele><time>2026-04-05T13:59:08.951Z</time></trkpt><trkpt lat="45.7875343" lon="7.4661733"><ele>1596.6666666666665</ele><time>2026-04-05T13:59:11.949Z</time></trkpt><trkpt lat="45.7875692" lon="7.4660678"><ele>1598.3333333333333</ele><time>2026-04-05T13:59:14.949Z</time></trkpt><trkpt lat="45.7876204" lon="7.4659659"><ele>1600.0</ele><time>2026-04-05T13:59:17.944Z</time></trkpt><trkpt lat="45.7876833" lon="7.4658783"><ele>1601.6666666666665</ele><time>2026-04-05T13:59:20.951Z</time></trkpt><trkpt lat="45.7877502" lon="7.4658032"><ele>1603.3333333333333</ele><time>2026-04-05T13:59:23.948Z</time></trkpt><trkpt lat="45.7878331" lon="7.4657429"><ele>1605.0</ele><time>2026-04-05T13:59:26.948Z</time></trkpt><trkpt lat="45.7879152" lon="7.465683"><ele>1605.0</ele><time>2026-04-05T13:59:29.946Z</time></trkpt><trkpt lat="45.7879945" lon="7.4656243"><ele>1605.0</ele><time>2026-04-05T13:59:32.945Z</time></trkpt><trkpt lat="45.7880698" lon="7.4655625"><ele>1605.0</ele><time>2026-04-05T13:59:35.946Z</time></trkpt><trkpt lat="45.788149" lon="7.4655071"><ele>1605.0</ele><time>2026-04-05T13:59:38.946Z</time></trkpt><trkpt lat="45.7882212" lon="7.4654416"><ele>1605.0</ele><time>2026-04-05T13:59:41.947Z</time></trkpt><trkpt lat="45.7882985" lon="7.4653785"><ele>1605.0</ele><time>2026-04-05T13:59:44.955Z</time></trkpt><trkpt lat="45.7883726" lon="7.4653266"><ele>1611.0</ele><time>2026-04-05T13:59:47.947Z</time></trkpt><trkpt lat="45.7884483" lon="7.4652669"><ele>1617.0</ele><time>2026-04-05T13:59:50.944Z</time></trkpt><trkpt lat="45.7885273" lon="7.4652089"><ele>1623.0</ele><time>2026-04-05T13:59:53.941Z</time></trkpt><trkpt lat="45.7886008" lon="7.4651407"><ele>1629.0</ele><time>2026-04-05T13:59:56.942Z</time></trkpt><trkpt lat="45.7886724" lon="7.4650759"><ele>1635.0</ele><time>2026-04-05T13:59:59.947Z</time></trkpt><trkpt lat="45.7887432" lon="7.4649972"><ele>1641.0</ele><time>2026-04-05T14:00:02.952Z</time></trkpt><trkpt lat="45.788804" lon="7.4649095"><ele>1641.3333333333333</ele><time>2026-04-05T14:00:05.945Z</time></trkpt><trkpt lat="45.7888603" lon="7.4648318"><ele>1641.6666666666665</ele><time>2026-04-05T14:00:08.947Z</time></trkpt><trkpt lat="45.788923" lon="7.4647857"><ele>1642.0</ele><time>2026-04-05T14:00:11.939Z</time></trkpt><trkpt lat="45.7890041" lon="7.4648225"><ele>1642.3333333333333</ele><time>2026-04-05T14:00:14.947Z</time></trkpt><trkpt lat="45.7890442" lon="7.4649274"><ele>1642.6666666666665</ele><time>2026-04-05T14:00:17.946Z</time></trkpt><trkpt lat="45.7890379" lon="7.4650503"><ele>1643.0</ele><time>2026-04-05T14:00:20.947Z</time></trkpt><trkpt lat="45.7890233" lon="7.4651862"><ele>1643.0</ele><time>2026-04-05T14:00:23.94Z</time></trkpt><trkpt lat="45.7890174" lon="7.4652913"><ele>1643.0</ele><time>2026-04-05T14:00:25.947Z</time></trkpt><trkpt lat="45.7890135" lon="7.4654274"><ele>1643.0</ele><time>2026-04-05T14:00:27.943Z</time></trkpt><trkpt lat="45.7889915" lon="7.4655629"><ele>1643.0</ele><time>2026-04-05T14:00:29.944Z</time></trkpt><trkpt lat="45.7889651" lon="7.4656899"><ele>1643.0</ele><time>2026-04-05T14:00:31.946Z</time></trkpt><trkpt lat="45.7889423" lon="7.4658173"><ele>1641.2</ele><time>2026-04-05T14:00:33.944Z</time></trkpt><trkpt lat="45.7889116" lon="7.4659518"><ele>1639.4</ele><time>2026-04-05T14:00:35.951Z</time></trkpt><trkpt lat="45.7888789" lon="7.4660775"><ele>1637.6000000000001</ele><time>2026-04-05T14:00:37.944Z</time></trkpt><trkpt lat="45.7888496" lon="7.4662084"><ele>1635.8000000000002</ele><time>2026-04-05T14:00:39.945Z</time></trkpt><trkpt lat="45.7888185" lon="7.4663493"><ele>1634.0</ele><time>2026-04-05T14:00:41.952Z</time></trkpt><trkpt lat="45.7887944" lon="7.4664849"><ele>1631.6666666666665</ele><time>2026-04-05T14:00:43.949Z</time></trkpt><trkpt lat="45.7888154" lon="7.466622"><ele>1629.3333333333333</ele><time>2026-04-05T14:00:45.948Z</time></trkpt><trkpt lat="45.7888709" lon="7.4667218"><ele>1627.0</ele><time>2026-04-05T14:00:47.945Z</time></trkpt><trkpt lat="45.7889396" lon="7.4668093"><ele>1624.6666666666665</ele><time>2026-04-05T14:00:49.945Z</time></trkpt><trkpt lat="45.7889952" lon="7.4668967"><ele>1622.3333333333333</ele><time>2026-04-05T14:00:51.946Z</time></trkpt><trkpt lat="45.7890514" lon="7.4669795"><ele>1620.0</ele><time>2026-04-05T14:00:53.948Z</time></trkpt><trkpt lat="45.7891022" lon="7.4670399"><ele>1620.0</ele><time>2026-04-05T14:00:55.946Z</time></trkpt><trkpt lat="45.7891574" lon="7.4670909"><ele>1620.0</ele><time>2026-04-05T14:00:57.946Z</time></trkpt><trkpt lat="45.7892466" lon="7.4671386"><ele>1620.0</ele><time>2026-04-05T14:01:00.948Z</time></trkpt><trkpt lat="45.7893144" lon="7.4671242"><ele>1620.0</ele><time>2026-04-05T14:01:02.953Z</time></trkpt><trkpt lat="45.7893907" lon="7.4670854"><ele>1620.0</ele><time>2026-04-05T14:01:04.947Z</time></trkpt><trkpt lat="45.7894628" lon="7.4670529"><ele>1620.0</ele><time>2026-04-05T14:01:06.946Z</time></trkpt><trkpt lat="45.7895307" lon="7.4670381"><ele>1622.0</ele><time>2026-04-05T14:01:08.954Z</time></trkpt><trkpt lat="45.7896014" lon="7.4670298"><ele>1624.0</ele><time>2026-04-05T14:01:10.945Z</time></trkpt><trkpt lat="45.7896832" lon="7.4670046"><ele>1626.0</ele><time>2026-04-05T14:01:12.943Z</time></trkpt><trkpt lat="45.789762" lon="7.4669749"><ele>1628.0</ele><time>2026-04-05T14:01:14.95Z</time></trkpt><trkpt lat="45.7898432" lon="7.4669518"><ele>1630.0</ele><time>2026-04-05T14:01:16.955Z</time></trkpt><trkpt lat="45.7899171" lon="7.4669265"><ele>1632.0</ele><time>2026-04-05T14:01:18.951Z</time></trkpt><trkpt lat="45.7899955" lon="7.4669068"><ele>1632.0</ele><time>2026-04-05T14:01:20.944Z</time></trkpt><trkpt lat="45.7900738" lon="7.4668941"><ele>1632.0</ele><time>2026-04-05T14:01:22.948Z</time></trkpt><trkpt lat="45.7901582" lon="7.4668837"><ele>1632.0</ele><time>2026-04-05T14:01:24.948Z</time></trkpt><trkpt lat="45.7902318" lon="7.4668832"><ele>1632.0</ele><time>2026-04-05T14:01:26.946Z</time></trkpt><trkpt lat="45.7903006" lon="7.466921"><ele>1632.0</ele><time>2026-04-05T14:01:28.947Z</time></trkpt><trkpt lat="45.7903454" lon="7.4670072"><ele>1632.0</ele><time>2026-04-05T14:01:30.945Z</time></trkpt><trkpt lat="45.7903611" lon="7.4671233"><ele>1628.3333333333333</ele><time>2026-04-05T14:01:32.948Z</time></trkpt><trkpt lat="45.7903699" lon="7.4672286"><ele>1624.6666666666665</ele><time>2026-04-05T14:01:34.958Z</time></trkpt><trkpt lat="45.7904113" lon="7.4673209"><ele>1621.0</ele><time>2026-04-05T14:01:36.951Z</time></trkpt><trkpt lat="45.7904949" lon="7.4673307"><ele>1617.3333333333333</ele><time>2026-04-05T14:01:38.943Z</time></trkpt><trkpt lat="45.7905844" lon="7.4673302"><ele>1613.6666666666665</ele><time>2026-04-05T14:01:40.947Z</time></trkpt><trkpt lat="45.7906647" lon="7.4673097"><ele>1610.0</ele><time>2026-04-05T14:01:42.951Z</time></trkpt><trkpt lat="45.7907374" lon="7.4673026"><ele>1609.9999999999998</ele><time>2026-04-05T14:01:44.942Z</time></trkpt><trkpt lat="45.7908034" lon="7.4672885"><ele>1610.0</ele><time>2026-04-05T14:01:46.948Z</time></trkpt><trkpt lat="45.7908768" lon="7.4672852"><ele>1610.0</ele><time>2026-04-05T14:01:48.947Z</time></trkpt><trkpt lat="45.7909583" lon="7.4672802"><ele>1610.0</ele><time>2026-04-05T14:01:50.947Z</time></trkpt><trkpt lat="45.7910369" lon="7.4672751"><ele>1609.9999999999998</ele><time>2026-04-05T14:01:52.955Z</time></trkpt><trkpt lat="45.7911162" lon="7.4672924"><ele>1610.0</ele><time>2026-04-05T14:01:54.948Z</time></trkpt><trkpt lat="45.7911929" lon="7.4673355"><ele>1611.4999999999998</ele><time>2026-04-05T14:01:56.947Z</time></trkpt><trkpt lat="45.7912627" lon="7.467415"><ele>1613.0</ele><time>2026-04-05T14:01:58.944Z</time></trkpt><trkpt lat="45.7913262" lon="7.4674971"><ele>1614.5</ele><time>2026-04-05T14:02:00.947Z</time></trkpt><trkpt lat="45.7913949" lon="7.467568"><ele>1616.0</ele><time>2026-04-05T14:02:02.95Z</time></trkpt><trkpt lat="45.7914724" lon="7.4676244"><ele>1617.4999999999998</ele><time>2026-04-05T14:02:04.947Z</time></trkpt><trkpt lat="45.7915579" lon="7.4676364"><ele>1619.0</ele><time>2026-04-05T14:02:06.942Z</time></trkpt><trkpt lat="45.7916515" lon="7.4676233"><ele>1619.0</ele><time>2026-04-05T14:02:08.941Z</time></trkpt><trkpt lat="45.7917384" lon="7.4676139"><ele>1619.0</ele><time>2026-04-05T14:02:10.947Z</time></trkpt><trkpt lat="45.7918365" lon="7.4676262"><ele>1619.0</ele><time>2026-04-05T14:02:12.943Z</time></trkpt><trkpt lat="45.7919246" lon="7.4676003"><ele>1619.0</ele><time>2026-04-05T14:02:14.95Z</time></trkpt><trkpt lat="45.792009" lon="7.4675393"><ele>1619.0</ele><time>2026-04-05T14:02:16.949Z</time></trkpt><trkpt lat="45.792073" lon="7.4674501"><ele>1618.4999999999998</ele><time>2026-04-05T14:02:18.951Z</time></trkpt><trkpt lat="45.7921455" lon="7.4674167"><ele>1618.0</ele><time>2026-04-05T14:02:20.944Z</time></trkpt><trkpt lat="45.7922272" lon="7.4674167"><ele>1617.5</ele><time>2026-04-05T14:02:22.951Z</time></trkpt><trkpt lat="45.7923141" lon="7.4674055"><ele>1617.0</ele><time>2026-04-05T14:02:24.958Z</time></trkpt><trkpt lat="45.7924085" lon="7.4674152"><ele>1616.4999999999998</ele><time>2026-04-05T14:02:26.95Z</time></trkpt><trkpt lat="45.7924934" lon="7.4674329"><ele>1616.0</ele><time>2026-04-05T14:02:28.948Z</time></trkpt><trkpt lat="45.7925698" lon="7.4674381"><ele>1615.9999999999998</ele><time>2026-04-05T14:02:30.954Z</time></trkpt><trkpt lat="45.7926435" lon="7.467372"><ele>1616.0</ele><time>2026-04-05T14:02:32.95Z</time></trkpt><trkpt lat="45.7926957" lon="7.467267"><ele>1616.0</ele><time>2026-04-05T14:02:34.961Z</time></trkpt><trkpt lat="45.7927334" lon="7.467171"><ele>1616.0</ele><time>2026-04-05T14:02:36.95Z</time></trkpt><trkpt lat="45.7928086" lon="7.4671138"><ele>1615.9999999999998</ele><time>2026-04-05T14:02:39.951Z</time></trkpt><trkpt lat="45.7928722" lon="7.4671677"><ele>1616.0</ele><time>2026-04-05T14:02:41.947Z</time></trkpt><trkpt lat="45.7929215" lon="7.4672632"><ele>1613.4999999999998</ele><time>2026-04-05T14:02:43.942Z</time></trkpt><trkpt lat="45.7929679" lon="7.4673589"><ele>1611.0</ele><time>2026-04-05T14:02:45.945Z</time></trkpt><trkpt lat="45.7930052" lon="7.4674869"><ele>1608.5</ele><time>2026-04-05T14:02:47.943Z</time></trkpt><trkpt lat="45.7930231" lon="7.4676043"><ele>1606.0</ele><time>2026-04-05T14:02:49.949Z</time></trkpt><trkpt lat="45.7930199" lon="7.4677352"><ele>1603.4999999999998</ele><time>2026-04-05T14:02:51.944Z</time></trkpt><trkpt lat="45.793037" lon="7.4678596"><ele>1601.0</ele><time>2026-04-05T14:02:53.949Z</time></trkpt><trkpt lat="45.7930843" lon="7.4679692"><ele>1600.9999999999998</ele><time>2026-04-05T14:02:55.952Z</time></trkpt><trkpt lat="45.7931525" lon="7.4680676"><ele>1601.0</ele><time>2026-04-05T14:02:57.946Z</time></trkpt><trkpt lat="45.7932251" lon="7.4681403"><ele>1601.0</ele><time>2026-04-05T14:02:59.945Z</time></trkpt><trkpt lat="45.7933062" lon="7.468165"><ele>1601.0</ele><time>2026-04-05T14:03:01.948Z</time></trkpt><trkpt lat="45.7933923" lon="7.4681855"><ele>1600.9999999999998</ele><time>2026-04-05T14:03:03.951Z</time></trkpt><trkpt lat="45.7934849" lon="7.468201"><ele>1601.0</ele><time>2026-04-05T14:03:05.951Z</time></trkpt><trkpt lat="45.7935778" lon="7.4682146"><ele>1604.6</ele><time>2026-04-05T14:03:07.946Z</time></trkpt><trkpt lat="45.7936677" lon="7.468227"><ele>1608.1999999999998</ele><time>2026-04-05T14:03:09.947Z</time></trkpt><trkpt lat="45.7937602" lon="7.4682454"><ele>1611.8000000000002</ele><time>2026-04-05T14:03:11.946Z</time></trkpt><trkpt lat="45.7938547" lon="7.4682843"><ele>1615.4</ele><time>2026-04-05T14:03:13.951Z</time></trkpt><trkpt lat="45.7939479" lon="7.4683161"><ele>1619.0</ele><time>2026-04-05T14:03:15.945Z</time></trkpt><trkpt lat="45.794044" lon="7.4683517"><ele>1619.0</ele><time>2026-04-05T14:03:17.949Z</time></trkpt><trkpt lat="45.7941382" lon="7.4683928"><ele>1619.0</ele><time>2026-04-05T14:03:19.946Z</time></trkpt><trkpt lat="45.7942289" lon="7.4684248"><ele>1619.0</ele><time>2026-04-05T14:03:21.952Z</time></trkpt><trkpt lat="45.7943228" lon="7.4684545"><ele>1619.0</ele><time>2026-04-05T14:03:23.952Z</time></trkpt><trkpt lat="45.7944173" lon="7.4684902"><ele>1619.0</ele><time>2026-04-05T14:03:25.946Z</time></trkpt><trkpt lat="45.7945014" lon="7.46852"><ele>1622.0</ele><time>2026-04-05T14:03:27.951Z</time></trkpt><trkpt lat="45.7945856" lon="7.4685448"><ele>1625.0</ele><time>2026-04-05T14:03:29.948Z</time></trkpt><trkpt lat="45.7946769" lon="7.4685636"><ele>1628.0</ele><time>2026-04-05T14:03:31.948Z</time></trkpt><trkpt lat="45.7947671" lon="7.4685855"><ele>1631.0</ele><time>2026-04-05T14:03:33.944Z</time></trkpt><trkpt lat="45.7948534" lon="7.4686115"><ele>1634.0</ele><time>2026-04-05T14:03:35.948Z</time></trkpt><trkpt lat="45.7949477" lon="7.4686291"><ele>1633.9999999999998</ele><time>2026-04-05T14:03:37.948Z</time></trkpt><trkpt lat="45.7950326" lon="7.4686449"><ele>1634.0</ele><time>2026-04-05T14:03:39.937Z</time></trkpt><trkpt lat="45.7951159" lon="7.4686632"><ele>1634.0</ele><time>2026-04-05T14:03:41.943Z</time></trkpt><trkpt lat="45.7952003" lon="7.4686729"><ele>1634.0</ele><time>2026-04-05T14:03:43.952Z</time></trkpt><trkpt lat="45.7952909" lon="7.4686871"><ele>1633.9999999999998</ele><time>2026-04-05T14:03:45.944Z</time></trkpt><trkpt lat="45.7953782" lon="7.4687053"><ele>1634.0</ele><time>2026-04-05T14:03:47.945Z</time></trkpt><trkpt lat="45.7954494" lon="7.468758"><ele>1631.1666666666665</ele><time>2026-04-05T14:03:49.946Z</time></trkpt><trkpt lat="45.7955248" lon="7.4688179"><ele>1628.3333333333333</ele><time>2026-04-05T14:03:51.949Z</time></trkpt><trkpt lat="45.7956074" lon="7.4688675"><ele>1625.5</ele><time>2026-04-05T14:03:53.945Z</time></trkpt><trkpt lat="45.7956851" lon="7.4689064"><ele>1622.6666666666665</ele><time>2026-04-05T14:03:55.945Z</time></trkpt><trkpt lat="45.7957744" lon="7.4689241"><ele>1619.8333333333333</ele><time>2026-04-05T14:03:57.945Z</time></trkpt><trkpt lat="45.7958643" lon="7.4689397"><ele>1617.0</ele><time>2026-04-05T14:03:59.956Z</time></trkpt><trkpt lat="45.7959623" lon="7.4689401"><ele>1620.3999999999999</ele><time>2026-04-05T14:04:01.949Z</time></trkpt><trkpt lat="45.7960556" lon="7.4689397"><ele>1623.8</ele><time>2026-04-05T14:04:03.944Z</time></trkpt><trkpt lat="45.7961466" lon="7.4689366"><ele>1627.2</ele><time>2026-04-05T14:04:05.95Z</time></trkpt><trkpt lat="45.7962376" lon="7.4689387"><ele>1630.6</ele><time>2026-04-05T14:04:07.948Z</time></trkpt><trkpt lat="45.7963297" lon="7.4689551"><ele>1634.0</ele><time>2026-04-05T14:04:09.953Z</time></trkpt><trkpt lat="45.7964138" lon="7.4689749"><ele>1633.9999999999998</ele><time>2026-04-05T14:04:11.948Z</time></trkpt><trkpt lat="45.7964967" lon="7.4690164"><ele>1634.0</ele><time>2026-04-05T14:04:13.944Z</time></trkpt><trkpt lat="45.7965694" lon="7.4690873"><ele>1634.0</ele><time>2026-04-05T14:04:15.941Z</time></trkpt><trkpt lat="45.7965914" lon="7.4692054"><ele>1634.0</ele><time>2026-04-05T14:04:17.943Z</time></trkpt><trkpt lat="45.7965663" lon="7.4693241"><ele>1633.9999999999998</ele><time>2026-04-05T14:04:19.944Z</time></trkpt><trkpt lat="45.7964934" lon="7.4693935"><ele>1634.0</ele><time>2026-04-05T14:04:21.95Z</time></trkpt><trkpt lat="45.7963948" lon="7.4694137"><ele>1634.0</ele><time>2026-04-05T14:04:23.944Z</time></trkpt><trkpt lat="45.7963" lon="7.4694533"><ele>1634.0</ele><time>2026-04-05T14:04:25.952Z</time></trkpt><trkpt lat="45.7962085" lon="7.4695052"><ele>1634.0</ele><time>2026-04-05T14:04:27.95Z</time></trkpt><trkpt lat="45.7961215" lon="7.4695885"><ele>1634.0</ele><time>2026-04-05T14:04:29.952Z</time></trkpt><trkpt lat="45.7960464" lon="7.4696738"><ele>1634.0</ele><time>2026-04-05T14:04:31.948Z</time></trkpt><trkpt lat="45.7959763" lon="7.4697602"><ele>1632.2</ele><time>2026-04-05T14:04:33.948Z</time></trkpt><trkpt lat="45.7959203" lon="7.4698662"><ele>1630.4</ele><time>2026-04-05T14:04:35.947Z</time></trkpt><trkpt lat="45.7958636" lon="7.4699724"><ele>1628.6</ele><time>2026-04-05T14:04:37.95Z</time></trkpt><trkpt lat="45.7958063" lon="7.4700745"><ele>1626.8</ele><time>2026-04-05T14:04:39.942Z</time></trkpt><trkpt lat="45.7957352" lon="7.4701727"><ele>1625.0</ele><time>2026-04-05T14:04:41.944Z</time></trkpt><trkpt lat="45.7956518" lon="7.4702482"><ele>1625.0</ele><time>2026-04-05T14:04:43.951Z</time></trkpt><trkpt lat="45.7955774" lon="7.4703278"><ele>1625.0</ele><time>2026-04-05T14:04:45.954Z</time></trkpt><trkpt lat="45.7954955" lon="7.4704054"><ele>1625.0</ele><time>2026-04-05T14:04:47.943Z</time></trkpt><trkpt lat="45.7954047" lon="7.4704797"><ele>1625.0</ele><time>2026-04-05T14:04:49.946Z</time></trkpt><trkpt lat="45.7953192" lon="7.4705443"><ele>1625.0</ele><time>2026-04-05T14:04:51.944Z</time></trkpt><trkpt lat="45.7952311" lon="7.4706113"><ele>1624.6</ele><time>2026-04-05T14:04:53.945Z</time></trkpt><trkpt lat="45.7951538" lon="7.4707074"><ele>1624.2</ele><time>2026-04-05T14:04:55.945Z</time></trkpt><trkpt lat="45.7950882" lon="7.4708132"><ele>1623.8000000000002</ele><time>2026-04-05T14:04:57.944Z</time></trkpt><trkpt lat="45.7950134" lon="7.4709064"><ele>1623.4</ele><time>2026-04-05T14:04:59.943Z</time></trkpt><trkpt lat="45.7949278" lon="7.4709848"><ele>1623.0</ele><time>2026-04-05T14:05:01.939Z</time></trkpt><trkpt lat="45.7948428" lon="7.4710713"><ele>1623.0</ele><time>2026-04-05T14:05:03.95Z</time></trkpt><trkpt lat="45.7947694" lon="7.4711662"><ele>1623.0</ele><time>2026-04-05T14:05:05.943Z</time></trkpt><trkpt lat="45.7947122" lon="7.4712982"><ele>1623.0</ele><time>2026-04-05T14:05:07.942Z</time></trkpt><trkpt lat="45.7946746" lon="7.471428"><ele>1623.0</ele><time>2026-04-05T14:05:09.947Z</time></trkpt><trkpt lat="45.7946398" lon="7.4715605"><ele>1623.0</ele><time>2026-04-05T14:05:11.946Z</time></trkpt><trkpt lat="45.7945971" lon="7.4716789"><ele>1623.2</ele><time>2026-04-05T14:05:13.941Z</time></trkpt><trkpt lat="45.7945427" lon="7.471795"><ele>1623.4</ele><time>2026-04-05T14:05:15.95Z</time></trkpt><trkpt lat="45.7944603" lon="7.4718733"><ele>1623.6000000000001</ele><time>2026-04-05T14:05:17.943Z</time></trkpt><trkpt lat="45.7943564" lon="7.4718975"><ele>1623.8000000000002</ele><time>2026-04-05T14:05:19.944Z</time></trkpt><trkpt lat="45.794259" lon="7.4718785"><ele>1624.0</ele><time>2026-04-05T14:05:21.945Z</time></trkpt><trkpt lat="45.7941534" lon="7.4718457"><ele>1624.0</ele><time>2026-04-05T14:05:23.942Z</time></trkpt><trkpt lat="45.7940484" lon="7.4718205"><ele>1624.0</ele><time>2026-04-05T14:05:25.946Z</time></trkpt><trkpt lat="45.7939428" lon="7.4718207"><ele>1624.0</ele><time>2026-04-05T14:05:27.946Z</time></trkpt><trkpt lat="45.7938436" lon="7.4718202"><ele>1624.0</ele><time>2026-04-05T14:05:29.948Z</time></trkpt><trkpt lat="45.7937361" lon="7.471819"><ele>1624.0</ele><time>2026-04-05T14:05:31.95Z</time></trkpt><trkpt lat="45.7936353" lon="7.4718348"><ele>1624.0</ele><time>2026-04-05T14:05:33.94Z</time></trkpt><trkpt lat="45.7935562" lon="7.4719288"><ele>1624.0</ele><time>2026-04-05T14:05:35.948Z</time></trkpt><trkpt lat="45.7934843" lon="7.4720289"><ele>1624.0</ele><time>2026-04-05T14:05:37.948Z</time></trkpt><trkpt lat="45.7933818" lon="7.472085"><ele>1624.0</ele><time>2026-04-05T14:05:39.941Z</time></trkpt><trkpt lat="45.79329" lon="7.4721051"><ele>1624.0</ele><time>2026-04-05T14:05:41.946Z</time></trkpt><trkpt lat="45.7932018" lon="7.4721289"><ele>1629.4</ele><time>2026-04-05T14:05:43.943Z</time></trkpt><trkpt lat="45.7931118" lon="7.4721676"><ele>1634.8000000000002</ele><time>2026-04-05T14:05:45.948Z</time></trkpt><trkpt lat="45.7930154" lon="7.4722156"><ele>1640.1999999999998</ele><time>2026-04-05T14:05:47.945Z</time></trkpt><trkpt lat="45.7929228" lon="7.472242"><ele>1645.6</ele><time>2026-04-05T14:05:49.943Z</time></trkpt><trkpt lat="45.7928268" lon="7.4722575"><ele>1651.0</ele><time>2026-04-05T14:05:51.945Z</time></trkpt><trkpt lat="45.7927286" lon="7.4722949"><ele>1647.6</ele><time>2026-04-05T14:05:53.944Z</time></trkpt><trkpt lat="45.7926306" lon="7.4723179"><ele>1644.1999999999998</ele><time>2026-04-05T14:05:55.942Z</time></trkpt><trkpt lat="45.7925368" lon="7.4723296"><ele>1640.8000000000002</ele><time>2026-04-05T14:05:57.946Z</time></trkpt><trkpt lat="45.7924461" lon="7.4723586"><ele>1637.4</ele><time>2026-04-05T14:05:59.944Z</time></trkpt><trkpt lat="45.7923596" lon="7.4723928"><ele>1634.0</ele><time>2026-04-05T14:06:01.943Z</time></trkpt><trkpt lat="45.7922683" lon="7.4724254"><ele>1634.0</ele><time>2026-04-05T14:06:03.941Z</time></trkpt><trkpt lat="45.7921764" lon="7.4724555"><ele>1634.0</ele><time>2026-04-05T14:06:05.946Z</time></trkpt><trkpt lat="45.7920769" lon="7.4724812"><ele>1634.0</ele><time>2026-04-05T14:06:07.946Z</time></trkpt><trkpt lat="45.7919883" lon="7.4724981"><ele>1634.0</ele><time>2026-04-05T14:06:09.951Z</time></trkpt><trkpt lat="45.7919053" lon="7.4725204"><ele>1634.0</ele><time>2026-04-05T14:06:11.943Z</time></trkpt><trkpt lat="45.7918205" lon="7.4725271"><ele>1630.6</ele><time>2026-04-05T14:06:13.943Z</time></trkpt><trkpt lat="45.7917341" lon="7.4725248"><ele>1627.2</ele><time>2026-04-05T14:06:15.948Z</time></trkpt><trkpt lat="45.7916462" lon="7.4725492"><ele>1623.8</ele><time>2026-04-05T14:06:17.943Z</time></trkpt><trkpt lat="45.791565" lon="7.4726165"><ele>1620.3999999999999</ele><time>2026-04-05T14:06:19.949Z</time></trkpt><trkpt lat="45.7914871" lon="7.4727004"><ele>1617.0</ele><time>2026-04-05T14:06:21.942Z</time></trkpt><trkpt lat="45.7914101" lon="7.4727952"><ele>1617.0</ele><time>2026-04-05T14:06:23.942Z</time></trkpt><trkpt lat="45.7913358" lon="7.4728855"><ele>1617.0</ele><time>2026-04-05T14:06:25.948Z</time></trkpt><trkpt lat="45.7912588" lon="7.4729552"><ele>1617.0</ele><time>2026-04-05T14:06:27.952Z</time></trkpt><trkpt lat="45.7911763" lon="7.4729951"><ele>1617.0</ele><time>2026-04-05T14:06:29.956Z</time></trkpt><trkpt lat="45.7910962" lon="7.4730408"><ele>1617.0</ele><time>2026-04-05T14:06:31.943Z</time></trkpt><trkpt lat="45.7910142" lon="7.4730729"><ele>1617.0</ele><time>2026-04-05T14:06:33.951Z</time></trkpt><trkpt lat="45.7909333" lon="7.4731195"><ele>1618.0</ele><time>2026-04-05T14:06:35.944Z</time></trkpt><trkpt lat="45.7908648" lon="7.4731995"><ele>1619.0</ele><time>2026-04-05T14:06:37.951Z</time></trkpt><trkpt lat="45.7908359" lon="7.4733152"><ele>1620.0</ele><time>2026-04-05T14:06:39.946Z</time></trkpt><trkpt lat="45.7908177" lon="7.4734406"><ele>1621.0</ele><time>2026-04-05T14:06:41.956Z</time></trkpt><trkpt lat="45.7908131" lon="7.4735753"><ele>1622.0</ele><time>2026-04-05T14:06:43.948Z</time></trkpt><trkpt lat="45.7908031" lon="7.4736973"><ele>1623.0</ele><time>2026-04-05T14:06:45.953Z</time></trkpt><trkpt lat="45.7907807" lon="7.4738173"><ele>1626.1666666666667</ele><time>2026-04-05T14:06:47.953Z</time></trkpt><trkpt lat="45.7907473" lon="7.4739275"><ele>1629.3333333333335</ele><time>2026-04-05T14:06:49.952Z</time></trkpt><trkpt lat="45.7906964" lon="7.4740221"><ele>1632.5</ele><time>2026-04-05T14:06:51.948Z</time></trkpt><trkpt lat="45.790644" lon="7.4740986"><ele>1635.6666666666667</ele><time>2026-04-05T14:06:53.948Z</time></trkpt><trkpt lat="45.7905888" lon="7.4741696"><ele>1638.8333333333335</ele><time>2026-04-05T14:06:55.945Z</time></trkpt><trkpt lat="45.7905326" lon="7.4742371"><ele>1642.0</ele><time>2026-04-05T14:06:57.946Z</time></trkpt><trkpt lat="45.7904695" lon="7.4742955"><ele>1642.0000000000002</ele><time>2026-04-05T14:06:59.947Z</time></trkpt><trkpt lat="45.7904041" lon="7.474341"><ele>1642.0</ele><time>2026-04-05T14:07:01.949Z</time></trkpt><trkpt lat="45.7903323" lon="7.4743765"><ele>1642.0</ele><time>2026-04-05T14:07:03.946Z</time></trkpt><trkpt lat="45.7902661" lon="7.4744145"><ele>1642.0</ele><time>2026-04-05T14:07:05.947Z</time></trkpt><trkpt lat="45.7902067" lon="7.474472"><ele>1642.0</ele><time>2026-04-05T14:07:07.947Z</time></trkpt><trkpt lat="45.7901547" lon="7.4745553"><ele>1642.0000000000002</ele><time>2026-04-05T14:07:09.951Z</time></trkpt><trkpt lat="45.7901218" lon="7.4746492"><ele>1642.0</ele><time>2026-04-05T14:07:11.953Z</time></trkpt><trkpt lat="45.7900971" lon="7.4747451"><ele>1641.0000000000002</ele><time>2026-04-05T14:07:13.94Z</time></trkpt><trkpt lat="45.790063" lon="7.4748261"><ele>1640.0</ele><time>2026-04-05T14:07:15.952Z</time></trkpt><trkpt lat="45.7900341" lon="7.4749154"><ele>1639.0</ele><time>2026-04-05T14:07:17.956Z</time></trkpt><trkpt lat="45.7900051" lon="7.4750035"><ele>1638.0</ele><time>2026-04-05T14:07:19.945Z</time></trkpt><trkpt lat="45.7899829" lon="7.4750974"><ele>1637.0</ele><time>2026-04-05T14:07:21.947Z</time></trkpt><trkpt lat="45.7899597" lon="7.4751882"><ele>1636.0000000000002</ele><time>2026-04-05T14:07:23.951Z</time></trkpt><trkpt lat="45.7899322" lon="7.4752781"><ele>1635.0</ele><time>2026-04-05T14:07:25.947Z</time></trkpt><trkpt lat="45.7898987" lon="7.4753584"><ele>1636.2857142857144</ele><time>2026-04-05T14:07:27.949Z</time></trkpt><trkpt lat="45.7898662" lon="7.4754469"><ele>1637.5714285714287</ele><time>2026-04-05T14:07:29.952Z</time></trkpt><trkpt lat="45.7898284" lon="7.4755293"><ele>1638.857142857143</ele><time>2026-04-05T14:07:31.946Z</time></trkpt><trkpt lat="45.7897822" lon="7.4756033"><ele>1640.1428571428573</ele><time>2026-04-05T14:07:33.952Z</time></trkpt><trkpt lat="45.7897205" lon="7.4756606"><ele>1641.4285714285713</ele><time>2026-04-05T14:07:35.956Z</time></trkpt><trkpt lat="45.7896534" lon="7.4757182"><ele>1642.7142857142858</ele><time>2026-04-05T14:07:37.948Z</time></trkpt><trkpt lat="45.7895933" lon="7.4757758"><ele>1644.0</ele><time>2026-04-05T14:07:39.948Z</time></trkpt><trkpt lat="45.7895289" lon="7.4758316"><ele>1644.0</ele><time>2026-04-05T14:07:41.942Z</time></trkpt><trkpt lat="45.7894538" lon="7.4758815"><ele>1644.0</ele><time>2026-04-05T14:07:44.956Z</time></trkpt><trkpt lat="45.7893664" lon="7.4759341"><ele>1644.0</ele><time>2026-04-05T14:07:47.939Z</time></trkpt><trkpt lat="45.789302" lon="7.4759818"><ele>1644.0</ele><time>2026-04-05T14:07:49.947Z</time></trkpt><trkpt lat="45.7892384" lon="7.4760296"><ele>1644.0</ele><time>2026-04-05T14:07:51.949Z</time></trkpt><trkpt lat="45.7891618" lon="7.476111"><ele>1644.0</ele><time>2026-04-05T14:07:54.951Z</time></trkpt><trkpt lat="45.7891003" lon="7.4761572"><ele>1644.5</ele><time>2026-04-05T14:07:56.948Z</time></trkpt><trkpt lat="45.7890332" lon="7.4762539"><ele>1645.0</ele><time>2026-04-05T14:07:59.943Z</time></trkpt><trkpt lat="45.7889858" lon="7.4763325"><ele>1645.5</ele><time>2026-04-05T14:08:01.956Z</time></trkpt><trkpt lat="45.788923" lon="7.4764218"><ele>1646.0</ele><time>2026-04-05T14:08:04.945Z</time></trkpt><trkpt lat="45.7888533" lon="7.4764928"><ele>1646.5</ele><time>2026-04-05T14:08:07.946Z</time></trkpt><trkpt lat="45.7887953" lon="7.4765313"><ele>1647.0</ele><time>2026-04-05T14:08:09.941Z</time></trkpt><trkpt lat="45.7887326" lon="7.476605"><ele>1647.0</ele><time>2026-04-05T14:08:11.957Z</time></trkpt><trkpt lat="45.7886747" lon="7.4766483"><ele>1647.0</ele><time>2026-04-05T14:08:13.952Z</time></trkpt><trkpt lat="45.7886101" lon="7.476688"><ele>1647.0</ele><time>2026-04-05T14:08:15.949Z</time></trkpt><trkpt lat="45.7885428" lon="7.4767322"><ele>1647.0</ele><time>2026-04-05T14:08:17.952Z</time></trkpt><trkpt lat="45.7884757" lon="7.4767751"><ele>1647.0</ele><time>2026-04-05T14:08:19.956Z</time></trkpt><trkpt lat="45.7883884" lon="7.4768236"><ele>1647.0</ele><time>2026-04-05T14:08:22.949Z</time></trkpt><trkpt lat="45.7883139" lon="7.4768674"><ele>1646.3333333333333</ele><time>2026-04-05T14:08:24.95Z</time></trkpt><trkpt lat="45.788243" lon="7.4769101"><ele>1645.6666666666665</ele><time>2026-04-05T14:08:26.952Z</time></trkpt><trkpt lat="45.7881432" lon="7.4769615"><ele>1645.0</ele><time>2026-04-05T14:08:28.955Z</time></trkpt><trkpt lat="45.7880639" lon="7.4770212"><ele>1644.3333333333333</ele><time>2026-04-05T14:08:30.95Z</time></trkpt><trkpt lat="45.7879907" lon="7.4770781"><ele>1643.6666666666665</ele><time>2026-04-05T14:08:32.946Z</time></trkpt><trkpt lat="45.7879217" lon="7.4771523"><ele>1643.0</ele><time>2026-04-05T14:08:34.948Z</time></trkpt><trkpt lat="45.787859" lon="7.4772475"><ele>1642.9999999999998</ele><time>2026-04-05T14:08:36.941Z</time></trkpt><trkpt lat="45.7878007" lon="7.4773386"><ele>1643.0</ele><time>2026-04-05T14:08:38.954Z</time></trkpt><trkpt lat="45.7877536" lon="7.4774226"><ele>1643.0</ele><time>2026-04-05T14:08:40.951Z</time></trkpt><trkpt lat="45.7877111" lon="7.4775037"><ele>1643.0</ele><time>2026-04-05T14:08:42.947Z</time></trkpt><trkpt lat="45.7876681" lon="7.4775797"><ele>1642.9999999999998</ele><time>2026-04-05T14:08:44.96Z</time></trkpt><trkpt lat="45.7876047" lon="7.4775849"><ele>1643.0</ele><time>2026-04-05T14:08:46.947Z</time></trkpt><trkpt lat="45.7875148" lon="7.4776209"><ele>1641.3333333333333</ele><time>2026-04-05T14:08:49.958Z</time></trkpt><trkpt lat="45.7874727" lon="7.4777282"><ele>1639.6666666666665</ele><time>2026-04-05T14:08:52.957Z</time></trkpt><trkpt lat="45.7875087" lon="7.4778153"><ele>1638.0</ele><time>2026-04-05T14:08:55.951Z</time></trkpt><trkpt lat="45.7875458" lon="7.4779137"><ele>1636.3333333333335</ele><time>2026-04-05T14:08:59.949Z</time></trkpt><trkpt lat="45.7875091" lon="7.4780157"><ele>1634.6666666666667</ele><time>2026-04-05T14:09:03.951Z</time></trkpt><trkpt lat="45.7874777" lon="7.478138"><ele>1633.0</ele><time>2026-04-05T14:09:06.95Z</time></trkpt><trkpt lat="45.7874529" lon="7.4782538"><ele>1633.0</ele><time>2026-04-05T14:09:09.948Z</time></trkpt><trkpt lat="45.7874348" lon="7.4783664"><ele>1633.0</ele><time>2026-04-05T14:09:12.952Z</time></trkpt><trkpt lat="45.787428" lon="7.4784914"><ele>1633.0</ele><time>2026-04-05T14:09:16.948Z</time></trkpt><trkpt lat="45.7874217" lon="7.4785871"><ele>1633.0</ele><time>2026-04-05T14:09:18.948Z</time></trkpt><trkpt lat="45.7874177" lon="7.4786788"><ele>1633.0</ele><time>2026-04-05T14:09:20.948Z</time></trkpt><trkpt lat="45.787419" lon="7.4787769"><ele>1633.0</ele><time>2026-04-05T14:09:22.959Z</time></trkpt><trkpt lat="45.7874215" lon="7.478873"><ele>1633.0</ele><time>2026-04-05T14:09:24.948Z</time></trkpt><trkpt lat="45.7874258" lon="7.4789657"><ele>1633.142857142857</ele><time>2026-04-05T14:09:26.951Z</time></trkpt><trkpt lat="45.7874245" lon="7.479079"><ele>1633.2857142857142</ele><time>2026-04-05T14:09:29.948Z</time></trkpt><trkpt lat="45.7874294" lon="7.4791694"><ele>1633.4285714285713</ele><time>2026-04-05T14:09:31.952Z</time></trkpt><trkpt lat="45.787424" lon="7.4792598"><ele>1633.5714285714284</ele><time>2026-04-05T14:09:33.951Z</time></trkpt><trkpt lat="45.7874168" lon="7.479353"><ele>1633.7142857142858</ele><time>2026-04-05T14:09:35.947Z</time></trkpt><trkpt lat="45.7873739" lon="7.4794516"><ele>1633.8571428571427</ele><time>2026-04-05T14:09:38.945Z</time></trkpt><trkpt lat="45.7873405" lon="7.4795343"><ele>1634.0</ele><time>2026-04-05T14:09:40.949Z</time></trkpt><trkpt lat="45.7873825" lon="7.4796179"><ele>1633.9999999999998</ele><time>2026-04-05T14:09:43.954Z</time></trkpt><trkpt lat="45.7874453" lon="7.4796407"><ele>1634.0</ele><time>2026-04-05T14:09:46.96Z</time></trkpt><trkpt lat="45.7874986" lon="7.4795788"><ele>1634.0</ele><time>2026-04-05T14:09:50.955Z</time></trkpt><trkpt lat="45.7875147" lon="7.4794621"><ele>1634.0</ele><time>2026-04-05T14:09:54.956Z</time></trkpt><trkpt lat="45.7874799" lon="7.4793635"><ele>1633.9999999999998</ele><time>2026-04-05T14:09:58.947Z</time></trkpt><trkpt lat="45.78746" lon="7.4792716"><ele>1634.0</ele><time>2026-04-05T14:10:01.943Z</time></trkpt><trkpt lat="45.7874508" lon="7.4791318"><ele>1633.9999999999998</ele><time>2026-04-05T14:10:04.946Z</time></trkpt><trkpt lat="45.7874508" lon="7.4790019"><ele>1634.0</ele><time>2026-04-05T14:10:07.949Z</time></trkpt><trkpt lat="45.7874508" lon="7.4789093"><ele>1634.0</ele><time>2026-04-05T14:10:09.944Z</time></trkpt><trkpt lat="45.7874473" lon="7.4788186"><ele>1634.0</ele><time>2026-04-05T14:10:11.944Z</time></trkpt><trkpt lat="45.787449" lon="7.4786909"><ele>1634.0</ele><time>2026-04-05T14:10:14.947Z</time></trkpt><trkpt lat="45.7874493" lon="7.4785977"><ele>1633.9999999999998</ele><time>2026-04-05T14:10:16.949Z</time></trkpt><trkpt lat="45.7874452" lon="7.4785008"><ele>1634.0</ele><time>2026-04-05T14:10:18.949Z</time></trkpt><trkpt lat="45.7874498" lon="7.478398"><ele>1633.8571428571427</ele><time>2026-04-05T14:10:20.95Z</time></trkpt><trkpt lat="45.7874663" lon="7.4783011"><ele>1633.7142857142858</ele><time>2026-04-05T14:10:22.948Z</time></trkpt><trkpt lat="45.7874895" lon="7.4782028"><ele>1633.5714285714284</ele><time>2026-04-05T14:10:24.951Z</time></trkpt><trkpt lat="45.7875104" lon="7.4781035"><ele>1633.4285714285713</ele><time>2026-04-05T14:10:26.948Z</time></trkpt><trkpt lat="45.7875335" lon="7.478015"><ele>1633.2857142857142</ele><time>2026-04-05T14:10:28.946Z</time></trkpt><trkpt lat="45.7875708" lon="7.4779229"><ele>1633.142857142857</ele><time>2026-04-05T14:10:30.944Z</time></trkpt><trkpt lat="45.7875996" lon="7.4778307"><ele>1633.0</ele><time>2026-04-05T14:10:32.953Z</time></trkpt><trkpt lat="45.7876354" lon="7.4777252"><ele>1634.6666666666667</ele><time>2026-04-05T14:10:34.945Z</time></trkpt><trkpt lat="45.7876775" lon="7.477622"><ele>1636.3333333333335</ele><time>2026-04-05T14:10:36.951Z</time></trkpt><trkpt lat="45.7877256" lon="7.4775245"><ele>1638.0</ele><time>2026-04-05T14:10:38.95Z</time></trkpt><trkpt lat="45.7877746" lon="7.477437"><ele>1639.6666666666665</ele><time>2026-04-05T14:10:40.946Z</time></trkpt><trkpt lat="45.7878232" lon="7.4773531"><ele>1641.3333333333333</ele><time>2026-04-05T14:10:42.948Z</time></trkpt><trkpt lat="45.787878" lon="7.4772648"><ele>1643.0</ele><time>2026-04-05T14:10:44.951Z</time></trkpt><trkpt lat="45.7879397" lon="7.4771884"><ele>1642.9999999999998</ele><time>2026-04-05T14:10:46.948Z</time></trkpt><trkpt lat="45.7879936" lon="7.4771126"><ele>1643.0</ele><time>2026-04-05T14:10:48.947Z</time></trkpt><trkpt lat="45.7880558" lon="7.477062"><ele>1643.0</ele><time>2026-04-05T14:10:50.943Z</time></trkpt><trkpt lat="45.7881324" lon="7.4770172"><ele>1643.0</ele><time>2026-04-05T14:10:52.946Z</time></trkpt><trkpt lat="45.7882078" lon="7.4769751"><ele>1642.9999999999998</ele><time>2026-04-05T14:10:54.951Z</time></trkpt><trkpt lat="45.7882864" lon="7.4769432"><ele>1643.0</ele><time>2026-04-05T14:10:56.946Z</time></trkpt><trkpt lat="45.7883619" lon="7.4769031"><ele>1643.6666666666665</ele><time>2026-04-05T14:10:58.942Z</time></trkpt><trkpt lat="45.7884418" lon="7.4768599"><ele>1644.3333333333333</ele><time>2026-04-05T14:11:00.948Z</time></trkpt><trkpt lat="45.7885239" lon="7.4768211"><ele>1645.0</ele><time>2026-04-05T14:11:02.944Z</time></trkpt><trkpt lat="45.7886042" lon="7.4767563"><ele>1645.6666666666665</ele><time>2026-04-05T14:11:04.949Z</time></trkpt><trkpt lat="45.7886706" lon="7.476718"><ele>1646.3333333333333</ele><time>2026-04-05T14:11:06.957Z</time></trkpt><trkpt lat="45.7887378" lon="7.476681"><ele>1647.0</ele><time>2026-04-05T14:11:08.945Z</time></trkpt><trkpt lat="45.7887901" lon="7.4766169"><ele>1647.0</ele><time>2026-04-05T14:11:10.95Z</time></trkpt><trkpt lat="45.7888353" lon="7.4765451"><ele>1647.0</ele><time>2026-04-05T14:11:12.949Z</time></trkpt><trkpt lat="45.7889068" lon="7.4764521"><ele>1647.0</ele><time>2026-04-05T14:11:15.945Z</time></trkpt><trkpt lat="45.7889574" lon="7.4763709"><ele>1647.0</ele><time>2026-04-05T14:11:17.947Z</time></trkpt><trkpt lat="45.7890138" lon="7.4763005"><ele>1647.0</ele><time>2026-04-05T14:11:19.951Z</time></trkpt><trkpt lat="45.7890637" lon="7.4762373"><ele>1647.0</ele><time>2026-04-05T14:11:21.949Z</time></trkpt><trkpt lat="45.7891196" lon="7.4761716"><ele>1646.5</ele><time>2026-04-05T14:11:25.948Z</time></trkpt><trkpt lat="45.7891974" lon="7.4761278"><ele>1646.0</ele><time>2026-04-05T14:13:21.95Z</time></trkpt><trkpt lat="45.7892776" lon="7.4760751"><ele>1645.5</ele><time>2026-04-05T14:13:24.948Z</time></trkpt><trkpt lat="45.7893323" lon="7.4760297"><ele>1645.0</ele><time>2026-04-05T14:13:26.952Z</time></trkpt><trkpt lat="45.78943" lon="7.4759654"><ele>1644.5</ele><time>2026-04-05T14:13:28.944Z</time></trkpt><trkpt lat="45.7895251" lon="7.4759096"><ele>1644.0</ele><time>2026-04-05T14:13:30.942Z</time></trkpt><trkpt lat="45.7896161" lon="7.4758513"><ele>1644.0</ele><time>2026-04-05T14:13:32.945Z</time></trkpt><trkpt lat="45.7896905" lon="7.4757887"><ele>1644.0</ele><time>2026-04-05T14:13:34.946Z</time></trkpt><trkpt lat="45.7897615" lon="7.4757116"><ele>1644.0</ele><time>2026-04-05T14:13:36.946Z</time></trkpt><trkpt lat="45.7898257" lon="7.4756474"><ele>1644.0</ele><time>2026-04-05T14:13:38.949Z</time></trkpt><trkpt lat="45.7898646" lon="7.4755495"><ele>1644.0</ele><time>2026-04-05T14:13:40.955Z</time></trkpt><trkpt lat="45.7899037" lon="7.4754326"><ele>1644.0</ele><time>2026-04-05T14:13:42.952Z</time></trkpt><trkpt lat="45.7899453" lon="7.4753323"><ele>1642.2</ele><time>2026-04-05T14:13:44.947Z</time></trkpt><trkpt lat="45.7899764" lon="7.4752017"><ele>1640.4</ele><time>2026-04-05T14:13:46.942Z</time></trkpt><trkpt lat="45.7900098" lon="7.4750689"><ele>1638.6</ele><time>2026-04-05T14:13:48.957Z</time></trkpt><trkpt lat="45.7900429" lon="7.4749366"><ele>1636.8</ele><time>2026-04-05T14:13:50.945Z</time></trkpt><trkpt lat="45.79008" lon="7.4748064"><ele>1635.0</ele><time>2026-04-05T14:13:52.945Z</time></trkpt><trkpt lat="45.790118" lon="7.4746753"><ele>1636.4</ele><time>2026-04-05T14:13:54.952Z</time></trkpt><trkpt lat="45.7901643" lon="7.4745529"><ele>1637.8</ele><time>2026-04-05T14:13:56.954Z</time></trkpt><trkpt lat="45.7902444" lon="7.4744549"><ele>1639.1999999999998</ele><time>2026-04-05T14:13:58.951Z</time></trkpt><trkpt lat="45.7903388" lon="7.47439"><ele>1640.6</ele><time>2026-04-05T14:14:00.95Z</time></trkpt><trkpt lat="45.7904585" lon="7.474315"><ele>1642.0</ele><time>2026-04-05T14:14:02.95Z</time></trkpt><trkpt lat="45.7905184" lon="7.4742623"><ele>1642.0000000000002</ele><time>2026-04-05T14:14:03.949Z</time></trkpt><trkpt lat="45.7905751" lon="7.4742027"><ele>1642.0</ele><time>2026-04-05T14:14:04.951Z</time></trkpt><trkpt lat="45.7906241" lon="7.4741358"><ele>1642.0</ele><time>2026-04-05T14:14:05.949Z</time></trkpt><trkpt lat="45.7906753" lon="7.474068"><ele>1642.0</ele><time>2026-04-05T14:14:06.947Z</time></trkpt><trkpt lat="45.7907196" lon="7.473997"><ele>1642.0</ele><time>2026-04-05T14:14:07.943Z</time></trkpt><trkpt lat="45.7907596" lon="7.47392"><ele>1642.0000000000002</ele><time>2026-04-05T14:14:08.947Z</time></trkpt><trkpt lat="45.7907887" lon="7.4738286"><ele>1642.0</ele><time>2026-04-05T14:14:09.95Z</time></trkpt><trkpt lat="45.7908165" lon="7.4737391"><ele>1642.3333333333335</ele><time>2026-04-05T14:14:10.946Z</time></trkpt><trkpt lat="45.7908264" lon="7.4736385"><ele>1642.6666666666667</ele><time>2026-04-05T14:14:11.955Z</time></trkpt><trkpt lat="45.7908273" lon="7.4735453"><ele>1643.0</ele><time>2026-04-05T14:14:12.952Z</time></trkpt><trkpt lat="45.7908456" lon="7.4733875"><ele>1643.3333333333335</ele><time>2026-04-05T14:14:14.951Z</time></trkpt><trkpt lat="45.790866" lon="7.4732464"><ele>1643.6666666666667</ele><time>2026-04-05T14:14:16.948Z</time></trkpt><trkpt lat="45.7909306" lon="7.4731471"><ele>1644.0</ele><time>2026-04-05T14:14:18.948Z</time></trkpt><trkpt lat="45.7910285" lon="7.4730905"><ele>1644.0</ele><time>2026-04-05T14:14:20.946Z</time></trkpt><trkpt lat="45.7911341" lon="7.4730481"><ele>1644.0</ele><time>2026-04-05T14:14:22.947Z</time></trkpt><trkpt lat="45.7912483" lon="7.4729878"><ele>1644.0</ele><time>2026-04-05T14:14:24.945Z</time></trkpt><trkpt lat="45.7913074" lon="7.4729537"><ele>1644.0</ele><time>2026-04-05T14:14:25.942Z</time></trkpt><trkpt lat="45.7913615" lon="7.4729047"><ele>1644.0</ele><time>2026-04-05T14:14:26.949Z</time></trkpt><trkpt lat="45.7914175" lon="7.4728541"><ele>1644.0</ele><time>2026-04-05T14:14:27.949Z</time></trkpt><trkpt lat="45.7914696" lon="7.4728028"><ele>1642.0</ele><time>2026-04-05T14:14:28.944Z</time></trkpt><trkpt lat="45.7915201" lon="7.4727456"><ele>1640.0</ele><time>2026-04-05T14:14:29.95Z</time></trkpt><trkpt lat="45.7916192" lon="7.4726504"><ele>1638.0</ele><time>2026-04-05T14:14:31.95Z</time></trkpt><trkpt lat="45.7917231" lon="7.4725772"><ele>1636.0</ele><time>2026-04-05T14:14:33.946Z</time></trkpt><trkpt lat="45.7918249" lon="7.4725684"><ele>1634.0</ele><time>2026-04-05T14:14:35.946Z</time></trkpt><trkpt lat="45.7919277" lon="7.4725634"><ele>1634.0</ele><time>2026-04-05T14:14:37.955Z</time></trkpt><trkpt lat="45.7920305" lon="7.4725444"><ele>1634.0</ele><time>2026-04-05T14:14:39.948Z</time></trkpt><trkpt lat="45.7921491" lon="7.472531"><ele>1634.0</ele><time>2026-04-05T14:14:41.943Z</time></trkpt><trkpt lat="45.7922692" lon="7.4724985"><ele>1634.0</ele><time>2026-04-05T14:14:43.947Z</time></trkpt><trkpt lat="45.7923787" lon="7.4724611"><ele>1634.0</ele><time>2026-04-05T14:14:45.943Z</time></trkpt><trkpt lat="45.792486" lon="7.4724193"><ele>1634.0</ele><time>2026-04-05T14:14:47.942Z</time></trkpt><trkpt lat="45.7925487" lon="7.4724025"><ele>1634.0</ele><time>2026-04-05T14:14:48.941Z</time></trkpt><trkpt lat="45.7926682" lon="7.4723661"><ele>1634.0</ele><time>2026-04-05T14:14:50.947Z</time></trkpt><trkpt lat="45.7927816" lon="7.4723384"><ele>1634.0</ele><time>2026-04-05T14:14:52.947Z</time></trkpt><trkpt lat="45.7928934" lon="7.472305"><ele>1636.8333333333333</ele><time>2026-04-05T14:14:54.949Z</time></trkpt><trkpt lat="45.7929567" lon="7.4722897"><ele>1639.6666666666665</ele><time>2026-04-05T14:14:55.948Z</time></trkpt><trkpt lat="45.7930189" lon="7.4722652"><ele>1642.5</ele><time>2026-04-05T14:14:56.95Z</time></trkpt><trkpt lat="45.7930792" lon="7.472233"><ele>1645.3333333333335</ele><time>2026-04-05T14:14:57.946Z</time></trkpt><trkpt lat="45.7931945" lon="7.4721824"><ele>1648.1666666666667</ele><time>2026-04-05T14:14:59.943Z</time></trkpt><trkpt lat="45.7933122" lon="7.4721547"><ele>1651.0</ele><time>2026-04-05T14:15:01.947Z</time></trkpt><trkpt lat="45.7934331" lon="7.4721234"><ele>1644.25</ele><time>2026-04-05T14:15:03.947Z</time></trkpt><trkpt lat="45.7935397" lon="7.4720435"><ele>1637.5</ele><time>2026-04-05T14:15:05.951Z</time></trkpt><trkpt lat="45.7936376" lon="7.4719555"><ele>1630.75</ele><time>2026-04-05T14:15:07.948Z</time></trkpt><trkpt lat="45.7937519" lon="7.4719286"><ele>1624.0</ele><time>2026-04-05T14:15:09.943Z</time></trkpt><trkpt lat="45.7938739" lon="7.4719176"><ele>1624.0</ele><time>2026-04-05T14:15:11.948Z</time></trkpt><trkpt lat="45.7939394" lon="7.4719094"><ele>1624.0</ele><time>2026-04-05T14:15:12.948Z</time></trkpt><trkpt lat="45.7940629" lon="7.4718882"><ele>1624.0</ele><time>2026-04-05T14:15:14.95Z</time></trkpt><trkpt lat="45.7941757" lon="7.4718976"><ele>1624.0</ele><time>2026-04-05T14:15:16.944Z</time></trkpt><trkpt lat="45.7942832" lon="7.4719117"><ele>1624.0</ele><time>2026-04-05T14:15:18.947Z</time></trkpt><trkpt lat="45.7943924" lon="7.4719116"><ele>1628.6</ele><time>2026-04-05T14:15:20.953Z</time></trkpt><trkpt lat="45.794499" lon="7.4718798"><ele>1633.2</ele><time>2026-04-05T14:15:22.943Z</time></trkpt><trkpt lat="45.7945823" lon="7.4717639"><ele>1637.8</ele><time>2026-04-05T14:15:24.948Z</time></trkpt><trkpt lat="45.7946328" lon="7.4716059"><ele>1642.3999999999999</ele><time>2026-04-05T14:15:26.944Z</time></trkpt><trkpt lat="45.7946527" lon="7.4715147"><ele>1647.0</ele><time>2026-04-05T14:15:27.941Z</time></trkpt><trkpt lat="45.794699" lon="7.4713557"><ele>1642.1999999999998</ele><time>2026-04-05T14:15:29.949Z</time></trkpt><trkpt lat="45.7947675" lon="7.4712075"><ele>1637.4</ele><time>2026-04-05T14:15:31.943Z</time></trkpt><trkpt lat="45.7948595" lon="7.4710972"><ele>1632.6</ele><time>2026-04-05T14:15:33.944Z</time></trkpt><trkpt lat="45.7949168" lon="7.4710537"><ele>1627.8000000000002</ele><time>2026-04-05T14:15:34.947Z</time></trkpt><trkpt lat="45.7950191" lon="7.4709699"><ele>1623.0</ele><time>2026-04-05T14:15:36.948Z</time></trkpt><trkpt lat="45.7951062" lon="7.4708574"><ele>1623.4</ele><time>2026-04-05T14:15:38.94Z</time></trkpt><trkpt lat="45.7951885" lon="7.4707462"><ele>1623.8000000000002</ele><time>2026-04-05T14:15:40.941Z</time></trkpt><trkpt lat="45.7952805" lon="7.4706328"><ele>1624.2</ele><time>2026-04-05T14:15:42.943Z</time></trkpt><trkpt lat="45.7953382" lon="7.4705901"><ele>1624.6</ele><time>2026-04-05T14:15:43.946Z</time></trkpt><trkpt lat="45.7954398" lon="7.4705075"><ele>1625.0</ele><time>2026-04-05T14:15:45.948Z</time></trkpt><trkpt lat="45.7955338" lon="7.4704147"><ele>1625.0</ele><time>2026-04-05T14:15:47.943Z</time></trkpt><trkpt lat="45.7956202" lon="7.4703143"><ele>1625.0</ele><time>2026-04-05T14:15:49.944Z</time></trkpt><trkpt lat="45.7957087" lon="7.4702074"><ele>1625.0</ele><time>2026-04-05T14:15:51.945Z</time></trkpt><trkpt lat="45.7957466" lon="7.4701308"><ele>1625.0</ele><time>2026-04-05T14:15:52.942Z</time></trkpt><trkpt lat="45.7958345" lon="7.4700023"><ele>1625.0</ele><time>2026-04-05T14:15:54.946Z</time></trkpt><trkpt lat="45.7958792" lon="7.4699369"><ele>1624.9999999999998</ele><time>2026-04-05T14:15:55.947Z</time></trkpt><trkpt lat="45.7959151" lon="7.4698627"><ele>1625.0</ele><time>2026-04-05T14:15:56.946Z</time></trkpt><trkpt lat="45.7959537" lon="7.4697887"><ele>1625.0</ele><time>2026-04-05T14:15:57.947Z</time></trkpt><trkpt lat="45.7960459" lon="7.469671"><ele>1625.0</ele><time>2026-04-05T14:15:59.946Z</time></trkpt><trkpt lat="45.7961423" lon="7.4695675"><ele>1624.9999999999998</ele><time>2026-04-05T14:16:01.948Z</time></trkpt><trkpt lat="45.796198" lon="7.4695235"><ele>1625.0</ele><time>2026-04-05T14:16:02.946Z</time></trkpt><trkpt lat="45.7963059" lon="7.4694588"><ele>1626.8</ele><time>2026-04-05T14:16:04.952Z</time></trkpt><trkpt lat="45.7963664" lon="7.4694329"><ele>1628.6</ele><time>2026-04-05T14:16:05.948Z</time></trkpt><trkpt lat="45.7964862" lon="7.4693983"><ele>1630.4</ele><time>2026-04-05T14:16:07.946Z</time></trkpt><trkpt lat="45.7965683" lon="7.4693124"><ele>1632.2</ele><time>2026-04-05T14:16:09.946Z</time></trkpt><trkpt lat="45.7965991" lon="7.4691774"><ele>1634.0</ele><time>2026-04-05T14:16:11.949Z</time></trkpt><trkpt lat="45.7965814" lon="7.4690438"><ele>1634.0</ele><time>2026-04-05T14:16:13.95Z</time></trkpt><trkpt lat="45.7965087" lon="7.4689666"><ele>1634.0</ele><time>2026-04-05T14:16:15.948Z</time></trkpt><trkpt lat="45.7964075" lon="7.4689221"><ele>1634.0</ele><time>2026-04-05T14:16:17.944Z</time></trkpt><trkpt lat="45.7962841" lon="7.4689065"><ele>1634.0</ele><time>2026-04-05T14:16:19.949Z</time></trkpt><trkpt lat="45.7961683" lon="7.4688971"><ele>1634.0</ele><time>2026-04-05T14:16:21.945Z</time></trkpt><trkpt lat="45.796049" lon="7.4688997"><ele>1629.75</ele><time>2026-04-05T14:16:23.942Z</time></trkpt><trkpt lat="45.7959305" lon="7.4688986"><ele>1625.5</ele><time>2026-04-05T14:16:25.944Z</time></trkpt><trkpt lat="45.7958144" lon="7.468891"><ele>1621.25</ele><time>2026-04-05T14:16:27.945Z</time></trkpt><trkpt lat="45.7957033" lon="7.4688594"><ele>1617.0</ele><time>2026-04-05T14:16:29.942Z</time></trkpt><trkpt lat="45.795592" lon="7.4688104"><ele>1620.3999999999999</ele><time>2026-04-05T14:16:31.942Z</time></trkpt><trkpt lat="45.7954763" lon="7.4687436"><ele>1623.8</ele><time>2026-04-05T14:16:33.942Z</time></trkpt><trkpt lat="45.7953571" lon="7.4686834"><ele>1627.2</ele><time>2026-04-05T14:16:35.94Z</time></trkpt><trkpt lat="45.7952362" lon="7.468648"><ele>1630.6</ele><time>2026-04-05T14:16:37.946Z</time></trkpt><trkpt lat="45.7951689" lon="7.4686316"><ele>1634.0</ele><time>2026-04-05T14:16:38.946Z</time></trkpt><trkpt lat="45.7951016" lon="7.4686102"><ele>1633.9999999999998</ele><time>2026-04-05T14:16:39.944Z</time></trkpt><trkpt lat="45.7950361" lon="7.4685987"><ele>1634.0</ele><time>2026-04-05T14:16:40.951Z</time></trkpt><trkpt lat="45.7949644" lon="7.4685843"><ele>1634.0</ele><time>2026-04-05T14:16:41.944Z</time></trkpt><trkpt lat="45.7948968" lon="7.4685747"><ele>1634.0</ele><time>2026-04-05T14:16:42.94Z</time></trkpt><trkpt lat="45.7948275" lon="7.4685582"><ele>1634.0</ele><time>2026-04-05T14:16:43.944Z</time></trkpt><trkpt lat="45.7947616" lon="7.4685362"><ele>1633.9999999999998</ele><time>2026-04-05T14:16:44.944Z</time></trkpt><trkpt lat="45.7946954" lon="7.4685187"><ele>1634.0</ele><time>2026-04-05T14:16:45.945Z</time></trkpt><trkpt lat="45.7946234" lon="7.4684999"><ele>1633.9999999999998</ele><time>2026-04-05T14:16:46.95Z</time></trkpt><trkpt lat="45.7945611" lon="7.4684742"><ele>1634.0</ele><time>2026-04-05T14:16:47.946Z</time></trkpt><trkpt lat="45.7944917" lon="7.4684565"><ele>1634.0</ele><time>2026-04-05T14:16:48.939Z</time></trkpt><trkpt lat="45.7944272" lon="7.4684442"><ele>1634.0</ele><time>2026-04-05T14:16:49.944Z</time></trkpt><trkpt lat="45.7943656" lon="7.4684201"><ele>1634.0</ele><time>2026-04-05T14:16:50.947Z</time></trkpt><trkpt lat="45.7943035" lon="7.468393"><ele>1633.9999999999998</ele><time>2026-04-05T14:16:51.945Z</time></trkpt><trkpt lat="45.794187" lon="7.4683518"><ele>1634.0</ele><time>2026-04-05T14:16:53.949Z</time></trkpt><trkpt lat="45.7940774" lon="7.4683058"><ele>1630.25</ele><time>2026-04-05T14:16:55.959Z</time></trkpt><trkpt lat="45.7939681" lon="7.4682671"><ele>1626.5</ele><time>2026-04-05T14:16:57.942Z</time></trkpt><trkpt lat="45.793847" lon="7.46823"><ele>1622.75</ele><time>2026-04-05T14:16:59.948Z</time></trkpt><trkpt lat="45.793735" lon="7.4682057"><ele>1619.0</ele><time>2026-04-05T14:17:01.941Z</time></trkpt><trkpt lat="45.7936225" lon="7.4681794"><ele>1619.0</ele><time>2026-04-05T14:17:03.942Z</time></trkpt><trkpt lat="45.7935582" lon="7.4681721"><ele>1619.0</ele><time>2026-04-05T14:17:04.94Z</time></trkpt><trkpt lat="45.7934414" lon="7.4681546"><ele>1619.0</ele><time>2026-04-05T14:17:06.938Z</time></trkpt><trkpt lat="45.7933295" lon="7.4681234"><ele>1619.0</ele><time>2026-04-05T14:17:08.945Z</time></trkpt><trkpt lat="45.7932314" lon="7.4680689"><ele>1619.0</ele><time>2026-04-05T14:17:10.944Z</time></trkpt><trkpt lat="45.7931484" lon="7.4679669"><ele>1623.0</ele><time>2026-04-05T14:17:12.945Z</time></trkpt><trkpt lat="45.7930916" lon="7.46784"><ele>1627.0</ele><time>2026-04-05T14:17:14.948Z</time></trkpt><trkpt lat="45.7930671" lon="7.4676911"><ele>1631.0</ele><time>2026-04-05T14:17:16.946Z</time></trkpt><trkpt lat="45.7930591" lon="7.4675426"><ele>1635.0</ele><time>2026-04-05T14:17:18.946Z</time></trkpt><trkpt lat="45.7930297" lon="7.4674036"><ele>1639.0</ele><time>2026-04-05T14:17:20.941Z</time></trkpt><trkpt lat="45.7929803" lon="7.4672847"><ele>1639.0000000000002</ele><time>2026-04-05T14:17:22.949Z</time></trkpt><trkpt lat="45.7929469" lon="7.467208"><ele>1639.0</ele><time>2026-04-05T14:17:24.945Z</time></trkpt><trkpt lat="45.7928946" lon="7.4671108"><ele>1639.0</ele><time>2026-04-05T14:17:27.954Z</time></trkpt><trkpt lat="45.792817" lon="7.4670629"><ele>1639.0</ele><time>2026-04-05T14:17:30.946Z</time></trkpt><trkpt lat="45.7927436" lon="7.4670813"><ele>1639.0000000000002</ele><time>2026-04-05T14:17:33.945Z</time></trkpt><trkpt lat="45.7926967" lon="7.4671712"><ele>1639.0</ele><time>2026-04-05T14:17:36.945Z</time></trkpt><trkpt lat="45.7926584" lon="7.4672651"><ele>1634.4</ele><time>2026-04-05T14:17:38.945Z</time></trkpt><trkpt lat="45.7925848" lon="7.4673406"><ele>1629.8000000000002</ele><time>2026-04-05T14:17:40.949Z</time></trkpt><trkpt lat="45.7924908" lon="7.4673668"><ele>1625.1999999999998</ele><time>2026-04-05T14:17:42.948Z</time></trkpt><trkpt lat="45.7924038" lon="7.467369"><ele>1620.6</ele><time>2026-04-05T14:17:44.945Z</time></trkpt><trkpt lat="45.7923127" lon="7.4673555"><ele>1616.0</ele><time>2026-04-05T14:17:46.95Z</time></trkpt><trkpt lat="45.7922171" lon="7.4673574"><ele>1615.9999999999998</ele><time>2026-04-05T14:17:48.952Z</time></trkpt><trkpt lat="45.792135" lon="7.4673617"><ele>1616.0</ele><time>2026-04-05T14:17:50.946Z</time></trkpt><trkpt lat="45.792046" lon="7.4674148"><ele>1616.0</ele><time>2026-04-05T14:17:52.948Z</time></trkpt><trkpt lat="45.7919872" lon="7.4674856"><ele>1616.0</ele><time>2026-04-05T14:17:54.943Z</time></trkpt><trkpt lat="45.7919341" lon="7.4675465"><ele>1615.9999999999998</ele><time>2026-04-05T14:17:56.946Z</time></trkpt><trkpt lat="45.7918677" lon="7.4675664"><ele>1616.0</ele><time>2026-04-05T14:17:58.942Z</time></trkpt><trkpt lat="45.7917806" lon="7.4675743"><ele>1616.6</ele><time>2026-04-05T14:18:00.944Z</time></trkpt><trkpt lat="45.7916778" lon="7.4675682"><ele>1617.1999999999998</ele><time>2026-04-05T14:18:02.955Z</time></trkpt><trkpt lat="45.7915839" lon="7.467581"><ele>1617.8000000000002</ele><time>2026-04-05T14:18:04.947Z</time></trkpt><trkpt lat="45.791482" lon="7.4675703"><ele>1618.4</ele><time>2026-04-05T14:18:06.946Z</time></trkpt><trkpt lat="45.7913938" lon="7.4675335"><ele>1619.0</ele><time>2026-04-05T14:18:08.948Z</time></trkpt><trkpt lat="45.7913203" lon="7.4674398"><ele>1619.0</ele><time>2026-04-05T14:18:10.953Z</time></trkpt><trkpt lat="45.7912476" lon="7.4673426"><ele>1619.0</ele><time>2026-04-05T14:18:12.946Z</time></trkpt><trkpt lat="45.7911747" lon="7.4672758"><ele>1619.0</ele><time>2026-04-05T14:18:14.949Z</time></trkpt><trkpt lat="45.7910966" lon="7.467235"><ele>1619.0</ele><time>2026-04-05T14:18:16.948Z</time></trkpt><trkpt lat="45.7910064" lon="7.4672283"><ele>1619.0</ele><time>2026-04-05T14:18:18.952Z</time></trkpt><trkpt lat="45.7909025" lon="7.4672251"><ele>1617.2</ele><time>2026-04-05T14:18:20.944Z</time></trkpt><trkpt lat="45.7907956" lon="7.4672395"><ele>1615.4</ele><time>2026-04-05T14:18:22.948Z</time></trkpt><trkpt lat="45.7906968" lon="7.4672494"><ele>1613.6</ele><time>2026-04-05T14:18:24.946Z</time></trkpt><trkpt lat="45.7906029" lon="7.4672608"><ele>1611.8</ele><time>2026-04-05T14:18:26.953Z</time></trkpt><trkpt lat="45.790513" lon="7.4672714"><ele>1610.0</ele><time>2026-04-05T14:18:28.943Z</time></trkpt><trkpt lat="45.7904215" lon="7.4672448"><ele>1609.9999999999998</ele><time>2026-04-05T14:18:30.952Z</time></trkpt><trkpt lat="45.790373" lon="7.46713"><ele>1610.0</ele><time>2026-04-05T14:18:32.943Z</time></trkpt><trkpt lat="45.7903718" lon="7.4670011"><ele>1610.0</ele><time>2026-04-05T14:18:34.948Z</time></trkpt><trkpt lat="45.7903362" lon="7.466859"><ele>1610.0</ele><time>2026-04-05T14:18:36.955Z</time></trkpt><trkpt lat="45.7902615" lon="7.4668208"><ele>1609.9999999999998</ele><time>2026-04-05T14:18:38.944Z</time></trkpt><trkpt lat="45.7901833" lon="7.4668221"><ele>1610.0</ele><time>2026-04-05T14:18:40.948Z</time></trkpt><trkpt lat="45.7900931" lon="7.4668512"><ele>1614.4</ele><time>2026-04-05T14:18:42.951Z</time></trkpt><trkpt lat="45.7899924" lon="7.4668726"><ele>1618.8</ele><time>2026-04-05T14:18:44.942Z</time></trkpt><trkpt lat="45.7898756" lon="7.4668947"><ele>1623.1999999999998</ele><time>2026-04-05T14:18:46.953Z</time></trkpt><trkpt lat="45.7897597" lon="7.466928"><ele>1627.6</ele><time>2026-04-05T14:18:48.951Z</time></trkpt><trkpt lat="45.7896971" lon="7.4669424"><ele>1632.0</ele><time>2026-04-05T14:18:49.948Z</time></trkpt><trkpt lat="45.7895871" lon="7.4669791"><ele>1632.0</ele><time>2026-04-05T14:18:51.948Z</time></trkpt><trkpt lat="45.7894892" lon="7.4669902"><ele>1632.0</ele><time>2026-04-05T14:18:53.949Z</time></trkpt><trkpt lat="45.7893947" lon="7.4670287"><ele>1632.0</ele><time>2026-04-05T14:18:55.946Z</time></trkpt><trkpt lat="45.7892904" lon="7.4670471"><ele>1632.0</ele><time>2026-04-05T14:18:57.946Z</time></trkpt><trkpt lat="45.789197" lon="7.4670269"><ele>1632.0</ele><time>2026-04-05T14:18:59.948Z</time></trkpt><trkpt lat="45.789111" lon="7.4669521"><ele>1629.6</ele><time>2026-04-05T14:19:01.946Z</time></trkpt><trkpt lat="45.7890316" lon="7.46685"><ele>1627.1999999999998</ele><time>2026-04-05T14:19:03.951Z</time></trkpt><trkpt lat="45.7889603" lon="7.4667423"><ele>1624.8</ele><time>2026-04-05T14:19:05.946Z</time></trkpt><trkpt lat="45.7888819" lon="7.4666242"><ele>1622.4</ele><time>2026-04-05T14:19:07.945Z</time></trkpt><trkpt lat="45.7888566" lon="7.4664664"><ele>1620.0</ele><time>2026-04-05T14:19:09.949Z</time></trkpt><trkpt lat="45.7888665" lon="7.4663771"><ele>1622.8</ele><time>2026-04-05T14:19:10.945Z</time></trkpt><trkpt lat="45.788902" lon="7.4662173"><ele>1625.6</ele><time>2026-04-05T14:19:12.946Z</time></trkpt><trkpt lat="45.7889349" lon="7.4660603"><ele>1628.4</ele><time>2026-04-05T14:19:14.944Z</time></trkpt><trkpt lat="45.7889652" lon="7.4659167"><ele>1631.2</ele><time>2026-04-05T14:19:16.948Z</time></trkpt><trkpt lat="45.7889881" lon="7.4657886"><ele>1634.0</ele><time>2026-04-05T14:19:18.948Z</time></trkpt><trkpt lat="45.789022" lon="7.4656545"><ele>1634.0</ele><time>2026-04-05T14:19:20.946Z</time></trkpt><trkpt lat="45.7890365" lon="7.4655177"><ele>1634.0</ele><time>2026-04-05T14:19:22.95Z</time></trkpt><trkpt lat="45.7890491" lon="7.465387"><ele>1634.0</ele><time>2026-04-05T14:19:24.941Z</time></trkpt><trkpt lat="45.7890576" lon="7.465249"><ele>1634.0</ele><time>2026-04-05T14:19:26.947Z</time></trkpt><trkpt lat="45.7890623" lon="7.4651107"><ele>1634.0</ele><time>2026-04-05T14:19:28.951Z</time></trkpt><trkpt lat="45.7890653" lon="7.4649942"><ele>1635.4999999999998</ele><time>2026-04-05T14:19:30.949Z</time></trkpt><trkpt lat="45.7890636" lon="7.464891"><ele>1637.0</ele><time>2026-04-05T14:19:32.946Z</time></trkpt><trkpt lat="45.7890499" lon="7.4647998"><ele>1638.5</ele><time>2026-04-05T14:19:34.943Z</time></trkpt><trkpt lat="45.789002" lon="7.4647336"><ele>1640.0</ele><time>2026-04-05T14:19:36.942Z</time></trkpt><trkpt lat="45.7889118" lon="7.4647339"><ele>1641.4999999999998</ele><time>2026-04-05T14:19:57.945Z</time></trkpt><trkpt lat="45.788843" lon="7.4648021"><ele>1643.0</ele><time>2026-04-05T14:20:00.947Z</time></trkpt><trkpt lat="45.7887739" lon="7.4648896"><ele>1642.9999999999998</ele><time>2026-04-05T14:20:03.944Z</time></trkpt><trkpt lat="45.7887179" lon="7.4649513"><ele>1643.0</ele><time>2026-04-05T14:20:05.942Z</time></trkpt><trkpt lat="45.7886441" lon="7.4650278"><ele>1643.0</ele><time>2026-04-05T14:20:07.944Z</time></trkpt><trkpt lat="45.7885656" lon="7.4651075"><ele>1643.0</ele><time>2026-04-05T14:20:09.942Z</time></trkpt><trkpt lat="45.7884822" lon="7.4651749"><ele>1642.9999999999998</ele><time>2026-04-05T14:20:11.946Z</time></trkpt><trkpt lat="45.7884006" lon="7.4652317"><ele>1643.0</ele><time>2026-04-05T14:20:13.945Z</time></trkpt><trkpt lat="45.7883243" lon="7.4653015"><ele>1642.6000000000001</ele><time>2026-04-05T14:20:15.943Z</time></trkpt><trkpt lat="45.7882366" lon="7.4653548"><ele>1642.2</ele><time>2026-04-05T14:20:17.939Z</time></trkpt><trkpt lat="45.7881486" lon="7.4654164"><ele>1641.8</ele><time>2026-04-05T14:20:19.941Z</time></trkpt><trkpt lat="45.7880558" lon="7.4654855"><ele>1641.4</ele><time>2026-04-05T14:20:21.947Z</time></trkpt><trkpt lat="45.7879788" lon="7.4655681"><ele>1641.0</ele><time>2026-04-05T14:20:23.949Z</time></trkpt><trkpt lat="45.7878955" lon="7.4656473"><ele>1640.0</ele><time>2026-04-05T14:20:25.939Z</time></trkpt><trkpt lat="45.7878087" lon="7.4657094"><ele>1639.0</ele><time>2026-04-05T14:20:27.947Z</time></trkpt><trkpt lat="45.7877287" lon="7.4657954"><ele>1638.0</ele><time>2026-04-05T14:20:29.944Z</time></trkpt><trkpt lat="45.7876479" lon="7.4658769"><ele>1637.0</ele><time>2026-04-05T14:20:31.946Z</time></trkpt><trkpt lat="45.7875792" lon="7.4659828"><ele>1636.0</ele><time>2026-04-05T14:20:33.946Z</time></trkpt><trkpt lat="45.787533" lon="7.4661072"><ele>1636.0</ele><time>2026-04-05T14:20:35.943Z</time></trkpt><trkpt lat="45.7874951" lon="7.4662495"><ele>1636.0</ele><time>2026-04-05T14:20:37.944Z</time></trkpt><trkpt lat="45.7874363" lon="7.4663792"><ele>1636.0</ele><time>2026-04-05T14:20:39.949Z</time></trkpt><trkpt lat="45.7873594" lon="7.466488"><ele>1636.0</ele><time>2026-04-05T14:20:41.946Z</time></trkpt><trkpt lat="45.7872648" lon="7.4665905"><ele>1636.0</ele><time>2026-04-05T14:20:43.941Z</time></trkpt><trkpt lat="45.7871731" lon="7.4666756"><ele>1636.1999999999998</ele><time>2026-04-05T14:20:45.947Z</time></trkpt><trkpt lat="45.7870677" lon="7.4667736"><ele>1636.3999999999999</ele><time>2026-04-05T14:20:47.943Z</time></trkpt><trkpt lat="45.7869594" lon="7.466872"><ele>1636.6</ele><time>2026-04-05T14:20:49.953Z</time></trkpt><trkpt lat="45.7869035" lon="7.4669182"><ele>1636.8</ele><time>2026-04-05T14:20:50.944Z</time></trkpt><trkpt lat="45.786848" lon="7.4669733"><ele>1637.0</ele><time>2026-04-05T14:20:51.948Z</time></trkpt><trkpt lat="45.7867883" lon="7.4670349"><ele>1636.9999999999998</ele><time>2026-04-05T14:20:52.944Z</time></trkpt><trkpt lat="45.7867291" lon="7.4670978"><ele>1637.0</ele><time>2026-04-05T14:20:53.948Z</time></trkpt><trkpt lat="45.7866668" lon="7.46716"><ele>1637.0</ele><time>2026-04-05T14:20:54.949Z</time></trkpt><trkpt lat="45.7865999" lon="7.4672276"><ele>1637.0</ele><time>2026-04-05T14:20:55.948Z</time></trkpt><trkpt lat="45.7865392" lon="7.4672916"><ele>1636.9999999999998</ele><time>2026-04-05T14:20:56.947Z</time></trkpt><trkpt lat="45.7864728" lon="7.4673442"><ele>1637.0</ele><time>2026-04-05T14:20:57.945Z</time></trkpt><trkpt lat="45.7864079" lon="7.4673994"><ele>1630.3333333333333</ele><time>2026-04-05T14:20:58.944Z</time></trkpt><trkpt lat="45.7863369" lon="7.4674553"><ele>1623.6666666666665</ele><time>2026-04-05T14:20:59.943Z</time></trkpt><trkpt lat="45.7862606" lon="7.4674979"><ele>1617.0</ele><time>2026-04-05T14:21:00.948Z</time></trkpt><trkpt lat="45.7861851" lon="7.4675271"><ele>1610.3333333333335</ele><time>2026-04-05T14:21:01.944Z</time></trkpt><trkpt lat="45.7861141" lon="7.4675473"><ele>1603.6666666666667</ele><time>2026-04-05T14:21:02.951Z</time></trkpt><trkpt lat="45.7860431" lon="7.4675476"><ele>1597.0</ele><time>2026-04-05T14:21:03.941Z</time></trkpt><trkpt lat="45.7859674" lon="7.4675249"><ele>1597.0000000000002</ele><time>2026-04-05T14:21:04.95Z</time></trkpt><trkpt lat="45.785902" lon="7.4674705"><ele>1597.0</ele><time>2026-04-05T14:21:05.948Z</time></trkpt><trkpt lat="45.7858403" lon="7.4674214"><ele>1597.0</ele><time>2026-04-05T14:21:06.946Z</time></trkpt><trkpt lat="45.7857726" lon="7.4673858"><ele>1597.0</ele><time>2026-04-05T14:21:07.949Z</time></trkpt><trkpt lat="45.7856924" lon="7.467362"><ele>1597.0000000000002</ele><time>2026-04-05T14:21:08.945Z</time></trkpt><trkpt lat="45.7856131" lon="7.4673508"><ele>1597.0</ele><time>2026-04-05T14:21:09.946Z</time></trkpt><trkpt lat="45.78553" lon="7.4673635"><ele>1597.0</ele><time>2026-04-05T14:21:10.946Z</time></trkpt><trkpt lat="45.785443" lon="7.4673886"><ele>1597.0</ele><time>2026-04-05T14:21:11.947Z</time></trkpt><trkpt lat="45.785355" lon="7.4673983"><ele>1597.0</ele><time>2026-04-05T14:21:12.941Z</time></trkpt><trkpt lat="45.7852653" lon="7.4674108"><ele>1597.0</ele><time>2026-04-05T14:21:13.95Z</time></trkpt><trkpt lat="45.7851735" lon="7.4674447"><ele>1597.0</ele><time>2026-04-05T14:21:14.943Z</time></trkpt><trkpt lat="45.7850748" lon="7.4674843"><ele>1597.8</ele><time>2026-04-05T14:21:15.939Z</time></trkpt><trkpt lat="45.7849781" lon="7.4675214"><ele>1598.6</ele><time>2026-04-05T14:21:16.947Z</time></trkpt><trkpt lat="45.7848807" lon="7.467531"><ele>1599.3999999999999</ele><time>2026-04-05T14:21:17.945Z</time></trkpt><trkpt lat="45.7847787" lon="7.4675292"><ele>1600.1999999999998</ele><time>2026-04-05T14:21:18.952Z</time></trkpt><trkpt lat="45.7846834" lon="7.4675826"><ele>1601.0</ele><time>2026-04-05T14:21:19.942Z</time></trkpt><trkpt lat="45.7845911" lon="7.4676576"><ele>1601.0</ele><time>2026-04-05T14:21:20.938Z</time></trkpt><trkpt lat="45.7844989" lon="7.4677276"><ele>1601.0</ele><time>2026-04-05T14:21:21.945Z</time></trkpt><trkpt lat="45.7844228" lon="7.4678321"><ele>1601.0</ele><time>2026-04-05T14:21:22.94Z</time></trkpt><trkpt lat="45.7843751" lon="7.4679611"><ele>1601.0</ele><time>2026-04-05T14:21:23.941Z</time></trkpt><trkpt lat="45.7843355" lon="7.4680753"><ele>1601.0</ele><time>2026-04-05T14:21:24.953Z</time></trkpt><trkpt lat="45.784307" lon="7.4681843"><ele>1601.6666666666665</ele><time>2026-04-05T14:21:25.947Z</time></trkpt><trkpt lat="45.784268" lon="7.468296"><ele>1602.3333333333333</ele><time>2026-04-05T14:21:26.945Z</time></trkpt><trkpt lat="45.7842192" lon="7.4684082"><ele>1603.0</ele><time>2026-04-05T14:21:27.943Z</time></trkpt><trkpt lat="45.7841795" lon="7.468515"><ele>1603.6666666666665</ele><time>2026-04-05T14:21:28.944Z</time></trkpt><trkpt lat="45.7841452" lon="7.4686197"><ele>1604.3333333333333</ele><time>2026-04-05T14:21:29.941Z</time></trkpt><trkpt lat="45.7841054" lon="7.4687187"><ele>1605.0</ele><time>2026-04-05T14:21:30.945Z</time></trkpt><trkpt lat="45.7840536" lon="7.4688097"><ele>1598.6666666666667</ele><time>2026-04-05T14:21:31.945Z</time></trkpt><trkpt lat="45.7839926" lon="7.4688827"><ele>1592.3333333333335</ele><time>2026-04-05T14:21:32.95Z</time></trkpt><trkpt lat="45.7839248" lon="7.468961"><ele>1586.0</ele><time>2026-04-05T14:21:33.945Z</time></trkpt><trkpt lat="45.7838575" lon="7.4690407"><ele>1579.6666666666667</ele><time>2026-04-05T14:21:34.951Z</time></trkpt><trkpt lat="45.7838037" lon="7.4691071"><ele>1573.3333333333335</ele><time>2026-04-05T14:21:35.946Z</time></trkpt><trkpt lat="45.7837525" lon="7.4691786"><ele>1567.0</ele><time>2026-04-05T14:21:36.943Z</time></trkpt><trkpt lat="45.783699" lon="7.4692292"><ele>1567.0</ele><time>2026-04-05T14:21:37.946Z</time></trkpt><trkpt lat="45.7835795" lon="7.4692503"><ele>1567.0</ele><time>2026-04-05T14:21:39.948Z</time></trkpt><trkpt lat="45.783519" lon="7.4692249"><ele>1567.0</ele><time>2026-04-05T14:21:40.947Z</time></trkpt><trkpt lat="45.7833963" lon="7.469198"><ele>1567.0</ele><time>2026-04-05T14:21:42.953Z</time></trkpt><trkpt lat="45.7833225" lon="7.4691968"><ele>1567.0</ele><time>2026-04-05T14:21:43.947Z</time></trkpt><trkpt lat="45.7832499" lon="7.4692002"><ele>1569.7142857142858</ele><time>2026-04-05T14:21:44.948Z</time></trkpt><trkpt lat="45.7831779" lon="7.4692145"><ele>1572.4285714285713</ele><time>2026-04-05T14:21:45.941Z</time></trkpt><trkpt lat="45.7831076" lon="7.4692255"><ele>1575.1428571428573</ele><time>2026-04-05T14:21:46.946Z</time></trkpt><trkpt lat="45.7830317" lon="7.4692406"><ele>1577.857142857143</ele><time>2026-04-05T14:21:47.947Z</time></trkpt><trkpt lat="45.7829666" lon="7.4692423"><ele>1580.5714285714287</ele><time>2026-04-05T14:21:48.947Z</time></trkpt><trkpt lat="45.7828941" lon="7.469255"><ele>1583.2857142857144</ele><time>2026-04-05T14:21:49.947Z</time></trkpt><trkpt lat="45.7828156" lon="7.4692562"><ele>1586.0</ele><time>2026-04-05T14:21:50.953Z</time></trkpt><trkpt lat="45.7827372" lon="7.4692546"><ele>1584.9999999999998</ele><time>2026-04-05T14:21:51.948Z</time></trkpt><trkpt lat="45.782652" lon="7.4692649"><ele>1584.0</ele><time>2026-04-05T14:21:52.953Z</time></trkpt><trkpt lat="45.7825602" lon="7.4692589"><ele>1583.0</ele><time>2026-04-05T14:21:53.942Z</time></trkpt><trkpt lat="45.782472" lon="7.4692527"><ele>1582.0</ele><time>2026-04-05T14:21:54.952Z</time></trkpt><trkpt lat="45.7823844" lon="7.469231"><ele>1580.9999999999998</ele><time>2026-04-05T14:21:55.944Z</time></trkpt><trkpt lat="45.7822955" lon="7.4691922"><ele>1580.0</ele><time>2026-04-05T14:21:56.946Z</time></trkpt><trkpt lat="45.7822163" lon="7.4691498"><ele>1579.9999999999998</ele><time>2026-04-05T14:21:57.953Z</time></trkpt><trkpt lat="45.7821416" lon="7.4690915"><ele>1580.0</ele><time>2026-04-05T14:21:58.943Z</time></trkpt><trkpt lat="45.7820693" lon="7.4690277"><ele>1580.0</ele><time>2026-04-05T14:21:59.95Z</time></trkpt><trkpt lat="45.7819947" lon="7.4689728"><ele>1580.0</ele><time>2026-04-05T14:22:00.944Z</time></trkpt><trkpt lat="45.7819262" lon="7.4689266"><ele>1579.9999999999998</ele><time>2026-04-05T14:22:01.945Z</time></trkpt><trkpt lat="45.7818586" lon="7.4688931"><ele>1580.0</ele><time>2026-04-05T14:22:02.945Z</time></trkpt><trkpt lat="45.7817882" lon="7.4688623"><ele>1579.857142857143</ele><time>2026-04-05T14:22:03.947Z</time></trkpt><trkpt lat="45.781719" lon="7.4688355"><ele>1579.7142857142858</ele><time>2026-04-05T14:22:04.945Z</time></trkpt><trkpt lat="45.7816518" lon="7.4687997"><ele>1579.5714285714287</ele><time>2026-04-05T14:22:05.948Z</time></trkpt><trkpt lat="45.7815873" lon="7.4687584"><ele>1579.4285714285716</ele><time>2026-04-05T14:22:06.945Z</time></trkpt><trkpt lat="45.7815261" lon="7.4687079"><ele>1579.2857142857142</ele><time>2026-04-05T14:22:07.945Z</time></trkpt><trkpt lat="45.7814711" lon="7.4686492"><ele>1579.1428571428573</ele><time>2026-04-05T14:22:08.946Z</time></trkpt><trkpt lat="45.781428" lon="7.4685782"><ele>1579.0</ele><time>2026-04-05T14:22:09.946Z</time></trkpt><trkpt lat="45.7813634" lon="7.4684284"><ele>1579.0</ele><time>2026-04-05T14:22:11.948Z</time></trkpt><trkpt lat="45.7813352" lon="7.4682624"><ele>1579.0</ele><time>2026-04-05T14:22:13.953Z</time></trkpt><trkpt lat="45.7813429" lon="7.4681103"><ele>1579.0</ele><time>2026-04-05T14:22:15.948Z</time></trkpt><trkpt lat="45.7813535" lon="7.4679805"><ele>1579.0</ele><time>2026-04-05T14:22:17.943Z</time></trkpt><trkpt lat="45.7813828" lon="7.46786"><ele>1579.0</ele><time>2026-04-05T14:22:19.941Z</time></trkpt><trkpt lat="45.7814013" lon="7.4677489"><ele>1580.6666666666667</ele><time>2026-04-05T14:22:21.947Z</time></trkpt><trkpt lat="45.7814168" lon="7.4676288"><ele>1582.3333333333335</ele><time>2026-04-05T14:22:23.946Z</time></trkpt><trkpt lat="45.7814263" lon="7.4675214"><ele>1584.0</ele><time>2026-04-05T14:22:25.945Z</time></trkpt><trkpt lat="45.7814256" lon="7.4674127"><ele>1585.6666666666665</ele><time>2026-04-05T14:22:27.945Z</time></trkpt><trkpt lat="45.7813989" lon="7.4672945"><ele>1587.3333333333333</ele><time>2026-04-05T14:22:29.941Z</time></trkpt><trkpt lat="45.7813759" lon="7.467169"><ele>1589.0</ele><time>2026-04-05T14:22:31.942Z</time></trkpt><trkpt lat="45.7813376" lon="7.4670464"><ele>1592.2</ele><time>2026-04-05T14:22:33.948Z</time></trkpt><trkpt lat="45.7812853" lon="7.4669303"><ele>1595.4</ele><time>2026-04-05T14:22:35.945Z</time></trkpt><trkpt lat="45.7812222" lon="7.4668309"><ele>1598.6</ele><time>2026-04-05T14:22:37.95Z</time></trkpt><trkpt lat="45.7811578" lon="7.4667286"><ele>1601.8</ele><time>2026-04-05T14:22:39.945Z</time></trkpt><trkpt lat="45.7811114" lon="7.4665762"><ele>1605.0</ele><time>2026-04-05T14:22:41.945Z</time></trkpt><trkpt lat="45.7810751" lon="7.4664225"><ele>1605.0</ele><time>2026-04-05T14:22:43.949Z</time></trkpt><trkpt lat="45.7810456" lon="7.4662882"><ele>1605.0</ele><time>2026-04-05T14:22:45.948Z</time></trkpt><trkpt lat="45.7809974" lon="7.4661603"><ele>1605.0</ele><time>2026-04-05T14:22:47.952Z</time></trkpt><trkpt lat="45.7809239" lon="7.4660663"><ele>1605.0</ele><time>2026-04-05T14:22:49.942Z</time></trkpt><trkpt lat="45.7808359" lon="7.4659829"><ele>1605.0</ele><time>2026-04-05T14:22:51.941Z</time></trkpt><trkpt lat="45.7807458" lon="7.4659064"><ele>1600.8</ele><time>2026-04-05T14:22:53.948Z</time></trkpt><trkpt lat="45.7806565" lon="7.465826"><ele>1596.6</ele><time>2026-04-05T14:22:55.947Z</time></trkpt><trkpt lat="45.7805631" lon="7.4657721"><ele>1592.4</ele><time>2026-04-05T14:22:57.945Z</time></trkpt><trkpt lat="45.7804649" lon="7.4657506"><ele>1588.2</ele><time>2026-04-05T14:22:59.946Z</time></trkpt><trkpt lat="45.7803759" lon="7.4657089"><ele>1584.0</ele><time>2026-04-05T14:23:01.947Z</time></trkpt><trkpt lat="45.7802939" lon="7.4656205"><ele>1584.0</ele><time>2026-04-05T14:23:03.95Z</time></trkpt><trkpt lat="45.7802276" lon="7.4655036"><ele>1584.0</ele><time>2026-04-05T14:23:05.95Z</time></trkpt><trkpt lat="45.7801834" lon="7.4653669"><ele>1584.0</ele><time>2026-04-05T14:23:07.944Z</time></trkpt><trkpt lat="45.7801356" lon="7.4652352"><ele>1584.0</ele><time>2026-04-05T14:23:09.945Z</time></trkpt><trkpt lat="45.7800896" lon="7.465087"><ele>1584.0</ele><time>2026-04-05T14:23:11.942Z</time></trkpt><trkpt lat="45.7800336" lon="7.4649473"><ele>1581.0</ele><time>2026-04-05T14:23:13.947Z</time></trkpt><trkpt lat="45.7799807" lon="7.4648072"><ele>1578.0</ele><time>2026-04-05T14:23:15.947Z</time></trkpt><trkpt lat="45.7799213" lon="7.4646699"><ele>1575.0</ele><time>2026-04-05T14:23:17.947Z</time></trkpt><trkpt lat="45.7798856" lon="7.4645238"><ele>1572.0</ele><time>2026-04-05T14:23:19.953Z</time></trkpt><trkpt lat="45.7798847" lon="7.4643803"><ele>1569.0</ele><time>2026-04-05T14:23:21.946Z</time></trkpt><trkpt lat="45.7798967" lon="7.4642324"><ele>1569.0</ele><time>2026-04-05T14:23:23.948Z</time></trkpt><trkpt lat="45.7799323" lon="7.4641019"><ele>1569.0</ele><time>2026-04-05T14:23:25.945Z</time></trkpt><trkpt lat="45.7799672" lon="7.4639577"><ele>1569.0</ele><time>2026-04-05T14:23:27.95Z</time></trkpt><trkpt lat="45.780006" lon="7.4638216"><ele>1569.0</ele><time>2026-04-05T14:23:29.949Z</time></trkpt><trkpt lat="45.7800641" lon="7.46369"><ele>1569.0</ele><time>2026-04-05T14:23:31.944Z</time></trkpt><trkpt lat="45.7801188" lon="7.4635604"><ele>1570.0</ele><time>2026-04-05T14:23:33.946Z</time></trkpt><trkpt lat="45.7801593" lon="7.4634263"><ele>1571.0</ele><time>2026-04-05T14:23:35.945Z</time></trkpt><trkpt lat="45.7801352" lon="7.4632973"><ele>1572.0</ele><time>2026-04-05T14:23:37.951Z</time></trkpt><trkpt lat="45.7800773" lon="7.4632061"><ele>1573.0</ele><time>2026-04-05T14:23:39.949Z</time></trkpt><trkpt lat="45.7800081" lon="7.4631361"><ele>1574.0</ele><time>2026-04-05T14:23:41.946Z</time></trkpt><trkpt lat="45.7799557" lon="7.4630318"><ele>1576.8333333333333</ele><time>2026-04-05T14:23:43.942Z</time></trkpt><trkpt lat="45.7799363" lon="7.4629103"><ele>1579.6666666666665</ele><time>2026-04-05T14:23:45.947Z</time></trkpt><trkpt lat="45.7799423" lon="7.4627989"><ele>1582.5</ele><time>2026-04-05T14:23:47.941Z</time></trkpt><trkpt lat="45.7799666" lon="7.4626791"><ele>1585.3333333333335</ele><time>2026-04-05T14:23:49.946Z</time></trkpt><trkpt lat="45.7799991" lon="7.4625635"><ele>1588.1666666666667</ele><time>2026-04-05T14:23:51.942Z</time></trkpt><trkpt lat="45.7799661" lon="7.4624313"><ele>1591.0</ele><time>2026-04-05T14:23:53.949Z</time></trkpt><trkpt lat="45.7798894" lon="7.4623601"><ele>1591.0</ele><time>2026-04-05T14:23:55.941Z</time></trkpt><trkpt lat="45.779784" lon="7.4623797"><ele>1591.0</ele><time>2026-04-05T14:23:57.946Z</time></trkpt><trkpt lat="45.7796653" lon="7.4624266"><ele>1591.0</ele><time>2026-04-05T14:23:59.943Z</time></trkpt><trkpt lat="45.7795636" lon="7.4624102"><ele>1591.0</ele><time>2026-04-05T14:24:01.94Z</time></trkpt><trkpt lat="45.7794565" lon="7.4623704"><ele>1591.0</ele><time>2026-04-05T14:24:03.943Z</time></trkpt><trkpt lat="45.7793411" lon="7.4623213"><ele>1584.5000000000002</ele><time>2026-04-05T14:24:05.943Z</time></trkpt><trkpt lat="45.7792805" lon="7.4622835"><ele>1578.0</ele><time>2026-04-05T14:24:06.947Z</time></trkpt><trkpt lat="45.7792119" lon="7.4622456"><ele>1571.5</ele><time>2026-04-05T14:24:07.949Z</time></trkpt><trkpt lat="45.7791412" lon="7.4622241"><ele>1565.0</ele><time>2026-04-05T14:24:08.945Z</time></trkpt><trkpt lat="45.7790635" lon="7.4622187"><ele>1558.5000000000002</ele><time>2026-04-05T14:24:09.948Z</time></trkpt><trkpt lat="45.778983" lon="7.4622266"><ele>1552.0</ele><time>2026-04-05T14:24:10.948Z</time></trkpt><trkpt lat="45.7788992" lon="7.4622497"><ele>1552.0000000000002</ele><time>2026-04-05T14:24:11.945Z</time></trkpt><trkpt lat="45.7788229" lon="7.462253"><ele>1552.0</ele><time>2026-04-05T14:24:12.949Z</time></trkpt><trkpt lat="45.7787504" lon="7.4622347"><ele>1552.0</ele><time>2026-04-05T14:24:13.941Z</time></trkpt><trkpt lat="45.778687" lon="7.4621808"><ele>1552.0</ele><time>2026-04-05T14:24:14.948Z</time></trkpt><trkpt lat="45.7786301" lon="7.4621081"><ele>1552.0000000000002</ele><time>2026-04-05T14:24:15.952Z</time></trkpt><trkpt lat="45.7785658" lon="7.4620106"><ele>1552.0</ele><time>2026-04-05T14:24:16.951Z</time></trkpt><trkpt lat="45.7785019" lon="7.4619159"><ele>1551.6</ele><time>2026-04-05T14:24:17.948Z</time></trkpt><trkpt lat="45.77844" lon="7.4618251"><ele>1551.1999999999998</ele><time>2026-04-05T14:24:18.944Z</time></trkpt><trkpt lat="45.7783696" lon="7.4617218"><ele>1550.8</ele><time>2026-04-05T14:24:19.946Z</time></trkpt><trkpt lat="45.7783053" lon="7.4616113"><ele>1550.4</ele><time>2026-04-05T14:24:20.941Z</time></trkpt><trkpt lat="45.7782489" lon="7.461484"><ele>1550.0</ele><time>2026-04-05T14:24:21.943Z</time></trkpt><trkpt lat="45.7781883" lon="7.4613662"><ele>1555.8</ele><time>2026-04-05T14:24:22.95Z</time></trkpt><trkpt lat="45.7781196" lon="7.4612592"><ele>1561.6</ele><time>2026-04-05T14:24:23.947Z</time></trkpt><trkpt lat="45.7780374" lon="7.4611669"><ele>1567.4</ele><time>2026-04-05T14:24:24.948Z</time></trkpt><trkpt lat="45.7779444" lon="7.4610961"><ele>1573.2</ele><time>2026-04-05T14:24:25.944Z</time></trkpt><trkpt lat="45.7778461" lon="7.4610433"><ele>1579.0</ele><time>2026-04-05T14:24:26.943Z</time></trkpt><trkpt lat="45.7777512" lon="7.4609866"><ele>1572.0000000000002</ele><time>2026-04-05T14:24:27.947Z</time></trkpt><trkpt lat="45.7776571" lon="7.4609348"><ele>1565.0</ele><time>2026-04-05T14:24:28.944Z</time></trkpt><trkpt lat="45.7775744" lon="7.4608874"><ele>1558.0</ele><time>2026-04-05T14:24:29.956Z</time></trkpt><trkpt lat="45.7774996" lon="7.460823"><ele>1551.0</ele><time>2026-04-05T14:24:30.943Z</time></trkpt><trkpt lat="45.7774387" lon="7.4607349"><ele>1544.0000000000002</ele><time>2026-04-05T14:24:31.947Z</time></trkpt><trkpt lat="45.7773879" lon="7.4606373"><ele>1537.0</ele><time>2026-04-05T14:24:32.951Z</time></trkpt><trkpt lat="45.7773514" lon="7.4605131"><ele>1539.6</ele><time>2026-04-05T14:24:33.944Z</time></trkpt><trkpt lat="45.7773093" lon="7.4603842"><ele>1542.1999999999998</ele><time>2026-04-05T14:24:34.952Z</time></trkpt><trkpt lat="45.7772637" lon="7.4602602"><ele>1544.8</ele><time>2026-04-05T14:24:35.947Z</time></trkpt><trkpt lat="45.7772151" lon="7.4601254"><ele>1547.4</ele><time>2026-04-05T14:24:36.95Z</time></trkpt><trkpt lat="45.7771703" lon="7.4599808"><ele>1550.0</ele><time>2026-04-05T14:24:37.945Z</time></trkpt><trkpt lat="45.777126" lon="7.4598413"><ele>1549.9999999999998</ele><time>2026-04-05T14:24:38.945Z</time></trkpt><trkpt lat="45.7770901" lon="7.4597094"><ele>1550.0</ele><time>2026-04-05T14:24:39.952Z</time></trkpt><trkpt lat="45.7770546" lon="7.4595933"><ele>1550.0</ele><time>2026-04-05T14:24:40.945Z</time></trkpt><trkpt lat="45.7770042" lon="7.4594962"><ele>1550.0</ele><time>2026-04-05T14:24:41.948Z</time></trkpt><trkpt lat="45.776944" lon="7.4594328"><ele>1549.9999999999998</ele><time>2026-04-05T14:24:42.946Z</time></trkpt><trkpt lat="45.7768746" lon="7.4593939"><ele>1550.0</ele><time>2026-04-05T14:24:43.943Z</time></trkpt><trkpt lat="45.7768041" lon="7.4593879"><ele>1545.2</ele><time>2026-04-05T14:24:44.949Z</time></trkpt><trkpt lat="45.7767268" lon="7.4593951"><ele>1540.4</ele><time>2026-04-05T14:24:45.951Z</time></trkpt><trkpt lat="45.7766477" lon="7.4594114"><ele>1535.6</ele><time>2026-04-05T14:24:46.947Z</time></trkpt><trkpt lat="45.7765225" lon="7.4594383"><ele>1530.8</ele><time>2026-04-05T14:24:48.946Z</time></trkpt><trkpt lat="45.776401" lon="7.4593914"><ele>1526.0</ele><time>2026-04-05T14:24:50.951Z</time></trkpt><trkpt lat="45.776342" lon="7.4593453"><ele>1526.0</ele><time>2026-04-05T14:24:51.945Z</time></trkpt><trkpt lat="45.7762749" lon="7.4591913"><ele>1526.0</ele><time>2026-04-05T14:24:53.947Z</time></trkpt><trkpt lat="45.7762852" lon="7.4590127"><ele>1526.0</ele><time>2026-04-05T14:24:55.944Z</time></trkpt><trkpt lat="45.7763036" lon="7.4589246"><ele>1526.0</ele><time>2026-04-05T14:24:56.947Z</time></trkpt><trkpt lat="45.7763202" lon="7.4588355"><ele>1526.0</ele><time>2026-04-05T14:24:57.95Z</time></trkpt><trkpt lat="45.7763315" lon="7.4587458"><ele>1526.0</ele><time>2026-04-05T14:24:58.947Z</time></trkpt><trkpt lat="45.7763454" lon="7.4585879"><ele>1526.1999999999998</ele><time>2026-04-05T14:25:00.946Z</time></trkpt><trkpt lat="45.7763105" lon="7.4584731"><ele>1526.3999999999999</ele><time>2026-04-05T14:25:02.946Z</time></trkpt><trkpt lat="45.7762113" lon="7.4584272"><ele>1526.6</ele><time>2026-04-05T14:25:04.946Z</time></trkpt><trkpt lat="45.7760993" lon="7.4584728"><ele>1526.8</ele><time>2026-04-05T14:25:06.951Z</time></trkpt><trkpt lat="45.7760335" lon="7.4585155"><ele>1527.0</ele><time>2026-04-05T14:25:07.946Z</time></trkpt><trkpt lat="45.7759691" lon="7.4585736"><ele>1527.0</ele><time>2026-04-05T14:25:08.949Z</time></trkpt><trkpt lat="45.7758998" lon="7.4586294"><ele>1527.0</ele><time>2026-04-05T14:25:09.953Z</time></trkpt><trkpt lat="45.7758266" lon="7.4586927"><ele>1527.0</ele><time>2026-04-05T14:25:10.948Z</time></trkpt><trkpt lat="45.7757501" lon="7.4587386"><ele>1527.0</ele><time>2026-04-05T14:25:11.951Z</time></trkpt><trkpt lat="45.77567" lon="7.4587794"><ele>1527.0</ele><time>2026-04-05T14:25:12.949Z</time></trkpt><trkpt lat="45.7755913" lon="7.4588327"><ele>1527.0</ele><time>2026-04-05T14:25:13.943Z</time></trkpt><trkpt lat="45.7755226" lon="7.4588739"><ele>1521.8</ele><time>2026-04-05T14:25:14.946Z</time></trkpt><trkpt lat="45.77546" lon="7.4589121"><ele>1516.6</ele><time>2026-04-05T14:25:15.951Z</time></trkpt><trkpt lat="45.7753514" lon="7.458949"><ele>1511.3999999999999</ele><time>2026-04-05T14:25:17.95Z</time></trkpt><trkpt lat="45.7752609" lon="7.458953"><ele>1506.1999999999998</ele><time>2026-04-05T14:25:19.945Z</time></trkpt><trkpt lat="45.7751695" lon="7.4589394"><ele>1501.0</ele><time>2026-04-05T14:25:21.946Z</time></trkpt><trkpt lat="45.7750729" lon="7.4588881"><ele>1498.0</ele><time>2026-04-05T14:25:23.948Z</time></trkpt><trkpt lat="45.7749838" lon="7.4588151"><ele>1495.0</ele><time>2026-04-05T14:25:25.946Z</time></trkpt><trkpt lat="45.7748966" lon="7.4587427"><ele>1492.0</ele><time>2026-04-05T14:25:27.946Z</time></trkpt><trkpt lat="45.774798" lon="7.4586704"><ele>1489.0</ele><time>2026-04-05T14:25:29.944Z</time></trkpt><trkpt lat="45.7747005" lon="7.4585948"><ele>1486.0</ele><time>2026-04-05T14:25:31.95Z</time></trkpt><trkpt lat="45.774612" lon="7.4585195"><ele>1486.4</ele><time>2026-04-05T14:25:33.945Z</time></trkpt><trkpt lat="45.7745126" lon="7.4584566"><ele>1486.8</ele><time>2026-04-05T14:25:35.947Z</time></trkpt><trkpt lat="45.774406" lon="7.4583899"><ele>1487.2</ele><time>2026-04-05T14:25:37.949Z</time></trkpt><trkpt lat="45.7743275" lon="7.4583117"><ele>1487.6000000000001</ele><time>2026-04-05T14:25:39.949Z</time></trkpt><trkpt lat="45.7742219" lon="7.4582609"><ele>1488.0</ele><time>2026-04-05T14:25:41.947Z</time></trkpt><trkpt lat="45.7741112" lon="7.4581884"><ele>1488.0</ele><time>2026-04-05T14:25:43.945Z</time></trkpt><trkpt lat="45.7740068" lon="7.4581145"><ele>1488.0</ele><time>2026-04-05T14:25:45.949Z</time></trkpt><trkpt lat="45.7738966" lon="7.45805"><ele>1488.0</ele><time>2026-04-05T14:25:47.943Z</time></trkpt><trkpt lat="45.7738346" lon="7.4580174"><ele>1488.0</ele><time>2026-04-05T14:25:48.945Z</time></trkpt><trkpt lat="45.7737721" lon="7.4579774"><ele>1488.0</ele><time>2026-04-05T14:25:49.947Z</time></trkpt><trkpt lat="45.7737124" lon="7.4579404"><ele>1488.0</ele><time>2026-04-05T14:25:50.949Z</time></trkpt><trkpt lat="45.7736038" lon="7.4578687"><ele>1489.2857142857144</ele><time>2026-04-05T14:25:52.95Z</time></trkpt><trkpt lat="45.7735382" lon="7.4578384"><ele>1490.5714285714287</ele><time>2026-04-05T14:25:53.947Z</time></trkpt><trkpt lat="45.7734756" lon="7.4578064"><ele>1491.857142857143</ele><time>2026-04-05T14:25:54.948Z</time></trkpt><trkpt lat="45.7734143" lon="7.4577719"><ele>1493.1428571428573</ele><time>2026-04-05T14:25:55.949Z</time></trkpt><trkpt lat="45.7733499" lon="7.4577377"><ele>1494.4285714285713</ele><time>2026-04-05T14:25:56.948Z</time></trkpt><trkpt lat="45.7732907" lon="7.4576985"><ele>1495.7142857142858</ele><time>2026-04-05T14:25:57.944Z</time></trkpt><trkpt lat="45.7732327" lon="7.4576482"><ele>1497.0</ele><time>2026-04-05T14:25:58.949Z</time></trkpt><trkpt lat="45.7731675" lon="7.4575932"><ele>1497.0</ele><time>2026-04-05T14:25:59.952Z</time></trkpt><trkpt lat="45.773101" lon="7.4575369"><ele>1497.0</ele><time>2026-04-05T14:26:00.947Z</time></trkpt><trkpt lat="45.7730387" lon="7.457476"><ele>1497.0</ele><time>2026-04-05T14:26:01.946Z</time></trkpt><trkpt lat="45.7729699" lon="7.4574116"><ele>1497.0</ele><time>2026-04-05T14:26:02.945Z</time></trkpt><trkpt lat="45.7729053" lon="7.4573287"><ele>1497.0</ele><time>2026-04-05T14:26:03.947Z</time></trkpt><trkpt lat="45.7728448" lon="7.4572544"><ele>1497.0</ele><time>2026-04-05T14:26:04.948Z</time></trkpt><trkpt lat="45.7727865" lon="7.4571868"><ele>1493.5</ele><time>2026-04-05T14:26:05.949Z</time></trkpt><trkpt lat="45.7727392" lon="7.4571185"><ele>1490.0</ele><time>2026-04-05T14:26:06.957Z</time></trkpt><trkpt lat="45.7726942" lon="7.457033"><ele>1486.5</ele><time>2026-04-05T14:26:07.951Z</time></trkpt><trkpt lat="45.7726452" lon="7.4569398"><ele>1483.0</ele><time>2026-04-05T14:26:08.95Z</time></trkpt><trkpt lat="45.7726008" lon="7.4568413"><ele>1479.5</ele><time>2026-04-05T14:26:09.945Z</time></trkpt><trkpt lat="45.7725479" lon="7.4567468"><ele>1476.0</ele><time>2026-04-05T14:26:10.945Z</time></trkpt><trkpt lat="45.7724959" lon="7.4566566"><ele>1476.0</ele><time>2026-04-05T14:26:11.951Z</time></trkpt><trkpt lat="45.7724489" lon="7.4565627"><ele>1476.0</ele><time>2026-04-05T14:26:12.951Z</time></trkpt><trkpt lat="45.7724061" lon="7.4564729"><ele>1476.0</ele><time>2026-04-05T14:26:13.945Z</time></trkpt><trkpt lat="45.7723717" lon="7.4563805"><ele>1476.0</ele><time>2026-04-05T14:26:14.949Z</time></trkpt><trkpt lat="45.7723475" lon="7.4562896"><ele>1476.0</ele><time>2026-04-05T14:26:15.95Z</time></trkpt><trkpt lat="45.7723348" lon="7.4561944"><ele>1476.0</ele><time>2026-04-05T14:26:16.943Z</time></trkpt><trkpt lat="45.7723254" lon="7.4560959"><ele>1476.0</ele><time>2026-04-05T14:26:17.953Z</time></trkpt><trkpt lat="45.7723175" lon="7.456001"><ele>1475.7142857142858</ele><time>2026-04-05T14:26:18.954Z</time></trkpt><trkpt lat="45.7723133" lon="7.4559023"><ele>1475.4285714285713</ele><time>2026-04-05T14:26:19.946Z</time></trkpt><trkpt lat="45.7723099" lon="7.455804"><ele>1475.1428571428573</ele><time>2026-04-05T14:26:20.954Z</time></trkpt><trkpt lat="45.7723047" lon="7.4557011"><ele>1474.857142857143</ele><time>2026-04-05T14:26:21.944Z</time></trkpt><trkpt lat="45.7723065" lon="7.4555936"><ele>1474.5714285714287</ele><time>2026-04-05T14:26:22.952Z</time></trkpt><trkpt lat="45.772314" lon="7.4554891"><ele>1474.2857142857144</ele><time>2026-04-05T14:26:23.948Z</time></trkpt><trkpt lat="45.7723191" lon="7.4553829"><ele>1474.0</ele><time>2026-04-05T14:26:24.952Z</time></trkpt><trkpt lat="45.7723161" lon="7.45528"><ele>1474.0</ele><time>2026-04-05T14:26:25.95Z</time></trkpt><trkpt lat="45.7723124" lon="7.4551104"><ele>1474.0</ele><time>2026-04-05T14:26:27.946Z</time></trkpt><trkpt lat="45.7723268" lon="7.454958"><ele>1474.0</ele><time>2026-04-05T14:26:29.949Z</time></trkpt><trkpt lat="45.7723902" lon="7.4548228"><ele>1474.0</ele><time>2026-04-05T14:26:31.95Z</time></trkpt><trkpt lat="45.7724761" lon="7.4547026"><ele>1474.2</ele><time>2026-04-05T14:26:33.942Z</time></trkpt><trkpt lat="45.7725341" lon="7.4545769"><ele>1474.4</ele><time>2026-04-05T14:26:35.943Z</time></trkpt><trkpt lat="45.7725075" lon="7.4544302"><ele>1474.6</ele><time>2026-04-05T14:26:37.942Z</time></trkpt><trkpt lat="45.7724268" lon="7.4543453"><ele>1474.8</ele><time>2026-04-05T14:26:39.952Z</time></trkpt><trkpt lat="45.7723249" lon="7.4543173"><ele>1475.0</ele><time>2026-04-05T14:26:41.947Z</time></trkpt><trkpt lat="45.772195" lon="7.4542671"><ele>1475.0</ele><time>2026-04-05T14:26:43.943Z</time></trkpt><trkpt lat="45.7721349" lon="7.454219"><ele>1475.0</ele><time>2026-04-05T14:26:44.969Z</time></trkpt><trkpt lat="45.7720887" lon="7.4541399"><ele>1475.0</ele><time>2026-04-05T14:26:45.95Z</time></trkpt><trkpt lat="45.7720503" lon="7.4540429"><ele>1475.0</ele><time>2026-04-05T14:26:46.942Z</time></trkpt><trkpt lat="45.772032" lon="7.4539383"><ele>1475.0</ele><time>2026-04-05T14:26:47.947Z</time></trkpt><trkpt lat="45.7720016" lon="7.4538407"><ele>1475.0</ele><time>2026-04-05T14:26:48.946Z</time></trkpt><trkpt lat="45.7719581" lon="7.4537392"><ele>1477.6</ele><time>2026-04-05T14:26:49.953Z</time></trkpt><trkpt lat="45.7719163" lon="7.4536307"><ele>1480.2</ele><time>2026-04-05T14:26:50.948Z</time></trkpt><trkpt lat="45.7718775" lon="7.4535202"><ele>1482.8000000000002</ele><time>2026-04-05T14:26:51.955Z</time></trkpt><trkpt lat="45.771838" lon="7.4534016"><ele>1485.4</ele><time>2026-04-05T14:26:52.949Z</time></trkpt><trkpt lat="45.7718063" lon="7.4532703"><ele>1488.0</ele><time>2026-04-05T14:26:53.945Z</time></trkpt><trkpt lat="45.771773" lon="7.4531443"><ele>1482.5</ele><time>2026-04-05T14:26:54.946Z</time></trkpt><trkpt lat="45.7717376" lon="7.453026"><ele>1477.0</ele><time>2026-04-05T14:26:55.94Z</time></trkpt><trkpt lat="45.7716985" lon="7.4529241"><ele>1471.5</ele><time>2026-04-05T14:26:56.95Z</time></trkpt><trkpt lat="45.7716565" lon="7.4528213"><ele>1466.0</ele><time>2026-04-05T14:26:57.943Z</time></trkpt><trkpt lat="45.7716173" lon="7.4527047"><ele>1460.5</ele><time>2026-04-05T14:26:58.952Z</time></trkpt><trkpt lat="45.7715951" lon="7.4525717"><ele>1455.0</ele><time>2026-04-05T14:26:59.947Z</time></trkpt><trkpt lat="45.7715767" lon="7.4524359"><ele>1455.0</ele><time>2026-04-05T14:27:00.949Z</time></trkpt><trkpt lat="45.7715575" lon="7.4522922"><ele>1455.0</ele><time>2026-04-05T14:27:01.954Z</time></trkpt><trkpt lat="45.7715409" lon="7.4521459"><ele>1455.0</ele><time>2026-04-05T14:27:02.945Z</time></trkpt><trkpt lat="45.7715186" lon="7.4519933"><ele>1455.0</ele><time>2026-04-05T14:27:03.952Z</time></trkpt><trkpt lat="45.7714904" lon="7.4518388"><ele>1455.0</ele><time>2026-04-05T14:27:04.944Z</time></trkpt><trkpt lat="45.7714617" lon="7.4516762"><ele>1455.0</ele><time>2026-04-05T14:27:05.947Z</time></trkpt><trkpt lat="45.7714383" lon="7.4515077"><ele>1455.0</ele><time>2026-04-05T14:27:06.95Z</time></trkpt><trkpt lat="45.7714146" lon="7.4513403"><ele>1455.0</ele><time>2026-04-05T14:27:07.947Z</time></trkpt><trkpt lat="45.7713868" lon="7.4511751"><ele>1455.0</ele><time>2026-04-05T14:27:08.948Z</time></trkpt><trkpt lat="45.7713614" lon="7.4510224"><ele>1455.0</ele><time>2026-04-05T14:27:09.946Z</time></trkpt><trkpt lat="45.7713435" lon="7.4508817"><ele>1455.0</ele><time>2026-04-05T14:27:10.949Z</time></trkpt><trkpt lat="45.7713368" lon="7.4507263"><ele>1455.0</ele><time>2026-04-05T14:27:11.945Z</time></trkpt><trkpt lat="45.7713368" lon="7.4505628"><ele>1455.0</ele><time>2026-04-05T14:27:12.949Z</time></trkpt><trkpt lat="45.7713217" lon="7.4504015"><ele>1455.0</ele><time>2026-04-05T14:27:13.95Z</time></trkpt><trkpt lat="45.7712997" lon="7.4502413"><ele>1454.4</ele><time>2026-04-05T14:27:14.954Z</time></trkpt><trkpt lat="45.771289" lon="7.4500862"><ele>1453.8</ele><time>2026-04-05T14:27:15.945Z</time></trkpt><trkpt lat="45.7712915" lon="7.4499295"><ele>1453.1999999999998</ele><time>2026-04-05T14:27:16.947Z</time></trkpt><trkpt lat="45.7712875" lon="7.4497711"><ele>1452.6</ele><time>2026-04-05T14:27:17.95Z</time></trkpt><trkpt lat="45.7712803" lon="7.4496236"><ele>1452.0</ele><time>2026-04-05T14:27:18.944Z</time></trkpt><trkpt lat="45.7712719" lon="7.4495014"><ele>1451.0</ele><time>2026-04-05T14:27:19.943Z</time></trkpt><trkpt lat="45.771266" lon="7.4493906"><ele>1450.0</ele><time>2026-04-05T14:27:20.948Z</time></trkpt><trkpt lat="45.771274" lon="7.4492874"><ele>1449.0</ele><time>2026-04-05T14:27:21.945Z</time></trkpt><trkpt lat="45.7713096" lon="7.4491895"><ele>1448.0</ele><time>2026-04-05T14:27:22.957Z</time></trkpt><trkpt lat="45.7713583" lon="7.4490919"><ele>1447.0</ele><time>2026-04-05T14:27:23.945Z</time></trkpt><trkpt lat="45.7714191" lon="7.4490105"><ele>1446.0</ele><time>2026-04-05T14:27:24.945Z</time></trkpt><trkpt lat="45.7714734" lon="7.4489279"><ele>1446.0</ele><time>2026-04-05T14:27:25.949Z</time></trkpt><trkpt lat="45.7715262" lon="7.4487943"><ele>1446.0</ele><time>2026-04-05T14:27:27.944Z</time></trkpt><trkpt lat="45.7715133" lon="7.4487029"><ele>1446.0</ele><time>2026-04-05T14:27:29.952Z</time></trkpt><trkpt lat="45.7714508" lon="7.4487221"><ele>1446.0</ele><time>2026-04-05T14:29:42.948Z</time></trkpt><trkpt lat="45.7713771" lon="7.4488075"><ele>1446.0</ele><time>2026-04-05T14:29:45.949Z</time></trkpt><trkpt lat="45.7713115" lon="7.4488985"><ele>1446.0</ele><time>2026-04-05T14:29:47.946Z</time></trkpt><trkpt lat="45.7712292" lon="7.4489804"><ele>1446.0</ele><time>2026-04-05T14:29:49.954Z</time></trkpt><trkpt lat="45.7711453" lon="7.4490593"><ele>1446.0</ele><time>2026-04-05T14:29:51.948Z</time></trkpt><trkpt lat="45.7710679" lon="7.4491737"><ele>1446.0</ele><time>2026-04-05T14:29:53.94Z</time></trkpt><trkpt lat="45.7710334" lon="7.4493208"><ele>1446.0</ele><time>2026-04-05T14:29:55.946Z</time></trkpt><trkpt lat="45.7710149" lon="7.4494809"><ele>1446.0</ele><time>2026-04-05T14:29:57.948Z</time></trkpt><trkpt lat="45.7709858" lon="7.4496397"><ele>1441.2857142857144</ele><time>2026-04-05T14:29:59.941Z</time></trkpt><trkpt lat="45.7709649" lon="7.4497251"><ele>1436.5714285714287</ele><time>2026-04-05T14:30:00.946Z</time></trkpt><trkpt lat="45.7709292" lon="7.4498023"><ele>1431.857142857143</ele><time>2026-04-05T14:30:01.945Z</time></trkpt><trkpt lat="45.7708875" lon="7.4498906"><ele>1427.1428571428573</ele><time>2026-04-05T14:30:02.946Z</time></trkpt><trkpt lat="45.770852" lon="7.4499776"><ele>1422.4285714285716</ele><time>2026-04-05T14:30:03.948Z</time></trkpt><trkpt lat="45.7708299" lon="7.4500737"><ele>1417.7142857142858</ele><time>2026-04-05T14:30:04.951Z</time></trkpt><trkpt lat="45.7708176" lon="7.4501768"><ele>1413.0</ele><time>2026-04-05T14:30:05.944Z</time></trkpt><trkpt lat="45.7708188" lon="7.450286"><ele>1413.0</ele><time>2026-04-05T14:30:06.955Z</time></trkpt><trkpt lat="45.7708362" lon="7.4503833"><ele>1413.0</ele><time>2026-04-05T14:30:07.95Z</time></trkpt><trkpt lat="45.7708479" lon="7.4504793"><ele>1413.0</ele><time>2026-04-05T14:30:08.945Z</time></trkpt><trkpt lat="45.7708564" lon="7.4506701"><ele>1413.0</ele><time>2026-04-05T14:30:10.954Z</time></trkpt><trkpt lat="45.7708543" lon="7.4507713"><ele>1413.0</ele><time>2026-04-05T14:30:11.941Z</time></trkpt><trkpt lat="45.7708472" lon="7.4508677"><ele>1413.0</ele><time>2026-04-05T14:30:12.949Z</time></trkpt><trkpt lat="45.7708316" lon="7.4509673"><ele>1413.0</ele><time>2026-04-05T14:30:13.951Z</time></trkpt><trkpt lat="45.7708053" lon="7.4510575"><ele>1413.0</ele><time>2026-04-05T14:30:14.948Z</time></trkpt><trkpt lat="45.7707643" lon="7.4511307"><ele>1413.0</ele><time>2026-04-05T14:30:15.949Z</time></trkpt><trkpt lat="45.770717" lon="7.4512026"><ele>1413.0</ele><time>2026-04-05T14:30:16.944Z</time></trkpt><trkpt lat="45.7706699" lon="7.4512725"><ele>1413.0</ele><time>2026-04-05T14:30:17.945Z</time></trkpt><trkpt lat="45.7706273" lon="7.4513452"><ele>1413.0</ele><time>2026-04-05T14:30:18.948Z</time></trkpt><trkpt lat="45.7705869" lon="7.4514215"><ele>1413.0</ele><time>2026-04-05T14:30:19.943Z</time></trkpt><trkpt lat="45.7705457" lon="7.4514947"><ele>1413.0</ele><time>2026-04-05T14:30:20.955Z</time></trkpt><trkpt lat="45.7705121" lon="7.4515746"><ele>1413.0</ele><time>2026-04-05T14:30:21.949Z</time></trkpt><trkpt lat="45.7704835" lon="7.4516554"><ele>1413.0</ele><time>2026-04-05T14:30:22.951Z</time></trkpt><trkpt lat="45.7704511" lon="7.4517396"><ele>1413.0</ele><time>2026-04-05T14:30:23.951Z</time></trkpt><trkpt lat="45.770418" lon="7.4518303"><ele>1413.0</ele><time>2026-04-05T14:30:24.95Z</time></trkpt><trkpt lat="45.7703847" lon="7.4519215"><ele>1413.0</ele><time>2026-04-05T14:30:25.946Z</time></trkpt><trkpt lat="45.7703515" lon="7.452014"><ele>1413.0</ele><time>2026-04-05T14:30:26.954Z</time></trkpt><trkpt lat="45.7703211" lon="7.4521118"><ele>1413.2857142857142</ele><time>2026-04-05T14:30:27.949Z</time></trkpt><trkpt lat="45.7702772" lon="7.4522006"><ele>1413.5714285714287</ele><time>2026-04-05T14:30:28.949Z</time></trkpt><trkpt lat="45.7702311" lon="7.4522822"><ele>1413.857142857143</ele><time>2026-04-05T14:30:29.953Z</time></trkpt><trkpt lat="45.7701937" lon="7.4523732"><ele>1414.142857142857</ele><time>2026-04-05T14:30:30.951Z</time></trkpt><trkpt lat="45.770166" lon="7.4524677"><ele>1414.4285714285713</ele><time>2026-04-05T14:30:31.951Z</time></trkpt><trkpt lat="45.7701368" lon="7.4525593"><ele>1414.7142857142858</ele><time>2026-04-05T14:30:32.951Z</time></trkpt><trkpt lat="45.7701156" lon="7.4526525"><ele>1415.0</ele><time>2026-04-05T14:30:33.95Z</time></trkpt><trkpt lat="45.7700863" lon="7.4527453"><ele>1411.857142857143</ele><time>2026-04-05T14:30:34.949Z</time></trkpt><trkpt lat="45.7700519" lon="7.4528313"><ele>1408.7142857142858</ele><time>2026-04-05T14:30:35.95Z</time></trkpt><trkpt lat="45.7700167" lon="7.4529287"><ele>1405.5714285714284</ele><time>2026-04-05T14:30:36.947Z</time></trkpt><trkpt lat="45.769985" lon="7.453015"><ele>1402.4285714285716</ele><time>2026-04-05T14:30:37.948Z</time></trkpt><trkpt lat="45.7699548" lon="7.453106"><ele>1399.2857142857142</ele><time>2026-04-05T14:30:38.948Z</time></trkpt><trkpt lat="45.7699202" lon="7.4532059"><ele>1396.142857142857</ele><time>2026-04-05T14:30:39.949Z</time></trkpt><trkpt lat="45.7698834" lon="7.4533042"><ele>1393.0</ele><time>2026-04-05T14:30:40.947Z</time></trkpt><trkpt lat="45.7698401" lon="7.453394"><ele>1393.0</ele><time>2026-04-05T14:30:41.947Z</time></trkpt><trkpt lat="45.7697962" lon="7.4534812"><ele>1393.0</ele><time>2026-04-05T14:30:42.95Z</time></trkpt><trkpt lat="45.7697392" lon="7.4535516"><ele>1393.0</ele><time>2026-04-05T14:30:43.949Z</time></trkpt><trkpt lat="45.7696756" lon="7.4536153"><ele>1393.0</ele><time>2026-04-05T14:30:44.952Z</time></trkpt><trkpt lat="45.7696184" lon="7.4536864"><ele>1393.0</ele><time>2026-04-05T14:30:45.943Z</time></trkpt><trkpt lat="45.7695674" lon="7.4537509"><ele>1393.0</ele><time>2026-04-05T14:30:46.948Z</time></trkpt><trkpt lat="45.7695132" lon="7.4538105"><ele>1393.0</ele><time>2026-04-05T14:30:47.95Z</time></trkpt><trkpt lat="45.7694607" lon="7.4538733"><ele>1392.5</ele><time>2026-04-05T14:30:48.944Z</time></trkpt><trkpt lat="45.7693914" lon="7.4540228"><ele>1392.0</ele><time>2026-04-05T14:30:50.946Z</time></trkpt><trkpt lat="45.7693745" lon="7.4541109"><ele>1391.5</ele><time>2026-04-05T14:30:51.945Z</time></trkpt><trkpt lat="45.7694205" lon="7.4542284"><ele>1391.0</ele><time>2026-04-05T14:30:53.948Z</time></trkpt><trkpt lat="45.7694217" lon="7.4543292"><ele>1390.5</ele><time>2026-04-05T14:30:56.948Z</time></trkpt><trkpt lat="45.7693351" lon="7.4542724"><ele>1390.0</ele><time>2026-04-05T14:30:58.95Z</time></trkpt><trkpt lat="45.7692867" lon="7.4541475"><ele>1390.6</ele><time>2026-04-05T14:31:00.953Z</time></trkpt><trkpt lat="45.7692918" lon="7.4539905"><ele>1391.2</ele><time>2026-04-05T14:31:02.957Z</time></trkpt><trkpt lat="45.769323" lon="7.453821"><ele>1391.8000000000002</ele><time>2026-04-05T14:31:04.964Z</time></trkpt><trkpt lat="45.7693479" lon="7.4537254"><ele>1392.4</ele><time>2026-04-05T14:31:05.958Z</time></trkpt><trkpt lat="45.7693813" lon="7.453633"><ele>1393.0</ele><time>2026-04-05T14:31:06.953Z</time></trkpt><trkpt lat="45.7694236" lon="7.4535427"><ele>1393.0</ele><time>2026-04-05T14:31:07.96Z</time></trkpt><trkpt lat="45.7694527" lon="7.4534419"><ele>1393.0</ele><time>2026-04-05T14:31:08.962Z</time></trkpt><trkpt lat="45.7694715" lon="7.4533398"><ele>1393.0</ele><time>2026-04-05T14:31:09.957Z</time></trkpt><trkpt lat="45.7694742" lon="7.4532338"><ele>1393.0</ele><time>2026-04-05T14:31:10.968Z</time></trkpt><trkpt lat="45.7694565" lon="7.4531299"><ele>1393.0</ele><time>2026-04-05T14:31:11.956Z</time></trkpt><trkpt lat="45.7694319" lon="7.4530161"><ele>1393.0</ele><time>2026-04-05T14:31:12.947Z</time></trkpt><trkpt lat="45.7693978" lon="7.4529092"><ele>1392.5</ele><time>2026-04-05T14:31:13.953Z</time></trkpt><trkpt lat="45.7693617" lon="7.4527957"><ele>1392.0</ele><time>2026-04-05T14:31:14.959Z</time></trkpt><trkpt lat="45.7693211" lon="7.4526996"><ele>1391.5</ele><time>2026-04-05T14:31:15.953Z</time></trkpt><trkpt lat="45.7692786" lon="7.4526068"><ele>1391.0</ele><time>2026-04-05T14:31:16.952Z</time></trkpt><trkpt lat="45.7692384" lon="7.4525083"><ele>1390.5</ele><time>2026-04-05T14:31:17.956Z</time></trkpt><trkpt lat="45.7691987" lon="7.4524195"><ele>1390.0</ele><time>2026-04-05T14:31:18.957Z</time></trkpt><trkpt lat="45.7691522" lon="7.4523291"><ele>1385.0</ele><time>2026-04-05T14:31:19.954Z</time></trkpt><trkpt lat="45.7691119" lon="7.4522416"><ele>1380.0</ele><time>2026-04-05T14:31:20.96Z</time></trkpt><trkpt lat="45.769056" lon="7.4520859"><ele>1375.0</ele><time>2026-04-05T14:31:22.959Z</time></trkpt><trkpt lat="45.7690537" lon="7.4519884"><ele>1370.0</ele><time>2026-04-05T14:31:23.953Z</time></trkpt><trkpt lat="45.7690576" lon="7.4518946"><ele>1365.0</ele><time>2026-04-05T14:31:24.958Z</time></trkpt><trkpt lat="45.769071" lon="7.4517938"><ele>1360.0</ele><time>2026-04-05T14:31:25.956Z</time></trkpt><trkpt lat="45.7690936" lon="7.4516933"><ele>1359.5714285714287</ele><time>2026-04-05T14:31:26.961Z</time></trkpt><trkpt lat="45.7691233" lon="7.4515998"><ele>1359.142857142857</ele><time>2026-04-05T14:31:27.957Z</time></trkpt><trkpt lat="45.7691508" lon="7.4515"><ele>1358.7142857142858</ele><time>2026-04-05T14:31:28.955Z</time></trkpt><trkpt lat="45.7691692" lon="7.451395"><ele>1358.2857142857142</ele><time>2026-04-05T14:31:29.959Z</time></trkpt><trkpt lat="45.7691728" lon="7.4512876"><ele>1357.857142857143</ele><time>2026-04-05T14:31:30.959Z</time></trkpt><trkpt lat="45.769163" lon="7.451183"><ele>1357.4285714285713</ele><time>2026-04-05T14:31:31.958Z</time></trkpt><trkpt lat="45.7691466" lon="7.4510838"><ele>1357.0</ele><time>2026-04-05T14:31:32.96Z</time></trkpt><trkpt lat="45.7691285" lon="7.4509849"><ele>1354.6666666666665</ele><time>2026-04-05T14:31:33.948Z</time></trkpt><trkpt lat="45.769121" lon="7.4508927"><ele>1352.3333333333333</ele><time>2026-04-05T14:31:34.958Z</time></trkpt><trkpt lat="45.7691337" lon="7.4507996"><ele>1350.0</ele><time>2026-04-05T14:31:35.956Z</time></trkpt><trkpt lat="45.7692044" lon="7.4506531"><ele>1347.6666666666667</ele><time>2026-04-05T14:31:37.955Z</time></trkpt><trkpt lat="45.7692623" lon="7.4506085"><ele>1345.3333333333335</ele><time>2026-04-05T14:31:38.955Z</time></trkpt><trkpt lat="45.7693764" lon="7.4505376"><ele>1343.0</ele><time>2026-04-05T14:31:40.959Z</time></trkpt><trkpt lat="45.7694369" lon="7.4505076"><ele>1347.3333333333335</ele><time>2026-04-05T14:31:41.956Z</time></trkpt><trkpt lat="45.769493" lon="7.4504573"><ele>1351.6666666666667</ele><time>2026-04-05T14:31:42.96Z</time></trkpt><trkpt lat="45.7695347" lon="7.4503887"><ele>1356.0</ele><time>2026-04-05T14:31:43.955Z</time></trkpt><trkpt lat="45.7695751" lon="7.4502051"><ele>1360.3333333333333</ele><time>2026-04-05T14:31:45.953Z</time></trkpt><trkpt lat="45.7695961" lon="7.4500929"><ele>1364.6666666666665</ele><time>2026-04-05T14:31:46.955Z</time></trkpt><trkpt lat="45.7696192" lon="7.4499795"><ele>1369.0</ele><time>2026-04-05T14:31:47.954Z</time></trkpt><trkpt lat="45.7696352" lon="7.4498676"><ele>1369.0</ele><time>2026-04-05T14:31:48.955Z</time></trkpt><trkpt lat="45.7696604" lon="7.449737"><ele>1369.0</ele><time>2026-04-05T14:31:49.952Z</time></trkpt><trkpt lat="45.7696941" lon="7.4496181"><ele>1369.0</ele><time>2026-04-05T14:31:50.951Z</time></trkpt><trkpt lat="45.7697329" lon="7.4495179"><ele>1369.0</ele><time>2026-04-05T14:31:51.958Z</time></trkpt><trkpt lat="45.7697782" lon="7.4494188"><ele>1369.0</ele><time>2026-04-05T14:31:52.954Z</time></trkpt><trkpt lat="45.769826" lon="7.4493316"><ele>1369.0</ele><time>2026-04-05T14:31:53.951Z</time></trkpt><trkpt lat="45.7698379" lon="7.449214"><ele>1365.8000000000002</ele><time>2026-04-05T14:31:54.953Z</time></trkpt><trkpt lat="45.7698377" lon="7.449075"><ele>1362.6000000000001</ele><time>2026-04-05T14:31:55.947Z</time></trkpt><trkpt lat="45.7698254" lon="7.4489186"><ele>1359.4</ele><time>2026-04-05T14:31:56.953Z</time></trkpt><trkpt lat="45.7698319" lon="7.4487618"><ele>1356.2</ele><time>2026-04-05T14:31:57.951Z</time></trkpt><trkpt lat="45.7698584" lon="7.4486296"><ele>1353.0</ele><time>2026-04-05T14:31:58.95Z</time></trkpt><trkpt lat="45.7699079" lon="7.4485146"><ele>1348.8000000000002</ele><time>2026-04-05T14:31:59.954Z</time></trkpt><trkpt lat="45.7699723" lon="7.4484136"><ele>1344.6</ele><time>2026-04-05T14:32:00.954Z</time></trkpt><trkpt lat="45.7700457" lon="7.4483097"><ele>1340.4</ele><time>2026-04-05T14:32:01.948Z</time></trkpt><trkpt lat="45.7701229" lon="7.4482022"><ele>1336.1999999999998</ele><time>2026-04-05T14:32:02.953Z</time></trkpt><trkpt lat="45.7701921" lon="7.4480928"><ele>1332.0</ele><time>2026-04-05T14:32:03.939Z</time></trkpt><trkpt lat="45.770263" lon="7.4479722"><ele>1337.0</ele><time>2026-04-05T14:32:04.942Z</time></trkpt><trkpt lat="45.7703301" lon="7.447847"><ele>1342.0</ele><time>2026-04-05T14:32:05.956Z</time></trkpt><trkpt lat="45.7704044" lon="7.4477152"><ele>1347.0</ele><time>2026-04-05T14:32:06.946Z</time></trkpt><trkpt lat="45.7704715" lon="7.4475821"><ele>1352.0</ele><time>2026-04-05T14:32:07.953Z</time></trkpt><trkpt lat="45.7705347" lon="7.4474498"><ele>1352.0</ele><time>2026-04-05T14:32:08.952Z</time></trkpt><trkpt lat="45.7705959" lon="7.4473107"><ele>1352.0</ele><time>2026-04-05T14:32:09.94Z</time></trkpt><trkpt lat="45.7706529" lon="7.4471764"><ele>1352.0</ele><time>2026-04-05T14:32:10.939Z</time></trkpt><trkpt lat="45.7707025" lon="7.4470505"><ele>1352.0</ele><time>2026-04-05T14:32:11.94Z</time></trkpt><trkpt lat="45.7707469" lon="7.4469144"><ele>1352.0</ele><time>2026-04-05T14:32:12.953Z</time></trkpt><trkpt lat="45.7707795" lon="7.4467822"><ele>1348.0</ele><time>2026-04-05T14:32:13.945Z</time></trkpt><trkpt lat="45.7707956" lon="7.4466458"><ele>1344.0</ele><time>2026-04-05T14:32:14.948Z</time></trkpt><trkpt lat="45.7707967" lon="7.4465003"><ele>1340.0</ele><time>2026-04-05T14:32:15.953Z</time></trkpt><trkpt lat="45.7707911" lon="7.446351"><ele>1336.0</ele><time>2026-04-05T14:32:16.949Z</time></trkpt><trkpt lat="45.77078" lon="7.4462057"><ele>1332.0</ele><time>2026-04-05T14:32:17.944Z</time></trkpt><trkpt lat="45.7707648" lon="7.4460671"><ele>1331.1999999999998</ele><time>2026-04-05T14:32:18.947Z</time></trkpt><trkpt lat="45.7707337" lon="7.4459298"><ele>1330.4</ele><time>2026-04-05T14:32:19.954Z</time></trkpt><trkpt lat="45.7706924" lon="7.4457929"><ele>1329.6</ele><time>2026-04-05T14:32:20.956Z</time></trkpt><trkpt lat="45.7706448" lon="7.4456535"><ele>1328.8000000000002</ele><time>2026-04-05T14:32:21.956Z</time></trkpt><trkpt lat="45.7705933" lon="7.4455303"><ele>1328.0</ele><time>2026-04-05T14:32:22.948Z</time></trkpt><trkpt lat="45.7705396" lon="7.4454212"><ele>1328.0</ele><time>2026-04-05T14:32:23.955Z</time></trkpt><trkpt lat="45.7705043" lon="7.4453094"><ele>1328.0</ele><time>2026-04-05T14:32:24.955Z</time></trkpt><trkpt lat="45.7704906" lon="7.4452042"><ele>1328.0</ele><time>2026-04-05T14:32:25.957Z</time></trkpt><trkpt lat="45.7704938" lon="7.4451028"><ele>1328.0</ele><time>2026-04-05T14:32:26.95Z</time></trkpt><trkpt lat="45.7705143" lon="7.4450002"><ele>1328.0</ele><time>2026-04-05T14:32:27.947Z</time></trkpt><trkpt lat="45.7705597" lon="7.4449127"><ele>1328.0</ele><time>2026-04-05T14:32:28.949Z</time></trkpt><trkpt lat="45.7706152" lon="7.4448259"><ele>1328.0</ele><time>2026-04-05T14:32:29.952Z</time></trkpt><trkpt lat="45.7706728" lon="7.4447402"><ele>1328.0</ele><time>2026-04-05T14:32:30.954Z</time></trkpt><trkpt lat="45.7707291" lon="7.4446411"><ele>1328.0</ele><time>2026-04-05T14:32:31.947Z</time></trkpt><trkpt lat="45.7707838" lon="7.4445387"><ele>1328.0</ele><time>2026-04-05T14:32:32.95Z</time></trkpt><trkpt lat="45.7708382" lon="7.4444331"><ele>1328.0</ele><time>2026-04-05T14:32:33.945Z</time></trkpt><trkpt lat="45.7709" lon="7.4443097"><ele>1326.4</ele><time>2026-04-05T14:32:34.949Z</time></trkpt><trkpt lat="45.7709629" lon="7.4441836"><ele>1324.8000000000002</ele><time>2026-04-05T14:32:35.95Z</time></trkpt><trkpt lat="45.7710418" lon="7.4440756"><ele>1323.2</ele><time>2026-04-05T14:32:36.955Z</time></trkpt><trkpt lat="45.7711228" lon="7.4439778"><ele>1321.6</ele><time>2026-04-05T14:32:37.951Z</time></trkpt><trkpt lat="45.7712014" lon="7.4438689"><ele>1320.0</ele><time>2026-04-05T14:32:38.952Z</time></trkpt><trkpt lat="45.7712831" lon="7.4437666"><ele>1320.0</ele><time>2026-04-05T14:32:39.947Z</time></trkpt><trkpt lat="45.7713538" lon="7.4436537"><ele>1320.0</ele><time>2026-04-05T14:32:40.953Z</time></trkpt><trkpt lat="45.7714161" lon="7.4435442"><ele>1320.0</ele><time>2026-04-05T14:32:41.95Z</time></trkpt><trkpt lat="45.7714706" lon="7.4434152"><ele>1320.0</ele><time>2026-04-05T14:32:42.948Z</time></trkpt><trkpt lat="45.7715217" lon="7.4432729"><ele>1320.0</ele><time>2026-04-05T14:32:43.95Z</time></trkpt><trkpt lat="45.7715706" lon="7.4431252"><ele>1320.0</ele><time>2026-04-05T14:32:44.943Z</time></trkpt><trkpt lat="45.7716152" lon="7.4429765"><ele>1320.0</ele><time>2026-04-05T14:32:45.953Z</time></trkpt><trkpt lat="45.7716585" lon="7.4428283"><ele>1320.0</ele><time>2026-04-05T14:32:46.944Z</time></trkpt><trkpt lat="45.7717073" lon="7.4426886"><ele>1320.0</ele><time>2026-04-05T14:32:47.95Z</time></trkpt><trkpt lat="45.771761" lon="7.4425618"><ele>1320.0</ele><time>2026-04-05T14:32:48.95Z</time></trkpt><trkpt lat="45.7718301" lon="7.442452"><ele>1317.0</ele><time>2026-04-05T14:32:49.95Z</time></trkpt><trkpt lat="45.7719068" lon="7.4423406"><ele>1314.0</ele><time>2026-04-05T14:32:50.951Z</time></trkpt><trkpt lat="45.7719898" lon="7.4422311"><ele>1311.0</ele><time>2026-04-05T14:32:51.948Z</time></trkpt><trkpt lat="45.7720716" lon="7.4421299"><ele>1308.0</ele><time>2026-04-05T14:32:52.952Z</time></trkpt><trkpt lat="45.7721505" lon="7.4420376"><ele>1305.0</ele><time>2026-04-05T14:32:53.944Z</time></trkpt><trkpt lat="45.7722275" lon="7.441943"><ele>1305.0</ele><time>2026-04-05T14:32:54.946Z</time></trkpt><trkpt lat="45.7722918" lon="7.4418507"><ele>1305.0</ele><time>2026-04-05T14:32:55.947Z</time></trkpt><trkpt lat="45.772349" lon="7.4417476"><ele>1305.0</ele><time>2026-04-05T14:32:56.949Z</time></trkpt><trkpt lat="45.772393" lon="7.4416266"><ele>1305.0</ele><time>2026-04-05T14:32:57.953Z</time></trkpt><trkpt lat="45.7724326" lon="7.4414952"><ele>1305.0</ele><time>2026-04-05T14:32:58.955Z</time></trkpt><trkpt lat="45.7724661" lon="7.4413613"><ele>1305.5</ele><time>2026-04-05T14:32:59.948Z</time></trkpt><trkpt lat="45.772494" lon="7.4412254"><ele>1306.0</ele><time>2026-04-05T14:33:00.947Z</time></trkpt><trkpt lat="45.772505" lon="7.441112"><ele>1306.5</ele><time>2026-04-05T14:33:01.944Z</time></trkpt><trkpt lat="45.772505" lon="7.4410179"><ele>1307.0</ele><time>2026-04-05T14:33:02.946Z</time></trkpt><trkpt lat="45.772477" lon="7.440924"><ele>1307.5</ele><time>2026-04-05T14:33:03.947Z</time></trkpt><trkpt lat="45.7723868" lon="7.4408338"><ele>1308.0</ele><time>2026-04-05T14:33:05.953Z</time></trkpt><trkpt lat="45.7722758" lon="7.4409127"><ele>1308.0</ele><time>2026-04-05T14:33:07.951Z</time></trkpt><trkpt lat="45.7721869" lon="7.441029"><ele>1308.0</ele><time>2026-04-05T14:33:09.949Z</time></trkpt><trkpt lat="45.7721017" lon="7.4411512"><ele>1308.0</ele><time>2026-04-05T14:33:11.952Z</time></trkpt><trkpt lat="45.7720159" lon="7.4412722"><ele>1308.0</ele><time>2026-04-05T14:33:13.947Z</time></trkpt><trkpt lat="45.7719326" lon="7.4413718"><ele>1303.1666666666667</ele><time>2026-04-05T14:33:15.947Z</time></trkpt><trkpt lat="45.7718536" lon="7.4414443"><ele>1298.3333333333333</ele><time>2026-04-05T14:33:17.947Z</time></trkpt><trkpt lat="45.771781" lon="7.4414823"><ele>1293.5</ele><time>2026-04-05T14:33:19.948Z</time></trkpt><trkpt lat="45.7716966" lon="7.441496"><ele>1288.6666666666665</ele><time>2026-04-05T14:33:22.949Z</time></trkpt><trkpt lat="45.7716077" lon="7.4414867"><ele>1283.8333333333333</ele><time>2026-04-05T14:33:25.949Z</time></trkpt><trkpt lat="45.7715362" lon="7.441494"><ele>1279.0</ele><time>2026-04-05T14:33:27.951Z</time></trkpt><trkpt lat="45.7714619" lon="7.4415296"><ele>1279.0</ele><time>2026-04-05T14:33:29.953Z</time></trkpt><trkpt lat="45.7713958" lon="7.4415813"><ele>1279.0</ele><time>2026-04-05T14:33:31.948Z</time></trkpt><trkpt lat="45.7713195" lon="7.4416446"><ele>1279.0</ele><time>2026-04-05T14:33:33.954Z</time></trkpt><trkpt lat="45.7712275" lon="7.4416564"><ele>1279.0</ele><time>2026-04-05T14:33:35.95Z</time></trkpt><trkpt lat="45.7711288" lon="7.4416597"><ele>1279.0</ele><time>2026-04-05T14:33:37.951Z</time></trkpt><trkpt lat="45.771031" lon="7.4416839"><ele>1283.6</ele><time>2026-04-05T14:33:39.955Z</time></trkpt><trkpt lat="45.7709279" lon="7.4417079"><ele>1288.2</ele><time>2026-04-05T14:33:41.948Z</time></trkpt><trkpt lat="45.7708344" lon="7.4416825"><ele>1292.8</ele><time>2026-04-05T14:33:43.947Z</time></trkpt><trkpt lat="45.7707377" lon="7.4416411"><ele>1297.3999999999999</ele><time>2026-04-05T14:33:45.947Z</time></trkpt><trkpt lat="45.7706253" lon="7.441631"><ele>1302.0</ele><time>2026-04-05T14:33:47.95Z</time></trkpt><trkpt lat="45.7705396" lon="7.441716"><ele>1302.0</ele><time>2026-04-05T14:33:49.944Z</time></trkpt><trkpt lat="45.770478" lon="7.4418409"><ele>1302.0</ele><time>2026-04-05T14:33:51.949Z</time></trkpt><trkpt lat="45.7704155" lon="7.441955"><ele>1302.0</ele><time>2026-04-05T14:33:53.953Z</time></trkpt><trkpt lat="45.7703448" lon="7.4420522"><ele>1302.0</ele><time>2026-04-05T14:33:55.947Z</time></trkpt><trkpt lat="45.7702654" lon="7.4421352"><ele>1302.0</ele><time>2026-04-05T14:33:57.946Z</time></trkpt><trkpt lat="45.7701746" lon="7.4422085"><ele>1296.8</ele><time>2026-04-05T14:33:59.949Z</time></trkpt><trkpt lat="45.7700815" lon="7.4422536"><ele>1291.6</ele><time>2026-04-05T14:34:01.951Z</time></trkpt><trkpt lat="45.7699903" lon="7.4422726"><ele>1286.3999999999999</ele><time>2026-04-05T14:34:03.946Z</time></trkpt><trkpt lat="45.7698936" lon="7.4422895"><ele>1281.1999999999998</ele><time>2026-04-05T14:34:05.952Z</time></trkpt><trkpt lat="45.7697994" lon="7.4422901"><ele>1276.0</ele><time>2026-04-05T14:34:07.948Z</time></trkpt><trkpt lat="45.7697002" lon="7.4422847"><ele>1276.0</ele><time>2026-04-05T14:34:09.94Z</time></trkpt><trkpt lat="45.7696007" lon="7.4422639"><ele>1276.0</ele><time>2026-04-05T14:34:11.95Z</time></trkpt><trkpt lat="45.7695033" lon="7.4422523"><ele>1276.0</ele><time>2026-04-05T14:34:13.951Z</time></trkpt><trkpt lat="45.7693995" lon="7.4422522"><ele>1276.0</ele><time>2026-04-05T14:34:15.949Z</time></trkpt><trkpt lat="45.7692963" lon="7.4422451"><ele>1276.0</ele><time>2026-04-05T14:34:17.946Z</time></trkpt><trkpt lat="45.7691912" lon="7.4422398"><ele>1278.1999999999998</ele><time>2026-04-05T14:34:19.951Z</time></trkpt><trkpt lat="45.7690889" lon="7.4422409"><ele>1280.3999999999999</ele><time>2026-04-05T14:34:21.949Z</time></trkpt><trkpt lat="45.7689829" lon="7.4422656"><ele>1282.6</ele><time>2026-04-05T14:34:23.953Z</time></trkpt><trkpt lat="45.7688719" lon="7.4423222"><ele>1284.8</ele><time>2026-04-05T14:34:25.944Z</time></trkpt><trkpt lat="45.7687717" lon="7.44236"><ele>1287.0</ele><time>2026-04-05T14:34:27.955Z</time></trkpt><trkpt lat="45.7686742" lon="7.4423937"><ele>1287.0</ele><time>2026-04-05T14:34:29.945Z</time></trkpt><trkpt lat="45.7685703" lon="7.4424503"><ele>1287.0</ele><time>2026-04-05T14:34:31.943Z</time></trkpt><trkpt lat="45.7684808" lon="7.4425589"><ele>1287.0</ele><time>2026-04-05T14:34:33.949Z</time></trkpt><trkpt lat="45.7684112" lon="7.4426695"><ele>1287.0</ele><time>2026-04-05T14:34:35.947Z</time></trkpt><trkpt lat="45.7683477" lon="7.4427931"><ele>1287.0</ele><time>2026-04-05T14:34:37.951Z</time></trkpt><trkpt lat="45.7682806" lon="7.4429059"><ele>1284.3999999999999</ele><time>2026-04-05T14:34:39.951Z</time></trkpt><trkpt lat="45.7681987" lon="7.443002"><ele>1281.8</ele><time>2026-04-05T14:34:41.949Z</time></trkpt><trkpt lat="45.7681001" lon="7.4430734"><ele>1279.2</ele><time>2026-04-05T14:34:43.944Z</time></trkpt><trkpt lat="45.7679887" lon="7.4431147"><ele>1276.6</ele><time>2026-04-05T14:34:45.949Z</time></trkpt><trkpt lat="45.7678751" lon="7.4431452"><ele>1274.0</ele><time>2026-04-05T14:34:47.948Z</time></trkpt><trkpt lat="45.7677703" lon="7.4431744"><ele>1279.25</ele><time>2026-04-05T14:34:49.949Z</time></trkpt><trkpt lat="45.7676602" lon="7.4432098"><ele>1284.5</ele><time>2026-04-05T14:34:51.952Z</time></trkpt><trkpt lat="45.7675452" lon="7.4432466"><ele>1289.75</ele><time>2026-04-05T14:34:53.954Z</time></trkpt><trkpt lat="45.7674292" lon="7.4432887"><ele>1295.0</ele><time>2026-04-05T14:34:55.947Z</time></trkpt><trkpt lat="45.7673189" lon="7.4433365"><ele>1295.0</ele><time>2026-04-05T14:34:57.949Z</time></trkpt><trkpt lat="45.7672177" lon="7.4434205"><ele>1295.0</ele><time>2026-04-05T14:34:59.945Z</time></trkpt><trkpt lat="45.7671463" lon="7.4435538"><ele>1295.0</ele><time>2026-04-05T14:35:01.949Z</time></trkpt><trkpt lat="45.7671045" lon="7.4437097"><ele>1295.0</ele><time>2026-04-05T14:35:03.946Z</time></trkpt><trkpt lat="45.7670817" lon="7.4438742"><ele>1289.25</ele><time>2026-04-05T14:35:05.949Z</time></trkpt><trkpt lat="45.7670638" lon="7.4440491"><ele>1283.5</ele><time>2026-04-05T14:35:07.947Z</time></trkpt><trkpt lat="45.767048" lon="7.4442275"><ele>1277.75</ele><time>2026-04-05T14:35:09.951Z</time></trkpt><trkpt lat="45.7670232" lon="7.4443958"><ele>1272.0</ele><time>2026-04-05T14:35:11.951Z</time></trkpt><trkpt lat="45.7669864" lon="7.4445537"><ele>1265.75</ele><time>2026-04-05T14:35:13.947Z</time></trkpt><trkpt lat="45.7669098" lon="7.444663"><ele>1259.5</ele><time>2026-04-05T14:35:15.948Z</time></trkpt><trkpt lat="45.7668147" lon="7.4447626"><ele>1253.25</ele><time>2026-04-05T14:35:17.949Z</time></trkpt><trkpt lat="45.7667241" lon="7.444862"><ele>1247.0</ele><time>2026-04-05T14:35:19.953Z</time></trkpt><trkpt lat="45.7666213" lon="7.4449566"><ele>1260.0</ele><time>2026-04-05T14:35:21.949Z</time></trkpt><trkpt lat="45.766524" lon="7.4450552"><ele>1273.0</ele><time>2026-04-05T14:35:23.96Z</time></trkpt><trkpt lat="45.7664277" lon="7.4451595"><ele>1286.0</ele><time>2026-04-05T14:35:25.953Z</time></trkpt><trkpt lat="45.7663366" lon="7.4452637"><ele>1299.0</ele><time>2026-04-05T14:35:27.948Z</time></trkpt><trkpt lat="45.7662818" lon="7.445389"><ele>1292.6000000000001</ele><time>2026-04-05T14:35:29.951Z</time></trkpt><trkpt lat="45.766241" lon="7.4455132"><ele>1286.2</ele><time>2026-04-05T14:35:31.945Z</time></trkpt><trkpt lat="45.7662058" lon="7.4456417"><ele>1279.8000000000002</ele><time>2026-04-05T14:35:33.952Z</time></trkpt><trkpt lat="45.766164" lon="7.4457742"><ele>1273.4</ele><time>2026-04-05T14:35:35.945Z</time></trkpt><trkpt lat="45.7661199" lon="7.4458901"><ele>1267.0</ele><time>2026-04-05T14:35:37.943Z</time></trkpt><trkpt lat="45.7660696" lon="7.445996"><ele>1271.8</ele><time>2026-04-05T14:35:39.949Z</time></trkpt><trkpt lat="45.7660138" lon="7.4460944"><ele>1276.6</ele><time>2026-04-05T14:35:41.957Z</time></trkpt><trkpt lat="45.7659478" lon="7.446202"><ele>1281.3999999999999</ele><time>2026-04-05T14:35:43.953Z</time></trkpt><trkpt lat="45.7658749" lon="7.4462956"><ele>1286.2</ele><time>2026-04-05T14:35:45.953Z</time></trkpt><trkpt lat="45.7657997" lon="7.4463887"><ele>1291.0</ele><time>2026-04-05T14:35:47.955Z</time></trkpt><trkpt lat="45.7657249" lon="7.446513"><ele>1291.0</ele><time>2026-04-05T14:35:49.949Z</time></trkpt><trkpt lat="45.7656547" lon="7.4466598"><ele>1291.0</ele><time>2026-04-05T14:35:51.951Z</time></trkpt><trkpt lat="45.7656206" lon="7.4467421"><ele>1291.0</ele><time>2026-04-05T14:35:52.952Z</time></trkpt><trkpt lat="45.7655905" lon="7.4468321"><ele>1291.0</ele><time>2026-04-05T14:35:53.954Z</time></trkpt><trkpt lat="45.7655522" lon="7.446906"><ele>1291.0</ele><time>2026-04-05T14:35:54.951Z</time></trkpt><trkpt lat="45.7655061" lon="7.4469807"><ele>1291.0</ele><time>2026-04-05T14:35:55.95Z</time></trkpt><trkpt lat="45.7654636" lon="7.4470653"><ele>1284.5</ele><time>2026-04-05T14:35:56.949Z</time></trkpt><trkpt lat="45.7654213" lon="7.4471517"><ele>1278.0</ele><time>2026-04-05T14:35:57.953Z</time></trkpt><trkpt lat="45.7653887" lon="7.4472371"><ele>1271.5</ele><time>2026-04-05T14:35:58.946Z</time></trkpt><trkpt lat="45.7653502" lon="7.4473285"><ele>1265.0</ele><time>2026-04-05T14:35:59.954Z</time></trkpt><trkpt lat="45.7653035" lon="7.4474234"><ele>1258.5</ele><time>2026-04-05T14:36:00.947Z</time></trkpt><trkpt lat="45.7652518" lon="7.4475154"><ele>1252.0</ele><time>2026-04-05T14:36:01.952Z</time></trkpt><trkpt lat="45.7652052" lon="7.4476099"><ele>1257.5</ele><time>2026-04-05T14:36:02.952Z</time></trkpt><trkpt lat="45.7651527" lon="7.4476935"><ele>1263.0</ele><time>2026-04-05T14:36:03.942Z</time></trkpt><trkpt lat="45.765099" lon="7.4477775"><ele>1268.5</ele><time>2026-04-05T14:36:04.95Z</time></trkpt><trkpt lat="45.7650389" lon="7.4478391"><ele>1274.0</ele><time>2026-04-05T14:36:05.956Z</time></trkpt><trkpt lat="45.7649827" lon="7.4478869"><ele>1279.5</ele><time>2026-04-05T14:36:06.957Z</time></trkpt><trkpt lat="45.764857" lon="7.4478992"><ele>1285.0</ele><time>2026-04-05T14:36:08.946Z</time></trkpt><trkpt lat="45.7647923" lon="7.4479019"><ele>1285.0</ele><time>2026-04-05T14:36:09.957Z</time></trkpt><trkpt lat="45.7647278" lon="7.4479085"><ele>1285.0</ele><time>2026-04-05T14:36:10.95Z</time></trkpt><trkpt lat="45.7646636" lon="7.4479161"><ele>1285.0</ele><time>2026-04-05T14:36:11.949Z</time></trkpt><trkpt lat="45.7646012" lon="7.4479334"><ele>1285.0</ele><time>2026-04-05T14:36:12.958Z</time></trkpt><trkpt lat="45.7645022" lon="7.4479977"><ele>1285.0</ele><time>2026-04-05T14:36:14.961Z</time></trkpt><trkpt lat="45.7644287" lon="7.4480644"><ele>1285.0</ele><time>2026-04-05T14:36:16.955Z</time></trkpt><trkpt lat="45.7643724" lon="7.4481116"><ele>1283.0</ele><time>2026-04-05T14:36:18.956Z</time></trkpt><trkpt lat="45.7642931" lon="7.448126"><ele>1281.0</ele><time>2026-04-05T14:36:22.952Z</time></trkpt><trkpt lat="45.764283" lon="7.4482405"><ele>1279.0</ele><time>2026-04-05T14:36:25.948Z</time></trkpt><trkpt lat="45.7642797" lon="7.4483583"><ele>1277.0</ele><time>2026-04-05T14:36:28.96Z</time></trkpt><trkpt lat="45.7642285" lon="7.4484532"><ele>1275.0</ele><time>2026-04-05T14:36:31.957Z</time></trkpt><trkpt lat="45.7642144" lon="7.448542"><ele>1273.0</ele><time>2026-04-05T14:36:36.956Z</time></trkpt><trkpt lat="45.7642639" lon="7.4484775"><ele>1273.0</ele><time>2026-04-05T14:52:39.942Z</time></trkpt><trkpt lat="45.7642895" lon="7.448381"><ele>1273.0</ele><time>2026-04-05T14:52:43.937Z</time></trkpt><trkpt lat="45.7643232" lon="7.4483037"><ele>1273.0</ele><time>2026-04-05T14:52:46.943Z</time></trkpt><trkpt lat="45.7643362" lon="7.448203"><ele>1273.0</ele><time>2026-04-05T14:52:50.938Z</time></trkpt><trkpt lat="45.7643043" lon="7.4481163"><ele>1273.0</ele><time>2026-04-05T14:52:53.936Z</time></trkpt><trkpt lat="45.7642523" lon="7.4480277"><ele>1273.0</ele><time>2026-04-05T14:52:55.94Z</time></trkpt><trkpt lat="45.7641895" lon="7.4478864"><ele>1274.2857142857142</ele><time>2026-04-05T14:52:57.936Z</time></trkpt><trkpt lat="45.7641518" lon="7.4478106"><ele>1275.5714285714287</ele><time>2026-04-05T14:52:58.942Z</time></trkpt><trkpt lat="45.7641009" lon="7.4477432"><ele>1276.857142857143</ele><time>2026-04-05T14:52:59.949Z</time></trkpt><trkpt lat="45.7640515" lon="7.4476759"><ele>1278.142857142857</ele><time>2026-04-05T14:53:00.937Z</time></trkpt><trkpt lat="45.7639942" lon="7.4476157"><ele>1279.4285714285713</ele><time>2026-04-05T14:53:01.94Z</time></trkpt><trkpt lat="45.7639285" lon="7.4475614"><ele>1280.7142857142858</ele><time>2026-04-05T14:53:02.937Z</time></trkpt><trkpt lat="45.7638641" lon="7.4475143"><ele>1282.0</ele><time>2026-04-05T14:53:03.938Z</time></trkpt><trkpt lat="45.7637959" lon="7.4474689"><ele>1282.0</ele><time>2026-04-05T14:53:04.943Z</time></trkpt><trkpt lat="45.763731" lon="7.4474179"><ele>1282.0</ele><time>2026-04-05T14:53:05.934Z</time></trkpt><trkpt lat="45.763669" lon="7.4473624"><ele>1282.0</ele><time>2026-04-05T14:53:06.934Z</time></trkpt><trkpt lat="45.7636087" lon="7.4472948"><ele>1282.0</ele><time>2026-04-05T14:53:07.937Z</time></trkpt><trkpt lat="45.763558" lon="7.4472232"><ele>1282.0</ele><time>2026-04-05T14:53:08.941Z</time></trkpt><trkpt lat="45.7634974" lon="7.4471453"><ele>1282.0</ele><time>2026-04-05T14:53:09.936Z</time></trkpt><trkpt lat="45.7634351" lon="7.4470762"><ele>1281.0</ele><time>2026-04-05T14:53:10.938Z</time></trkpt><trkpt lat="45.7633652" lon="7.4470241"><ele>1280.0</ele><time>2026-04-05T14:53:11.935Z</time></trkpt><trkpt lat="45.7632849" lon="7.4469846"><ele>1279.0</ele><time>2026-04-05T14:53:12.945Z</time></trkpt><trkpt lat="45.7632041" lon="7.4469511"><ele>1278.0</ele><time>2026-04-05T14:53:13.938Z</time></trkpt><trkpt lat="45.7631243" lon="7.4469194"><ele>1277.0</ele><time>2026-04-05T14:53:14.939Z</time></trkpt><trkpt lat="45.7630445" lon="7.446901"><ele>1276.0</ele><time>2026-04-05T14:53:15.937Z</time></trkpt><trkpt lat="45.7629633" lon="7.4468861"><ele>1276.0</ele><time>2026-04-05T14:53:16.939Z</time></trkpt><trkpt lat="45.7628821" lon="7.4468784"><ele>1276.0</ele><time>2026-04-05T14:53:17.936Z</time></trkpt><trkpt lat="45.7628034" lon="7.4468756"><ele>1276.0</ele><time>2026-04-05T14:53:18.936Z</time></trkpt><trkpt lat="45.7627266" lon="7.4468719"><ele>1276.0</ele><time>2026-04-05T14:53:19.94Z</time></trkpt><trkpt lat="45.7626487" lon="7.4468665"><ele>1276.0</ele><time>2026-04-05T14:53:20.94Z</time></trkpt><trkpt lat="45.7625716" lon="7.4468649"><ele>1276.0</ele><time>2026-04-05T14:53:21.938Z</time></trkpt><trkpt lat="45.7624918" lon="7.4468652"><ele>1275.5</ele><time>2026-04-05T14:53:22.936Z</time></trkpt><trkpt lat="45.7624099" lon="7.4468517"><ele>1275.0</ele><time>2026-04-05T14:53:23.934Z</time></trkpt><trkpt lat="45.7623347" lon="7.4468372"><ele>1274.5</ele><time>2026-04-05T14:53:24.942Z</time></trkpt><trkpt lat="45.7622648" lon="7.4468225"><ele>1274.0</ele><time>2026-04-05T14:53:25.942Z</time></trkpt><trkpt lat="45.7621902" lon="7.4468072"><ele>1273.5</ele><time>2026-04-05T14:53:26.94Z</time></trkpt><trkpt lat="45.762123" lon="7.4467914"><ele>1273.0</ele><time>2026-04-05T14:53:27.936Z</time></trkpt><trkpt lat="45.7620071" lon="7.4467465"><ele>1273.0</ele><time>2026-04-05T14:53:29.933Z</time></trkpt><trkpt lat="45.7619125" lon="7.4466491"><ele>1273.0</ele><time>2026-04-05T14:53:31.933Z</time></trkpt><trkpt lat="45.761814" lon="7.4465583"><ele>1273.0</ele><time>2026-04-05T14:53:33.934Z</time></trkpt><trkpt lat="45.7616884" lon="7.4465243"><ele>1273.0</ele><time>2026-04-05T14:53:35.939Z</time></trkpt><trkpt lat="45.7615614" lon="7.4464994"><ele>1273.8</ele><time>2026-04-05T14:53:37.939Z</time></trkpt><trkpt lat="45.7614914" lon="7.446471"><ele>1274.6</ele><time>2026-04-05T14:53:38.939Z</time></trkpt><trkpt lat="45.76142" lon="7.4464489"><ele>1275.4</ele><time>2026-04-05T14:53:39.941Z</time></trkpt><trkpt lat="45.7613531" lon="7.4464083"><ele>1276.2</ele><time>2026-04-05T14:53:40.932Z</time></trkpt><trkpt lat="45.7612531" lon="7.4462918"><ele>1277.0</ele><time>2026-04-05T14:53:42.938Z</time></trkpt><trkpt lat="45.7611794" lon="7.4461357"><ele>1277.0</ele><time>2026-04-05T14:53:44.934Z</time></trkpt><trkpt lat="45.7611031" lon="7.4459986"><ele>1277.0</ele><time>2026-04-05T14:53:46.939Z</time></trkpt><trkpt lat="45.7609874" lon="7.445922"><ele>1277.0</ele><time>2026-04-05T14:53:48.937Z</time></trkpt><trkpt lat="45.7609278" lon="7.4458915"><ele>1277.0</ele><time>2026-04-05T14:53:49.934Z</time></trkpt><trkpt lat="45.7608279" lon="7.4458005"><ele>1277.0</ele><time>2026-04-05T14:53:51.937Z</time></trkpt><trkpt lat="45.7607837" lon="7.4457339"><ele>1272.8</ele><time>2026-04-05T14:53:52.947Z</time></trkpt><trkpt lat="45.7606986" lon="7.4456254"><ele>1268.6</ele><time>2026-04-05T14:53:54.942Z</time></trkpt><trkpt lat="45.7606169" lon="7.4455931"><ele>1264.3999999999999</ele><time>2026-04-05T14:53:56.939Z</time></trkpt><trkpt lat="45.760576" lon="7.4456883"><ele>1260.2</ele><time>2026-04-05T14:53:58.939Z</time></trkpt><trkpt lat="45.7606399" lon="7.4458209"><ele>1256.0</ele><time>2026-04-05T14:54:00.936Z</time></trkpt><trkpt lat="45.7607226" lon="7.4459484"><ele>1255.9999999999998</ele><time>2026-04-05T14:54:02.939Z</time></trkpt><trkpt lat="45.7607702" lon="7.4460153"><ele>1256.0</ele><time>2026-04-05T14:54:03.94Z</time></trkpt><trkpt lat="45.7608127" lon="7.4460893"><ele>1256.0</ele><time>2026-04-05T14:54:04.936Z</time></trkpt><trkpt lat="45.7608534" lon="7.4461704"><ele>1256.0</ele><time>2026-04-05T14:54:05.932Z</time></trkpt><trkpt lat="45.7608861" lon="7.4462644"><ele>1256.0</ele><time>2026-04-05T14:54:06.933Z</time></trkpt><trkpt lat="45.7609128" lon="7.4463662"><ele>1255.9999999999998</ele><time>2026-04-05T14:54:07.945Z</time></trkpt><trkpt lat="45.7609392" lon="7.4464737"><ele>1256.0</ele><time>2026-04-05T14:54:08.937Z</time></trkpt><trkpt lat="45.7609656" lon="7.4465748"><ele>1256.6666666666667</ele><time>2026-04-05T14:54:09.943Z</time></trkpt><trkpt lat="45.7610115" lon="7.4466663"><ele>1257.3333333333335</ele><time>2026-04-05T14:54:10.937Z</time></trkpt><trkpt lat="45.7610783" lon="7.4467464"><ele>1258.0</ele><time>2026-04-05T14:54:11.938Z</time></trkpt><trkpt lat="45.7611484" lon="7.4468233"><ele>1258.6666666666667</ele><time>2026-04-05T14:54:12.941Z</time></trkpt><trkpt lat="45.761222" lon="7.4468963"><ele>1259.3333333333333</ele><time>2026-04-05T14:54:13.939Z</time></trkpt><trkpt lat="45.761303" lon="7.4469606"><ele>1260.0</ele><time>2026-04-05T14:54:14.943Z</time></trkpt><trkpt lat="45.7613866" lon="7.4470094"><ele>1260.0</ele><time>2026-04-05T14:54:15.942Z</time></trkpt><trkpt lat="45.7614583" lon="7.4470681"><ele>1260.0</ele><time>2026-04-05T14:54:16.937Z</time></trkpt><trkpt lat="45.7615215" lon="7.44714"><ele>1260.0</ele><time>2026-04-05T14:54:17.938Z</time></trkpt><trkpt lat="45.7615716" lon="7.4472264"><ele>1260.0</ele><time>2026-04-05T14:54:18.935Z</time></trkpt><trkpt lat="45.7616209" lon="7.4473278"><ele>1260.0</ele><time>2026-04-05T14:54:19.938Z</time></trkpt><trkpt lat="45.7616722" lon="7.4474109"><ele>1260.0</ele><time>2026-04-05T14:54:20.942Z</time></trkpt><trkpt lat="45.761721" lon="7.4474728"><ele>1256.6666666666667</ele><time>2026-04-05T14:54:21.942Z</time></trkpt><trkpt lat="45.7617908" lon="7.4475639"><ele>1253.3333333333333</ele><time>2026-04-05T14:54:23.935Z</time></trkpt><trkpt lat="45.7617044" lon="7.4476053"><ele>1250.0</ele><time>2026-04-05T14:54:26.94Z</time></trkpt><trkpt lat="45.7616029" lon="7.4475118"><ele>1246.6666666666665</ele><time>2026-04-05T14:54:28.944Z</time></trkpt><trkpt lat="45.7615546" lon="7.4474449"><ele>1243.3333333333333</ele><time>2026-04-05T14:54:29.935Z</time></trkpt><trkpt lat="45.7615027" lon="7.4473867"><ele>1240.0</ele><time>2026-04-05T14:54:30.938Z</time></trkpt><trkpt lat="45.7614398" lon="7.4473329"><ele>1240.0</ele><time>2026-04-05T14:54:31.939Z</time></trkpt><trkpt lat="45.7613694" lon="7.4472818"><ele>1240.0</ele><time>2026-04-05T14:54:32.938Z</time></trkpt><trkpt lat="45.7612975" lon="7.4472426"><ele>1240.0</ele><time>2026-04-05T14:54:33.937Z</time></trkpt><trkpt lat="45.7612154" lon="7.4472119"><ele>1240.0</ele><time>2026-04-05T14:54:34.933Z</time></trkpt><trkpt lat="45.761132" lon="7.4471798"><ele>1240.0</ele><time>2026-04-05T14:54:35.935Z</time></trkpt><trkpt lat="45.7610549" lon="7.4471468"><ele>1240.0</ele><time>2026-04-05T14:54:36.938Z</time></trkpt><trkpt lat="45.7609779" lon="7.4471157"><ele>1239.6666666666665</ele><time>2026-04-05T14:54:37.937Z</time></trkpt><trkpt lat="45.7609018" lon="7.4470841"><ele>1239.3333333333333</ele><time>2026-04-05T14:54:38.94Z</time></trkpt><trkpt lat="45.7608384" lon="7.4470342"><ele>1239.0</ele><time>2026-04-05T14:54:39.933Z</time></trkpt><trkpt lat="45.7607773" lon="7.4469622"><ele>1238.6666666666667</ele><time>2026-04-05T14:54:40.94Z</time></trkpt><trkpt lat="45.7607114" lon="7.4468936"><ele>1238.3333333333335</ele><time>2026-04-05T14:54:41.933Z</time></trkpt><trkpt lat="45.760658" lon="7.4468006"><ele>1238.0</ele><time>2026-04-05T14:54:42.935Z</time></trkpt><trkpt lat="45.7606203" lon="7.4466929"><ele>1238.0</ele><time>2026-04-05T14:54:43.935Z</time></trkpt><trkpt lat="45.7605855" lon="7.4465813"><ele>1238.0</ele><time>2026-04-05T14:54:44.945Z</time></trkpt><trkpt lat="45.7605322" lon="7.4464806"><ele>1238.0</ele><time>2026-04-05T14:54:45.931Z</time></trkpt><trkpt lat="45.760461" lon="7.4463893"><ele>1238.0</ele><time>2026-04-05T14:54:46.941Z</time></trkpt><trkpt lat="45.7603831" lon="7.4462883"><ele>1238.0</ele><time>2026-04-05T14:54:47.927Z</time></trkpt><trkpt lat="45.7603159" lon="7.4461876"><ele>1234.6</ele><time>2026-04-05T14:54:48.94Z</time></trkpt><trkpt lat="45.7602459" lon="7.4460825"><ele>1231.1999999999998</ele><time>2026-04-05T14:54:49.941Z</time></trkpt><trkpt lat="45.760177" lon="7.4459821"><ele>1227.8</ele><time>2026-04-05T14:54:50.941Z</time></trkpt><trkpt lat="45.760108" lon="7.4458794"><ele>1224.3999999999999</ele><time>2026-04-05T14:54:51.939Z</time></trkpt><trkpt lat="45.7600345" lon="7.4457842"><ele>1221.0</ele><time>2026-04-05T14:54:52.94Z</time></trkpt><trkpt lat="45.759954" lon="7.4457079"><ele>1221.0</ele><time>2026-04-05T14:54:53.937Z</time></trkpt><trkpt lat="45.7598811" lon="7.4456455"><ele>1221.0</ele><time>2026-04-05T14:54:54.936Z</time></trkpt><trkpt lat="45.7598228" lon="7.4455613"><ele>1221.0</ele><time>2026-04-05T14:54:55.939Z</time></trkpt><trkpt lat="45.7597782" lon="7.445462"><ele>1221.0</ele><time>2026-04-05T14:54:56.941Z</time></trkpt><trkpt lat="45.7597323" lon="7.4453396"><ele>1221.0</ele><time>2026-04-05T14:54:57.936Z</time></trkpt><trkpt lat="45.7596901" lon="7.4452218"><ele>1221.0</ele><time>2026-04-05T14:54:58.937Z</time></trkpt><trkpt lat="45.7596487" lon="7.4451097"><ele>1218.1666666666667</ele><time>2026-04-05T14:54:59.936Z</time></trkpt><trkpt lat="45.7596101" lon="7.4450164"><ele>1215.3333333333333</ele><time>2026-04-05T14:55:00.935Z</time></trkpt><trkpt lat="45.7595563" lon="7.4449411"><ele>1212.5</ele><time>2026-04-05T14:55:01.937Z</time></trkpt><trkpt lat="45.7594866" lon="7.4448932"><ele>1209.6666666666665</ele><time>2026-04-05T14:55:02.934Z</time></trkpt><trkpt lat="45.7594091" lon="7.4448782"><ele>1206.8333333333333</ele><time>2026-04-05T14:55:03.941Z</time></trkpt><trkpt lat="45.7593275" lon="7.4448763"><ele>1204.0</ele><time>2026-04-05T14:55:04.932Z</time></trkpt><trkpt lat="45.759244" lon="7.4448582"><ele>1204.0</ele><time>2026-04-05T14:55:05.942Z</time></trkpt><trkpt lat="45.7591645" lon="7.4448282"><ele>1204.0</ele><time>2026-04-05T14:55:06.935Z</time></trkpt><trkpt lat="45.7590961" lon="7.4447745"><ele>1204.0</ele><time>2026-04-05T14:55:07.933Z</time></trkpt><trkpt lat="45.7590328" lon="7.4446997"><ele>1204.0</ele><time>2026-04-05T14:55:08.934Z</time></trkpt><trkpt lat="45.7589797" lon="7.4446002"><ele>1204.0</ele><time>2026-04-05T14:55:09.945Z</time></trkpt><trkpt lat="45.7589347" lon="7.4444931"><ele>1204.0</ele><time>2026-04-05T14:55:10.941Z</time></trkpt><trkpt lat="45.7588941" lon="7.4443896"><ele>1205.6000000000001</ele><time>2026-04-05T14:55:11.931Z</time></trkpt><trkpt lat="45.7588581" lon="7.4442899"><ele>1207.2</ele><time>2026-04-05T14:55:12.934Z</time></trkpt><trkpt lat="45.7588187" lon="7.4442156"><ele>1208.8000000000002</ele><time>2026-04-05T14:55:13.94Z</time></trkpt><trkpt lat="45.7587008" lon="7.444147"><ele>1210.4</ele><time>2026-04-05T14:55:15.934Z</time></trkpt><trkpt lat="45.7585839" lon="7.444197"><ele>1212.0</ele><time>2026-04-05T14:55:17.935Z</time></trkpt><trkpt lat="45.7584839" lon="7.4443053"><ele>1212.0</ele><time>2026-04-05T14:55:19.938Z</time></trkpt><trkpt lat="45.7583754" lon="7.4443769"><ele>1212.0</ele><time>2026-04-05T14:55:21.933Z</time></trkpt><trkpt lat="45.7583117" lon="7.44437"><ele>1212.0</ele><time>2026-04-05T14:55:22.94Z</time></trkpt><trkpt lat="45.7581915" lon="7.444355"><ele>1212.0</ele><time>2026-04-05T14:55:24.94Z</time></trkpt><trkpt lat="45.7581273" lon="7.4443501"><ele>1212.0</ele><time>2026-04-05T14:55:25.935Z</time></trkpt><trkpt lat="45.758007" lon="7.4443235"><ele>1212.0</ele><time>2026-04-05T14:55:27.934Z</time></trkpt><trkpt lat="45.7579385" lon="7.4443028"><ele>1212.0</ele><time>2026-04-05T14:55:28.935Z</time></trkpt><trkpt lat="45.7578719" lon="7.4442667"><ele>1212.0</ele><time>2026-04-05T14:55:29.933Z</time></trkpt><trkpt lat="45.7578016" lon="7.444229"><ele>1212.0</ele><time>2026-04-05T14:55:30.94Z</time></trkpt><trkpt lat="45.7577294" lon="7.4441947"><ele>1212.0</ele><time>2026-04-05T14:55:31.937Z</time></trkpt><trkpt lat="45.7576582" lon="7.444158"><ele>1212.0</ele><time>2026-04-05T14:55:32.934Z</time></trkpt><trkpt lat="45.7575898" lon="7.4441253"><ele>1212.0</ele><time>2026-04-05T14:55:33.934Z</time></trkpt><trkpt lat="45.7575233" lon="7.4441042"><ele>1209.1666666666667</ele><time>2026-04-05T14:55:34.939Z</time></trkpt><trkpt lat="45.7574596" lon="7.444072"><ele>1206.3333333333333</ele><time>2026-04-05T14:55:35.937Z</time></trkpt><trkpt lat="45.7573451" lon="7.4439915"><ele>1203.5</ele><time>2026-04-05T14:55:37.933Z</time></trkpt><trkpt lat="45.7572967" lon="7.4439302"><ele>1200.6666666666665</ele><time>2026-04-05T14:55:38.949Z</time></trkpt><trkpt lat="45.7572534" lon="7.4438611"><ele>1197.8333333333333</ele><time>2026-04-05T14:55:39.941Z</time></trkpt><trkpt lat="45.7571865" lon="7.4437991"><ele>1195.0</ele><time>2026-04-05T14:55:41.935Z</time></trkpt><trkpt lat="45.7571161" lon="7.4438415"><ele>1195.0</ele><time>2026-04-05T14:55:44.937Z</time></trkpt><trkpt lat="45.7571382" lon="7.4439559"><ele>1195.0</ele><time>2026-04-05T14:55:47.941Z</time></trkpt><trkpt lat="45.7571921" lon="7.4440562"><ele>1195.0</ele><time>2026-04-05T14:55:49.936Z</time></trkpt><trkpt lat="45.7572758" lon="7.4441841"><ele>1195.0</ele><time>2026-04-05T14:55:51.939Z</time></trkpt><trkpt lat="45.7573311" lon="7.4442503"><ele>1195.0</ele><time>2026-04-05T14:55:52.945Z</time></trkpt><trkpt lat="45.7573933" lon="7.4443211"><ele>1195.0</ele><time>2026-04-05T14:55:53.938Z</time></trkpt><trkpt lat="45.7574602" lon="7.4443951"><ele>1195.0</ele><time>2026-04-05T14:55:54.942Z</time></trkpt><trkpt lat="45.7575348" lon="7.444477"><ele>1195.0</ele><time>2026-04-05T14:55:55.938Z</time></trkpt><trkpt lat="45.7576204" lon="7.4445476"><ele>1195.0</ele><time>2026-04-05T14:55:56.937Z</time></trkpt><trkpt lat="45.7577043" lon="7.4446053"><ele>1195.0</ele><time>2026-04-05T14:55:57.937Z</time></trkpt><trkpt lat="45.7577991" lon="7.4446565"><ele>1195.0</ele><time>2026-04-05T14:55:58.936Z</time></trkpt><trkpt lat="45.7578975" lon="7.4447002"><ele>1191.8</ele><time>2026-04-05T14:55:59.937Z</time></trkpt><trkpt lat="45.7580062" lon="7.4447388"><ele>1188.6</ele><time>2026-04-05T14:56:00.939Z</time></trkpt><trkpt lat="45.7581085" lon="7.4447885"><ele>1185.4</ele><time>2026-04-05T14:56:01.944Z</time></trkpt><trkpt lat="45.758204" lon="7.4448367"><ele>1182.2</ele><time>2026-04-05T14:56:02.938Z</time></trkpt><trkpt lat="45.7582907" lon="7.4448882"><ele>1179.0</ele><time>2026-04-05T14:56:03.939Z</time></trkpt><trkpt lat="45.758371" lon="7.4449403"><ele>1179.0</ele><time>2026-04-05T14:56:04.939Z</time></trkpt><trkpt lat="45.7584491" lon="7.4449898"><ele>1179.0</ele><time>2026-04-05T14:56:05.938Z</time></trkpt><trkpt lat="45.7585144" lon="7.4450803"><ele>1179.0</ele><time>2026-04-05T14:56:06.942Z</time></trkpt><trkpt lat="45.758549" lon="7.4452112"><ele>1179.0</ele><time>2026-04-05T14:56:07.934Z</time></trkpt><trkpt lat="45.7585782" lon="7.4453523"><ele>1179.0</ele><time>2026-04-05T14:56:08.935Z</time></trkpt><trkpt lat="45.758621" lon="7.4454923"><ele>1179.5</ele><time>2026-04-05T14:56:09.942Z</time></trkpt><trkpt lat="45.7586822" lon="7.445622"><ele>1180.0</ele><time>2026-04-05T14:56:10.935Z</time></trkpt><trkpt lat="45.7587536" lon="7.4457453"><ele>1180.5</ele><time>2026-04-05T14:56:11.935Z</time></trkpt><trkpt lat="45.7588313" lon="7.4458789"><ele>1181.0</ele><time>2026-04-05T14:56:12.94Z</time></trkpt><trkpt lat="45.7589081" lon="7.4460086"><ele>1181.0</ele><time>2026-04-05T14:56:13.935Z</time></trkpt><trkpt lat="45.758983" lon="7.4461378"><ele>1181.0</ele><time>2026-04-05T14:56:14.935Z</time></trkpt><trkpt lat="45.7590465" lon="7.4462539"><ele>1181.0</ele><time>2026-04-05T14:56:15.937Z</time></trkpt><trkpt lat="45.7590971" lon="7.4463588"><ele>1181.0</ele><time>2026-04-05T14:56:16.939Z</time></trkpt><trkpt lat="45.7591345" lon="7.4464601"><ele>1181.0</ele><time>2026-04-05T14:56:17.935Z</time></trkpt><trkpt lat="45.7591604" lon="7.4465638"><ele>1178.0</ele><time>2026-04-05T14:56:18.936Z</time></trkpt><trkpt lat="45.7591779" lon="7.4466562"><ele>1175.0</ele><time>2026-04-05T14:56:19.931Z</time></trkpt><trkpt lat="45.759189" lon="7.4467471"><ele>1172.0</ele><time>2026-04-05T14:56:20.934Z</time></trkpt><trkpt lat="45.7592002" lon="7.4468436"><ele>1169.0</ele><time>2026-04-05T14:56:21.933Z</time></trkpt><trkpt lat="45.7592216" lon="7.4469978"><ele>1166.0</ele><time>2026-04-05T14:56:23.938Z</time></trkpt><trkpt lat="45.7592574" lon="7.4470968"><ele>1163.0</ele><time>2026-04-05T14:56:25.947Z</time></trkpt><trkpt lat="45.759186" lon="7.4470948"><ele>1163.0</ele><time>2026-04-05T14:56:30.936Z</time></trkpt><trkpt lat="45.7591372" lon="7.4469877"><ele>1163.0</ele><time>2026-04-05T14:56:32.94Z</time></trkpt><trkpt lat="45.7590771" lon="7.4468683"><ele>1163.0</ele><time>2026-04-05T14:56:34.937Z</time></trkpt><trkpt lat="45.7590287" lon="7.4467725"><ele>1163.0</ele><time>2026-04-05T14:56:36.932Z</time></trkpt><trkpt lat="45.7589693" lon="7.4466774"><ele>1163.0</ele><time>2026-04-05T14:56:38.941Z</time></trkpt><trkpt lat="45.7589111" lon="7.4466041"><ele>1163.0</ele><time>2026-04-05T14:56:40.939Z</time></trkpt><trkpt lat="45.7588558" lon="7.4465176"><ele>1163.0</ele><time>2026-04-05T14:56:42.94Z</time></trkpt><trkpt lat="45.758788" lon="7.4464404"><ele>1163.0</ele><time>2026-04-05T14:56:44.933Z</time></trkpt><trkpt lat="45.7587037" lon="7.4463707"><ele>1163.0</ele><time>2026-04-05T14:56:46.947Z</time></trkpt><trkpt lat="45.7586041" lon="7.4463424"><ele>1163.0</ele><time>2026-04-05T14:56:48.936Z</time></trkpt><trkpt lat="45.7584987" lon="7.4463532"><ele>1163.0</ele><time>2026-04-05T14:56:50.936Z</time></trkpt><trkpt lat="45.7584003" lon="7.4463456"><ele>1162.0</ele><time>2026-04-05T14:56:52.937Z</time></trkpt><trkpt lat="45.7583065" lon="7.4462875"><ele>1161.0</ele><time>2026-04-05T14:56:54.937Z</time></trkpt><trkpt lat="45.7582266" lon="7.4462121"><ele>1160.0</ele><time>2026-04-05T14:56:56.942Z</time></trkpt><trkpt lat="45.7581515" lon="7.4461343"><ele>1159.0</ele><time>2026-04-05T14:56:58.942Z</time></trkpt><trkpt lat="45.7580879" lon="7.4460722"><ele>1158.0</ele><time>2026-04-05T14:57:00.943Z</time></trkpt><trkpt lat="45.7580251" lon="7.4459985"><ele>1157.0</ele><time>2026-04-05T14:57:02.938Z</time></trkpt><trkpt lat="45.7579728" lon="7.4459186"><ele>1157.0</ele><time>2026-04-05T14:57:04.942Z</time></trkpt><trkpt lat="45.7579187" lon="7.4458341"><ele>1157.0</ele><time>2026-04-05T14:57:06.936Z</time></trkpt><trkpt lat="45.7578572" lon="7.4457644"><ele>1157.0</ele><time>2026-04-05T14:57:08.943Z</time></trkpt><trkpt lat="45.7577825" lon="7.445691"><ele>1157.0</ele><time>2026-04-05T14:57:10.947Z</time></trkpt><trkpt lat="45.7577058" lon="7.4456109"><ele>1157.0</ele><time>2026-04-05T14:57:12.935Z</time></trkpt><trkpt lat="45.7576163" lon="7.4455414"><ele>1157.0</ele><time>2026-04-05T14:57:14.938Z</time></trkpt><trkpt lat="45.7575291" lon="7.4454861"><ele>1158.4</ele><time>2026-04-05T14:57:16.945Z</time></trkpt><trkpt lat="45.7574331" lon="7.4454721"><ele>1159.8000000000002</ele><time>2026-04-05T14:57:18.943Z</time></trkpt><trkpt lat="45.7573259" lon="7.4454524"><ele>1161.2</ele><time>2026-04-05T14:57:20.934Z</time></trkpt><trkpt lat="45.7572234" lon="7.4454343"><ele>1162.6000000000001</ele><time>2026-04-05T14:57:22.944Z</time></trkpt><trkpt lat="45.757147" lon="7.4454179"><ele>1164.0</ele><time>2026-04-05T14:57:24.934Z</time></trkpt><trkpt lat="45.7570756" lon="7.4453732"><ele>1164.0</ele><time>2026-04-05T14:57:26.938Z</time></trkpt><trkpt lat="45.7570068" lon="7.4453195"><ele>1164.0</ele><time>2026-04-05T14:57:28.935Z</time></trkpt><trkpt lat="45.7569238" lon="7.4452889"><ele>1164.0</ele><time>2026-04-05T14:57:30.935Z</time></trkpt><trkpt lat="45.7568357" lon="7.4452526"><ele>1164.0</ele><time>2026-04-05T14:57:32.936Z</time></trkpt><trkpt lat="45.756739" lon="7.4452122"><ele>1164.0</ele><time>2026-04-05T14:57:34.943Z</time></trkpt><trkpt lat="45.756631" lon="7.4451856"><ele>1160.6000000000001</ele><time>2026-04-05T14:57:36.937Z</time></trkpt><trkpt lat="45.7565112" lon="7.4451746"><ele>1157.2</ele><time>2026-04-05T14:57:38.937Z</time></trkpt><trkpt lat="45.7564481" lon="7.4451823"><ele>1153.8000000000002</ele><time>2026-04-05T14:57:39.938Z</time></trkpt><trkpt lat="45.7563279" lon="7.4452489"><ele>1150.4</ele><time>2026-04-05T14:57:41.936Z</time></trkpt><trkpt lat="45.7562635" lon="7.4452939"><ele>1147.0</ele><time>2026-04-05T14:57:42.937Z</time></trkpt><trkpt lat="45.7561944" lon="7.4453323"><ele>1147.0</ele><time>2026-04-05T14:57:43.931Z</time></trkpt><trkpt lat="45.7561307" lon="7.4453801"><ele>1147.0</ele><time>2026-04-05T14:57:44.934Z</time></trkpt><trkpt lat="45.7560346" lon="7.4454428"><ele>1147.0</ele><time>2026-04-05T14:57:46.939Z</time></trkpt><trkpt lat="45.7559399" lon="7.4455112"><ele>1147.0</ele><time>2026-04-05T14:57:48.939Z</time></trkpt><trkpt lat="45.7558381" lon="7.4455676"><ele>1147.0</ele><time>2026-04-05T14:57:50.933Z</time></trkpt><trkpt lat="45.7557343" lon="7.445646"><ele>1143.8333333333333</ele><time>2026-04-05T14:57:52.938Z</time></trkpt><trkpt lat="45.7556682" lon="7.4457515"><ele>1140.6666666666665</ele><time>2026-04-05T14:57:54.94Z</time></trkpt><trkpt lat="45.7556168" lon="7.4458326"><ele>1137.5</ele><time>2026-04-05T14:57:56.947Z</time></trkpt><trkpt lat="45.7555415" lon="7.4458825"><ele>1134.3333333333333</ele><time>2026-04-05T14:57:58.942Z</time></trkpt><trkpt lat="45.7554536" lon="7.4459298"><ele>1131.1666666666667</ele><time>2026-04-05T14:58:00.944Z</time></trkpt><trkpt lat="45.7553798" lon="7.4459602"><ele>1128.0</ele><time>2026-04-05T14:58:02.939Z</time></trkpt><trkpt lat="45.7553038" lon="7.4459697"><ele>1128.0</ele><time>2026-04-05T14:58:04.941Z</time></trkpt><trkpt lat="45.7552159" lon="7.4459872"><ele>1128.0</ele><time>2026-04-05T14:58:06.932Z</time></trkpt><trkpt lat="45.7551414" lon="7.4459978"><ele>1128.0</ele><time>2026-04-05T14:58:08.942Z</time></trkpt><trkpt lat="45.7550554" lon="7.4459987"><ele>1128.0</ele><time>2026-04-05T14:58:10.94Z</time></trkpt><trkpt lat="45.7549752" lon="7.4459691"><ele>1128.0</ele><time>2026-04-05T14:58:12.934Z</time></trkpt><trkpt lat="45.7548918" lon="7.4459085"><ele>1128.0</ele><time>2026-04-05T14:58:14.943Z</time></trkpt><trkpt lat="45.7547979" lon="7.4458827"><ele>1125.1666666666667</ele><time>2026-04-05T14:58:16.938Z</time></trkpt><trkpt lat="45.7547157" lon="7.4458675"><ele>1122.3333333333333</ele><time>2026-04-05T14:58:18.94Z</time></trkpt><trkpt lat="45.754628" lon="7.4458266"><ele>1119.5</ele><time>2026-04-05T14:58:20.944Z</time></trkpt><trkpt lat="45.7545501" lon="7.4457687"><ele>1116.6666666666665</ele><time>2026-04-05T14:58:22.933Z</time></trkpt><trkpt lat="45.7544683" lon="7.4457163"><ele>1113.8333333333333</ele><time>2026-04-05T14:58:24.945Z</time></trkpt><trkpt lat="45.7543888" lon="7.4456722"><ele>1111.0</ele><time>2026-04-05T14:58:26.943Z</time></trkpt><trkpt lat="45.7543064" lon="7.4456362"><ele>1108.0</ele><time>2026-04-05T14:58:28.943Z</time></trkpt><trkpt lat="45.7541952" lon="7.4456002"><ele>1105.0</ele><time>2026-04-05T14:58:30.936Z</time></trkpt><trkpt lat="45.7541324" lon="7.4455815"><ele>1102.0</ele><time>2026-04-05T14:58:31.936Z</time></trkpt><trkpt lat="45.7540682" lon="7.4455637"><ele>1099.0</ele><time>2026-04-05T14:58:32.935Z</time></trkpt><trkpt lat="45.7540047" lon="7.4455543"><ele>1096.0</ele><time>2026-04-05T14:58:33.943Z</time></trkpt><trkpt lat="45.7539397" lon="7.445557"><ele>1093.0</ele><time>2026-04-05T14:58:34.94Z</time></trkpt><trkpt lat="45.7538238" lon="7.4456069"><ele>1093.0</ele><time>2026-04-05T14:58:36.933Z</time></trkpt><trkpt lat="45.7537346" lon="7.4456754"><ele>1093.0</ele><time>2026-04-05T14:58:38.937Z</time></trkpt><trkpt lat="45.7536204" lon="7.445741"><ele>1093.0</ele><time>2026-04-05T14:58:40.932Z</time></trkpt><trkpt lat="45.7535526" lon="7.4457671"><ele>1093.0</ele><time>2026-04-05T14:58:41.939Z</time></trkpt><trkpt lat="45.7534877" lon="7.4457959"><ele>1093.0</ele><time>2026-04-05T14:58:42.94Z</time></trkpt><trkpt lat="45.7534207" lon="7.4458221"><ele>1093.0</ele><time>2026-04-05T14:58:43.937Z</time></trkpt><trkpt lat="45.7533472" lon="7.4458509"><ele>1091.0</ele><time>2026-04-05T14:58:44.935Z</time></trkpt><trkpt lat="45.7532666" lon="7.4458561"><ele>1089.0</ele><time>2026-04-05T14:58:45.939Z</time></trkpt><trkpt lat="45.7531874" lon="7.4458318"><ele>1087.0</ele><time>2026-04-05T14:58:46.933Z</time></trkpt><trkpt lat="45.7531086" lon="7.4457971"><ele>1085.0</ele><time>2026-04-05T14:58:47.937Z</time></trkpt><trkpt lat="45.7530259" lon="7.4457691"><ele>1083.0</ele><time>2026-04-05T14:58:48.935Z</time></trkpt><trkpt lat="45.7529357" lon="7.4457596"><ele>1081.0</ele><time>2026-04-05T14:58:49.935Z</time></trkpt><trkpt lat="45.7528551" lon="7.4457714"><ele>1081.0</ele><time>2026-04-05T14:58:50.945Z</time></trkpt><trkpt lat="45.7527703" lon="7.4458043"><ele>1081.0</ele><time>2026-04-05T14:58:51.938Z</time></trkpt><trkpt lat="45.7526771" lon="7.445848"><ele>1081.0</ele><time>2026-04-05T14:58:52.934Z</time></trkpt><trkpt lat="45.7525914" lon="7.4459106"><ele>1081.0</ele><time>2026-04-05T14:58:53.938Z</time></trkpt><trkpt lat="45.752506" lon="7.4459693"><ele>1081.0</ele><time>2026-04-05T14:58:54.934Z</time></trkpt><trkpt lat="45.7524236" lon="7.4460341"><ele>1080.8</ele><time>2026-04-05T14:58:55.938Z</time></trkpt><trkpt lat="45.7523391" lon="7.4461019"><ele>1080.6</ele><time>2026-04-05T14:58:56.947Z</time></trkpt><trkpt lat="45.7522546" lon="7.4461436"><ele>1080.4</ele><time>2026-04-05T14:58:57.937Z</time></trkpt><trkpt lat="45.7521701" lon="7.4461562"><ele>1080.2</ele><time>2026-04-05T14:58:58.942Z</time></trkpt><trkpt lat="45.7520802" lon="7.446131"><ele>1080.0</ele><time>2026-04-05T14:58:59.94Z</time></trkpt><trkpt lat="45.751992" lon="7.4460794"><ele>1080.0</ele><time>2026-04-05T14:59:00.936Z</time></trkpt><trkpt lat="45.7519128" lon="7.4460069"><ele>1080.0</ele><time>2026-04-05T14:59:01.936Z</time></trkpt><trkpt lat="45.7518327" lon="7.4459311"><ele>1080.0</ele><time>2026-04-05T14:59:02.951Z</time></trkpt><trkpt lat="45.7517461" lon="7.4458722"><ele>1080.0</ele><time>2026-04-05T14:59:03.943Z</time></trkpt><trkpt lat="45.7516555" lon="7.4458225"><ele>1080.0</ele><time>2026-04-05T14:59:04.937Z</time></trkpt><trkpt lat="45.7515651" lon="7.4457784"><ele>1078.2</ele><time>2026-04-05T14:59:05.939Z</time></trkpt><trkpt lat="45.7514698" lon="7.4457407"><ele>1076.4</ele><time>2026-04-05T14:59:06.94Z</time></trkpt><trkpt lat="45.7513695" lon="7.4457163"><ele>1074.6</ele><time>2026-04-05T14:59:07.95Z</time></trkpt><trkpt lat="45.7512712" lon="7.4457055"><ele>1072.8</ele><time>2026-04-05T14:59:08.94Z</time></trkpt><trkpt lat="45.7511717" lon="7.4457035"><ele>1071.0</ele><time>2026-04-05T14:59:09.939Z</time></trkpt><trkpt lat="45.7510754" lon="7.4457012"><ele>1068.6</ele><time>2026-04-05T14:59:10.938Z</time></trkpt><trkpt lat="45.7509762" lon="7.4456982"><ele>1066.1999999999998</ele><time>2026-04-05T14:59:11.937Z</time></trkpt><trkpt lat="45.7508794" lon="7.4456933"><ele>1063.8000000000002</ele><time>2026-04-05T14:59:12.941Z</time></trkpt><trkpt lat="45.750782" lon="7.4456919"><ele>1061.4</ele><time>2026-04-05T14:59:13.934Z</time></trkpt><trkpt lat="45.7506886" lon="7.4457067"><ele>1059.0</ele><time>2026-04-05T14:59:14.941Z</time></trkpt><trkpt lat="45.7506051" lon="7.4457711"><ele>1059.0</ele><time>2026-04-05T14:59:15.94Z</time></trkpt><trkpt lat="45.7505296" lon="7.4458763"><ele>1059.0</ele><time>2026-04-05T14:59:16.943Z</time></trkpt><trkpt lat="45.7504737" lon="7.446003"><ele>1059.0</ele><time>2026-04-05T14:59:17.939Z</time></trkpt><trkpt lat="45.7504378" lon="7.4461451"><ele>1059.0</ele><time>2026-04-05T14:59:18.936Z</time></trkpt><trkpt lat="45.7504092" lon="7.4462877"><ele>1059.0</ele><time>2026-04-05T14:59:19.945Z</time></trkpt><trkpt lat="45.7503814" lon="7.4464261"><ele>1057.0</ele><time>2026-04-05T14:59:20.939Z</time></trkpt><trkpt lat="45.7503591" lon="7.4465622"><ele>1055.0</ele><time>2026-04-05T14:59:21.941Z</time></trkpt><trkpt lat="45.7503299" lon="7.4466931"><ele>1053.0</ele><time>2026-04-05T14:59:22.935Z</time></trkpt><trkpt lat="45.7502947" lon="7.4468295"><ele>1051.0</ele><time>2026-04-05T14:59:23.935Z</time></trkpt><trkpt lat="45.7502543" lon="7.4469563"><ele>1049.0</ele><time>2026-04-05T14:59:24.941Z</time></trkpt><trkpt lat="45.7501951" lon="7.4470395"><ele>1048.3333333333335</ele><time>2026-04-05T14:59:25.941Z</time></trkpt><trkpt lat="45.7501049" lon="7.4470679"><ele>1047.6666666666667</ele><time>2026-04-05T14:59:26.938Z</time></trkpt><trkpt lat="45.7500191" lon="7.4470449"><ele>1047.0</ele><time>2026-04-05T14:59:27.938Z</time></trkpt><trkpt lat="45.7499806" lon="7.4469517"><ele>1046.3333333333333</ele><time>2026-04-05T14:59:28.937Z</time></trkpt><trkpt lat="45.7499534" lon="7.4468326"><ele>1045.6666666666665</ele><time>2026-04-05T14:59:29.939Z</time></trkpt><trkpt lat="45.7499498" lon="7.4467046"><ele>1045.0</ele><time>2026-04-05T14:59:30.944Z</time></trkpt><trkpt lat="45.7499623" lon="7.4465762"><ele>1045.0</ele><time>2026-04-05T14:59:31.945Z</time></trkpt><trkpt lat="45.7499715" lon="7.446441"><ele>1045.0</ele><time>2026-04-05T14:59:32.937Z</time></trkpt><trkpt lat="45.7499759" lon="7.4463057"><ele>1045.0</ele><time>2026-04-05T14:59:33.939Z</time></trkpt><trkpt lat="45.7499561" lon="7.4461625"><ele>1045.0</ele><time>2026-04-05T14:59:34.949Z</time></trkpt><trkpt lat="45.7499113" lon="7.4460354"><ele>1045.0</ele><time>2026-04-05T14:59:35.933Z</time></trkpt><trkpt lat="45.7498415" lon="7.4459053"><ele>1045.5</ele><time>2026-04-05T14:59:36.939Z</time></trkpt><trkpt lat="45.749763" lon="7.44581"><ele>1046.0</ele><time>2026-04-05T14:59:37.935Z</time></trkpt><trkpt lat="45.7496845" lon="7.4457297"><ele>1046.5</ele><time>2026-04-05T14:59:38.937Z</time></trkpt><trkpt lat="45.7496227" lon="7.4456559"><ele>1047.0</ele><time>2026-04-05T14:59:39.935Z</time></trkpt><trkpt lat="45.7495745" lon="7.4455795"><ele>1047.5</ele><time>2026-04-05T14:59:40.939Z</time></trkpt><trkpt lat="45.7495381" lon="7.4454986"><ele>1048.0</ele><time>2026-04-05T14:59:41.935Z</time></trkpt><trkpt lat="45.7494988" lon="7.4453852"><ele>1048.0</ele><time>2026-04-05T14:59:43.94Z</time></trkpt><trkpt lat="45.749441" lon="7.4454369"><ele>1048.0</ele><time>2026-04-05T14:59:47.935Z</time></trkpt><trkpt lat="45.7494254" lon="7.4455416"><ele>1048.0</ele><time>2026-04-05T14:59:49.939Z</time></trkpt><trkpt lat="45.7494041" lon="7.445686"><ele>1048.0</ele><time>2026-04-05T14:59:51.937Z</time></trkpt><trkpt lat="45.7493922" lon="7.4457849"><ele>1048.0</ele><time>2026-04-05T14:59:53.94Z</time></trkpt><trkpt lat="45.7493755" lon="7.4459065"><ele>1048.0</ele><time>2026-04-05T15:00:01.94Z</time></trkpt><trkpt lat="45.7493599" lon="7.4460493"><ele>1043.8333333333333</ele><time>2026-04-05T15:00:03.944Z</time></trkpt><trkpt lat="45.749328" lon="7.4462268"><ele>1039.6666666666665</ele><time>2026-04-05T15:00:05.94Z</time></trkpt><trkpt lat="45.7493111" lon="7.4463228"><ele>1035.5</ele><time>2026-04-05T15:00:06.942Z</time></trkpt><trkpt lat="45.7492929" lon="7.4464245"><ele>1031.3333333333333</ele><time>2026-04-05T15:00:07.934Z</time></trkpt><trkpt lat="45.7492755" lon="7.4465415"><ele>1027.1666666666667</ele><time>2026-04-05T15:00:08.934Z</time></trkpt><trkpt lat="45.7492496" lon="7.4466652"><ele>1023.0</ele><time>2026-04-05T15:00:09.934Z</time></trkpt><trkpt lat="45.7492264" lon="7.44679"><ele>1022.0</ele><time>2026-04-05T15:00:10.937Z</time></trkpt><trkpt lat="45.7492061" lon="7.446908"><ele>1021.0</ele><time>2026-04-05T15:00:11.932Z</time></trkpt><trkpt lat="45.7491899" lon="7.4470245"><ele>1020.0</ele><time>2026-04-05T15:00:12.936Z</time></trkpt><trkpt lat="45.7491789" lon="7.4471342"><ele>1019.0</ele><time>2026-04-05T15:00:13.943Z</time></trkpt><trkpt lat="45.7491735" lon="7.4472436"><ele>1018.0</ele><time>2026-04-05T15:00:14.934Z</time></trkpt><trkpt lat="45.7491739" lon="7.447337"><ele>1017.0</ele><time>2026-04-05T15:00:15.938Z</time></trkpt><trkpt lat="45.7491874" lon="7.4474881"><ele>1017.0</ele><time>2026-04-05T15:00:17.935Z</time></trkpt><trkpt lat="45.7491384" lon="7.4475542"><ele>1017.0</ele><time>2026-04-05T15:00:20.941Z</time></trkpt><trkpt lat="45.7490793" lon="7.4475139"><ele>1017.0</ele><time>2026-04-05T15:00:22.933Z</time></trkpt><trkpt lat="45.7490445" lon="7.447409"><ele>1017.0</ele><time>2026-04-05T15:00:24.941Z</time></trkpt><trkpt lat="45.7490265" lon="7.4472807"><ele>1017.0</ele><time>2026-04-05T15:00:26.939Z</time></trkpt><trkpt lat="45.7490179" lon="7.4471609"><ele>1017.0</ele><time>2026-04-05T15:00:28.936Z</time></trkpt><trkpt lat="45.7490064" lon="7.4470474"><ele>1017.0</ele><time>2026-04-05T15:00:30.942Z</time></trkpt><trkpt lat="45.7489992" lon="7.4469517"><ele>1016.9999999999999</ele><time>2026-04-05T15:00:32.938Z</time></trkpt><trkpt lat="45.7489851" lon="7.4468631"><ele>1017.0</ele><time>2026-04-05T15:00:34.945Z</time></trkpt><trkpt lat="45.7489502" lon="7.4467462"><ele>1017.0</ele><time>2026-04-05T15:00:37.942Z</time></trkpt><trkpt lat="45.7489155" lon="7.4466487"><ele>1016.9999999999999</ele><time>2026-04-05T15:00:41.933Z</time></trkpt><trkpt lat="45.7489022" lon="7.4465458"><ele>1017.0</ele><time>2026-04-05T15:00:45.94Z</time></trkpt><trkpt lat="45.7489095" lon="7.4464353"><ele>1017.0</ele><time>2026-04-05T15:00:49.935Z</time></trkpt><trkpt lat="45.7489214" lon="7.4463441"><ele>1018.0</ele><time>2026-04-05T15:00:53.934Z</time></trkpt><trkpt lat="45.7489538" lon="7.4462488"><ele>1019.0</ele><time>2026-04-05T15:00:57.94Z</time></trkpt><trkpt lat="45.7489838" lon="7.4461594"><ele>1020.0</ele><time>2026-04-05T15:01:01.94Z</time></trkpt><trkpt lat="45.748987" lon="7.4460624"><ele>1021.0</ele><time>2026-04-05T15:01:04.937Z</time></trkpt><trkpt lat="45.7489826" lon="7.445946"><ele>1022.0</ele><time>2026-04-05T15:01:08.947Z</time></trkpt><trkpt lat="45.7489708" lon="7.4458221"><ele>1023.0</ele><time>2026-04-05T15:01:12.932Z</time></trkpt><trkpt lat="45.7489683" lon="7.4457187"><ele>1023.0</ele><time>2026-04-05T15:01:15.948Z</time></trkpt><trkpt lat="45.7489579" lon="7.4456257"><ele>1023.0</ele><time>2026-04-05T15:01:18.939Z</time></trkpt><trkpt lat="45.748951" lon="7.4455299"><ele>1023.0</ele><time>2026-04-05T15:02:55.934Z</time></trkpt><trkpt lat="45.7489482" lon="7.4454376"><ele>1023.0</ele><time>2026-04-05T15:02:59.938Z</time></trkpt><trkpt lat="45.7489436" lon="7.4455374"><ele>1023.0</ele><time>2026-04-05T15:03:10.933Z</time></trkpt><trkpt lat="45.7489563" lon="7.4456288"><ele>1023.0</ele><time>2026-04-05T15:03:14.935Z</time></trkpt><trkpt lat="45.748959" lon="7.4457346"><ele>1023.0</ele><time>2026-04-05T15:03:18.938Z</time></trkpt><trkpt lat="45.7489694" lon="7.4458262"><ele>1023.0</ele><time>2026-04-05T15:03:22.94Z</time></trkpt><trkpt lat="45.7489725" lon="7.4459302"><ele>1023.0</ele><time>2026-04-05T15:03:27.936Z</time></trkpt><trkpt lat="45.7489436" lon="7.4460195"><ele>1023.0</ele><time>2026-04-05T15:03:31.939Z</time></trkpt><trkpt lat="45.7489437" lon="7.4461362"><ele>1023.0</ele><time>2026-04-05T15:03:35.942Z</time></trkpt><trkpt lat="45.7489652" lon="7.4462303"><ele>1023.0</ele><time>2026-04-05T15:03:39.936Z</time></trkpt><trkpt lat="45.7489324" lon="7.4463432"><ele>1023.0</ele><time>2026-04-05T15:03:43.942Z</time></trkpt><trkpt lat="45.7489004" lon="7.4464431"><ele>1022.0</ele><time>2026-04-05T15:03:46.939Z</time></trkpt><trkpt lat="45.7488894" lon="7.4465613"><ele>1021.0</ele><time>2026-04-05T15:03:50.94Z</time></trkpt><trkpt lat="45.7489123" lon="7.4466645"><ele>1020.0</ele><time>2026-04-05T15:03:55.937Z</time></trkpt><trkpt lat="45.7488555" lon="7.4466155"><ele>1019.0</ele><time>2026-04-05T15:04:06.941Z</time></trkpt><trkpt lat="45.7488093" lon="7.4465259"><ele>1018.0</ele><time>2026-04-05T15:04:09.942Z</time></trkpt><trkpt lat="45.7487876" lon="7.4464287"><ele>1017.0</ele><time>2026-04-05T15:04:12.938Z</time></trkpt><trkpt lat="45.7487651" lon="7.4463216"><ele>1017.8571428571428</ele><time>2026-04-05T15:04:15.942Z</time></trkpt><trkpt lat="45.74875" lon="7.4461887"><ele>1018.7142857142856</ele><time>2026-04-05T15:04:18.944Z</time></trkpt><trkpt lat="45.7487389" lon="7.4460952"><ele>1019.5714285714286</ele><time>2026-04-05T15:04:20.943Z</time></trkpt><trkpt lat="45.748729" lon="7.4459946"><ele>1020.4285714285713</ele><time>2026-04-05T15:04:22.94Z</time></trkpt><trkpt lat="45.7487077" lon="7.4459059"><ele>1021.2857142857142</ele><time>2026-04-05T15:04:24.942Z</time></trkpt><trkpt lat="45.7486901" lon="7.4458106"><ele>1022.1428571428571</ele><time>2026-04-05T15:04:44.946Z</time></trkpt><trkpt lat="45.7486723" lon="7.4456986"><ele>1023.0</ele><time>2026-04-05T15:04:54.94Z</time></trkpt><trkpt lat="45.7486661" lon="7.4456015"><ele>1023.0</ele><time>2026-04-05T15:04:57.951Z</time></trkpt><trkpt lat="45.7486658" lon="7.445492"><ele>1023.0</ele><time>2026-04-05T15:05:00.943Z</time></trkpt><trkpt lat="45.7486656" lon="7.4453716"><ele>1023.0</ele><time>2026-04-05T15:05:04.938Z</time></trkpt><trkpt lat="45.7486658" lon="7.4452765"><ele>1023.0</ele><time>2026-04-05T15:05:07.951Z</time></trkpt><trkpt lat="45.7486517" lon="7.4451558"><ele>1023.0</ele><time>2026-04-05T15:05:10.942Z</time></trkpt><trkpt lat="45.7486378" lon="7.4450144"><ele>1023.0</ele><time>2026-04-05T15:05:12.949Z</time></trkpt><trkpt lat="45.7486239" lon="7.4449186"><ele>1022.6666666666666</ele><time>2026-04-05T15:05:13.94Z</time></trkpt><trkpt lat="45.7485829" lon="7.4447772"><ele>1022.3333333333333</ele><time>2026-04-05T15:05:15.943Z</time></trkpt><trkpt lat="45.7485314" lon="7.4447195"><ele>1022.0</ele><time>2026-04-05T15:05:17.938Z</time></trkpt><trkpt lat="45.7484649" lon="7.4447807"><ele>1021.6666666666666</ele><time>2026-04-05T15:05:20.937Z</time></trkpt><trkpt lat="45.7484558" lon="7.4448978"><ele>1021.3333333333333</ele><time>2026-04-05T15:05:23.939Z</time></trkpt><trkpt lat="45.7484586" lon="7.4449895"><ele>1021.0</ele><time>2026-04-05T15:05:25.94Z</time></trkpt><trkpt lat="45.7484699" lon="7.4450899"><ele>1015.2857142857142</ele><time>2026-04-05T15:05:27.94Z</time></trkpt><trkpt lat="45.748472" lon="7.445199"><ele>1009.5714285714287</ele><time>2026-04-05T15:05:29.945Z</time></trkpt><trkpt lat="45.7484722" lon="7.4453044"><ele>1003.8571428571429</ele><time>2026-04-05T15:05:31.939Z</time></trkpt><trkpt lat="45.7484695" lon="7.4453956"><ele>998.1428571428571</ele><time>2026-04-05T15:05:33.944Z</time></trkpt><trkpt lat="45.7484668" lon="7.4454877"><ele>992.4285714285713</ele><time>2026-04-05T15:05:35.932Z</time></trkpt><trkpt lat="45.748476" lon="7.4455981"><ele>986.7142857142858</ele><time>2026-04-05T15:05:37.938Z</time></trkpt><trkpt lat="45.7484912" lon="7.4457059"><ele>981.0</ele><time>2026-04-05T15:05:39.937Z</time></trkpt><trkpt lat="45.7485103" lon="7.4457971"><ele>981.0</ele><time>2026-04-05T15:05:41.943Z</time></trkpt><trkpt lat="45.7485283" lon="7.4458857"><ele>981.0</ele><time>2026-04-05T15:05:43.948Z</time></trkpt><trkpt lat="45.7485363" lon="7.4459856"><ele>981.0</ele><time>2026-04-05T15:05:45.947Z</time></trkpt><trkpt lat="45.7485327" lon="7.4460974"><ele>981.0</ele><time>2026-04-05T15:05:47.937Z</time></trkpt><trkpt lat="45.7485246" lon="7.4461901"><ele>981.0</ele><time>2026-04-05T15:05:49.936Z</time></trkpt><trkpt lat="45.7485124" lon="7.4463052"><ele>981.0</ele><time>2026-04-05T15:05:52.94Z</time></trkpt><trkpt lat="45.7485091" lon="7.4464222"><ele>981.0</ele><time>2026-04-05T15:05:55.951Z</time></trkpt><trkpt lat="45.7485128" lon="7.4465144"><ele>981.0</ele><time>2026-04-05T15:05:58.938Z</time></trkpt><trkpt lat="45.7485078" lon="7.4466117"><ele>981.0</ele><time>2026-04-05T15:06:01.941Z</time></trkpt><trkpt lat="45.7485151" lon="7.4467148"><ele>981.0</ele><time>2026-04-05T15:06:04.944Z</time></trkpt><trkpt lat="45.7485187" lon="7.4466059"><ele>981.0</ele><time>2026-04-05T15:06:11.94Z</time></trkpt><trkpt lat="45.7485205" lon="7.4464845"><ele>981.0</ele><time>2026-04-05T15:06:14.945Z</time></trkpt><trkpt lat="45.7485226" lon="7.4463542"><ele>981.0</ele><time>2026-04-05T15:06:17.938Z</time></trkpt><trkpt lat="45.7485341" lon="7.4462226"><ele>981.0</ele><time>2026-04-05T15:06:20.937Z</time></trkpt><trkpt lat="45.7485439" lon="7.446127"><ele>981.0</ele><time>2026-04-05T15:06:22.943Z</time></trkpt><trkpt lat="45.7485506" lon="7.4460337"><ele>981.0</ele><time>2026-04-05T15:06:24.942Z</time></trkpt><trkpt lat="45.7485438" lon="7.4459039"><ele>981.0</ele><time>2026-04-05T15:06:27.941Z</time></trkpt><trkpt lat="45.7485301" lon="7.4458002"><ele>981.0</ele><time>2026-04-05T15:06:29.947Z</time></trkpt><trkpt lat="45.7485126" lon="7.445706"><ele>981.0</ele><time>2026-04-05T15:06:31.946Z</time></trkpt><trkpt lat="45.7484955" lon="7.4456016"><ele>981.0</ele><time>2026-04-05T15:06:33.945Z</time></trkpt><trkpt lat="45.7484817" lon="7.4455116"><ele>980.7142857142858</ele><time>2026-04-05T15:06:35.94Z</time></trkpt><trkpt lat="45.7484826" lon="7.445416"><ele>980.4285714285713</ele><time>2026-04-05T15:06:37.937Z</time></trkpt><trkpt lat="45.7484846" lon="7.4453169"><ele>980.1428571428571</ele><time>2026-04-05T15:06:39.942Z</time></trkpt><trkpt lat="45.7484869" lon="7.4452219"><ele>979.8571428571429</ele><time>2026-04-05T15:06:41.944Z</time></trkpt><trkpt lat="45.7484825" lon="7.4451315"><ele>979.5714285714287</ele><time>2026-04-05T15:06:43.943Z</time></trkpt><trkpt lat="45.7484685" lon="7.444994"><ele>979.2857142857142</ele><time>2026-04-05T15:06:46.937Z</time></trkpt><trkpt lat="45.7484582" lon="7.4448973"><ele>979.0</ele><time>2026-04-05T15:06:48.945Z</time></trkpt><trkpt lat="45.7484415" lon="7.4448022"><ele>979.0</ele><time>2026-04-05T15:06:50.945Z</time></trkpt><trkpt lat="45.748432" lon="7.4446875"><ele>979.0</ele><time>2026-04-05T15:06:53.942Z</time></trkpt><trkpt lat="45.7484327" lon="7.4445669"><ele>979.0</ele><time>2026-04-05T15:06:56.944Z</time></trkpt><trkpt lat="45.7484277" lon="7.4444477"><ele>979.0</ele><time>2026-04-05T15:06:59.944Z</time></trkpt><trkpt lat="45.7484479" lon="7.4443614"><ele>979.0</ele><time>2026-04-05T15:07:03.942Z</time></trkpt><trkpt lat="45.7484415" lon="7.4442711"><ele>979.0</ele><time>2026-04-05T15:07:45.937Z</time></trkpt><trkpt lat="45.7484347" lon="7.4441746"><ele>979.0</ele><time>2026-04-05T15:07:48.938Z</time></trkpt><trkpt lat="45.7484402" lon="7.4440566"><ele>979.1428571428571</ele><time>2026-04-05T15:07:51.935Z</time></trkpt><trkpt lat="45.748437" lon="7.4439659"><ele>979.2857142857143</ele><time>2026-04-05T15:07:53.943Z</time></trkpt><trkpt lat="45.7484414" lon="7.443838"><ele>979.4285714285714</ele><time>2026-04-05T15:07:56.944Z</time></trkpt><trkpt lat="45.7484314" lon="7.4437467"><ele>979.5714285714286</ele><time>2026-04-05T15:07:58.944Z</time></trkpt><trkpt lat="45.7484415" lon="7.4436437"><ele>979.7142857142858</ele><time>2026-04-05T15:08:01.954Z</time></trkpt><trkpt lat="45.7484368" lon="7.4435263"><ele>979.8571428571429</ele><time>2026-04-05T15:08:05.937Z</time></trkpt><trkpt lat="45.748441" lon="7.4434349"><ele>980.0</ele><time>2026-04-05T15:08:27.94Z</time></trkpt><trkpt lat="45.7484503" lon="7.4433172"><ele>980.0000000000001</ele><time>2026-04-05T15:08:30.942Z</time></trkpt><trkpt lat="45.7484433" lon="7.4432267"><ele>980.0</ele><time>2026-04-05T15:08:33.939Z</time></trkpt><trkpt lat="45.7484389" lon="7.4431364"><ele>980.0</ele><time>2026-04-05T15:08:36.937Z</time></trkpt><trkpt lat="45.7484445" lon="7.4430314"><ele>980.0</ele><time>2026-04-05T15:08:39.935Z</time></trkpt><trkpt lat="45.7484539" lon="7.4429209"><ele>980.0000000000001</ele><time>2026-04-05T15:08:42.951Z</time></trkpt><trkpt lat="45.7484529" lon="7.4428008"><ele>980.0</ele><time>2026-04-05T15:08:45.943Z</time></trkpt><trkpt lat="45.7484767" lon="7.4426716"><ele>978.8333333333334</ele><time>2026-04-05T15:08:48.942Z</time></trkpt><trkpt lat="45.7485169" lon="7.4425984"><ele>977.6666666666667</ele><time>2026-04-05T15:08:50.936Z</time></trkpt><trkpt lat="45.7485717" lon="7.4425507"><ele>976.5</ele><time>2026-04-05T15:08:52.939Z</time></trkpt><trkpt lat="45.7486504" lon="7.4424772"><ele>975.3333333333333</ele><time>2026-04-05T15:08:55.942Z</time></trkpt><trkpt lat="45.7486771" lon="7.4423852"><ele>974.1666666666666</ele><time>2026-04-05T15:08:57.942Z</time></trkpt><trkpt lat="45.7486762" lon="7.4422615"><ele>973.0</ele><time>2026-04-05T15:08:59.943Z</time></trkpt><trkpt lat="45.7486738" lon="7.4421517"><ele>977.5714285714286</ele><time>2026-04-05T15:09:01.948Z</time></trkpt><trkpt lat="45.7486762" lon="7.4420534"><ele>982.1428571428571</ele><time>2026-04-05T15:09:03.948Z</time></trkpt><trkpt lat="45.7486822" lon="7.4419607"><ele>986.7142857142858</ele><time>2026-04-05T15:09:05.942Z</time></trkpt><trkpt lat="45.748703" lon="7.4418712"><ele>991.2857142857143</ele><time>2026-04-05T15:09:07.944Z</time></trkpt><trkpt lat="45.7487133" lon="7.4417754"><ele>995.8571428571429</ele><time>2026-04-05T15:09:09.946Z</time></trkpt><trkpt lat="45.7486958" lon="7.4416835"><ele>1000.4285714285716</ele><time>2026-04-05T15:09:11.943Z</time></trkpt><trkpt lat="45.7486861" lon="7.4415893"><ele>1005.0000000000001</ele><time>2026-04-05T15:09:13.943Z</time></trkpt><trkpt lat="45.7486785" lon="7.4414881"><ele>1005.0000000000001</ele><time>2026-04-05T15:09:15.944Z</time></trkpt><trkpt lat="45.7486821" lon="7.4413814"><ele>1005.0</ele><time>2026-04-05T15:09:17.941Z</time></trkpt><trkpt lat="45.7486886" lon="7.4412842"><ele>1005.0000000000001</ele><time>2026-04-05T15:09:19.94Z</time></trkpt><trkpt lat="45.7486998" lon="7.4411765"><ele>1005.0000000000001</ele><time>2026-04-05T15:09:21.937Z</time></trkpt><trkpt lat="45.7487151" lon="7.4410808"><ele>1005.0</ele><time>2026-04-05T15:09:23.938Z</time></trkpt><trkpt lat="45.7487316" lon="7.4409832"><ele>1005.0000000000001</ele><time>2026-04-05T15:09:25.936Z</time></trkpt><trkpt lat="45.7487489" lon="7.4408859"><ele>1005.0000000000001</ele><time>2026-04-05T15:09:27.939Z</time></trkpt><trkpt lat="45.7487683" lon="7.4407847"><ele>1004.7142857142858</ele><time>2026-04-05T15:09:29.945Z</time></trkpt><trkpt lat="45.7487803" lon="7.4406807"><ele>1004.4285714285714</ele><time>2026-04-05T15:09:31.939Z</time></trkpt><trkpt lat="45.7487824" lon="7.4405746"><ele>1004.1428571428571</ele><time>2026-04-05T15:09:33.942Z</time></trkpt><trkpt lat="45.7487772" lon="7.4404767"><ele>1003.8571428571429</ele><time>2026-04-05T15:09:35.94Z</time></trkpt><trkpt lat="45.7488006" lon="7.4403761"><ele>1003.5714285714284</ele><time>2026-04-05T15:09:37.94Z</time></trkpt><trkpt lat="45.7488365" lon="7.4402893"><ele>1003.2857142857142</ele><time>2026-04-05T15:09:39.941Z</time></trkpt><trkpt lat="45.7488768" lon="7.4402117"><ele>1003.0</ele><time>2026-04-05T15:09:41.939Z</time></trkpt><trkpt lat="45.7489132" lon="7.4401376"><ele>1002.1666666666666</ele><time>2026-04-05T15:09:43.939Z</time></trkpt><trkpt lat="45.748935" lon="7.4400389"><ele>1001.3333333333333</ele><time>2026-04-05T15:09:45.942Z</time></trkpt><trkpt lat="45.7489582" lon="7.4399326"><ele>1000.5</ele><time>2026-04-05T15:09:47.937Z</time></trkpt><trkpt lat="45.748974" lon="7.4398147"><ele>999.6666666666667</ele><time>2026-04-05T15:09:49.941Z</time></trkpt><trkpt lat="45.7489911" lon="7.439703"><ele>998.8333333333334</ele><time>2026-04-05T15:09:51.952Z</time></trkpt><trkpt lat="45.7490179" lon="7.4396062"><ele>998.0</ele><time>2026-04-05T15:09:53.944Z</time></trkpt><trkpt lat="45.7490425" lon="7.4395037"><ele>996.6666666666667</ele><time>2026-04-05T15:09:55.943Z</time></trkpt><trkpt lat="45.7490774" lon="7.4393974"><ele>995.3333333333334</ele><time>2026-04-05T15:09:57.945Z</time></trkpt><trkpt lat="45.7491011" lon="7.4392801"><ele>994.0</ele><time>2026-04-05T15:09:59.944Z</time></trkpt><trkpt lat="45.7491197" lon="7.4391624"><ele>992.6666666666667</ele><time>2026-04-05T15:10:01.944Z</time></trkpt><trkpt lat="45.7491489" lon="7.4390575"><ele>991.3333333333334</ele><time>2026-04-05T15:10:03.941Z</time></trkpt><trkpt lat="45.7491918" lon="7.4389671"><ele>990.0</ele><time>2026-04-05T15:10:05.94Z</time></trkpt><trkpt lat="45.7492419" lon="7.4388663"><ele>987.6666666666666</ele><time>2026-04-05T15:10:07.945Z</time></trkpt><trkpt lat="45.7492756" lon="7.4387583"><ele>985.3333333333333</ele><time>2026-04-05T15:10:09.935Z</time></trkpt><trkpt lat="45.7493144" lon="7.4386375"><ele>983.0</ele><time>2026-04-05T15:10:11.936Z</time></trkpt><trkpt lat="45.749356" lon="7.4385392"><ele>980.6666666666666</ele><time>2026-04-05T15:10:13.941Z</time></trkpt><trkpt lat="45.7493949" lon="7.4384351"><ele>978.3333333333333</ele><time>2026-04-05T15:10:15.944Z</time></trkpt><trkpt lat="45.7494449" lon="7.4383354"><ele>976.0</ele><time>2026-04-05T15:10:17.944Z</time></trkpt><trkpt lat="45.7494789" lon="7.4382434"><ele>978.6666666666666</ele><time>2026-04-05T15:10:19.946Z</time></trkpt><trkpt lat="45.7495285" lon="7.4381395"><ele>981.3333333333333</ele><time>2026-04-05T15:10:22.946Z</time></trkpt><trkpt lat="45.7495685" lon="7.4380681"><ele>984.0</ele><time>2026-04-05T15:10:25.947Z</time></trkpt><trkpt lat="45.7496089" lon="7.4379957"><ele>986.6666666666667</ele><time>2026-04-05T15:10:28.945Z</time></trkpt><trkpt lat="45.749656" lon="7.4379242"><ele>989.3333333333334</ele><time>2026-04-05T15:10:30.94Z</time></trkpt><trkpt lat="45.749702" lon="7.437795"><ele>992.0</ele><time>2026-04-05T15:10:32.94Z</time></trkpt><trkpt lat="45.7497765" lon="7.4376796"><ele>992.0</ele><time>2026-04-05T15:10:34.943Z</time></trkpt><trkpt lat="45.7498174" lon="7.4376102"><ele>992.0</ele><time>2026-04-05T15:10:35.943Z</time></trkpt><trkpt lat="45.7498799" lon="7.4374643"><ele>992.0</ele><time>2026-04-05T15:10:37.947Z</time></trkpt><trkpt lat="45.7499123" lon="7.4373224"><ele>992.0</ele><time>2026-04-05T15:10:39.94Z</time></trkpt><trkpt lat="45.7499553" lon="7.4371955"><ele>992.0</ele><time>2026-04-05T15:10:41.941Z</time></trkpt><trkpt lat="45.7499771" lon="7.4370981"><ele>990.0000000000001</ele><time>2026-04-05T15:10:43.938Z</time></trkpt><trkpt lat="45.750009" lon="7.4369795"><ele>988.0</ele><time>2026-04-05T15:10:46.936Z</time></trkpt><trkpt lat="45.7500406" lon="7.4368817"><ele>986.0</ele><time>2026-04-05T15:10:48.94Z</time></trkpt><trkpt lat="45.7500738" lon="7.4367964"><ele>984.0</ele><time>2026-04-05T15:10:50.935Z</time></trkpt><trkpt lat="45.7501512" lon="7.4367179"><ele>982.0000000000001</ele><time>2026-04-05T15:10:53.944Z</time></trkpt><trkpt lat="45.7502238" lon="7.4366891"><ele>980.0</ele><time>2026-04-05T15:10:57.047Z</time></trkpt><trkpt lat="45.7502676" lon="7.4366177"><ele>983.3333333333334</ele><time>2026-04-05T15:10:58.979Z</time></trkpt><trkpt lat="45.750278" lon="7.4365005"><ele>986.6666666666667</ele><time>2026-04-05T15:11:01.963Z</time></trkpt><trkpt lat="45.75028" lon="7.4364061"><ele>990.0</ele><time>2026-04-05T15:11:05.037Z</time></trkpt><trkpt lat="45.7503104" lon="7.4363257"><ele>993.3333333333333</ele><time>2026-04-05T15:11:06.96Z</time></trkpt><trkpt lat="45.7503512" lon="7.4362568"><ele>996.6666666666666</ele><time>2026-04-05T15:11:08.963Z</time></trkpt><trkpt lat="45.7504113" lon="7.4361577"><ele>1000.0</ele><time>2026-04-05T15:11:10.965Z</time></trkpt><trkpt lat="45.750469" lon="7.4360227"><ele>999.9999999999999</ele><time>2026-04-05T15:11:12.959Z</time></trkpt><trkpt lat="45.7505278" lon="7.4359022"><ele>1000.0</ele><time>2026-04-05T15:11:14.965Z</time></trkpt><trkpt lat="45.7505804" lon="7.4358285"><ele>1000.0</ele><time>2026-04-05T15:11:16.968Z</time></trkpt><trkpt lat="45.7506246" lon="7.4357482"><ele>1000.0</ele><time>2026-04-05T15:11:18.963Z</time></trkpt><trkpt lat="45.7506783" lon="7.4356658"><ele>999.9999999999999</ele><time>2026-04-05T15:11:20.965Z</time></trkpt><trkpt lat="45.7507325" lon="7.4355551"><ele>1000.0</ele><time>2026-04-05T15:11:22.968Z</time></trkpt><trkpt lat="45.7507861" lon="7.4354387"><ele>998.4</ele><time>2026-04-05T15:11:24.964Z</time></trkpt><trkpt lat="45.7508119" lon="7.4353251"><ele>996.8</ele><time>2026-04-05T15:11:26.963Z</time></trkpt><trkpt lat="45.7508104" lon="7.4352303"><ele>995.2</ele><time>2026-04-05T15:11:27.962Z</time></trkpt><trkpt lat="45.750794" lon="7.4350571"><ele>993.6</ele><time>2026-04-05T15:11:29.966Z</time></trkpt><trkpt lat="45.7507525" lon="7.4348877"><ele>992.0</ele><time>2026-04-05T15:11:31.963Z</time></trkpt><trkpt lat="45.7507252" lon="7.4348035"><ele>990.2</ele><time>2026-04-05T15:11:32.952Z</time></trkpt><trkpt lat="45.750696" lon="7.4346286"><ele>988.4000000000001</ele><time>2026-04-05T15:11:34.964Z</time></trkpt><trkpt lat="45.7507081" lon="7.4344729"><ele>986.5999999999999</ele><time>2026-04-05T15:11:36.967Z</time></trkpt><trkpt lat="45.7507384" lon="7.4343242"><ele>984.8</ele><time>2026-04-05T15:11:38.964Z</time></trkpt><trkpt lat="45.7507475" lon="7.4341837"><ele>983.0</ele><time>2026-04-05T15:11:40.966Z</time></trkpt><trkpt lat="45.7507563" lon="7.4340391"><ele>983.0</ele><time>2026-04-05T15:11:42.973Z</time></trkpt><trkpt lat="45.750779" lon="7.433904"><ele>983.0</ele><time>2026-04-05T15:11:44.962Z</time></trkpt><trkpt lat="45.7508051" lon="7.433785"><ele>983.0</ele><time>2026-04-05T15:11:46.964Z</time></trkpt><trkpt lat="45.7508341" lon="7.4336579"><ele>983.0</ele><time>2026-04-05T15:11:48.968Z</time></trkpt><trkpt lat="45.7508664" lon="7.4335266"><ele>983.0</ele><time>2026-04-05T15:11:50.955Z</time></trkpt><trkpt lat="45.7509013" lon="7.4334149"><ele>980.5999999999999</ele><time>2026-04-05T15:11:52.962Z</time></trkpt><trkpt lat="45.7509549" lon="7.4333083"><ele>978.1999999999999</ele><time>2026-04-05T15:11:54.965Z</time></trkpt><trkpt lat="45.7510063" lon="7.4332083"><ele>975.8</ele><time>2026-04-05T15:11:56.97Z</time></trkpt><trkpt lat="45.7510678" lon="7.4331112"><ele>973.4</ele><time>2026-04-05T15:11:58.966Z</time></trkpt><trkpt lat="45.7511241" lon="7.433009"><ele>971.0</ele><time>2026-04-05T15:12:00.965Z</time></trkpt><trkpt lat="45.7511772" lon="7.4329002"><ele>977.1999999999999</ele><time>2026-04-05T15:12:02.965Z</time></trkpt><trkpt lat="45.7512189" lon="7.4327811"><ele>983.3999999999999</ele><time>2026-04-05T15:12:04.961Z</time></trkpt><trkpt lat="45.7512665" lon="7.432672"><ele>989.6</ele><time>2026-04-05T15:12:06.954Z</time></trkpt><trkpt lat="45.7513043" lon="7.4325429"><ele>995.8</ele><time>2026-04-05T15:12:08.966Z</time></trkpt><trkpt lat="45.7513048" lon="7.4323855"><ele>1002.0</ele><time>2026-04-05T15:12:10.965Z</time></trkpt><trkpt lat="45.7512933" lon="7.4322314"><ele>1000.0</ele><time>2026-04-05T15:12:12.962Z</time></trkpt><trkpt lat="45.7512945" lon="7.4320872"><ele>998.0</ele><time>2026-04-05T15:12:15.034Z</time></trkpt><trkpt lat="45.7512988" lon="7.431938"><ele>996.0</ele><time>2026-04-05T15:12:16.955Z</time></trkpt><trkpt lat="45.7513015" lon="7.4317973"><ele>994.0</ele><time>2026-04-05T15:12:18.951Z</time></trkpt><trkpt lat="45.7513055" lon="7.4316776"><ele>992.0</ele><time>2026-04-05T15:12:20.97Z</time></trkpt><trkpt lat="45.751316" lon="7.4315839"><ele>992.0000000000001</ele><time>2026-04-05T15:12:22.957Z</time></trkpt><trkpt lat="45.7513528" lon="7.4315045"><ele>992.0</ele><time>2026-04-05T15:12:24.958Z</time></trkpt><trkpt lat="45.7513951" lon="7.4314373"><ele>992.0</ele><time>2026-04-05T15:12:26.948Z</time></trkpt><trkpt lat="45.7514168" lon="7.4313148"><ele>992.0</ele><time>2026-04-05T15:12:29.963Z</time></trkpt><trkpt lat="45.751415" lon="7.4312004"><ele>992.0000000000001</ele><time>2026-04-05T15:12:31.95Z</time></trkpt><trkpt lat="45.7514141" lon="7.431085"><ele>992.0</ele><time>2026-04-05T15:12:33.95Z</time></trkpt><trkpt lat="45.7514385" lon="7.4309654"><ele>989.0</ele><time>2026-04-05T15:12:35.954Z</time></trkpt><trkpt lat="45.751505" lon="7.4308276"><ele>986.0</ele><time>2026-04-05T15:12:37.977Z</time></trkpt><trkpt lat="45.7515537" lon="7.4307189"><ele>983.0</ele><time>2026-04-05T15:12:39.984Z</time></trkpt><trkpt lat="45.7515828" lon="7.4305914"><ele>980.0</ele><time>2026-04-05T15:12:41.945Z</time></trkpt><trkpt lat="45.7515967" lon="7.4304581"><ele>977.0</ele><time>2026-04-05T15:12:43.955Z</time></trkpt><trkpt lat="45.7516265" lon="7.430327"><ele>975.8333333333334</ele><time>2026-04-05T15:12:45.952Z</time></trkpt><trkpt lat="45.7516613" lon="7.4301922"><ele>974.6666666666667</ele><time>2026-04-05T15:12:47.946Z</time></trkpt><trkpt lat="45.7516952" lon="7.4300931"><ele>973.5</ele><time>2026-04-05T15:12:49.942Z</time></trkpt><trkpt lat="45.7516996" lon="7.4299941"><ele>972.3333333333333</ele><time>2026-04-05T15:12:51.962Z</time></trkpt><trkpt lat="45.7516804" lon="7.4298817"><ele>971.1666666666666</ele><time>2026-04-05T15:12:53.955Z</time></trkpt><trkpt lat="45.7516585" lon="7.4297749"><ele>970.0</ele><time>2026-04-05T15:12:55.95Z</time></trkpt><trkpt lat="45.7516444" lon="7.4296672"><ele>969.9999999999999</ele><time>2026-04-05T15:12:57.953Z</time></trkpt><trkpt lat="45.7516109" lon="7.4295602"><ele>970.0</ele><time>2026-04-05T15:13:00.964Z</time></trkpt><trkpt lat="45.7515695" lon="7.4296402"><ele>970.0</ele><time>2026-04-05T15:13:06.013Z</time></trkpt><trkpt lat="45.7515548" lon="7.4297439"><ele>970.0</ele><time>2026-04-05T15:13:07.951Z</time></trkpt><trkpt lat="45.7515649" lon="7.4298812"><ele>969.9999999999999</ele><time>2026-04-05T15:13:09.951Z</time></trkpt><trkpt lat="45.7515713" lon="7.4300256"><ele>970.0</ele><time>2026-04-05T15:13:12.061Z</time></trkpt><trkpt lat="45.7515341" lon="7.4301511"><ele>969.9999999999999</ele><time>2026-04-05T15:13:13.952Z</time></trkpt><trkpt lat="45.7514759" lon="7.4302264"><ele>970.0</ele><time>2026-04-05T15:13:15.952Z</time></trkpt><trkpt lat="45.751414" lon="7.4303024"><ele>970.0</ele><time>2026-04-05T15:13:17.952Z</time></trkpt><trkpt lat="45.7513411" lon="7.4303646"><ele>970.0</ele><time>2026-04-05T15:13:19.986Z</time></trkpt><trkpt lat="45.7512662" lon="7.4304302"><ele>969.9999999999999</ele><time>2026-04-05T15:13:21.953Z</time></trkpt><trkpt lat="45.7511827" lon="7.4304677"><ele>970.0</ele><time>2026-04-05T15:13:23.953Z</time></trkpt><trkpt lat="45.7510967" lon="7.4304818"><ele>971.1666666666666</ele><time>2026-04-05T15:13:26.955Z</time></trkpt><trkpt lat="45.751047" lon="7.4305432"><ele>972.3333333333333</ele><time>2026-04-05T15:13:30.94Z</time></trkpt><trkpt lat="45.7510483" lon="7.4306463"><ele>973.5</ele><time>2026-04-05T15:13:32.942Z</time></trkpt><trkpt lat="45.7510161" lon="7.4307801"><ele>974.6666666666667</ele><time>2026-04-05T15:13:34.941Z</time></trkpt><trkpt lat="45.7509656" lon="7.4308969"><ele>975.8333333333334</ele><time>2026-04-05T15:13:37.032Z</time></trkpt><trkpt lat="45.7509418" lon="7.4310285"><ele>977.0</ele><time>2026-04-05T15:13:38.938Z</time></trkpt><trkpt lat="45.750897" lon="7.4311822"><ele>972.3333333333334</ele><time>2026-04-05T15:13:40.943Z</time></trkpt><trkpt lat="45.7508374" lon="7.4313357"><ele>967.6666666666667</ele><time>2026-04-05T15:13:42.938Z</time></trkpt><trkpt lat="45.7507905" lon="7.431396"><ele>963.0</ele><time>2026-04-05T15:13:43.937Z</time></trkpt><trkpt lat="45.7507262" lon="7.4314425"><ele>958.3333333333333</ele><time>2026-04-05T15:13:45.055Z</time></trkpt><trkpt lat="45.750654" lon="7.4314746"><ele>953.6666666666666</ele><time>2026-04-05T15:13:46.033Z</time></trkpt><trkpt lat="45.7505475" lon="7.4315389"><ele>949.0</ele><time>2026-04-05T15:13:47.948Z</time></trkpt><trkpt lat="45.7504667" lon="7.4316598"><ele>948.9999999999999</ele><time>2026-04-05T15:13:50.053Z</time></trkpt><trkpt lat="45.7503953" lon="7.4317963"><ele>949.0</ele><time>2026-04-05T15:13:52.014Z</time></trkpt><trkpt lat="45.750356" lon="7.4318683"><ele>949.0</ele><time>2026-04-05T15:13:52.952Z</time></trkpt><trkpt lat="45.7503163" lon="7.431944"><ele>949.0</ele><time>2026-04-05T15:13:53.96Z</time></trkpt><trkpt lat="45.7502717" lon="7.4320232"><ele>948.9999999999999</ele><time>2026-04-05T15:13:54.952Z</time></trkpt><trkpt lat="45.7502274" lon="7.4321003"><ele>949.0</ele><time>2026-04-05T15:13:55.957Z</time></trkpt><trkpt lat="45.7501915" lon="7.4321773"><ele>944.4000000000001</ele><time>2026-04-05T15:13:56.952Z</time></trkpt><trkpt lat="45.7501573" lon="7.4322579"><ele>939.8000000000001</ele><time>2026-04-05T15:13:57.949Z</time></trkpt><trkpt lat="45.7501358" lon="7.4323438"><ele>935.1999999999999</ele><time>2026-04-05T15:13:58.952Z</time></trkpt><trkpt lat="45.7501137" lon="7.4325174"><ele>930.5999999999999</ele><time>2026-04-05T15:14:00.955Z</time></trkpt><trkpt lat="45.7501003" lon="7.4326724"><ele>926.0</ele><time>2026-04-05T15:14:02.953Z</time></trkpt><trkpt lat="45.7500854" lon="7.4328152"><ele>926.0</ele><time>2026-04-05T15:14:04.956Z</time></trkpt><trkpt lat="45.7500528" lon="7.4329072"><ele>925.9999999999999</ele><time>2026-04-05T15:14:07.034Z</time></trkpt><trkpt lat="45.7499847" lon="7.432852"><ele>925.9999999999999</ele><time>2026-04-05T15:14:08.962Z</time></trkpt><trkpt lat="45.7500006" lon="7.4327241"><ele>926.0</ele><time>2026-04-05T15:14:11.023Z</time></trkpt><trkpt lat="45.7500192" lon="7.432572"><ele>926.0</ele><time>2026-04-05T15:14:12.957Z</time></trkpt><trkpt lat="45.7500422" lon="7.4324179"><ele>926.0000000000001</ele><time>2026-04-05T15:14:14.968Z</time></trkpt><trkpt lat="45.750078" lon="7.4322509"><ele>926.0</ele><time>2026-04-05T15:14:16.965Z</time></trkpt><trkpt lat="45.7500943" lon="7.4321611"><ele>926.0</ele><time>2026-04-05T15:14:17.96Z</time></trkpt><trkpt lat="45.7501152" lon="7.4320535"><ele>926.0</ele><time>2026-04-05T15:14:18.964Z</time></trkpt><trkpt lat="45.7501404" lon="7.4319536"><ele>926.0000000000001</ele><time>2026-04-05T15:14:19.959Z</time></trkpt><trkpt lat="45.7501688" lon="7.4318511"><ele>926.0</ele><time>2026-04-05T15:14:21.031Z</time></trkpt><trkpt lat="45.7501814" lon="7.4317593"><ele>924.0000000000001</ele><time>2026-04-05T15:14:21.957Z</time></trkpt><trkpt lat="45.7501899" lon="7.4316209"><ele>922.0</ele><time>2026-04-05T15:14:23.963Z</time></trkpt><trkpt lat="45.7502141" lon="7.431496"><ele>920.0</ele><time>2026-04-05T15:14:26.967Z</time></trkpt><trkpt lat="45.7502421" lon="7.4313931"><ele>918.0</ele><time>2026-04-05T15:14:28.963Z</time></trkpt><trkpt lat="45.750256" lon="7.4312576"><ele>916.0000000000001</ele><time>2026-04-05T15:14:32.044Z</time></trkpt><trkpt lat="45.7502798" lon="7.4311616"><ele>914.0</ele><time>2026-04-05T15:14:34Z</time></trkpt><trkpt lat="45.7503059" lon="7.4310575"><ele>917.4285714285716</ele><time>2026-04-05T15:14:36.998Z</time></trkpt><trkpt lat="45.7503235" lon="7.4309605"><ele>920.8571428571429</ele><time>2026-04-05T15:14:40.033Z</time></trkpt><trkpt lat="45.7503505" lon="7.430866"><ele>924.2857142857143</ele><time>2026-04-05T15:14:42.968Z</time></trkpt><trkpt lat="45.7503875" lon="7.4307805"><ele>927.7142857142858</ele><time>2026-04-05T15:14:46.962Z</time></trkpt><trkpt lat="45.7504002" lon="7.4306795"><ele>931.1428571428571</ele><time>2026-04-05T15:14:49.947Z</time></trkpt><trkpt lat="45.7504011" lon="7.4305834"><ele>934.5714285714286</ele><time>2026-04-05T15:14:51.961Z</time></trkpt><trkpt lat="45.7504267" lon="7.4304724"><ele>938.0</ele><time>2026-04-05T15:14:53.962Z</time></trkpt><trkpt lat="45.7504388" lon="7.4303578"><ele>938.0</ele><time>2026-04-05T15:14:55.957Z</time></trkpt><trkpt lat="45.7504585" lon="7.4304519"><ele>938.0</ele><time>2026-04-05T15:15:01.033Z</time></trkpt><trkpt lat="45.7504906" lon="7.4305375"><ele>938.0</ele><time>2026-04-05T15:15:04.95Z</time></trkpt><trkpt lat="45.7504561" lon="7.4304572"><ele>938.0</ele><time>2026-04-05T15:15:39.944Z</time></trkpt><trkpt lat="45.7504068" lon="7.4304008"><ele>938.0</ele><time>2026-04-05T15:15:43.949Z</time></trkpt><trkpt lat="45.7503385" lon="7.4303465"><ele>938.0</ele><time>2026-04-05T15:15:48.958Z</time></trkpt><trkpt lat="45.7503754" lon="7.4302681"><ele>938.0</ele><time>2026-04-05T15:17:09.95Z</time></trkpt><trkpt lat="45.7504159" lon="7.430191"><ele>938.0</ele><time>2026-04-05T15:17:12.941Z</time></trkpt><trkpt lat="45.7504579" lon="7.430094"><ele>938.0</ele><time>2026-04-05T15:17:15.939Z</time></trkpt><trkpt lat="45.7505215" lon="7.4300435"><ele>938.0</ele><time>2026-04-05T15:17:21.938Z</time></trkpt><trkpt lat="45.7505807" lon="7.4300889"><ele>938.0</ele><time>2026-04-05T15:17:29.939Z</time></trkpt></trkseg></trk></gpx>